<gpx xmlns="http://www.topografix.com/GPX/1/1" xmlns:xsi="http://www.w3.org/2001/XMLSchema-instance" version="1.1" xsi:schemaLocation="http://www.topografix.com/GPX/1/1 http://www.topografix.com/GPX/1/1/gpx.xsd" creator="MotionXGPSFull 24.2 Build 5063R64">
<trk>
<name>Mystery Trial south</name>
<desc>17 Jan 2018 11:58 am</desc>
<trkseg>
<trkpt lat="-27.3452517" lon="152.9646570">
<ele>23.986</ele>
<time>2018-01-17T01:58:57.344Z</time>
</trkpt>
</trkseg>
<trkseg>
<trkpt lat="-26.6271271" lon="152.8619069">
<ele>390.298</ele>
<time>2018-01-17T05:11:49.000Z</time>
</trkpt>
<trkpt lat="-26.6271271" lon="152.8619069">
<ele>390.117</ele>
<time>2018-01-17T05:11:52.000Z</time>
</trkpt>
<trkpt lat="-26.6271271" lon="152.8619069">
<ele>390.017</ele>
<time>2018-01-17T05:20:51.889Z</time>
</trkpt>
<trkpt lat="-26.6270376" lon="152.8620518">
<ele>389.932</ele>
<time>2018-01-17T05:21:00.439Z</time>
</trkpt>
<trkpt lat="-26.6269213" lon="152.8622444">
<ele>389.838</ele>
<time>2018-01-17T05:21:02.986Z</time>
</trkpt>
<trkpt lat="-26.6267943" lon="152.8624680">
<ele>389.646</ele>
<time>2018-01-17T05:21:05.184Z</time>
</trkpt>
<trkpt lat="-26.6266496" lon="152.8626938">
<ele>389.218</ele>
<time>2018-01-17T05:21:07.216Z</time>
</trkpt>
<trkpt lat="-26.6264838" lon="152.8629328">
<ele>388.663</ele>
<time>2018-01-17T05:21:09.268Z</time>
</trkpt>
<trkpt lat="-26.6263029" lon="152.8631506">
<ele>388.277</ele>
<time>2018-01-17T05:21:11.231Z</time>
</trkpt>
<trkpt lat="-26.6261329" lon="152.8633781">
<ele>388.287</ele>
<time>2018-01-17T05:21:13.165Z</time>
</trkpt>
<trkpt lat="-26.6259521" lon="152.8635955">
<ele>388.714</ele>
<time>2018-01-17T05:21:15.091Z</time>
</trkpt>
<trkpt lat="-26.6257691" lon="152.8638103">
<ele>389.312</ele>
<time>2018-01-17T05:21:17.090Z</time>
</trkpt>
<trkpt lat="-26.6255994" lon="152.8640102">
<ele>389.793</ele>
<time>2018-01-17T05:21:19.032Z</time>
</trkpt>
<trkpt lat="-26.6254317" lon="152.8642090">
<ele>390.190</ele>
<time>2018-01-17T05:21:20.966Z</time>
</trkpt>
<trkpt lat="-26.6252644" lon="152.8644081">
<ele>390.774</ele>
<time>2018-01-17T05:21:22.882Z</time>
</trkpt>
<trkpt lat="-26.6250940" lon="152.8646082">
<ele>391.532</ele>
<time>2018-01-17T05:21:24.811Z</time>
</trkpt>
<trkpt lat="-26.6249258" lon="152.8648090">
<ele>392.004</ele>
<time>2018-01-17T05:21:26.741Z</time>
</trkpt>
<trkpt lat="-26.6247615" lon="152.8650076">
<ele>391.763</ele>
<time>2018-01-17T05:21:28.657Z</time>
</trkpt>
<trkpt lat="-26.6245956" lon="152.8652006">
<ele>390.895</ele>
<time>2018-01-17T05:21:30.586Z</time>
</trkpt>
<trkpt lat="-26.6244417" lon="152.8653921">
<ele>389.946</ele>
<time>2018-01-17T05:21:32.495Z</time>
</trkpt>
<trkpt lat="-26.6243066" lon="152.8655918">
<ele>389.409</ele>
<time>2018-01-17T05:21:34.436Z</time>
</trkpt>
<trkpt lat="-26.6241923" lon="152.8657791">
<ele>389.404</ele>
<time>2018-01-17T05:21:36.385Z</time>
</trkpt>
<trkpt lat="-26.6241069" lon="152.8659353">
<ele>389.732</ele>
<time>2018-01-17T05:21:38.240Z</time>
</trkpt>
<trkpt lat="-26.6240403" lon="152.8660602">
<ele>389.916</ele>
<time>2018-01-17T05:21:40.007Z</time>
</trkpt>
<trkpt lat="-26.6239945" lon="152.8661629">
<ele>389.479</ele>
<time>2018-01-17T05:21:41.837Z</time>
</trkpt>
<trkpt lat="-26.6239516" lon="152.8662557">
<ele>388.382</ele>
<time>2018-01-17T05:21:44.004Z</time>
</trkpt>
<trkpt lat="-26.6239516" lon="152.8662557">
<ele>387.136</ele>
<time>2018-01-17T05:21:48.004Z</time>
</trkpt>
<trkpt lat="-26.6239516" lon="152.8662557">
<ele>386.383</ele>
<time>2018-01-17T05:21:51.859Z</time>
</trkpt>
<trkpt lat="-26.6241302" lon="152.8663382">
<ele>386.277</ele>
<time>2018-01-17T05:21:56.270Z</time>
</trkpt>
<trkpt lat="-26.6243129" lon="152.8663601">
<ele>386.059</ele>
<time>2018-01-17T05:21:58.425Z</time>
</trkpt>
<trkpt lat="-26.6245085" lon="152.8663791">
<ele>385.171</ele>
<time>2018-01-17T05:22:00.422Z</time>
</trkpt>
<trkpt lat="-26.6247236" lon="152.8664013">
<ele>384.309</ele>
<time>2018-01-17T05:22:02.393Z</time>
</trkpt>
<trkpt lat="-26.6249638" lon="152.8664310">
<ele>384.231</ele>
<time>2018-01-17T05:22:04.431Z</time>
</trkpt>
<trkpt lat="-26.6252124" lon="152.8664463">
<ele>385.287</ele>
<time>2018-01-17T05:22:06.404Z</time>
</trkpt>
<trkpt lat="-26.6254764" lon="152.8664264">
<ele>387.544</ele>
<time>2018-01-17T05:22:08.392Z</time>
</trkpt>
<trkpt lat="-26.6257470" lon="152.8664321">
<ele>390.157</ele>
<time>2018-01-17T05:22:10.365Z</time>
</trkpt>
<trkpt lat="-26.6260136" lon="152.8664869">
<ele>392.262</ele>
<time>2018-01-17T05:22:12.311Z</time>
</trkpt>
<trkpt lat="-26.6262815" lon="152.8665819">
<ele>393.788</ele>
<time>2018-01-17T05:22:14.299Z</time>
</trkpt>
<trkpt lat="-26.6265527" lon="152.8666802">
<ele>394.706</ele>
<time>2018-01-17T05:22:16.291Z</time>
</trkpt>
<trkpt lat="-26.6268253" lon="152.8667703">
<ele>394.975</ele>
<time>2018-01-17T05:22:18.268Z</time>
</trkpt>
<trkpt lat="-26.6271010" lon="152.8668524">
<ele>394.790</ele>
<time>2018-01-17T05:22:20.269Z</time>
</trkpt>
<trkpt lat="-26.6273732" lon="152.8669345">
<ele>394.604</ele>
<time>2018-01-17T05:22:22.292Z</time>
</trkpt>
<trkpt lat="-26.6276285" lon="152.8670258">
<ele>395.006</ele>
<time>2018-01-17T05:22:24.217Z</time>
</trkpt>
<trkpt lat="-26.6278766" lon="152.8671880">
<ele>396.091</ele>
<time>2018-01-17T05:22:26.205Z</time>
</trkpt>
<trkpt lat="-26.6281210" lon="152.8673896">
<ele>397.217</ele>
<time>2018-01-17T05:22:28.220Z</time>
</trkpt>
<trkpt lat="-26.6283828" lon="152.8676248">
<ele>397.563</ele>
<time>2018-01-17T05:22:30.405Z</time>
</trkpt>
<trkpt lat="-26.6286683" lon="152.8678137">
<ele>396.783</ele>
<time>2018-01-17T05:22:32.541Z</time>
</trkpt>
<trkpt lat="-26.6289863" lon="152.8678982">
<ele>395.019</ele>
<time>2018-01-17T05:22:34.639Z</time>
</trkpt>
<trkpt lat="-26.6293127" lon="152.8678952">
<ele>392.547</ele>
<time>2018-01-17T05:22:36.732Z</time>
</trkpt>
<trkpt lat="-26.6296305" lon="152.8678636">
<ele>389.754</ele>
<time>2018-01-17T05:22:38.779Z</time>
</trkpt>
<trkpt lat="-26.6299437" lon="152.8678328">
<ele>387.274</ele>
<time>2018-01-17T05:22:40.805Z</time>
</trkpt>
<trkpt lat="-26.6302435" lon="152.8677862">
<ele>385.257</ele>
<time>2018-01-17T05:22:42.774Z</time>
</trkpt>
<trkpt lat="-26.6305429" lon="152.8677527">
<ele>383.557</ele>
<time>2018-01-17T05:22:44.743Z</time>
</trkpt>
<trkpt lat="-26.6308287" lon="152.8676849">
<ele>382.432</ele>
<time>2018-01-17T05:22:46.658Z</time>
</trkpt>
<trkpt lat="-26.6311287" lon="152.8676495">
<ele>382.077</ele>
<time>2018-01-17T05:22:48.642Z</time>
</trkpt>
<trkpt lat="-26.6314093" lon="152.8675855">
<ele>383.640</ele>
<time>2018-01-17T05:22:50.542Z</time>
</trkpt>
<trkpt lat="-26.6317196" lon="152.8675767">
<ele>387.887</ele>
<time>2018-01-17T05:22:52.608Z</time>
</trkpt>
<trkpt lat="-26.6320215" lon="152.8676389">
<ele>392.864</ele>
<time>2018-01-17T05:22:54.636Z</time>
</trkpt>
<trkpt lat="-26.6322899" lon="152.8678113">
<ele>396.239</ele>
<time>2018-01-17T05:22:56.670Z</time>
</trkpt>
<trkpt lat="-26.6325167" lon="152.8680566">
<ele>397.694</ele>
<time>2018-01-17T05:22:58.749Z</time>
</trkpt>
<trkpt lat="-26.6326766" lon="152.8683636">
<ele>397.420</ele>
<time>2018-01-17T05:23:00.836Z</time>
</trkpt>
<trkpt lat="-26.6327838" lon="152.8686719">
<ele>395.859</ele>
<time>2018-01-17T05:23:02.761Z</time>
</trkpt>
<trkpt lat="-26.6328985" lon="152.8689786">
<ele>394.032</ele>
<time>2018-01-17T05:23:04.651Z</time>
</trkpt>
<trkpt lat="-26.6329987" lon="152.8693239">
<ele>393.153</ele>
<time>2018-01-17T05:23:06.633Z</time>
</trkpt>
<trkpt lat="-26.6331432" lon="152.8696990">
<ele>393.422</ele>
<time>2018-01-17T05:23:08.713Z</time>
</trkpt>
<trkpt lat="-26.6333661" lon="152.8700899">
<ele>393.987</ele>
<time>2018-01-17T05:23:10.931Z</time>
</trkpt>
<trkpt lat="-26.6336518" lon="152.8703667">
<ele>394.127</ele>
<time>2018-01-17T05:23:12.945Z</time>
</trkpt>
<trkpt lat="-26.6340157" lon="152.8704995">
<ele>393.933</ele>
<time>2018-01-17T05:23:14.985Z</time>
</trkpt>
<trkpt lat="-26.6344047" lon="152.8705033">
<ele>393.694</ele>
<time>2018-01-17T05:23:16.986Z</time>
</trkpt>
<trkpt lat="-26.6348246" lon="152.8704356">
<ele>393.400</ele>
<time>2018-01-17T05:23:19.081Z</time>
</trkpt>
<trkpt lat="-26.6352273" lon="152.8702696">
<ele>392.810</ele>
<time>2018-01-17T05:23:21.210Z</time>
</trkpt>
<trkpt lat="-26.6356052" lon="152.8701242">
<ele>391.709</ele>
<time>2018-01-17T05:23:23.282Z</time>
</trkpt>
<trkpt lat="-26.6359618" lon="152.8700211">
<ele>390.108</ele>
<time>2018-01-17T05:23:25.352Z</time>
</trkpt>
<trkpt lat="-26.6362628" lon="152.8699083">
<ele>388.181</ele>
<time>2018-01-17T05:23:27.310Z</time>
</trkpt>
<trkpt lat="-26.6365497" lon="152.8697954">
<ele>386.183</ele>
<time>2018-01-17T05:23:29.292Z</time>
</trkpt>
<trkpt lat="-26.6368327" lon="152.8696398">
<ele>384.459</ele>
<time>2018-01-17T05:23:31.380Z</time>
</trkpt>
<trkpt lat="-26.6371107" lon="152.8695288">
<ele>383.296</ele>
<time>2018-01-17T05:23:33.320Z</time>
</trkpt>
<trkpt lat="-26.6374001" lon="152.8694565">
<ele>382.631</ele>
<time>2018-01-17T05:23:35.242Z</time>
</trkpt>
<trkpt lat="-26.6377027" lon="152.8694835">
<ele>382.239</ele>
<time>2018-01-17T05:23:37.193Z</time>
</trkpt>
<trkpt lat="-26.6380019" lon="152.8695320">
<ele>382.056</ele>
<time>2018-01-17T05:23:39.128Z</time>
</trkpt>
<trkpt lat="-26.6382894" lon="152.8696593">
<ele>382.111</ele>
<time>2018-01-17T05:23:41.103Z</time>
</trkpt>
<trkpt lat="-26.6385875" lon="152.8697980">
<ele>382.374</ele>
<time>2018-01-17T05:23:43.163Z</time>
</trkpt>
<trkpt lat="-26.6388776" lon="152.8699812">
<ele>382.767</ele>
<time>2018-01-17T05:23:45.277Z</time>
</trkpt>
<trkpt lat="-26.6391587" lon="152.8701356">
<ele>383.272</ele>
<time>2018-01-17T05:23:47.229Z</time>
</trkpt>
<trkpt lat="-26.6394538" lon="152.8702288">
<ele>383.938</ele>
<time>2018-01-17T05:23:49.059Z</time>
</trkpt>
<trkpt lat="-26.6397843" lon="152.8703537">
<ele>384.630</ele>
<time>2018-01-17T05:23:51.029Z</time>
</trkpt>
<trkpt lat="-26.6401344" lon="152.8704675">
<ele>385.213</ele>
<time>2018-01-17T05:23:53.004Z</time>
</trkpt>
<trkpt lat="-26.6404538" lon="152.8705809">
<ele>385.709</ele>
<time>2018-01-17T05:23:54.748Z</time>
</trkpt>
<trkpt lat="-26.6408194" lon="152.8707420">
<ele>385.950</ele>
<time>2018-01-17T05:23:56.729Z</time>
</trkpt>
<trkpt lat="-26.6411962" lon="152.8709590">
<ele>385.594</ele>
<time>2018-01-17T05:23:58.813Z</time>
</trkpt>
<trkpt lat="-26.6415326" lon="152.8712285">
<ele>384.445</ele>
<time>2018-01-17T05:24:00.818Z</time>
</trkpt>
<trkpt lat="-26.6418738" lon="152.8714855">
<ele>382.408</ele>
<time>2018-01-17T05:24:02.800Z</time>
</trkpt>
<trkpt lat="-26.6422289" lon="152.8717011">
<ele>379.529</ele>
<time>2018-01-17T05:24:04.769Z</time>
</trkpt>
<trkpt lat="-26.6425917" lon="152.8719073">
<ele>376.262</ele>
<time>2018-01-17T05:24:06.804Z</time>
</trkpt>
<trkpt lat="-26.6429344" lon="152.8720440">
<ele>373.256</ele>
<time>2018-01-17T05:24:08.727Z</time>
</trkpt>
<trkpt lat="-26.6432583" lon="152.8721397">
<ele>370.731</ele>
<time>2018-01-17T05:24:10.611Z</time>
</trkpt>
<trkpt lat="-26.6435670" lon="152.8722589">
<ele>368.760</ele>
<time>2018-01-17T05:24:12.470Z</time>
</trkpt>
<trkpt lat="-26.6438845" lon="152.8724321">
<ele>367.634</ele>
<time>2018-01-17T05:24:14.402Z</time>
</trkpt>
<trkpt lat="-26.6442088" lon="152.8726840">
<ele>367.577</ele>
<time>2018-01-17T05:24:16.443Z</time>
</trkpt>
<trkpt lat="-26.6445347" lon="152.8729847">
<ele>368.531</ele>
<time>2018-01-17T05:24:18.543Z</time>
</trkpt>
<trkpt lat="-26.6448520" lon="152.8732939">
<ele>370.298</ele>
<time>2018-01-17T05:24:20.625Z</time>
</trkpt>
<trkpt lat="-26.6451669" lon="152.8735524">
<ele>372.706</ele>
<time>2018-01-17T05:24:22.607Z</time>
</trkpt>
<trkpt lat="-26.6454531" lon="152.8737665">
<ele>375.592</ele>
<time>2018-01-17T05:24:24.509Z</time>
</trkpt>
<trkpt lat="-26.6457001" lon="152.8739612">
<ele>378.651</ele>
<time>2018-01-17T05:24:26.417Z</time>
</trkpt>
<trkpt lat="-26.6458972" lon="152.8741496">
<ele>381.625</ele>
<time>2018-01-17T05:24:28.221Z</time>
</trkpt>
<trkpt lat="-26.6460941" lon="152.8743032">
<ele>384.320</ele>
<time>2018-01-17T05:24:29.958Z</time>
</trkpt>
<trkpt lat="-26.6463819" lon="152.8743123">
<ele>386.768</ele>
<time>2018-01-17T05:24:32.035Z</time>
</trkpt>
<trkpt lat="-26.6466625" lon="152.8741950">
<ele>389.200</ele>
<time>2018-01-17T05:24:34.120Z</time>
</trkpt>
<trkpt lat="-26.6469552" lon="152.8741126">
<ele>391.700</ele>
<time>2018-01-17T05:24:36.149Z</time>
</trkpt>
<trkpt lat="-26.6472485" lon="152.8740308">
<ele>394.199</ele>
<time>2018-01-17T05:24:38.147Z</time>
</trkpt>
<trkpt lat="-26.6475213" lon="152.8739535">
<ele>396.673</ele>
<time>2018-01-17T05:24:39.998Z</time>
</trkpt>
<trkpt lat="-26.6479378" lon="152.8737716">
<ele>399.016</ele>
<time>2018-01-17T05:24:42.932Z</time>
</trkpt>
<trkpt lat="-26.6484240" lon="152.8736916">
<ele>400.987</ele>
<time>2018-01-17T05:24:46.125Z</time>
</trkpt>
<trkpt lat="-26.6489072" lon="152.8737860">
<ele>402.463</ele>
<time>2018-01-17T05:24:49.252Z</time>
</trkpt>
<trkpt lat="-26.6493069" lon="152.8740577">
<ele>403.653</ele>
<time>2018-01-17T05:24:52.181Z</time>
</trkpt>
<trkpt lat="-26.6497097" lon="152.8743906">
<ele>404.656</ele>
<time>2018-01-17T05:24:55.267Z</time>
</trkpt>
<trkpt lat="-26.6500903" lon="152.8747452">
<ele>405.275</ele>
<time>2018-01-17T05:24:58.308Z</time>
</trkpt>
<trkpt lat="-26.6503723" lon="152.8751330">
<ele>405.143</ele>
<time>2018-01-17T05:25:01.149Z</time>
</trkpt>
<trkpt lat="-26.6506368" lon="152.8755138">
<ele>403.793</ele>
<time>2018-01-17T05:25:04.124Z</time>
</trkpt>
<trkpt lat="-26.6508353" lon="152.8758747">
<ele>401.603</ele>
<time>2018-01-17T05:25:06.923Z</time>
</trkpt>
<trkpt lat="-26.6510181" lon="152.8763563">
<ele>399.968</ele>
<time>2018-01-17T05:25:10.264Z</time>
</trkpt>
<trkpt lat="-26.6512881" lon="152.8767645">
<ele>399.923</ele>
<time>2018-01-17T05:25:13.327Z</time>
</trkpt>
<trkpt lat="-26.6517006" lon="152.8769783">
<ele>401.557</ele>
<time>2018-01-17T05:25:16.341Z</time>
</trkpt>
<trkpt lat="-26.6521300" lon="152.8771527">
<ele>404.246</ele>
<time>2018-01-17T05:25:19.343Z</time>
</trkpt>
<trkpt lat="-26.6525687" lon="152.8772838">
<ele>407.025</ele>
<time>2018-01-17T05:25:22.314Z</time>
</trkpt>
<trkpt lat="-26.6529959" lon="152.8774246">
<ele>409.213</ele>
<time>2018-01-17T05:25:25.228Z</time>
</trkpt>
<trkpt lat="-26.6534230" lon="152.8776072">
<ele>410.514</ele>
<time>2018-01-17T05:25:28.217Z</time>
</trkpt>
<trkpt lat="-26.6538319" lon="152.8778448">
<ele>410.884</ele>
<time>2018-01-17T05:25:31.228Z</time>
</trkpt>
<trkpt lat="-26.6541963" lon="152.8780708">
<ele>410.617</ele>
<time>2018-01-17T05:25:33.957Z</time>
</trkpt>
<trkpt lat="-26.6546079" lon="152.8783073">
<ele>410.145</ele>
<time>2018-01-17T05:25:36.980Z</time>
</trkpt>
<trkpt lat="-26.6550220" lon="152.8785474">
<ele>409.727</ele>
<time>2018-01-17T05:25:40.001Z</time>
</trkpt>
<trkpt lat="-26.6554240" lon="152.8788304">
<ele>409.444</ele>
<time>2018-01-17T05:25:43.084Z</time>
</trkpt>
<trkpt lat="-26.6558058" lon="152.8790565">
<ele>409.148</ele>
<time>2018-01-17T05:25:45.930Z</time>
</trkpt>
<trkpt lat="-26.6562092" lon="152.8792263">
<ele>408.691</ele>
<time>2018-01-17T05:25:48.806Z</time>
</trkpt>
<trkpt lat="-26.6566168" lon="152.8793815">
<ele>408.286</ele>
<time>2018-01-17T05:25:51.695Z</time>
</trkpt>
<trkpt lat="-26.6570063" lon="152.8795944">
<ele>408.161</ele>
<time>2018-01-17T05:25:54.616Z</time>
</trkpt>
<trkpt lat="-26.6574105" lon="152.8798540">
<ele>408.443</ele>
<time>2018-01-17T05:25:57.723Z</time>
</trkpt>
<trkpt lat="-26.6576838" lon="152.8802521">
<ele>409.343</ele>
<time>2018-01-17T05:26:00.690Z</time>
</trkpt>
<trkpt lat="-26.6578522" lon="152.8807224">
<ele>410.899</ele>
<time>2018-01-17T05:26:03.661Z</time>
</trkpt>
<trkpt lat="-26.6580167" lon="152.8812132">
<ele>412.817</ele>
<time>2018-01-17T05:26:06.688Z</time>
</trkpt>
<trkpt lat="-26.6582437" lon="152.8816681">
<ele>414.715</ele>
<time>2018-01-17T05:26:09.670Z</time>
</trkpt>
<trkpt lat="-26.6585540" lon="152.8820773">
<ele>416.202</ele>
<time>2018-01-17T05:26:12.746Z</time>
</trkpt>
<trkpt lat="-26.6588879" lon="152.8823765">
<ele>416.829</ele>
<time>2018-01-17T05:26:15.528Z</time>
</trkpt>
<trkpt lat="-26.6592346" lon="152.8826984">
<ele>416.131</ele>
<time>2018-01-17T05:26:18.511Z</time>
</trkpt>
<trkpt lat="-26.6595998" lon="152.8829305">
<ele>414.207</ele>
<time>2018-01-17T05:26:21.309Z</time>
</trkpt>
<trkpt lat="-26.6600359" lon="152.8831520">
<ele>411.911</ele>
<time>2018-01-17T05:26:24.466Z</time>
</trkpt>
<trkpt lat="-26.6605015" lon="152.8832155">
<ele>410.163</ele>
<time>2018-01-17T05:26:27.503Z</time>
</trkpt>
<trkpt lat="-26.6609753" lon="152.8832386">
<ele>409.300</ele>
<time>2018-01-17T05:26:30.553Z</time>
</trkpt>
<trkpt lat="-26.6614117" lon="152.8833197">
<ele>409.163</ele>
<time>2018-01-17T05:26:33.405Z</time>
</trkpt>
<trkpt lat="-26.6618495" lon="152.8833645">
<ele>409.718</ele>
<time>2018-01-17T05:26:36.252Z</time>
</trkpt>
<trkpt lat="-26.6623173" lon="152.8832527">
<ele>411.098</ele>
<time>2018-01-17T05:26:39.361Z</time>
</trkpt>
<trkpt lat="-26.6627204" lon="152.8828902">
<ele>412.762</ele>
<time>2018-01-17T05:26:42.694Z</time>
</trkpt>
<trkpt lat="-26.6629556" lon="152.8824438">
<ele>413.807</ele>
<time>2018-01-17T05:26:45.662Z</time>
</trkpt>
<trkpt lat="-26.6629853" lon="152.8819157">
<ele>413.958</ele>
<time>2018-01-17T05:26:48.704Z</time>
</trkpt>
<trkpt lat="-26.6629245" lon="152.8813309">
<ele>413.519</ele>
<time>2018-01-17T05:26:52.055Z</time>
</trkpt>
<trkpt lat="-26.6628870" lon="152.8807938">
<ele>412.956</ele>
<time>2018-01-17T05:26:55.098Z</time>
</trkpt>
<trkpt lat="-26.6629585" lon="152.8802507">
<ele>412.806</ele>
<time>2018-01-17T05:26:58.223Z</time>
</trkpt>
<trkpt lat="-26.6632838" lon="152.8798573">
<ele>413.471</ele>
<time>2018-01-17T05:27:01.294Z</time>
</trkpt>
<trkpt lat="-26.6637804" lon="152.8797545">
<ele>414.725</ele>
<time>2018-01-17T05:27:04.517Z</time>
</trkpt>
<trkpt lat="-26.6642753" lon="152.8798154">
<ele>415.989</ele>
<time>2018-01-17T05:27:07.655Z</time>
</trkpt>
<trkpt lat="-26.6645715" lon="152.8798574">
<ele>416.994</ele>
<time>2018-01-17T05:27:09.525Z</time>
</trkpt>
<trkpt lat="-26.6650529" lon="152.8799144">
<ele>417.656</ele>
<time>2018-01-17T05:27:12.552Z</time>
</trkpt>
<trkpt lat="-26.6655372" lon="152.8799574">
<ele>417.773</ele>
<time>2018-01-17T05:27:15.599Z</time>
</trkpt>
<trkpt lat="-26.6659834" lon="152.8800040">
<ele>417.115</ele>
<time>2018-01-17T05:27:18.436Z</time>
</trkpt>
<trkpt lat="-26.6664582" lon="152.8800360">
<ele>415.492</ele>
<time>2018-01-17T05:27:21.452Z</time>
</trkpt>
<trkpt lat="-26.6669420" lon="152.8800826">
<ele>412.787</ele>
<time>2018-01-17T05:27:24.491Z</time>
</trkpt>
<trkpt lat="-26.6674415" lon="152.8800994">
<ele>409.168</ele>
<time>2018-01-17T05:27:27.538Z</time>
</trkpt>
<trkpt lat="-26.6679332" lon="152.8801483">
<ele>405.076</ele>
<time>2018-01-17T05:27:30.500Z</time>
</trkpt>
<trkpt lat="-26.6683928" lon="152.8800752">
<ele>400.859</ele>
<time>2018-01-17T05:27:33.342Z</time>
</trkpt>
<trkpt lat="-26.6688212" lon="152.8799106">
<ele>396.634</ele>
<time>2018-01-17T05:27:36.226Z</time>
</trkpt>
<trkpt lat="-26.6692410" lon="152.8797396">
<ele>392.533</ele>
<time>2018-01-17T05:27:39.138Z</time>
</trkpt>
<trkpt lat="-26.6696603" lon="152.8795602">
<ele>388.822</ele>
<time>2018-01-17T05:27:42.072Z</time>
</trkpt>
<trkpt lat="-26.6700941" lon="152.8793919">
<ele>385.934</ele>
<time>2018-01-17T05:27:45.063Z</time>
</trkpt>
<trkpt lat="-26.6705382" lon="152.8792389">
<ele>384.262</ele>
<time>2018-01-17T05:27:48.068Z</time>
</trkpt>
<trkpt lat="-26.6709590" lon="152.8791002">
<ele>383.786</ele>
<time>2018-01-17T05:27:50.889Z</time>
</trkpt>
<trkpt lat="-26.6714240" lon="152.8789896">
<ele>384.148</ele>
<time>2018-01-17T05:27:53.828Z</time>
</trkpt>
<trkpt lat="-26.6720118" lon="152.8791183">
<ele>384.935</ele>
<time>2018-01-17T05:27:57.135Z</time>
</trkpt>
<trkpt lat="-26.6725936" lon="152.8793185">
<ele>385.683</ele>
<time>2018-01-17T05:28:00.225Z</time>
</trkpt>
<trkpt lat="-26.6731568" lon="152.8794576">
<ele>385.686</ele>
<time>2018-01-17T05:28:03.125Z</time>
</trkpt>
<trkpt lat="-26.6737092" lon="152.8794217">
<ele>384.130</ele>
<time>2018-01-17T05:28:05.972Z</time>
</trkpt>
<trkpt lat="-26.6742423" lon="152.8795718">
<ele>380.516</ele>
<time>2018-01-17T05:28:08.898Z</time>
</trkpt>
<trkpt lat="-26.6747618" lon="152.8798109">
<ele>375.048</ele>
<time>2018-01-17T05:28:11.964Z</time>
</trkpt>
<trkpt lat="-26.6752431" lon="152.8801125">
<ele>368.605</ele>
<time>2018-01-17T05:28:15.019Z</time>
</trkpt>
<trkpt lat="-26.6756620" lon="152.8803835">
<ele>362.370</ele>
<time>2018-01-17T05:28:17.807Z</time>
</trkpt>
<trkpt lat="-26.6760925" lon="152.8806597">
<ele>357.299</ele>
<time>2018-01-17T05:28:20.767Z</time>
</trkpt>
<trkpt lat="-26.6765222" lon="152.8809690">
<ele>354.030</ele>
<time>2018-01-17T05:28:23.741Z</time>
</trkpt>
<trkpt lat="-26.6769444" lon="152.8812573">
<ele>352.649</ele>
<time>2018-01-17T05:28:26.568Z</time>
</trkpt>
<trkpt lat="-26.6773633" lon="152.8815273">
<ele>352.827</ele>
<time>2018-01-17T05:28:29.401Z</time>
</trkpt>
<trkpt lat="-26.6777958" lon="152.8817416">
<ele>354.113</ele>
<time>2018-01-17T05:28:32.253Z</time>
</trkpt>
<trkpt lat="-26.6782000" lon="152.8820081">
<ele>356.114</ele>
<time>2018-01-17T05:28:35.120Z</time>
</trkpt>
<trkpt lat="-26.6786124" lon="152.8823680">
<ele>358.716</ele>
<time>2018-01-17T05:28:38.222Z</time>
</trkpt>
<trkpt lat="-26.6789534" lon="152.8828161">
<ele>361.717</ele>
<time>2018-01-17T05:28:41.223Z</time>
</trkpt>
<trkpt lat="-26.6792947" lon="152.8832613">
<ele>364.269</ele>
<time>2018-01-17T05:28:44.193Z</time>
</trkpt>
<trkpt lat="-26.6795942" lon="152.8837393">
<ele>365.700</ele>
<time>2018-01-17T05:28:47.159Z</time>
</trkpt>
<trkpt lat="-26.6799840" lon="152.8840184">
<ele>366.411</ele>
<time>2018-01-17T05:28:49.889Z</time>
</trkpt>
<trkpt lat="-26.6804485" lon="152.8840574">
<ele>367.381</ele>
<time>2018-01-17T05:28:52.886Z</time>
</trkpt>
<trkpt lat="-26.6808669" lon="152.8841846">
<ele>369.091</ele>
<time>2018-01-17T05:28:55.820Z</time>
</trkpt>
<trkpt lat="-26.6813076" lon="152.8842289">
<ele>371.541</ele>
<time>2018-01-17T05:28:58.863Z</time>
</trkpt>
<trkpt lat="-26.6816935" lon="152.8843790">
<ele>374.436</ele>
<time>2018-01-17T05:29:01.723Z</time>
</trkpt>
<trkpt lat="-26.6820731" lon="152.8846290">
<ele>377.305</ele>
<time>2018-01-17T05:29:04.773Z</time>
</trkpt>
<trkpt lat="-26.6823817" lon="152.8849930">
<ele>380.229</ele>
<time>2018-01-17T05:29:07.833Z</time>
</trkpt>
<trkpt lat="-26.6825939" lon="152.8853999">
<ele>383.907</ele>
<time>2018-01-17T05:29:10.719Z</time>
</trkpt>
<trkpt lat="-26.6828107" lon="152.8858258">
<ele>388.773</ele>
<time>2018-01-17T05:29:13.756Z</time>
</trkpt>
<trkpt lat="-26.6830250" lon="152.8861967">
<ele>394.400</ele>
<time>2018-01-17T05:29:16.548Z</time>
</trkpt>
<trkpt lat="-26.6830618" lon="152.8867052">
<ele>399.678</ele>
<time>2018-01-17T05:29:19.734Z</time>
</trkpt>
<trkpt lat="-26.6831303" lon="152.8871710">
<ele>403.652</ele>
<time>2018-01-17T05:29:22.577Z</time>
</trkpt>
<trkpt lat="-26.6831181" lon="152.8876691">
<ele>406.003</ele>
<time>2018-01-17T05:29:25.581Z</time>
</trkpt>
<trkpt lat="-26.6832018" lon="152.8881510">
<ele>406.965</ele>
<time>2018-01-17T05:29:28.555Z</time>
</trkpt>
<trkpt lat="-26.6834485" lon="152.8885746">
<ele>407.091</ele>
<time>2018-01-17T05:29:31.570Z</time>
</trkpt>
<trkpt lat="-26.6838257" lon="152.8889225">
<ele>406.872</ele>
<time>2018-01-17T05:29:34.785Z</time>
</trkpt>
<trkpt lat="-26.6842056" lon="152.8891658">
<ele>406.487</ele>
<time>2018-01-17T05:29:37.683Z</time>
</trkpt>
<trkpt lat="-26.6846328" lon="152.8893467">
<ele>405.906</ele>
<time>2018-01-17T05:29:40.730Z</time>
</trkpt>
<trkpt lat="-26.6850419" lon="152.8895094">
<ele>405.253</ele>
<time>2018-01-17T05:29:43.633Z</time>
</trkpt>
<trkpt lat="-26.6854189" lon="152.8897367">
<ele>404.960</ele>
<time>2018-01-17T05:29:46.512Z</time>
</trkpt>
<trkpt lat="-26.6858090" lon="152.8899434">
<ele>405.416</ele>
<time>2018-01-17T05:29:49.420Z</time>
</trkpt>
<trkpt lat="-26.6861856" lon="152.8902103">
<ele>406.496</ele>
<time>2018-01-17T05:29:52.420Z</time>
</trkpt>
<trkpt lat="-26.6865177" lon="152.8905304">
<ele>407.608</ele>
<time>2018-01-17T05:29:55.420Z</time>
</trkpt>
<trkpt lat="-26.6867909" lon="152.8908131">
<ele>408.266</ele>
<time>2018-01-17T05:29:58.108Z</time>
</trkpt>
<trkpt lat="-26.6870588" lon="152.8910833">
<ele>408.540</ele>
<time>2018-01-17T05:30:00.871Z</time>
</trkpt>
<trkpt lat="-26.6873679" lon="152.8913188">
<ele>408.832</ele>
<time>2018-01-17T05:30:03.842Z</time>
</trkpt>
<trkpt lat="-26.6876452" lon="152.8916364">
<ele>409.522</ele>
<time>2018-01-17T05:30:07.015Z</time>
</trkpt>
<trkpt lat="-26.6879017" lon="152.8918703">
<ele>410.750</ele>
<time>2018-01-17T05:30:09.699Z</time>
</trkpt>
<trkpt lat="-26.6881306" lon="152.8920972">
<ele>412.302</ele>
<time>2018-01-17T05:30:12.285Z</time>
</trkpt>
<trkpt lat="-26.6883741" lon="152.8923025">
<ele>413.895</ele>
<time>2018-01-17T05:30:15.008Z</time>
</trkpt>
<trkpt lat="-26.6886069" lon="152.8925512">
<ele>415.247</ele>
<time>2018-01-17T05:30:18.003Z</time>
</trkpt>
<trkpt lat="-26.6888596" lon="152.8927270">
<ele>415.902</ele>
<time>2018-01-17T05:30:20.794Z</time>
</trkpt>
<trkpt lat="-26.6890594" lon="152.8928526">
<ele>415.661</ele>
<time>2018-01-17T05:30:22.968Z</time>
</trkpt>
<trkpt lat="-26.6891824" lon="152.8928954">
<ele>414.635</ele>
<time>2018-01-17T05:30:24.418Z</time>
</trkpt>
<trkpt lat="-26.6892201" lon="152.8929962">
<ele>412.952</ele>
<time>2018-01-17T05:30:25.522Z</time>
</trkpt>
<trkpt lat="-26.6893657" lon="152.8931025">
<ele>410.844</ele>
<time>2018-01-17T05:30:28.148Z</time>
</trkpt>
<trkpt lat="-26.6896478" lon="152.8932203">
<ele>408.616</ele>
<time>2018-01-17T05:30:38.204Z</time>
</trkpt>
<trkpt lat="-26.6899061" lon="152.8933028">
<ele>406.727</ele>
<time>2018-01-17T05:30:42.562Z</time>
</trkpt>
<trkpt lat="-26.6901526" lon="152.8934001">
<ele>405.620</ele>
<time>2018-01-17T05:30:45.367Z</time>
</trkpt>
<trkpt lat="-26.6904319" lon="152.8934874">
<ele>405.203</ele>
<time>2018-01-17T05:30:48.549Z</time>
</trkpt>
<trkpt lat="-26.6906896" lon="152.8936274">
<ele>404.942</ele>
<time>2018-01-17T05:30:51.730Z</time>
</trkpt>
<trkpt lat="-26.6908811" lon="152.8938380">
<ele>404.216</ele>
<time>2018-01-17T05:30:54.683Z</time>
</trkpt>
<trkpt lat="-26.6910738" lon="152.8940550">
<ele>402.536</ele>
<time>2018-01-17T05:30:57.648Z</time>
</trkpt>
<trkpt lat="-26.6912204" lon="152.8943411">
<ele>399.845</ele>
<time>2018-01-17T05:31:00.853Z</time>
</trkpt>
<trkpt lat="-26.6913905" lon="152.8945932">
<ele>396.777</ele>
<time>2018-01-17T05:31:03.925Z</time>
</trkpt>
<trkpt lat="-26.6915041" lon="152.8948381">
<ele>394.267</ele>
<time>2018-01-17T05:31:06.666Z</time>
</trkpt>
<trkpt lat="-26.6917684" lon="152.8950717">
<ele>392.789</ele>
<time>2018-01-17T05:31:10.408Z</time>
</trkpt>
<trkpt lat="-26.6920369" lon="152.8953012">
<ele>392.227</ele>
<time>2018-01-17T05:31:13.610Z</time>
</trkpt>
<trkpt lat="-26.6923476" lon="152.8955093">
<ele>392.337</ele>
<time>2018-01-17T05:31:16.756Z</time>
</trkpt>
<trkpt lat="-26.6927420" lon="152.8957532">
<ele>392.933</ele>
<time>2018-01-17T05:31:20.354Z</time>
</trkpt>
<trkpt lat="-26.6930748" lon="152.8960891">
<ele>393.869</ele>
<time>2018-01-17T05:31:23.485Z</time>
</trkpt>
<trkpt lat="-26.6933230" lon="152.8964617">
<ele>394.820</ele>
<time>2018-01-17T05:31:26.355Z</time>
</trkpt>
<trkpt lat="-26.6935554" lon="152.8968476">
<ele>395.428</ele>
<time>2018-01-17T05:31:29.247Z</time>
</trkpt>
<trkpt lat="-26.6935852" lon="152.8971991">
<ele>395.582</ele>
<time>2018-01-17T05:31:31.588Z</time>
</trkpt>
<trkpt lat="-26.6935566" lon="152.8974091">
<ele>395.386</ele>
<time>2018-01-17T05:31:33.064Z</time>
</trkpt>
<trkpt lat="-26.6936239" lon="152.8974770">
<ele>395.024</ele>
<time>2018-01-17T05:31:34.109Z</time>
</trkpt>
<trkpt lat="-26.6936183" lon="152.8972211">
<ele>394.272</ele>
<time>2018-01-17T05:31:37.570Z</time>
</trkpt>
<trkpt lat="-26.6935095" lon="152.8968219">
<ele>392.745</ele>
<time>2018-01-17T05:31:45.059Z</time>
</trkpt>
<trkpt lat="-26.6933440" lon="152.8963460">
<ele>390.716</ele>
<time>2018-01-17T05:31:49.137Z</time>
</trkpt>
<trkpt lat="-26.6930710" lon="152.8959305">
<ele>388.949</ele>
<time>2018-01-17T05:31:52.374Z</time>
</trkpt>
<trkpt lat="-26.6927663" lon="152.8956419">
<ele>387.926</ele>
<time>2018-01-17T05:31:55.179Z</time>
</trkpt>
<trkpt lat="-26.6924201" lon="152.8953993">
<ele>387.733</ele>
<time>2018-01-17T05:31:58.180Z</time>
</trkpt>
<trkpt lat="-26.6921205" lon="152.8951560">
<ele>388.044</ele>
<time>2018-01-17T05:32:00.959Z</time>
</trkpt>
<trkpt lat="-26.6918128" lon="152.8949222">
<ele>388.324</ele>
<time>2018-01-17T05:32:03.796Z</time>
</trkpt>
<trkpt lat="-26.6915390" lon="152.8946166">
<ele>388.169</ele>
<time>2018-01-17T05:32:06.799Z</time>
</trkpt>
<trkpt lat="-26.6912480" lon="152.8943422">
<ele>387.692</ele>
<time>2018-01-17T05:32:09.784Z</time>
</trkpt>
<trkpt lat="-26.6910096" lon="152.8940498">
<ele>387.367</ele>
<time>2018-01-17T05:32:12.603Z</time>
</trkpt>
<trkpt lat="-26.6907892" lon="152.8937601">
<ele>387.421</ele>
<time>2018-01-17T05:32:15.405Z</time>
</trkpt>
<trkpt lat="-26.6905765" lon="152.8935006">
<ele>387.527</ele>
<time>2018-01-17T05:32:18.133Z</time>
</trkpt>
<trkpt lat="-26.6903534" lon="152.8932965">
<ele>387.377</ele>
<time>2018-01-17T05:32:20.782Z</time>
</trkpt>
<trkpt lat="-26.6900453" lon="152.8931575">
<ele>387.406</ele>
<time>2018-01-17T05:32:23.980Z</time>
</trkpt>
<trkpt lat="-26.6897323" lon="152.8930095">
<ele>388.278</ele>
<time>2018-01-17T05:32:27.115Z</time>
</trkpt>
<trkpt lat="-26.6893979" lon="152.8929283">
<ele>390.273</ele>
<time>2018-01-17T05:32:30.145Z</time>
</trkpt>
<trkpt lat="-26.6890993" lon="152.8928249">
<ele>393.318</ele>
<time>2018-01-17T05:32:32.981Z</time>
</trkpt>
<trkpt lat="-26.6888473" lon="152.8927039">
<ele>396.673</ele>
<time>2018-01-17T05:32:35.567Z</time>
</trkpt>
<trkpt lat="-26.6887612" lon="152.8926321">
<ele>399.344</ele>
<time>2018-01-17T05:32:36.622Z</time>
</trkpt>
<trkpt lat="-26.6886771" lon="152.8927425">
<ele>401.122</ele>
<time>2018-01-17T05:32:37.894Z</time>
</trkpt>
<trkpt lat="-26.6886416" lon="152.8928418">
<ele>402.369</ele>
<time>2018-01-17T05:32:39.204Z</time>
</trkpt>
<trkpt lat="-26.6885650" lon="152.8929783">
<ele>403.269</ele>
<time>2018-01-17T05:32:41.445Z</time>
</trkpt>
<trkpt lat="-26.6884231" lon="152.8930590">
<ele>403.910</ele>
<time>2018-01-17T05:32:45.463Z</time>
</trkpt>
<trkpt lat="-26.6882902" lon="152.8932571">
<ele>404.383</ele>
<time>2018-01-17T05:32:51.006Z</time>
</trkpt>
<trkpt lat="-26.6880934" lon="152.8934804">
<ele>404.417</ele>
<time>2018-01-17T05:32:56.657Z</time>
</trkpt>
<trkpt lat="-26.6879125" lon="152.8937721">
<ele>403.485</ele>
<time>2018-01-17T05:33:01.094Z</time>
</trkpt>
<trkpt lat="-26.6877484" lon="152.8940422">
<ele>401.524</ele>
<time>2018-01-17T05:33:04.184Z</time>
</trkpt>
<trkpt lat="-26.6876165" lon="152.8944140">
<ele>398.851</ele>
<time>2018-01-17T05:33:07.720Z</time>
</trkpt>
<trkpt lat="-26.6874087" lon="152.8948098">
<ele>395.590</ele>
<time>2018-01-17T05:33:11.426Z</time>
</trkpt>
<trkpt lat="-26.6871852" lon="152.8952092">
<ele>391.745</ele>
<time>2018-01-17T05:33:14.801Z</time>
</trkpt>
<trkpt lat="-26.6869815" lon="152.8954742">
<ele>387.413</ele>
<time>2018-01-17T05:33:17.264Z</time>
</trkpt>
<trkpt lat="-26.6866687" lon="152.8954718">
<ele>382.810</ele>
<time>2018-01-17T05:33:19.912Z</time>
</trkpt>
<trkpt lat="-26.6863453" lon="152.8955787">
<ele>378.167</ele>
<time>2018-01-17T05:33:23.005Z</time>
</trkpt>
<trkpt lat="-26.6860039" lon="152.8957353">
<ele>373.767</ele>
<time>2018-01-17T05:33:26.255Z</time>
</trkpt>
<trkpt lat="-26.6857282" lon="152.8960475">
<ele>369.972</ele>
<time>2018-01-17T05:33:29.438Z</time>
</trkpt>
<trkpt lat="-26.6855221" lon="152.8964336">
<ele>366.675</ele>
<time>2018-01-17T05:33:32.527Z</time>
</trkpt>
<trkpt lat="-26.6852669" lon="152.8967739">
<ele>363.115</ele>
<time>2018-01-17T05:33:35.487Z</time>
</trkpt>
<trkpt lat="-26.6850024" lon="152.8971391">
<ele>358.823</ele>
<time>2018-01-17T05:33:38.528Z</time>
</trkpt>
<trkpt lat="-26.6847166" lon="152.8975303">
<ele>353.838</ele>
<time>2018-01-17T05:33:41.687Z</time>
</trkpt>
<trkpt lat="-26.6843857" lon="152.8978940">
<ele>348.364</ele>
<time>2018-01-17T05:33:44.813Z</time>
</trkpt>
<trkpt lat="-26.6840783" lon="152.8983330">
<ele>342.527</ele>
<time>2018-01-17T05:33:48.042Z</time>
</trkpt>
<trkpt lat="-26.6837729" lon="152.8987238">
<ele>336.275</ele>
<time>2018-01-17T05:33:50.978Z</time>
</trkpt>
<trkpt lat="-26.6834111" lon="152.8990088">
<ele>329.760</ele>
<time>2018-01-17T05:33:53.831Z</time>
</trkpt>
<trkpt lat="-26.6829957" lon="152.8991488">
<ele>323.382</ele>
<time>2018-01-17T05:33:56.757Z</time>
</trkpt>
<trkpt lat="-26.6826664" lon="152.8993006">
<ele>317.263</ele>
<time>2018-01-17T05:33:59.323Z</time>
</trkpt>
<trkpt lat="-26.6823241" lon="152.8994270">
<ele>311.279</ele>
<time>2018-01-17T05:34:02.174Z</time>
</trkpt>
<trkpt lat="-26.6820551" lon="152.8993711">
<ele>305.282</ele>
<time>2018-01-17T05:34:04.572Z</time>
</trkpt>
<trkpt lat="-26.6818975" lon="152.8995805">
<ele>298.989</ele>
<time>2018-01-17T05:34:06.905Z</time>
</trkpt>
<trkpt lat="-26.6819810" lon="152.8999849">
<ele>292.333</ele>
<time>2018-01-17T05:34:10.675Z</time>
</trkpt>
<trkpt lat="-26.6821253" lon="152.9004831">
<ele>285.526</ele>
<time>2018-01-17T05:34:14.654Z</time>
</trkpt>
<trkpt lat="-26.6823501" lon="152.9010059">
<ele>278.690</ele>
<time>2018-01-17T05:34:18.245Z</time>
</trkpt>
<trkpt lat="-26.6824756" lon="152.9015129">
<ele>271.910</ele>
<time>2018-01-17T05:34:21.239Z</time>
</trkpt>
<trkpt lat="-26.6823594" lon="152.9020387">
<ele>265.419</ele>
<time>2018-01-17T05:34:24.225Z</time>
</trkpt>
<trkpt lat="-26.6821953" lon="152.9025548">
<ele>259.437</ele>
<time>2018-01-17T05:34:27.197Z</time>
</trkpt>
<trkpt lat="-26.6821472" lon="152.9030704">
<ele>254.024</ele>
<time>2018-01-17T05:34:29.992Z</time>
</trkpt>
<trkpt lat="-26.6819844" lon="152.9035515">
<ele>248.996</ele>
<time>2018-01-17T05:34:32.816Z</time>
</trkpt>
<trkpt lat="-26.6821936" lon="152.9040075">
<ele>243.917</ele>
<time>2018-01-17T05:34:35.754Z</time>
</trkpt>
<trkpt lat="-26.6825193" lon="152.9044977">
<ele>238.223</ele>
<time>2018-01-17T05:34:39.232Z</time>
</trkpt>
<trkpt lat="-26.6827917" lon="152.9049705">
<ele>231.927</ele>
<time>2018-01-17T05:34:42.220Z</time>
</trkpt>
<trkpt lat="-26.6829276" lon="152.9054948">
<ele>225.676</ele>
<time>2018-01-17T05:34:45.056Z</time>
</trkpt>
<trkpt lat="-26.6827808" lon="152.9060346">
<ele>219.617</ele>
<time>2018-01-17T05:34:48.033Z</time>
</trkpt>
<trkpt lat="-26.6826254" lon="152.9065055">
<ele>213.263</ele>
<time>2018-01-17T05:34:50.813Z</time>
</trkpt>
<trkpt lat="-26.6823561" lon="152.9068827">
<ele>206.395</ele>
<time>2018-01-17T05:34:53.650Z</time>
</trkpt>
<trkpt lat="-26.6819975" lon="152.9072222">
<ele>199.611</ele>
<time>2018-01-17T05:34:56.788Z</time>
</trkpt>
<trkpt lat="-26.6818019" lon="152.9077674">
<ele>193.735</ele>
<time>2018-01-17T05:35:00.044Z</time>
</trkpt>
<trkpt lat="-26.6816566" lon="152.9083868">
<ele>188.785</ele>
<time>2018-01-17T05:35:03.240Z</time>
</trkpt>
<trkpt lat="-26.6815084" lon="152.9090133">
<ele>184.272</ele>
<time>2018-01-17T05:35:06.299Z</time>
</trkpt>
<trkpt lat="-26.6814387" lon="152.9095540">
<ele>180.277</ele>
<time>2018-01-17T05:35:08.929Z</time>
</trkpt>
<trkpt lat="-26.6815145" lon="152.9100320">
<ele>177.267</ele>
<time>2018-01-17T05:35:11.444Z</time>
</trkpt>
<trkpt lat="-26.6817125" lon="152.9105983">
<ele>175.100</ele>
<time>2018-01-17T05:35:14.758Z</time>
</trkpt>
<trkpt lat="-26.6817617" lon="152.9112218">
<ele>173.010</ele>
<time>2018-01-17T05:35:17.996Z</time>
</trkpt>
<trkpt lat="-26.6817739" lon="152.9118022">
<ele>170.322</ele>
<time>2018-01-17T05:35:20.894Z</time>
</trkpt>
<trkpt lat="-26.6817617" lon="152.9123972">
<ele>166.782</ele>
<time>2018-01-17T05:35:23.895Z</time>
</trkpt>
<trkpt lat="-26.6817355" lon="152.9129734">
<ele>162.413</ele>
<time>2018-01-17T05:35:26.829Z</time>
</trkpt>
<trkpt lat="-26.6815767" lon="152.9135292">
<ele>157.473</ele>
<time>2018-01-17T05:35:29.772Z</time>
</trkpt>
<trkpt lat="-26.6811901" lon="152.9139606">
<ele>152.618</ele>
<time>2018-01-17T05:35:32.802Z</time>
</trkpt>
<trkpt lat="-26.6808720" lon="152.9144054">
<ele>148.874</ele>
<time>2018-01-17T05:35:35.631Z</time>
</trkpt>
<trkpt lat="-26.6806962" lon="152.9149597">
<ele>146.722</ele>
<time>2018-01-17T05:35:38.582Z</time>
</trkpt>
<trkpt lat="-26.6805549" lon="152.9155310">
<ele>145.518</ele>
<time>2018-01-17T05:35:41.563Z</time>
</trkpt>
<trkpt lat="-26.6804997" lon="152.9161142">
<ele>144.237</ele>
<time>2018-01-17T05:35:44.491Z</time>
</trkpt>
<trkpt lat="-26.6805934" lon="152.9167806">
<ele>142.085</ele>
<time>2018-01-17T05:35:47.766Z</time>
</trkpt>
<trkpt lat="-26.6806226" lon="152.9174134">
<ele>138.730</ele>
<time>2018-01-17T05:35:50.732Z</time>
</trkpt>
<trkpt lat="-26.6806269" lon="152.9180332">
<ele>134.495</ele>
<time>2018-01-17T05:35:53.614Z</time>
</trkpt>
<trkpt lat="-26.6806769" lon="152.9186301">
<ele>129.826</ele>
<time>2018-01-17T05:35:56.438Z</time>
</trkpt>
<trkpt lat="-26.6808384" lon="152.9192467">
<ele>124.881</ele>
<time>2018-01-17T05:35:59.485Z</time>
</trkpt>
<trkpt lat="-26.6807914" lon="152.9199060">
<ele>120.313</ele>
<time>2018-01-17T05:36:02.586Z</time>
</trkpt>
<trkpt lat="-26.6805828" lon="152.9204717">
<ele>117.244</ele>
<time>2018-01-17T05:36:05.456Z</time>
</trkpt>
<trkpt lat="-26.6804067" lon="152.9210469">
<ele>116.294</ele>
<time>2018-01-17T05:36:08.362Z</time>
</trkpt>
<trkpt lat="-26.6803452" lon="152.9216591">
<ele>117.181</ele>
<time>2018-01-17T05:36:11.317Z</time>
</trkpt>
<trkpt lat="-26.6803567" lon="152.9223399">
<ele>119.128</ele>
<time>2018-01-17T05:36:14.509Z</time>
</trkpt>
<trkpt lat="-26.6804090" lon="152.9229240">
<ele>121.150</ele>
<time>2018-01-17T05:36:17.237Z</time>
</trkpt>
<trkpt lat="-26.6807757" lon="152.9235257">
<ele>122.514</ele>
<time>2018-01-17T05:36:20.669Z</time>
</trkpt>
<trkpt lat="-26.6810884" lon="152.9240936">
<ele>123.306</ele>
<time>2018-01-17T05:36:23.789Z</time>
</trkpt>
<trkpt lat="-26.6813980" lon="152.9245935">
<ele>124.135</ele>
<time>2018-01-17T05:36:26.632Z</time>
</trkpt>
<trkpt lat="-26.6816724" lon="152.9250306">
<ele>125.072</ele>
<time>2018-01-17T05:36:29.208Z</time>
</trkpt>
<trkpt lat="-26.6820518" lon="152.9252820">
<ele>125.624</ele>
<time>2018-01-17T05:36:31.724Z</time>
</trkpt>
<trkpt lat="-26.6826052" lon="152.9251711">
<ele>125.390</ele>
<time>2018-01-17T05:36:35.166Z</time>
</trkpt>
<trkpt lat="-26.6831802" lon="152.9251219">
<ele>124.253</ele>
<time>2018-01-17T05:36:38.613Z</time>
</trkpt>
<trkpt lat="-26.6837180" lon="152.9253536">
<ele>122.044</ele>
<time>2018-01-17T05:36:41.899Z</time>
</trkpt>
<trkpt lat="-26.6842450" lon="152.9254920">
<ele>118.308</ele>
<time>2018-01-17T05:36:44.954Z</time>
</trkpt>
<trkpt lat="-26.6847191" lon="152.9256656">
<ele>113.084</ele>
<time>2018-01-17T05:36:47.813Z</time>
</trkpt>
<trkpt lat="-26.6851640" lon="152.9257163">
<ele>107.504</ele>
<time>2018-01-17T05:36:50.490Z</time>
</trkpt>
<trkpt lat="-26.6856468" lon="152.9255425">
<ele>102.657</ele>
<time>2018-01-17T05:36:53.597Z</time>
</trkpt>
<trkpt lat="-26.6861949" lon="152.9254001">
<ele>98.256</ele>
<time>2018-01-17T05:36:56.877Z</time>
</trkpt>
<trkpt lat="-26.6866418" lon="152.9255486">
<ele>93.317</ele>
<time>2018-01-17T05:36:59.574Z</time>
</trkpt>
<trkpt lat="-26.6870139" lon="152.9259510">
<ele>87.689</ele>
<time>2018-01-17T05:37:02.673Z</time>
</trkpt>
<trkpt lat="-26.6874033" lon="152.9263631">
<ele>82.197</ele>
<time>2018-01-17T05:37:05.801Z</time>
</trkpt>
<trkpt lat="-26.6877424" lon="152.9267751">
<ele>77.693</ele>
<time>2018-01-17T05:37:08.599Z</time>
</trkpt>
<trkpt lat="-26.6882137" lon="152.9270020">
<ele>74.587</ele>
<time>2018-01-17T05:37:11.483Z</time>
</trkpt>
<trkpt lat="-26.6887586" lon="152.9270299">
<ele>72.649</ele>
<time>2018-01-17T05:37:14.599Z</time>
</trkpt>
<trkpt lat="-26.6892660" lon="152.9269498">
<ele>70.707</ele>
<time>2018-01-17T05:37:17.505Z</time>
</trkpt>
<trkpt lat="-26.6897730" lon="152.9270626">
<ele>67.462</ele>
<time>2018-01-17T05:37:20.441Z</time>
</trkpt>
<trkpt lat="-26.6901994" lon="152.9274215">
<ele>63.061</ele>
<time>2018-01-17T05:37:23.480Z</time>
</trkpt>
<trkpt lat="-26.6905657" lon="152.9278872">
<ele>58.764</ele>
<time>2018-01-17T05:37:26.588Z</time>
</trkpt>
<trkpt lat="-26.6907154" lon="152.9284036">
<ele>55.442</ele>
<time>2018-01-17T05:37:29.318Z</time>
</trkpt>
<trkpt lat="-26.6908263" lon="152.9289925">
<ele>53.185</ele>
<time>2018-01-17T05:37:32.390Z</time>
</trkpt>
<trkpt lat="-26.6909424" lon="152.9295802">
<ele>51.497</ele>
<time>2018-01-17T05:37:35.427Z</time>
</trkpt>
<trkpt lat="-26.6909021" lon="152.9301669">
<ele>49.626</ele>
<time>2018-01-17T05:37:38.369Z</time>
</trkpt>
<trkpt lat="-26.6908751" lon="152.9307549">
<ele>47.236</ele>
<time>2018-01-17T05:37:41.353Z</time>
</trkpt>
<trkpt lat="-26.6911089" lon="152.9312479">
<ele>44.613</ele>
<time>2018-01-17T05:37:44.225Z</time>
</trkpt>
<trkpt lat="-26.6915224" lon="152.9316803">
<ele>42.281</ele>
<time>2018-01-17T05:37:47.484Z</time>
</trkpt>
<trkpt lat="-26.6919549" lon="152.9320057">
<ele>40.437</ele>
<time>2018-01-17T05:37:50.437Z</time>
</trkpt>
<trkpt lat="-26.6923587" lon="152.9324008">
<ele>39.003</ele>
<time>2018-01-17T05:37:53.445Z</time>
</trkpt>
<trkpt lat="-26.6927155" lon="152.9327986">
<ele>37.945</ele>
<time>2018-01-17T05:37:56.272Z</time>
</trkpt>
<trkpt lat="-26.6930994" lon="152.9332542">
<ele>37.115</ele>
<time>2018-01-17T05:37:59.410Z</time>
</trkpt>
<trkpt lat="-26.6934579" lon="152.9336595">
<ele>36.311</ele>
<time>2018-01-17T05:38:02.274Z</time>
</trkpt>
<trkpt lat="-26.6938103" lon="152.9340519">
<ele>35.555</ele>
<time>2018-01-17T05:38:05.117Z</time>
</trkpt>
<trkpt lat="-26.6939196" lon="152.9345283">
<ele>34.728</ele>
<time>2018-01-17T05:38:07.711Z</time>
</trkpt>
<trkpt lat="-26.6939542" lon="152.9350846">
<ele>33.702</ele>
<time>2018-01-17T05:38:10.737Z</time>
</trkpt>
<trkpt lat="-26.6939997" lon="152.9356998">
<ele>32.554</ele>
<time>2018-01-17T05:38:13.990Z</time>
</trkpt>
<trkpt lat="-26.6940637" lon="152.9362817">
<ele>31.468</ele>
<time>2018-01-17T05:38:16.956Z</time>
</trkpt>
<trkpt lat="-26.6941441" lon="152.9368607">
<ele>30.620</ele>
<time>2018-01-17T05:38:19.896Z</time>
</trkpt>
<trkpt lat="-26.6942277" lon="152.9374283">
<ele>29.895</ele>
<time>2018-01-17T05:38:22.781Z</time>
</trkpt>
<trkpt lat="-26.6943003" lon="152.9380312">
<ele>28.963</ele>
<time>2018-01-17T05:38:25.830Z</time>
</trkpt>
<trkpt lat="-26.6943677" lon="152.9386053">
<ele>27.809</ele>
<time>2018-01-17T05:38:28.738Z</time>
</trkpt>
<trkpt lat="-26.6944315" lon="152.9391397">
<ele>26.516</ele>
<time>2018-01-17T05:38:31.470Z</time>
</trkpt>
<trkpt lat="-26.6945031" lon="152.9396519">
<ele>24.967</ele>
<time>2018-01-17T05:38:34.183Z</time>
</trkpt>
<trkpt lat="-26.6945658" lon="152.9401394">
<ele>22.981</ele>
<time>2018-01-17T05:38:36.931Z</time>
</trkpt>
<trkpt lat="-26.6946335" lon="152.9406182">
<ele>20.554</ele>
<time>2018-01-17T05:38:39.764Z</time>
</trkpt>
<trkpt lat="-26.6946979" lon="152.9410787">
<ele>17.955</ele>
<time>2018-01-17T05:38:42.518Z</time>
</trkpt>
<trkpt lat="-26.6947741" lon="152.9413599">
<ele>15.701</ele>
<time>2018-01-17T05:38:44.296Z</time>
</trkpt>
<trkpt lat="-26.6949129" lon="152.9413773">
<ele>14.139</ele>
<time>2018-01-17T05:38:45.250Z</time>
</trkpt>
<trkpt lat="-26.6951837" lon="152.9412088">
<ele>13.126</ele>
<time>2018-01-17T05:38:47.631Z</time>
</trkpt>
<trkpt lat="-26.6954189" lon="152.9410674">
<ele>12.436</ele>
<time>2018-01-17T05:38:50.124Z</time>
</trkpt>
<trkpt lat="-26.6955599" lon="152.9411137">
<ele>12.103</ele>
<time>2018-01-17T05:38:51.844Z</time>
</trkpt>
<trkpt lat="-26.6955629" lon="152.9414672">
<ele>12.290</ele>
<time>2018-01-17T05:38:55.578Z</time>
</trkpt>
<trkpt lat="-26.6956197" lon="152.9418632">
<ele>13.057</ele>
<time>2018-01-17T05:39:00.352Z</time>
</trkpt>
<trkpt lat="-26.6956503" lon="152.9423576">
<ele>14.239</ele>
<time>2018-01-17T05:39:05.135Z</time>
</trkpt>
<trkpt lat="-26.6954473" lon="152.9428215">
<ele>15.455</ele>
<time>2018-01-17T05:39:08.807Z</time>
</trkpt>
<trkpt lat="-26.6953142" lon="152.9432105">
<ele>16.327</ele>
<time>2018-01-17T05:39:11.512Z</time>
</trkpt>
<trkpt lat="-26.6951845" lon="152.9436055">
<ele>16.869</ele>
<time>2018-01-17T05:39:14.301Z</time>
</trkpt>
<trkpt lat="-26.6950738" lon="152.9440117">
<ele>17.655</ele>
<time>2018-01-17T05:39:17.261Z</time>
</trkpt>
<trkpt lat="-26.6949812" lon="152.9444244">
<ele>19.145</ele>
<time>2018-01-17T05:39:20.266Z</time>
</trkpt>
<trkpt lat="-26.6949308" lon="152.9447717">
<ele>21.174</ele>
<time>2018-01-17T05:39:22.739Z</time>
</trkpt>
<trkpt lat="-26.6948775" lon="152.9451819">
<ele>23.120</ele>
<time>2018-01-17T05:39:25.655Z</time>
</trkpt>
<trkpt lat="-26.6946735" lon="152.9454527">
<ele>24.407</ele>
<time>2018-01-17T05:39:28.175Z</time>
</trkpt>
<trkpt lat="-26.6944514" lon="152.9458135">
<ele>24.657</ele>
<time>2018-01-17T05:39:31.434Z</time>
</trkpt>
<trkpt lat="-26.6941245" lon="152.9460672">
<ele>24.028</ele>
<time>2018-01-17T05:39:34.893Z</time>
</trkpt>
<trkpt lat="-26.6938184" lon="152.9462496">
<ele>23.439</ele>
<time>2018-01-17T05:39:37.732Z</time>
</trkpt>
<trkpt lat="-26.6934960" lon="152.9464357">
<ele>23.776</ele>
<time>2018-01-17T05:39:40.573Z</time>
</trkpt>
<trkpt lat="-26.6931598" lon="152.9466639">
<ele>24.839</ele>
<time>2018-01-17T05:39:43.645Z</time>
</trkpt>
<trkpt lat="-26.6927887" lon="152.9468745">
<ele>25.826</ele>
<time>2018-01-17T05:39:46.874Z</time>
</trkpt>
<trkpt lat="-26.6924803" lon="152.9471065">
<ele>26.461</ele>
<time>2018-01-17T05:39:49.716Z</time>
</trkpt>
<trkpt lat="-26.6921176" lon="152.9473402">
<ele>26.929</ele>
<time>2018-01-17T05:39:52.941Z</time>
</trkpt>
<trkpt lat="-26.6917828" lon="152.9475836">
<ele>27.297</ele>
<time>2018-01-17T05:39:55.997Z</time>
</trkpt>
<trkpt lat="-26.6914465" lon="152.9478425">
<ele>27.598</ele>
<time>2018-01-17T05:39:59.059Z</time>
</trkpt>
<trkpt lat="-26.6911641" lon="152.9481271">
<ele>27.957</ele>
<time>2018-01-17T05:40:01.921Z</time>
</trkpt>
<trkpt lat="-26.6909078" lon="152.9484431">
<ele>28.414</ele>
<time>2018-01-17T05:40:04.797Z</time>
</trkpt>
<trkpt lat="-26.6906710" lon="152.9487828">
<ele>28.902</ele>
<time>2018-01-17T05:40:07.695Z</time>
</trkpt>
<trkpt lat="-26.6905095" lon="152.9491907">
<ele>29.303</ele>
<time>2018-01-17T05:40:10.708Z</time>
</trkpt>
<trkpt lat="-26.6903802" lon="152.9495923">
<ele>29.523</ele>
<time>2018-01-17T05:40:13.612Z</time>
</trkpt>
<trkpt lat="-26.6902816" lon="152.9499461">
<ele>29.518</ele>
<time>2018-01-17T05:40:16.147Z</time>
</trkpt>
<trkpt lat="-26.6901546" lon="152.9503730">
<ele>29.322</ele>
<time>2018-01-17T05:40:19.246Z</time>
</trkpt>
<trkpt lat="-26.6899847" lon="152.9507467">
<ele>29.044</ele>
<time>2018-01-17T05:40:22.213Z</time>
</trkpt>
<trkpt lat="-26.6898817" lon="152.9511277">
<ele>28.837</ele>
<time>2018-01-17T05:40:25.111Z</time>
</trkpt>
<trkpt lat="-26.6897255" lon="152.9515077">
<ele>29.008</ele>
<time>2018-01-17T05:40:28.164Z</time>
</trkpt>
<trkpt lat="-26.6895905" lon="152.9518993">
<ele>29.948</ele>
<time>2018-01-17T05:40:31.208Z</time>
</trkpt>
<trkpt lat="-26.6894547" lon="152.9523032">
<ele>31.530</ele>
<time>2018-01-17T05:40:34.300Z</time>
</trkpt>
<trkpt lat="-26.6892986" lon="152.9527045">
<ele>33.104</ele>
<time>2018-01-17T05:40:37.351Z</time>
</trkpt>
<trkpt lat="-26.6891433" lon="152.9531081">
<ele>34.188</ele>
<time>2018-01-17T05:40:40.356Z</time>
</trkpt>
<trkpt lat="-26.6889587" lon="152.9535138">
<ele>34.615</ele>
<time>2018-01-17T05:40:43.434Z</time>
</trkpt>
<trkpt lat="-26.6887704" lon="152.9539337">
<ele>34.481</ele>
<time>2018-01-17T05:40:46.548Z</time>
</trkpt>
<trkpt lat="-26.6885448" lon="152.9543128">
<ele>34.065</ele>
<time>2018-01-17T05:40:49.492Z</time>
</trkpt>
<trkpt lat="-26.6883604" lon="152.9546773">
<ele>33.517</ele>
<time>2018-01-17T05:40:52.164Z</time>
</trkpt>
<trkpt lat="-26.6881904" lon="152.9550354">
<ele>32.791</ele>
<time>2018-01-17T05:40:54.781Z</time>
</trkpt>
<trkpt lat="-26.6880223" lon="152.9554000">
<ele>31.794</ele>
<time>2018-01-17T05:40:57.541Z</time>
</trkpt>
<trkpt lat="-26.6878462" lon="152.9557551">
<ele>30.525</ele>
<time>2018-01-17T05:41:00.398Z</time>
</trkpt>
<trkpt lat="-26.6876159" lon="152.9560718">
<ele>29.179</ele>
<time>2018-01-17T05:41:03.323Z</time>
</trkpt>
<trkpt lat="-26.6873890" lon="152.9563948">
<ele>28.032</ele>
<time>2018-01-17T05:41:06.285Z</time>
</trkpt>
<trkpt lat="-26.6871815" lon="152.9567290">
<ele>27.275</ele>
<time>2018-01-17T05:41:09.223Z</time>
</trkpt>
<trkpt lat="-26.6871064" lon="152.9571180">
<ele>26.949</ele>
<time>2018-01-17T05:41:12.074Z</time>
</trkpt>
<trkpt lat="-26.6870445" lon="152.9575074">
<ele>26.947</ele>
<time>2018-01-17T05:41:14.915Z</time>
</trkpt>
<trkpt lat="-26.6869578" lon="152.9578690">
<ele>27.168</ele>
<time>2018-01-17T05:41:17.644Z</time>
</trkpt>
<trkpt lat="-26.6867956" lon="152.9581901">
<ele>27.664</ele>
<time>2018-01-17T05:41:20.379Z</time>
</trkpt>
<trkpt lat="-26.6865922" lon="152.9584955">
<ele>28.539</ele>
<time>2018-01-17T05:41:23.292Z</time>
</trkpt>
<trkpt lat="-26.6863456" lon="152.9587608">
<ele>29.662</ele>
<time>2018-01-17T05:41:26.313Z</time>
</trkpt>
<trkpt lat="-26.6860740" lon="152.9589935">
<ele>30.670</ele>
<time>2018-01-17T05:41:29.346Z</time>
</trkpt>
<trkpt lat="-26.6857882" lon="152.9592169">
<ele>31.351</ele>
<time>2018-01-17T05:41:32.386Z</time>
</trkpt>
<trkpt lat="-26.6854717" lon="152.9593612">
<ele>31.731</ele>
<time>2018-01-17T05:41:35.335Z</time>
</trkpt>
<trkpt lat="-26.6851460" lon="152.9594261">
<ele>31.885</ele>
<time>2018-01-17T05:41:38.160Z</time>
</trkpt>
<trkpt lat="-26.6848677" lon="152.9594991">
<ele>31.858</ele>
<time>2018-01-17T05:41:40.597Z</time>
</trkpt>
<trkpt lat="-26.6847217" lon="152.9596845">
<ele>31.701</ele>
<time>2018-01-17T05:41:42.497Z</time>
</trkpt>
<trkpt lat="-26.6847928" lon="152.9599028">
<ele>31.491</ele>
<time>2018-01-17T05:41:44.327Z</time>
</trkpt>
<trkpt lat="-26.6849263" lon="152.9600794">
<ele>31.193</ele>
<time>2018-01-17T05:41:46.256Z</time>
</trkpt>
<trkpt lat="-26.6851748" lon="152.9600566">
<ele>30.556</ele>
<time>2018-01-17T05:41:48.823Z</time>
</trkpt>
<trkpt lat="-26.6854842" lon="152.9599386">
<ele>29.418</ele>
<time>2018-01-17T05:41:53.094Z</time>
</trkpt>
<trkpt lat="-26.6858404" lon="152.9598583">
<ele>27.946</ele>
<time>2018-01-17T05:41:58.511Z</time>
</trkpt>
<trkpt lat="-26.6862038" lon="152.9598336">
<ele>26.504</ele>
<time>2018-01-17T05:42:02.670Z</time>
</trkpt>
<trkpt lat="-26.6865393" lon="152.9600062">
<ele>25.437</ele>
<time>2018-01-17T05:42:05.902Z</time>
</trkpt>
<trkpt lat="-26.6868145" lon="152.9603474">
<ele>24.807</ele>
<time>2018-01-17T05:42:09.268Z</time>
</trkpt>
<trkpt lat="-26.6870630" lon="152.9607971">
<ele>24.356</ele>
<time>2018-01-17T05:42:13.101Z</time>
</trkpt>
<trkpt lat="-26.6872990" lon="152.9612784">
<ele>23.915</ele>
<time>2018-01-17T05:42:16.676Z</time>
</trkpt>
<trkpt lat="-26.6874972" lon="152.9617485">
<ele>23.587</ele>
<time>2018-01-17T05:42:19.719Z</time>
</trkpt>
<trkpt lat="-26.6876722" lon="152.9622354">
<ele>23.711</ele>
<time>2018-01-17T05:42:22.718Z</time>
</trkpt>
<trkpt lat="-26.6878388" lon="152.9627156">
<ele>24.581</ele>
<time>2018-01-17T05:42:25.674Z</time>
</trkpt>
<trkpt lat="-26.6880760" lon="152.9630275">
<ele>26.037</ele>
<time>2018-01-17T05:42:28.022Z</time>
</trkpt>
<trkpt lat="-26.6885110" lon="152.9631113">
<ele>27.801</ele>
<time>2018-01-17T05:42:30.935Z</time>
</trkpt>
<trkpt lat="-26.6889169" lon="152.9632375">
<ele>29.907</ele>
<time>2018-01-17T05:42:33.973Z</time>
</trkpt>
<trkpt lat="-26.6892987" lon="152.9632880">
<ele>32.561</ele>
<time>2018-01-17T05:42:36.833Z</time>
</trkpt>
<trkpt lat="-26.6897597" lon="152.9631249">
<ele>35.552</ele>
<time>2018-01-17T05:42:40.361Z</time>
</trkpt>
<trkpt lat="-26.6902358" lon="152.9630289">
<ele>37.970</ele>
<time>2018-01-17T05:42:43.836Z</time>
</trkpt>
<trkpt lat="-26.6906808" lon="152.9629617">
<ele>38.881</ele>
<time>2018-01-17T05:42:46.836Z</time>
</trkpt>
<trkpt lat="-26.6910854" lon="152.9628926">
<ele>38.118</ele>
<time>2018-01-17T05:42:49.478Z</time>
</trkpt>
<trkpt lat="-26.6914468" lon="152.9629363">
<ele>36.229</ele>
<time>2018-01-17T05:42:51.870Z</time>
</trkpt>
<trkpt lat="-26.6917546" lon="152.9631161">
<ele>33.907</ele>
<time>2018-01-17T05:42:54.287Z</time>
</trkpt>
<trkpt lat="-26.6919589" lon="152.9632867">
<ele>31.776</ele>
<time>2018-01-17T05:42:56.275Z</time>
</trkpt>
<trkpt lat="-26.6920853" lon="152.9631593">
<ele>30.302</ele>
<time>2018-01-17T05:42:57.672Z</time>
</trkpt>
<trkpt lat="-26.6921212" lon="152.9628169">
<ele>29.536</ele>
<time>2018-01-17T05:43:00.395Z</time>
</trkpt>
<trkpt lat="-26.6921423" lon="152.9623689">
<ele>29.304</ele>
<time>2018-01-17T05:43:04.798Z</time>
</trkpt>
<trkpt lat="-26.6922392" lon="152.9619374">
<ele>29.419</ele>
<time>2018-01-17T05:43:09.849Z</time>
</trkpt>
<trkpt lat="-26.6925284" lon="152.9615681">
<ele>29.587</ele>
<time>2018-01-17T05:43:13.624Z</time>
</trkpt>
<trkpt lat="-26.6928597" lon="152.9612347">
<ele>29.419</ele>
<time>2018-01-17T05:43:16.923Z</time>
</trkpt>
<trkpt lat="-26.6931724" lon="152.9609264">
<ele>28.647</ele>
<time>2018-01-17T05:43:19.784Z</time>
</trkpt>
<trkpt lat="-26.6935453" lon="152.9607100">
<ele>27.536</ele>
<time>2018-01-17T05:43:22.611Z</time>
</trkpt>
<trkpt lat="-26.6940652" lon="152.9604166">
<ele>26.462</ele>
<time>2018-01-17T05:43:26.520Z</time>
</trkpt>
<trkpt lat="-26.6945720" lon="152.9600923">
<ele>25.120</ele>
<time>2018-01-17T05:43:30.038Z</time>
</trkpt>
<trkpt lat="-26.6950621" lon="152.9598345">
<ele>23.242</ele>
<time>2018-01-17T05:43:32.921Z</time>
</trkpt>
<trkpt lat="-26.6956237" lon="152.9596861">
<ele>21.361</ele>
<time>2018-01-17T05:43:35.996Z</time>
</trkpt>
<trkpt lat="-26.6961698" lon="152.9595416">
<ele>20.147</ele>
<time>2018-01-17T05:43:39.046Z</time>
</trkpt>
<trkpt lat="-26.6967648" lon="152.9595441">
<ele>19.928</ele>
<time>2018-01-17T05:43:42.302Z</time>
</trkpt>
<trkpt lat="-26.6973198" lon="152.9598102">
<ele>20.823</ele>
<time>2018-01-17T05:43:45.594Z</time>
</trkpt>
<trkpt lat="-26.6977922" lon="152.9601204">
<ele>22.781</ele>
<time>2018-01-17T05:43:48.537Z</time>
</trkpt>
<trkpt lat="-26.6981744" lon="152.9606170">
<ele>25.487</ele>
<time>2018-01-17T05:43:51.644Z</time>
</trkpt>
<trkpt lat="-26.6985043" lon="152.9611386">
<ele>28.166</ele>
<time>2018-01-17T05:43:54.641Z</time>
</trkpt>
<trkpt lat="-26.6988354" lon="152.9616372">
<ele>29.943</ele>
<time>2018-01-17T05:43:57.560Z</time>
</trkpt>
<trkpt lat="-26.6993134" lon="152.9618973">
<ele>30.607</ele>
<time>2018-01-17T05:44:00.448Z</time>
</trkpt>
<trkpt lat="-26.6999063" lon="152.9619776">
<ele>30.422</ele>
<time>2018-01-17T05:44:03.774Z</time>
</trkpt>
<trkpt lat="-26.7004409" lon="152.9620922">
<ele>29.800</ele>
<time>2018-01-17T05:44:06.672Z</time>
</trkpt>
<trkpt lat="-26.7009470" lon="152.9621391">
<ele>29.405</ele>
<time>2018-01-17T05:44:09.287Z</time>
</trkpt>
<trkpt lat="-26.7014883" lon="152.9621714">
<ele>29.613</ele>
<time>2018-01-17T05:44:12.195Z</time>
</trkpt>
<trkpt lat="-26.7020869" lon="152.9622054">
<ele>30.071</ele>
<time>2018-01-17T05:44:15.453Z</time>
</trkpt>
<trkpt lat="-26.7026837" lon="152.9621883">
<ele>30.224</ele>
<time>2018-01-17T05:44:18.535Z</time>
</trkpt>
<trkpt lat="-26.7033042" lon="152.9621646">
<ele>29.681</ele>
<time>2018-01-17T05:44:21.643Z</time>
</trkpt>
<trkpt lat="-26.7039102" lon="152.9620788">
<ele>28.134</ele>
<time>2018-01-17T05:44:24.681Z</time>
</trkpt>
<trkpt lat="-26.7044817" lon="152.9619672">
<ele>25.568</ele>
<time>2018-01-17T05:44:27.597Z</time>
</trkpt>
<trkpt lat="-26.7050842" lon="152.9619304">
<ele>22.778</ele>
<time>2018-01-17T05:44:30.639Z</time>
</trkpt>
<trkpt lat="-26.7056752" lon="152.9618532">
<ele>20.823</ele>
<time>2018-01-17T05:44:33.572Z</time>
</trkpt>
<trkpt lat="-26.7062409" lon="152.9616597">
<ele>19.676</ele>
<time>2018-01-17T05:44:36.475Z</time>
</trkpt>
<trkpt lat="-26.7067949" lon="152.9614338">
<ele>18.704</ele>
<time>2018-01-17T05:44:39.418Z</time>
</trkpt>
<trkpt lat="-26.7073295" lon="152.9612433">
<ele>17.885</ele>
<time>2018-01-17T05:44:42.257Z</time>
</trkpt>
<trkpt lat="-26.7078381" lon="152.9609025">
<ele>17.468</ele>
<time>2018-01-17T05:44:45.360Z</time>
</trkpt>
<trkpt lat="-26.7082378" lon="152.9603646">
<ele>17.352</ele>
<time>2018-01-17T05:44:48.727Z</time>
</trkpt>
<trkpt lat="-26.7085964" lon="152.9598050">
<ele>16.979</ele>
<time>2018-01-17T05:44:51.957Z</time>
</trkpt>
<trkpt lat="-26.7089144" lon="152.9593174">
<ele>16.064</ele>
<time>2018-01-17T05:44:54.772Z</time>
</trkpt>
<trkpt lat="-26.7093513" lon="152.9590388">
<ele>15.193</ele>
<time>2018-01-17T05:44:57.497Z</time>
</trkpt>
<trkpt lat="-26.7099573" lon="152.9591560">
<ele>14.893</ele>
<time>2018-01-17T05:45:00.916Z</time>
</trkpt>
<trkpt lat="-26.7105590" lon="152.9592102">
<ele>14.966</ele>
<time>2018-01-17T05:45:04.116Z</time>
</trkpt>
<trkpt lat="-26.7111715" lon="152.9592579">
<ele>15.049</ele>
<time>2018-01-17T05:45:07.188Z</time>
</trkpt>
<trkpt lat="-26.7117644" lon="152.9592799">
<ele>14.925</ele>
<time>2018-01-17T05:45:10.100Z</time>
</trkpt>
<trkpt lat="-26.7123317" lon="152.9593170">
<ele>14.642</ele>
<time>2018-01-17T05:45:12.896Z</time>
</trkpt>
<trkpt lat="-26.7129042" lon="152.9593115">
<ele>14.470</ele>
<time>2018-01-17T05:45:15.725Z</time>
</trkpt>
<trkpt lat="-26.7135135" lon="152.9592014">
<ele>14.569</ele>
<time>2018-01-17T05:45:18.791Z</time>
</trkpt>
<trkpt lat="-26.7140615" lon="152.9590523">
<ele>14.839</ele>
<time>2018-01-17T05:45:21.616Z</time>
</trkpt>
<trkpt lat="-26.7146596" lon="152.9589535">
<ele>15.355</ele>
<time>2018-01-17T05:45:24.656Z</time>
</trkpt>
<trkpt lat="-26.7151675" lon="152.9588025">
<ele>16.774</ele>
<time>2018-01-17T05:45:27.313Z</time>
</trkpt>
<trkpt lat="-26.7155495" lon="152.9586256">
<ele>19.771</ele>
<time>2018-01-17T05:45:29.525Z</time>
</trkpt>
<trkpt lat="-26.7159110" lon="152.9584697">
<ele>24.033</ele>
<time>2018-01-17T05:45:31.858Z</time>
</trkpt>
<trkpt lat="-26.7163233" lon="152.9582755">
<ele>28.523</ele>
<time>2018-01-17T05:45:34.819Z</time>
</trkpt>
<trkpt lat="-26.7167599" lon="152.9580603">
<ele>32.480</ele>
<time>2018-01-17T05:45:38.113Z</time>
</trkpt>
<trkpt lat="-26.7172612" lon="152.9578872">
<ele>35.347</ele>
<time>2018-01-17T05:45:41.607Z</time>
</trkpt>
<trkpt lat="-26.7176854" lon="152.9578073">
<ele>36.511</ele>
<time>2018-01-17T05:45:44.257Z</time>
</trkpt>
<trkpt lat="-26.7181411" lon="152.9578923">
<ele>35.805</ele>
<time>2018-01-17T05:45:47.094Z</time>
</trkpt>
<trkpt lat="-26.7185677" lon="152.9579473">
<ele>33.308</ele>
<time>2018-01-17T05:45:49.860Z</time>
</trkpt>
<trkpt lat="-26.7187562" lon="152.9576818">
<ele>29.521</ele>
<time>2018-01-17T05:45:51.902Z</time>
</trkpt>
<trkpt lat="-26.7189908" lon="152.9572653">
<ele>25.975</ele>
<time>2018-01-17T05:45:54.990Z</time>
</trkpt>
<trkpt lat="-26.7192496" lon="152.9568907">
<ele>24.184</ele>
<time>2018-01-17T05:45:57.985Z</time>
</trkpt>
<trkpt lat="-26.7195705" lon="152.9567542">
<ele>24.208</ele>
<time>2018-01-17T05:46:00.364Z</time>
</trkpt>
<trkpt lat="-26.7199766" lon="152.9569780">
<ele>25.041</ele>
<time>2018-01-17T05:46:03.643Z</time>
</trkpt>
<trkpt lat="-26.7203816" lon="152.9572401">
<ele>25.738</ele>
<time>2018-01-17T05:46:07.331Z</time>
</trkpt>
<trkpt lat="-26.7207758" lon="152.9574877">
<ele>26.012</ele>
<time>2018-01-17T05:46:10.572Z</time>
</trkpt>
<trkpt lat="-26.7211717" lon="152.9577300">
<ele>26.013</ele>
<time>2018-01-17T05:46:13.532Z</time>
</trkpt>
<trkpt lat="-26.7216462" lon="152.9578036">
<ele>25.911</ele>
<time>2018-01-17T05:46:16.607Z</time>
</trkpt>
<trkpt lat="-26.7220913" lon="152.9578446">
<ele>25.574</ele>
<time>2018-01-17T05:46:19.451Z</time>
</trkpt>
<trkpt lat="-26.7225492" lon="152.9578948">
<ele>24.780</ele>
<time>2018-01-17T05:46:22.377Z</time>
</trkpt>
<trkpt lat="-26.7227680" lon="152.9582965">
<ele>23.691</ele>
<time>2018-01-17T05:46:25.138Z</time>
</trkpt>
<trkpt lat="-26.7230171" lon="152.9587570">
<ele>22.612</ele>
<time>2018-01-17T05:46:28.425Z</time>
</trkpt>
<trkpt lat="-26.7232758" lon="152.9592226">
<ele>21.731</ele>
<time>2018-01-17T05:46:31.674Z</time>
</trkpt>
<trkpt lat="-26.7236165" lon="152.9595871">
<ele>21.218</ele>
<time>2018-01-17T05:46:34.624Z</time>
</trkpt>
<trkpt lat="-26.7240616" lon="152.9597042">
<ele>20.999</ele>
<time>2018-01-17T05:46:37.493Z</time>
</trkpt>
<trkpt lat="-26.7244941" lon="152.9595647">
<ele>20.853</ele>
<time>2018-01-17T05:46:40.389Z</time>
</trkpt>
<trkpt lat="-26.7249040" lon="152.9592154">
<ele>20.822</ele>
<time>2018-01-17T05:46:43.794Z</time>
</trkpt>
<trkpt lat="-26.7251980" lon="152.9588310">
<ele>20.987</ele>
<time>2018-01-17T05:46:46.811Z</time>
</trkpt>
<trkpt lat="-26.7254722" lon="152.9584840">
<ele>21.199</ele>
<time>2018-01-17T05:46:49.593Z</time>
</trkpt>
<trkpt lat="-26.7256849" lon="152.9581710">
<ele>21.396</ele>
<time>2018-01-17T05:46:52.037Z</time>
</trkpt>
<trkpt lat="-26.7258873" lon="152.9579573">
<ele>21.771</ele>
<time>2018-01-17T05:46:54.081Z</time>
</trkpt>
<trkpt lat="-26.7259980" lon="152.9579473">
<ele>22.324</ele>
<time>2018-01-17T05:46:54.934Z</time>
</trkpt>
<trkpt lat="-26.7261977" lon="152.9581911">
<ele>22.610</ele>
<time>2018-01-17T05:46:57.430Z</time>
</trkpt>
<trkpt lat="-26.7264682" lon="152.9585193">
<ele>22.277</ele>
<time>2018-01-17T05:47:02.491Z</time>
</trkpt>
<trkpt lat="-26.7268062" lon="152.9588788">
<ele>21.430</ele>
<time>2018-01-17T05:47:08.228Z</time>
</trkpt>
<trkpt lat="-26.7271717" lon="152.9592076">
<ele>20.359</ele>
<time>2018-01-17T05:47:11.756Z</time>
</trkpt>
<trkpt lat="-26.7275714" lon="152.9594302">
<ele>19.412</ele>
<time>2018-01-17T05:47:14.695Z</time>
</trkpt>
<trkpt lat="-26.7280275" lon="152.9594469">
<ele>19.024</ele>
<time>2018-01-17T05:47:17.676Z</time>
</trkpt>
<trkpt lat="-26.7284909" lon="152.9594206">
<ele>19.386</ele>
<time>2018-01-17T05:47:20.731Z</time>
</trkpt>
<trkpt lat="-26.7289445" lon="152.9594714">
<ele>20.414</ele>
<time>2018-01-17T05:47:23.720Z</time>
</trkpt>
<trkpt lat="-26.7293834" lon="152.9595782">
<ele>22.112</ele>
<time>2018-01-17T05:47:26.678Z</time>
</trkpt>
<trkpt lat="-26.7298429" lon="152.9597253">
<ele>24.401</ele>
<time>2018-01-17T05:47:29.806Z</time>
</trkpt>
<trkpt lat="-26.7302694" lon="152.9598019">
<ele>26.667</ele>
<time>2018-01-17T05:47:32.610Z</time>
</trkpt>
<trkpt lat="-26.7307488" lon="152.9598496">
<ele>28.293</ele>
<time>2018-01-17T05:47:35.743Z</time>
</trkpt>
<trkpt lat="-26.7313345" lon="152.9598268">
<ele>29.271</ele>
<time>2018-01-17T05:47:39.336Z</time>
</trkpt>
<trkpt lat="-26.7319867" lon="152.9598239">
<ele>29.920</ele>
<time>2018-01-17T05:47:42.801Z</time>
</trkpt>
<trkpt lat="-26.7325590" lon="152.9598607">
<ele>30.583</ele>
<time>2018-01-17T05:47:45.613Z</time>
</trkpt>
<trkpt lat="-26.7331154" lon="152.9598637">
<ele>31.642</ele>
<time>2018-01-17T05:47:48.314Z</time>
</trkpt>
<trkpt lat="-26.7336671" lon="152.9599538">
<ele>33.404</ele>
<time>2018-01-17T05:47:51.101Z</time>
</trkpt>
<trkpt lat="-26.7341877" lon="152.9600679">
<ele>36.069</ele>
<time>2018-01-17T05:47:53.908Z</time>
</trkpt>
<trkpt lat="-26.7345355" lon="152.9602751">
<ele>39.536</ele>
<time>2018-01-17T05:47:56.128Z</time>
</trkpt>
<trkpt lat="-26.7346092" lon="152.9603952">
<ele>43.059</ele>
<time>2018-01-17T05:47:56.863Z</time>
</trkpt>
<trkpt lat="-26.7347555" lon="152.9605579">
<ele>45.868</ele>
<time>2018-01-17T05:47:58.184Z</time>
</trkpt>
<trkpt lat="-26.7350355" lon="152.9609803">
<ele>48.011</ele>
<time>2018-01-17T05:48:02.032Z</time>
</trkpt>
<trkpt lat="-26.7353055" lon="152.9614085">
<ele>49.702</ele>
<time>2018-01-17T05:48:09.240Z</time>
</trkpt>
<trkpt lat="-26.7356427" lon="152.9619018">
<ele>50.723</ele>
<time>2018-01-17T05:48:13.818Z</time>
</trkpt>
<trkpt lat="-26.7359583" lon="152.9624323">
<ele>51.129</ele>
<time>2018-01-17T05:48:17.241Z</time>
</trkpt>
<trkpt lat="-26.7362727" lon="152.9629378">
<ele>51.356</ele>
<time>2018-01-17T05:48:20.232Z</time>
</trkpt>
<trkpt lat="-26.7366397" lon="152.9632090">
<ele>51.733</ele>
<time>2018-01-17T05:48:22.566Z</time>
</trkpt>
<trkpt lat="-26.7371741" lon="152.9631964">
<ele>52.819</ele>
<time>2018-01-17T05:48:25.551Z</time>
</trkpt>
<trkpt lat="-26.7377321" lon="152.9629702">
<ele>55.542</ele>
<time>2018-01-17T05:48:29.169Z</time>
</trkpt>
<trkpt lat="-26.7382860" lon="152.9628107">
<ele>60.415</ele>
<time>2018-01-17T05:48:32.509Z</time>
</trkpt>
<trkpt lat="-26.7388504" lon="152.9628154">
<ele>67.137</ele>
<time>2018-01-17T05:48:35.514Z</time>
</trkpt>
<trkpt lat="-26.7393363" lon="152.9629947">
<ele>74.708</ele>
<time>2018-01-17T05:48:38.219Z</time>
</trkpt>
<trkpt lat="-26.7397360" lon="152.9633514">
<ele>81.971</ele>
<time>2018-01-17T05:48:41.029Z</time>
</trkpt>
<trkpt lat="-26.7401209" lon="152.9636807">
<ele>88.717</ele>
<time>2018-01-17T05:48:43.796Z</time>
</trkpt>
<trkpt lat="-26.7403595" lon="152.9640939">
<ele>95.293</ele>
<time>2018-01-17T05:48:46.383Z</time>
</trkpt>
<trkpt lat="-26.7404857" lon="152.9646054">
<ele>100.942</ele>
<time>2018-01-17T05:48:49.293Z</time>
</trkpt>
<trkpt lat="-26.7406140" lon="152.9651030">
<ele>104.369</ele>
<time>2018-01-17T05:48:52.282Z</time>
</trkpt>
<trkpt lat="-26.7405499" lon="152.9655414">
<ele>105.446</ele>
<time>2018-01-17T05:48:54.882Z</time>
</trkpt>
<trkpt lat="-26.7405265" lon="152.9659372">
<ele>105.158</ele>
<time>2018-01-17T05:48:57.184Z</time>
</trkpt>
<trkpt lat="-26.7406764" lon="152.9662983">
<ele>104.288</ele>
<time>2018-01-17T05:48:59.595Z</time>
</trkpt>
<trkpt lat="-26.7409033" lon="152.9663128">
<ele>103.007</ele>
<time>2018-01-17T05:49:01.263Z</time>
</trkpt>
<trkpt lat="-26.7410936" lon="152.9659630">
<ele>101.482</ele>
<time>2018-01-17T05:49:04.177Z</time>
</trkpt>
<trkpt lat="-26.7412729" lon="152.9654985">
<ele>100.191</ele>
<time>2018-01-17T05:49:08.734Z</time>
</trkpt>
<trkpt lat="-26.7413670" lon="152.9651354">
<ele>99.363</ele>
<time>2018-01-17T05:49:12.391Z</time>
</trkpt>
<trkpt lat="-26.7413929" lon="152.9649305">
<ele>98.566</ele>
<time>2018-01-17T05:49:13.952Z</time>
</trkpt>
<trkpt lat="-26.7416316" lon="152.9651915">
<ele>97.151</ele>
<time>2018-01-17T05:49:16.675Z</time>
</trkpt>
<trkpt lat="-26.7418326" lon="152.9656451">
<ele>95.167</ele>
<time>2018-01-17T05:49:21.368Z</time>
</trkpt>
<trkpt lat="-26.7420244" lon="152.9661191">
<ele>93.392</ele>
<time>2018-01-17T05:49:26.399Z</time>
</trkpt>
<trkpt lat="-26.7421128" lon="152.9665136">
<ele>92.493</ele>
<time>2018-01-17T05:49:29.020Z</time>
</trkpt>
<trkpt lat="-26.7422486" lon="152.9667215">
<ele>92.620</ele>
<time>2018-01-17T05:49:30.627Z</time>
</trkpt>
<trkpt lat="-26.7425040" lon="152.9665865">
<ele>93.668</ele>
<time>2018-01-17T05:49:32.649Z</time>
</trkpt>
<trkpt lat="-26.7428486" lon="152.9661377">
<ele>95.233</ele>
<time>2018-01-17T05:49:37.557Z</time>
</trkpt>
<trkpt lat="-26.7432751" lon="152.9658729">
<ele>96.593</ele>
<time>2018-01-17T05:49:41.854Z</time>
</trkpt>
<trkpt lat="-26.7436410" lon="152.9656034">
<ele>97.165</ele>
<time>2018-01-17T05:49:44.893Z</time>
</trkpt>
<trkpt lat="-26.7440731" lon="152.9654986">
<ele>96.559</ele>
<time>2018-01-17T05:49:47.998Z</time>
</trkpt>
<trkpt lat="-26.7446214" lon="152.9656711">
<ele>94.486</ele>
<time>2018-01-17T05:49:51.913Z</time>
</trkpt>
<trkpt lat="-26.7451888" lon="152.9658442">
<ele>91.109</ele>
<time>2018-01-17T05:49:55.497Z</time>
</trkpt>
<trkpt lat="-26.7456680" lon="152.9661864">
<ele>86.981</ele>
<time>2018-01-17T05:49:58.688Z</time>
</trkpt>
<trkpt lat="-26.7461694" lon="152.9663237">
<ele>82.752</ele>
<time>2018-01-17T05:50:01.525Z</time>
</trkpt>
<trkpt lat="-26.7466764" lon="152.9661726">
<ele>79.168</ele>
<time>2018-01-17T05:50:04.422Z</time>
</trkpt>
<trkpt lat="-26.7472087" lon="152.9658994">
<ele>76.570</ele>
<time>2018-01-17T05:50:07.574Z</time>
</trkpt>
<trkpt lat="-26.7478000" lon="152.9656970">
<ele>74.557</ele>
<time>2018-01-17T05:50:10.728Z</time>
</trkpt>
<trkpt lat="-26.7484027" lon="152.9655811">
<ele>72.315</ele>
<time>2018-01-17T05:50:13.759Z</time>
</trkpt>
<trkpt lat="-26.7490032" lon="152.9655140">
<ele>69.146</ele>
<time>2018-01-17T05:50:16.742Z</time>
</trkpt>
<trkpt lat="-26.7495931" lon="152.9654480">
<ele>65.454</ele>
<time>2018-01-17T05:50:19.703Z</time>
</trkpt>
<trkpt lat="-26.7501235" lon="152.9653324">
<ele>62.435</ele>
<time>2018-01-17T05:50:22.511Z</time>
</trkpt>
<trkpt lat="-26.7504224" lon="152.9651005">
<ele>60.476</ele>
<time>2018-01-17T05:50:24.525Z</time>
</trkpt>
<trkpt lat="-26.7506259" lon="152.9646820">
<ele>59.157</ele>
<time>2018-01-17T05:50:27.159Z</time>
</trkpt>
<trkpt lat="-26.7509691" lon="152.9645047">
<ele>58.167</ele>
<time>2018-01-17T05:50:29.833Z</time>
</trkpt>
<trkpt lat="-26.7514016" lon="152.9644097">
<ele>57.073</ele>
<time>2018-01-17T05:50:33.303Z</time>
</trkpt>
<trkpt lat="-26.7518629" lon="152.9644180">
<ele>54.911</ele>
<time>2018-01-17T05:50:36.708Z</time>
</trkpt>
<trkpt lat="-26.7523394" lon="152.9645710">
<ele>50.879</ele>
<time>2018-01-17T05:50:40.001Z</time>
</trkpt>
<trkpt lat="-26.7527850" lon="152.9645543">
<ele>45.564</ele>
<time>2018-01-17T05:50:42.984Z</time>
</trkpt>
<trkpt lat="-26.7531329" lon="152.9642441">
<ele>40.762</ele>
<time>2018-01-17T05:50:46.025Z</time>
</trkpt>
<trkpt lat="-26.7534723" lon="152.9638258">
<ele>37.589</ele>
<time>2018-01-17T05:50:49.294Z</time>
</trkpt>
<trkpt lat="-26.7538536" lon="152.9634076">
<ele>35.647</ele>
<time>2018-01-17T05:50:52.488Z</time>
</trkpt>
<trkpt lat="-26.7542029" lon="152.9629734">
<ele>34.087</ele>
<time>2018-01-17T05:50:55.492Z</time>
</trkpt>
<trkpt lat="-26.7546645" lon="152.9627135">
<ele>32.208</ele>
<time>2018-01-17T05:50:58.445Z</time>
</trkpt>
<trkpt lat="-26.7552206" lon="152.9625434">
<ele>29.311</ele>
<time>2018-01-17T05:51:01.716Z</time>
</trkpt>
<trkpt lat="-26.7556935" lon="152.9623687">
<ele>25.572</ele>
<time>2018-01-17T05:51:04.520Z</time>
</trkpt>
<trkpt lat="-26.7560881" lon="152.9622274">
<ele>22.357</ele>
<time>2018-01-17T05:51:06.948Z</time>
</trkpt>
<trkpt lat="-26.7565710" lon="152.9623381">
<ele>21.279</ele>
<time>2018-01-17T05:51:10.077Z</time>
</trkpt>
<trkpt lat="-26.7571149" lon="152.9624669">
<ele>22.710</ele>
<time>2018-01-17T05:51:13.576Z</time>
</trkpt>
<trkpt lat="-26.7576483" lon="152.9625971">
<ele>25.268</ele>
<time>2018-01-17T05:51:16.721Z</time>
</trkpt>
<trkpt lat="-26.7581773" lon="152.9627108">
<ele>27.319</ele>
<time>2018-01-17T05:51:19.722Z</time>
</trkpt>
<trkpt lat="-26.7586459" lon="152.9628044">
<ele>28.387</ele>
<time>2018-01-17T05:51:22.453Z</time>
</trkpt>
<trkpt lat="-26.7590400" lon="152.9628860">
<ele>28.705</ele>
<time>2018-01-17T05:51:24.900Z</time>
</trkpt>
<trkpt lat="-26.7593981" lon="152.9628912">
<ele>28.559</ele>
<time>2018-01-17T05:51:27.263Z</time>
</trkpt>
<trkpt lat="-26.7595996" lon="152.9627975">
<ele>27.951</ele>
<time>2018-01-17T05:51:28.853Z</time>
</trkpt>
<trkpt lat="-26.7595993" lon="152.9625959">
<ele>26.739</ele>
<time>2018-01-17T05:51:30.215Z</time>
</trkpt>
<trkpt lat="-26.7595968" lon="152.9624913">
<ele>25.018</ele>
<time>2018-01-17T05:51:31.098Z</time>
</trkpt>
<trkpt lat="-26.7598169" lon="152.9623922">
<ele>23.285</ele>
<time>2018-01-17T05:51:33.565Z</time>
</trkpt>
<trkpt lat="-26.7601731" lon="152.9623686">
<ele>22.129</ele>
<time>2018-01-17T05:51:40.799Z</time>
</trkpt>
<trkpt lat="-26.7605868" lon="152.9622141">
<ele>21.886</ele>
<time>2018-01-17T05:51:45.784Z</time>
</trkpt>
<trkpt lat="-26.7610295" lon="152.9619402">
<ele>22.557</ele>
<time>2018-01-17T05:51:49.470Z</time>
</trkpt>
<trkpt lat="-26.7614676" lon="152.9616966">
<ele>23.662</ele>
<time>2018-01-17T05:51:52.587Z</time>
</trkpt>
<trkpt lat="-26.7618982" lon="152.9614730">
<ele>24.384</ele>
<time>2018-01-17T05:51:55.536Z</time>
</trkpt>
<trkpt lat="-26.7623235" lon="152.9612735">
<ele>24.304</ele>
<time>2018-01-17T05:51:58.441Z</time>
</trkpt>
<trkpt lat="-26.7627493" lon="152.9611455">
<ele>23.707</ele>
<time>2018-01-17T05:52:01.257Z</time>
</trkpt>
<trkpt lat="-26.7632139" lon="152.9610777">
<ele>23.047</ele>
<time>2018-01-17T05:52:04.257Z</time>
</trkpt>
<trkpt lat="-26.7636636" lon="152.9611947">
<ele>22.399</ele>
<time>2018-01-17T05:52:07.206Z</time>
</trkpt>
<trkpt lat="-26.7641033" lon="152.9613710">
<ele>21.739</ele>
<time>2018-01-17T05:52:10.224Z</time>
</trkpt>
<trkpt lat="-26.7644669" lon="152.9616447">
<ele>21.501</ele>
<time>2018-01-17T05:52:13.118Z</time>
</trkpt>
<trkpt lat="-26.7647387" lon="152.9619190">
<ele>22.254</ele>
<time>2018-01-17T05:52:15.618Z</time>
</trkpt>
<trkpt lat="-26.7649798" lon="152.9620779">
<ele>23.930</ele>
<time>2018-01-17T05:52:17.656Z</time>
</trkpt>
<trkpt lat="-26.7650306" lon="152.9621776">
<ele>25.880</ele>
<time>2018-01-17T05:52:18.491Z</time>
</trkpt>
<trkpt lat="-26.7650415" lon="152.9622848">
<ele>27.707</ele>
<time>2018-01-17T05:52:19.345Z</time>
</trkpt>
<trkpt lat="-26.7649228" lon="152.9626257">
<ele>29.286</ele>
<time>2018-01-17T05:52:23.418Z</time>
</trkpt>
<trkpt lat="-26.7647915" lon="152.9630980">
<ele>30.335</ele>
<time>2018-01-17T05:52:31.979Z</time>
</trkpt>
<trkpt lat="-26.7646822" lon="152.9636218">
<ele>30.619</ele>
<time>2018-01-17T05:52:35.909Z</time>
</trkpt>
<trkpt lat="-26.7645706" lon="152.9641308">
<ele>30.141</ele>
<time>2018-01-17T05:52:39.087Z</time>
</trkpt>
<trkpt lat="-26.7644610" lon="152.9646235">
<ele>29.137</ele>
<time>2018-01-17T05:52:42.030Z</time>
</trkpt>
<trkpt lat="-26.7643827" lon="152.9651187">
<ele>28.127</ele>
<time>2018-01-17T05:52:44.942Z</time>
</trkpt>
<trkpt lat="-26.7643211" lon="152.9656308">
<ele>27.582</ele>
<time>2018-01-17T05:52:47.940Z</time>
</trkpt>
<trkpt lat="-26.7642249" lon="152.9661193">
<ele>27.731</ele>
<time>2018-01-17T05:52:50.843Z</time>
</trkpt>
<trkpt lat="-26.7640732" lon="152.9666066">
<ele>28.454</ele>
<time>2018-01-17T05:52:53.838Z</time>
</trkpt>
<trkpt lat="-26.7638478" lon="152.9670466">
<ele>29.251</ele>
<time>2018-01-17T05:52:56.768Z</time>
</trkpt>
<trkpt lat="-26.7636441" lon="152.9675037">
<ele>29.680</ele>
<time>2018-01-17T05:52:59.723Z</time>
</trkpt>
<trkpt lat="-26.7636605" lon="152.9679845">
<ele>29.720</ele>
<time>2018-01-17T05:53:02.529Z</time>
</trkpt>
<trkpt lat="-26.7637553" lon="152.9684899">
<ele>29.518</ele>
<time>2018-01-17T05:53:05.549Z</time>
</trkpt>
<trkpt lat="-26.7640066" lon="152.9690136">
<ele>29.024</ele>
<time>2018-01-17T05:53:08.999Z</time>
</trkpt>
<trkpt lat="-26.7642922" lon="152.9694295">
<ele>28.198</ele>
<time>2018-01-17T05:53:11.976Z</time>
</trkpt>
<trkpt lat="-26.7645515" lon="152.9698568">
<ele>27.381</ele>
<time>2018-01-17T05:53:14.875Z</time>
</trkpt>
<trkpt lat="-26.7647012" lon="152.9702993">
<ele>27.061</ele>
<time>2018-01-17T05:53:17.580Z</time>
</trkpt>
<trkpt lat="-26.7648011" lon="152.9707935">
<ele>27.474</ele>
<time>2018-01-17T05:53:20.591Z</time>
</trkpt>
<trkpt lat="-26.7648377" lon="152.9713079">
<ele>28.418</ele>
<time>2018-01-17T05:53:23.655Z</time>
</trkpt>
<trkpt lat="-26.7645395" lon="152.9717559">
<ele>29.430</ele>
<time>2018-01-17T05:53:26.923Z</time>
</trkpt>
<trkpt lat="-26.7641753" lon="152.9721446">
<ele>30.412</ele>
<time>2018-01-17T05:53:30.242Z</time>
</trkpt>
<trkpt lat="-26.7639483" lon="152.9725776">
<ele>31.525</ele>
<time>2018-01-17T05:53:33.159Z</time>
</trkpt>
<trkpt lat="-26.7637298" lon="152.9730013">
<ele>32.680</ele>
<time>2018-01-17T05:53:35.969Z</time>
</trkpt>
<trkpt lat="-26.7635823" lon="152.9734525">
<ele>33.612</ele>
<time>2018-01-17T05:53:38.767Z</time>
</trkpt>
<trkpt lat="-26.7637683" lon="152.9738032">
<ele>34.383</ele>
<time>2018-01-17T05:53:41.230Z</time>
</trkpt>
<trkpt lat="-26.7641158" lon="152.9739734">
<ele>35.428</ele>
<time>2018-01-17T05:53:44.032Z</time>
</trkpt>
<trkpt lat="-26.7645160" lon="152.9741398">
<ele>36.769</ele>
<time>2018-01-17T05:53:47.448Z</time>
</trkpt>
<trkpt lat="-26.7647538" lon="152.9745472">
<ele>37.850</ele>
<time>2018-01-17T05:53:50.813Z</time>
</trkpt>
<trkpt lat="-26.7647311" lon="152.9750117">
<ele>38.544</ele>
<time>2018-01-17T05:53:53.880Z</time>
</trkpt>
<trkpt lat="-26.7646435" lon="152.9753830">
<ele>39.271</ele>
<time>2018-01-17T05:53:56.422Z</time>
</trkpt>
<trkpt lat="-26.7646154" lon="152.9756451">
<ele>40.332</ele>
<time>2018-01-17T05:53:58.300Z</time>
</trkpt>
<trkpt lat="-26.7646461" lon="152.9757441">
<ele>41.528</ele>
<time>2018-01-17T05:53:59.058Z</time>
</trkpt>
<trkpt lat="-26.7649091" lon="152.9754755">
<ele>42.306</ele>
<time>2018-01-17T05:54:03.000Z</time>
</trkpt>
<trkpt lat="-26.7652081" lon="152.9751486">
<ele>42.443</ele>
<time>2018-01-17T05:54:09.232Z</time>
</trkpt>
<trkpt lat="-26.7654294" lon="152.9747407">
<ele>42.301</ele>
<time>2018-01-17T05:54:12.880Z</time>
</trkpt>
<trkpt lat="-26.7654011" lon="152.9741487">
<ele>42.234</ele>
<time>2018-01-17T05:54:16.482Z</time>
</trkpt>
<trkpt lat="-26.7653722" lon="152.9735438">
<ele>42.440</ele>
<time>2018-01-17T05:54:19.844Z</time>
</trkpt>
<trkpt lat="-26.7653984" lon="152.9729989">
<ele>43.475</ele>
<time>2018-01-17T05:54:22.935Z</time>
</trkpt>
<trkpt lat="-26.7656170" lon="152.9726156">
<ele>46.442</ele>
<time>2018-01-17T05:54:25.640Z</time>
</trkpt>
<trkpt lat="-26.7660113" lon="152.9723302">
<ele>52.315</ele>
<time>2018-01-17T05:54:28.745Z</time>
</trkpt>
<trkpt lat="-26.7664098" lon="152.9721320">
<ele>60.642</ele>
<time>2018-01-17T05:54:31.569Z</time>
</trkpt>
<trkpt lat="-26.7668557" lon="152.9720362">
<ele>69.336</ele>
<time>2018-01-17T05:54:34.656Z</time>
</trkpt>
<trkpt lat="-26.7673009" lon="152.9719773">
<ele>76.004</ele>
<time>2018-01-17T05:54:37.734Z</time>
</trkpt>
<trkpt lat="-26.7677887" lon="152.9719639">
<ele>79.480</ele>
<time>2018-01-17T05:54:40.863Z</time>
</trkpt>
<trkpt lat="-26.7682988" lon="152.9719771">
<ele>80.253</ele>
<time>2018-01-17T05:54:43.975Z</time>
</trkpt>
<trkpt lat="-26.7687800" lon="152.9720872">
<ele>79.409</ele>
<time>2018-01-17T05:54:46.936Z</time>
</trkpt>
<trkpt lat="-26.7692628" lon="152.9722801">
<ele>77.219</ele>
<time>2018-01-17T05:54:50.015Z</time>
</trkpt>
<trkpt lat="-26.7696466" lon="152.9724041">
<ele>73.460</ele>
<time>2018-01-17T05:54:52.672Z</time>
</trkpt>
<trkpt lat="-26.7699929" lon="152.9722891">
<ele>68.944</ele>
<time>2018-01-17T05:54:55.469Z</time>
</trkpt>
<trkpt lat="-26.7704259" lon="152.9719914">
<ele>65.195</ele>
<time>2018-01-17T05:54:59.075Z</time>
</trkpt>
<trkpt lat="-26.7709141" lon="152.9717158">
<ele>62.688</ele>
<time>2018-01-17T05:55:02.251Z</time>
</trkpt>
<trkpt lat="-26.7714006" lon="152.9714220">
<ele>60.848</ele>
<time>2018-01-17T05:55:05.319Z</time>
</trkpt>
<trkpt lat="-26.7718640" lon="152.9711926">
<ele>59.425</ele>
<time>2018-01-17T05:55:08.172Z</time>
</trkpt>
<trkpt lat="-26.7723032" lon="152.9710530">
<ele>58.673</ele>
<time>2018-01-17T05:55:10.980Z</time>
</trkpt>
<trkpt lat="-26.7727597" lon="152.9711657">
<ele>59.202</ele>
<time>2018-01-17T05:55:13.968Z</time>
</trkpt>
<trkpt lat="-26.7733187" lon="152.9713844">
<ele>61.513</ele>
<time>2018-01-17T05:55:17.406Z</time>
</trkpt>
<trkpt lat="-26.7738139" lon="152.9716069">
<ele>65.270</ele>
<time>2018-01-17T05:55:20.377Z</time>
</trkpt>
<trkpt lat="-26.7742193" lon="152.9718180">
<ele>69.668</ele>
<time>2018-01-17T05:55:22.995Z</time>
</trkpt>
<trkpt lat="-26.7746487" lon="152.9719072">
<ele>74.771</ele>
<time>2018-01-17T05:55:25.852Z</time>
</trkpt>
<trkpt lat="-26.7750259" lon="152.9715909">
<ele>81.097</ele>
<time>2018-01-17T05:55:29.067Z</time>
</trkpt>
<trkpt lat="-26.7754170" lon="152.9711633">
<ele>87.992</ele>
<time>2018-01-17T05:55:32.605Z</time>
</trkpt>
<trkpt lat="-26.7758047" lon="152.9708288">
<ele>93.977</ele>
<time>2018-01-17T05:55:35.690Z</time>
</trkpt>
<trkpt lat="-26.7762213" lon="152.9705994">
<ele>98.732</ele>
<time>2018-01-17T05:55:38.713Z</time>
</trkpt>
<trkpt lat="-26.7766531" lon="152.9705078">
<ele>102.972</ele>
<time>2018-01-17T05:55:41.624Z</time>
</trkpt>
<trkpt lat="-26.7771387" lon="152.9704761">
<ele>106.814</ele>
<time>2018-01-17T05:55:44.741Z</time>
</trkpt>
<trkpt lat="-26.7776178" lon="152.9706826">
<ele>109.707</ele>
<time>2018-01-17T05:55:47.949Z</time>
</trkpt>
<trkpt lat="-26.7780368" lon="152.9709390">
<ele>111.320</ele>
<time>2018-01-17T05:55:50.929Z</time>
</trkpt>
<trkpt lat="-26.7784587" lon="152.9711909">
<ele>111.706</ele>
<time>2018-01-17T05:55:53.926Z</time>
</trkpt>
<trkpt lat="-26.7789290" lon="152.9713651">
<ele>111.244</ele>
<time>2018-01-17T05:55:57.072Z</time>
</trkpt>
<trkpt lat="-26.7793919" lon="152.9715121">
<ele>110.340</ele>
<time>2018-01-17T05:56:00.281Z</time>
</trkpt>
<trkpt lat="-26.7796969" lon="152.9717378">
<ele>108.974</ele>
<time>2018-01-17T05:56:02.857Z</time>
</trkpt>
<trkpt lat="-26.7798298" lon="152.9722173">
<ele>106.979</ele>
<time>2018-01-17T05:56:06.048Z</time>
</trkpt>
<trkpt lat="-26.7799706" lon="152.9726461">
<ele>104.630</ele>
<time>2018-01-17T05:56:08.883Z</time>
</trkpt>
<trkpt lat="-26.7802638" lon="152.9730673">
<ele>102.340</ele>
<time>2018-01-17T05:56:12.093Z</time>
</trkpt>
<trkpt lat="-26.7806102" lon="152.9733884">
<ele>100.080</ele>
<time>2018-01-17T05:56:15.062Z</time>
</trkpt>
<trkpt lat="-26.7810521" lon="152.9735003">
<ele>97.605</ele>
<time>2018-01-17T05:56:18.037Z</time>
</trkpt>
<trkpt lat="-26.7815398" lon="152.9734821">
<ele>95.167</ele>
<time>2018-01-17T05:56:21.214Z</time>
</trkpt>
<trkpt lat="-26.7819520" lon="152.9735777">
<ele>93.343</ele>
<time>2018-01-17T05:56:24.014Z</time>
</trkpt>
<trkpt lat="-26.7823477" lon="152.9738517">
<ele>92.160</ele>
<time>2018-01-17T05:56:27.098Z</time>
</trkpt>
<trkpt lat="-26.7827291" lon="152.9741609">
<ele>90.983</ele>
<time>2018-01-17T05:56:30.053Z</time>
</trkpt>
<trkpt lat="-26.7831961" lon="152.9743585">
<ele>89.502</ele>
<time>2018-01-17T05:56:33.052Z</time>
</trkpt>
<trkpt lat="-26.7836811" lon="152.9745014">
<ele>88.191</ele>
<time>2018-01-17T05:56:35.995Z</time>
</trkpt>
<trkpt lat="-26.7841607" lon="152.9747037">
<ele>87.488</ele>
<time>2018-01-17T05:56:38.973Z</time>
</trkpt>
<trkpt lat="-26.7846320" lon="152.9749100">
<ele>87.262</ele>
<time>2018-01-17T05:56:41.916Z</time>
</trkpt>
<trkpt lat="-26.7851006" lon="152.9750599">
<ele>86.896</ele>
<time>2018-01-17T05:56:44.793Z</time>
</trkpt>
<trkpt lat="-26.7855509" lon="152.9751795">
<ele>85.706</ele>
<time>2018-01-17T05:56:47.604Z</time>
</trkpt>
<trkpt lat="-26.7859943" lon="152.9753290">
<ele>83.556</ele>
<time>2018-01-17T05:56:50.517Z</time>
</trkpt>
<trkpt lat="-26.7864111" lon="152.9755479">
<ele>81.052</ele>
<time>2018-01-17T05:56:53.602Z</time>
</trkpt>
<trkpt lat="-26.7867779" lon="152.9757108">
<ele>78.958</ele>
<time>2018-01-17T05:56:56.495Z</time>
</trkpt>
<trkpt lat="-26.7871214" lon="152.9755451">
<ele>77.569</ele>
<time>2018-01-17T05:56:59.351Z</time>
</trkpt>
<trkpt lat="-26.7874096" lon="152.9750851">
<ele>76.687</ele>
<time>2018-01-17T05:57:02.831Z</time>
</trkpt>
<trkpt lat="-26.7876892" lon="152.9746795">
<ele>75.973</ele>
<time>2018-01-17T05:57:05.798Z</time>
</trkpt>
<trkpt lat="-26.7879643" lon="152.9743039">
<ele>74.977</ele>
<time>2018-01-17T05:57:08.696Z</time>
</trkpt>
<trkpt lat="-26.7882843" lon="152.9740330">
<ele>73.405</ele>
<time>2018-01-17T05:57:11.515Z</time>
</trkpt>
<trkpt lat="-26.7887017" lon="152.9738702">
<ele>71.442</ele>
<time>2018-01-17T05:57:14.581Z</time>
</trkpt>
<trkpt lat="-26.7891624" lon="152.9738122">
<ele>69.373</ele>
<time>2018-01-17T05:57:17.647Z</time>
</trkpt>
<trkpt lat="-26.7896019" lon="152.9737562">
<ele>67.047</ele>
<time>2018-01-17T05:57:20.550Z</time>
</trkpt>
<trkpt lat="-26.7900337" lon="152.9736633">
<ele>64.275</ele>
<time>2018-01-17T05:57:23.501Z</time>
</trkpt>
<trkpt lat="-26.7904391" lon="152.9735130">
<ele>61.118</ele>
<time>2018-01-17T05:57:26.408Z</time>
</trkpt>
<trkpt lat="-26.7908326" lon="152.9731527">
<ele>57.306</ele>
<time>2018-01-17T05:57:29.617Z</time>
</trkpt>
<trkpt lat="-26.7912356" lon="152.9728070">
<ele>52.320</ele>
<time>2018-01-17T05:57:32.600Z</time>
</trkpt>
<trkpt lat="-26.7916264" lon="152.9724444">
<ele>46.293</ele>
<time>2018-01-17T05:57:35.569Z</time>
</trkpt>
<trkpt lat="-26.7918878" lon="152.9719562">
<ele>39.840</ele>
<time>2018-01-17T05:57:38.688Z</time>
</trkpt>
<trkpt lat="-26.7921189" lon="152.9715928">
<ele>33.394</ele>
<time>2018-01-17T05:57:41.288Z</time>
</trkpt>
<trkpt lat="-26.7923942" lon="152.9711992">
<ele>27.293</ele>
<time>2018-01-17T05:57:44.256Z</time>
</trkpt>
<trkpt lat="-26.7927278" lon="152.9708898">
<ele>22.301</ele>
<time>2018-01-17T05:57:47.100Z</time>
</trkpt>
<trkpt lat="-26.7930390" lon="152.9705071">
<ele>19.070</ele>
<time>2018-01-17T05:57:50.118Z</time>
</trkpt>
<trkpt lat="-26.7933182" lon="152.9701076">
<ele>17.222</ele>
<time>2018-01-17T05:57:53.069Z</time>
</trkpt>
<trkpt lat="-26.7936142" lon="152.9697125">
<ele>15.897</ele>
<time>2018-01-17T05:57:56.077Z</time>
</trkpt>
<trkpt lat="-26.7939030" lon="152.9693146">
<ele>14.824</ele>
<time>2018-01-17T05:57:59.070Z</time>
</trkpt>
<trkpt lat="-26.7942253" lon="152.9689774">
<ele>14.109</ele>
<time>2018-01-17T05:58:02.015Z</time>
</trkpt>
<trkpt lat="-26.7946308" lon="152.9686728">
<ele>13.510</ele>
<time>2018-01-17T05:58:05.205Z</time>
</trkpt>
<trkpt lat="-26.7950150" lon="152.9683928">
<ele>12.763</ele>
<time>2018-01-17T05:58:08.129Z</time>
</trkpt>
<trkpt lat="-26.7954239" lon="152.9681455">
<ele>12.158</ele>
<time>2018-01-17T05:58:11.151Z</time>
</trkpt>
<trkpt lat="-26.7958404" lon="152.9679459">
<ele>12.494</ele>
<time>2018-01-17T05:58:14.159Z</time>
</trkpt>
<trkpt lat="-26.7962551" lon="152.9678506">
<ele>14.274</ele>
<time>2018-01-17T05:58:17.099Z</time>
</trkpt>
<trkpt lat="-26.7966079" lon="152.9682923">
<ele>17.010</ele>
<time>2018-01-17T05:58:20.746Z</time>
</trkpt>
<trkpt lat="-26.7967283" lon="152.9688395">
<ele>19.783</ele>
<time>2018-01-17T05:58:23.952Z</time>
</trkpt>
<trkpt lat="-26.7968472" lon="152.9693960">
<ele>22.409</ele>
<time>2018-01-17T05:58:27.099Z</time>
</trkpt>
<trkpt lat="-26.7970213" lon="152.9698332">
<ele>24.874</ele>
<time>2018-01-17T05:58:29.869Z</time>
</trkpt>
<trkpt lat="-26.7973826" lon="152.9700141">
<ele>26.698</ele>
<time>2018-01-17T05:58:32.650Z</time>
</trkpt>
<trkpt lat="-26.7978391" lon="152.9701057">
<ele>27.676</ele>
<time>2018-01-17T05:58:35.891Z</time>
</trkpt>
<trkpt lat="-26.7982853" lon="152.9700455">
<ele>28.282</ele>
<time>2018-01-17T05:58:38.908Z</time>
</trkpt>
<trkpt lat="-26.7987384" lon="152.9698030">
<ele>29.150</ele>
<time>2018-01-17T05:58:42.220Z</time>
</trkpt>
<trkpt lat="-26.7992037" lon="152.9697045">
<ele>30.338</ele>
<time>2018-01-17T05:58:45.259Z</time>
</trkpt>
<trkpt lat="-26.7997034" lon="152.9696980">
<ele>31.223</ele>
<time>2018-01-17T05:58:48.434Z</time>
</trkpt>
<trkpt lat="-26.8001423" lon="152.9697155">
<ele>31.331</ele>
<time>2018-01-17T05:58:51.240Z</time>
</trkpt>
<trkpt lat="-26.8005924" lon="152.9696755">
<ele>30.721</ele>
<time>2018-01-17T05:58:54.144Z</time>
</trkpt>
<trkpt lat="-26.8010590" lon="152.9696387">
<ele>29.706</ele>
<time>2018-01-17T05:58:57.134Z</time>
</trkpt>
<trkpt lat="-26.8015391" lon="152.9696256">
<ele>28.737</ele>
<time>2018-01-17T05:59:00.228Z</time>
</trkpt>
<trkpt lat="-26.8019750" lon="152.9696480">
<ele>27.985</ele>
<time>2018-01-17T05:59:03.392Z</time>
</trkpt>
<trkpt lat="-26.8022040" lon="152.9695217">
<ele>27.330</ele>
<time>2018-01-17T05:59:05.560Z</time>
</trkpt>
<trkpt lat="-26.8023780" lon="152.9691312">
<ele>26.740</ele>
<time>2018-01-17T05:59:08.920Z</time>
</trkpt>
<trkpt lat="-26.8026287" lon="152.9687302">
<ele>26.287</ele>
<time>2018-01-17T05:59:12.115Z</time>
</trkpt>
<trkpt lat="-26.8028700" lon="152.9682827">
<ele>25.833</ele>
<time>2018-01-17T05:59:15.272Z</time>
</trkpt>
<trkpt lat="-26.8031165" lon="152.9678480">
<ele>25.092</ele>
<time>2018-01-17T05:59:18.461Z</time>
</trkpt>
<trkpt lat="-26.8032998" lon="152.9674650">
<ele>24.067</ele>
<time>2018-01-17T05:59:21.664Z</time>
</trkpt>
<trkpt lat="-26.8034230" lon="152.9672332">
<ele>23.132</ele>
<time>2018-01-17T05:59:24.331Z</time>
</trkpt>
<trkpt lat="-26.8033734" lon="152.9670994">
<ele>22.413</ele>
<time>2018-01-17T05:59:26.128Z</time>
</trkpt>
<trkpt lat="-26.8033778" lon="152.9669826">
<ele>21.802</ele>
<time>2018-01-17T05:59:28.394Z</time>
</trkpt>
<trkpt lat="-26.8034755" lon="152.9669216">
<ele>21.355</ele>
<time>2018-01-17T05:59:32.999Z</time>
</trkpt>
<trkpt lat="-26.8034755" lon="152.9669216">
<ele>21.185</ele>
<time>2018-01-17T05:59:33.999Z</time>
</trkpt>
<trkpt lat="-26.8034755" lon="152.9669216">
<ele>21.204</ele>
<time>2018-01-17T05:59:51.083Z</time>
</trkpt>
<trkpt lat="-26.8034888" lon="152.9667548">
<ele>21.277</ele>
<time>2018-01-17T05:59:55.023Z</time>
</trkpt>
<trkpt lat="-26.8036093" lon="152.9664005">
<ele>21.842</ele>
<time>2018-01-17T05:59:58.884Z</time>
</trkpt>
<trkpt lat="-26.8037355" lon="152.9659793">
<ele>23.275</ele>
<time>2018-01-17T06:00:02.312Z</time>
</trkpt>
<trkpt lat="-26.8038330" lon="152.9655415">
<ele>24.897</ele>
<time>2018-01-17T06:00:05.393Z</time>
</trkpt>
<trkpt lat="-26.8040178" lon="152.9651186">
<ele>25.881</ele>
<time>2018-01-17T06:00:08.332Z</time>
</trkpt>
<trkpt lat="-26.8041381" lon="152.9648386">
<ele>26.301</ele>
<time>2018-01-17T06:00:10.160Z</time>
</trkpt>
<trkpt lat="-26.8043227" lon="152.9643181">
<ele>26.553</ele>
<time>2018-01-17T06:00:13.408Z</time>
</trkpt>
<trkpt lat="-26.8045193" lon="152.9638772">
<ele>26.932</ele>
<time>2018-01-17T06:00:16.274Z</time>
</trkpt>
<trkpt lat="-26.8045931" lon="152.9633760">
<ele>27.503</ele>
<time>2018-01-17T06:00:19.251Z</time>
</trkpt>
<trkpt lat="-26.8046246" lon="152.9628856">
<ele>28.088</ele>
<time>2018-01-17T06:00:22.117Z</time>
</trkpt>
<trkpt lat="-26.8046734" lon="152.9623505">
<ele>28.201</ele>
<time>2018-01-17T06:00:25.199Z</time>
</trkpt>
<trkpt lat="-26.8047491" lon="152.9618085">
<ele>27.565</ele>
<time>2018-01-17T06:00:28.309Z</time>
</trkpt>
<trkpt lat="-26.8048648" lon="152.9612848">
<ele>26.557</ele>
<time>2018-01-17T06:00:31.396Z</time>
</trkpt>
<trkpt lat="-26.8051181" lon="152.9608816">
<ele>25.779</ele>
<time>2018-01-17T06:00:34.292Z</time>
</trkpt>
<trkpt lat="-26.8054581" lon="152.9605912">
<ele>25.643</ele>
<time>2018-01-17T06:00:37.621Z</time>
</trkpt>
<trkpt lat="-26.8056907" lon="152.9603660">
<ele>26.274</ele>
<time>2018-01-17T06:00:41.004Z</time>
</trkpt>
<trkpt lat="-26.8059119" lon="152.9603232">
<ele>27.331</ele>
<time>2018-01-17T06:00:43.368Z</time>
</trkpt>
<trkpt lat="-26.8061881" lon="152.9600941">
<ele>28.322</ele>
<time>2018-01-17T06:00:46.293Z</time>
</trkpt>
<trkpt lat="-26.8065747" lon="152.9599616">
<ele>28.974</ele>
<time>2018-01-17T06:00:49.220Z</time>
</trkpt>
<trkpt lat="-26.8070109" lon="152.9599026">
<ele>29.248</ele>
<time>2018-01-17T06:00:52.211Z</time>
</trkpt>
<trkpt lat="-26.8074306" lon="152.9598204">
<ele>29.281</ele>
<time>2018-01-17T06:00:55.112Z</time>
</trkpt>
<trkpt lat="-26.8078259" lon="152.9596869">
<ele>29.290</ele>
<time>2018-01-17T06:00:57.888Z</time>
</trkpt>
<trkpt lat="-26.8082058" lon="152.9594356">
<ele>29.477</ele>
<time>2018-01-17T06:01:00.796Z</time>
</trkpt>
<trkpt lat="-26.8085695" lon="152.9591254">
<ele>29.811</ele>
<time>2018-01-17T06:01:03.796Z</time>
</trkpt>
<trkpt lat="-26.8089507" lon="152.9588406">
<ele>30.002</ele>
<time>2018-01-17T06:01:06.813Z</time>
</trkpt>
<trkpt lat="-26.8093380" lon="152.9585645">
<ele>29.906</ele>
<time>2018-01-17T06:01:09.813Z</time>
</trkpt>
<trkpt lat="-26.8097860" lon="152.9582981">
<ele>29.801</ele>
<time>2018-01-17T06:01:13.100Z</time>
</trkpt>
<trkpt lat="-26.8102103" lon="152.9581409">
<ele>29.970</ele>
<time>2018-01-17T06:01:16.004Z</time>
</trkpt>
<trkpt lat="-26.8106465" lon="152.9579450">
<ele>30.494</ele>
<time>2018-01-17T06:01:19.048Z</time>
</trkpt>
<trkpt lat="-26.8111036" lon="152.9577270">
<ele>31.397</ele>
<time>2018-01-17T06:01:22.262Z</time>
</trkpt>
<trkpt lat="-26.8114987" lon="152.9575172">
<ele>32.448</ele>
<time>2018-01-17T06:01:25.150Z</time>
</trkpt>
<trkpt lat="-26.8118642" lon="152.9572634">
<ele>33.301</ele>
<time>2018-01-17T06:01:28.001Z</time>
</trkpt>
<trkpt lat="-26.8122285" lon="152.9569832">
<ele>33.996</ele>
<time>2018-01-17T06:01:30.884Z</time>
</trkpt>
<trkpt lat="-26.8125982" lon="152.9567006">
<ele>34.625</ele>
<time>2018-01-17T06:01:33.767Z</time>
</trkpt>
<trkpt lat="-26.8129739" lon="152.9564157">
<ele>35.028</ele>
<time>2018-01-17T06:01:36.654Z</time>
</trkpt>
<trkpt lat="-26.8133689" lon="152.9560797">
<ele>34.774</ele>
<time>2018-01-17T06:01:39.784Z</time>
</trkpt>
<trkpt lat="-26.8137242" lon="152.9557326">
<ele>33.447</ele>
<time>2018-01-17T06:01:42.836Z</time>
</trkpt>
<trkpt lat="-26.8140267" lon="152.9553931">
<ele>31.502</ele>
<time>2018-01-17T06:01:45.708Z</time>
</trkpt>
<trkpt lat="-26.8143081" lon="152.9550488">
<ele>30.033</ele>
<time>2018-01-17T06:01:48.514Z</time>
</trkpt>
<trkpt lat="-26.8145962" lon="152.9546530">
<ele>29.516</ele>
<time>2018-01-17T06:01:51.528Z</time>
</trkpt>
<trkpt lat="-26.8148940" lon="152.9542282">
<ele>29.678</ele>
<time>2018-01-17T06:01:54.639Z</time>
</trkpt>
<trkpt lat="-26.8151424" lon="152.9537653">
<ele>30.057</ele>
<time>2018-01-17T06:01:57.737Z</time>
</trkpt>
<trkpt lat="-26.8153530" lon="152.9533297">
<ele>30.452</ele>
<time>2018-01-17T06:02:00.614Z</time>
</trkpt>
<trkpt lat="-26.8156253" lon="152.9529094">
<ele>31.058</ele>
<time>2018-01-17T06:02:03.632Z</time>
</trkpt>
<trkpt lat="-26.8158035" lon="152.9524140">
<ele>32.274</ele>
<time>2018-01-17T06:02:06.703Z</time>
</trkpt>
<trkpt lat="-26.8159894" lon="152.9519517">
<ele>34.417</ele>
<time>2018-01-17T06:02:09.614Z</time>
</trkpt>
<trkpt lat="-26.8162360" lon="152.9515288">
<ele>36.957</ele>
<time>2018-01-17T06:02:12.568Z</time>
</trkpt>
<trkpt lat="-26.8166471" lon="152.9513627">
<ele>38.858</ele>
<time>2018-01-17T06:02:15.498Z</time>
</trkpt>
<trkpt lat="-26.8171153" lon="152.9512507">
<ele>39.903</ele>
<time>2018-01-17T06:02:18.684Z</time>
</trkpt>
<trkpt lat="-26.8175295" lon="152.9509845">
<ele>40.608</ele>
<time>2018-01-17T06:02:21.790Z</time>
</trkpt>
<trkpt lat="-26.8179468" lon="152.9507820">
<ele>41.377</ele>
<time>2018-01-17T06:02:24.709Z</time>
</trkpt>
<trkpt lat="-26.8183906" lon="152.9506151">
<ele>42.281</ele>
<time>2018-01-17T06:02:27.641Z</time>
</trkpt>
<trkpt lat="-26.8188661" lon="152.9505271">
<ele>43.144</ele>
<time>2018-01-17T06:02:30.603Z</time>
</trkpt>
<trkpt lat="-26.8193086" lon="152.9506350">
<ele>43.775</ele>
<time>2018-01-17T06:02:33.431Z</time>
</trkpt>
<trkpt lat="-26.8197345" lon="152.9508015">
<ele>43.952</ele>
<time>2018-01-17T06:02:36.319Z</time>
</trkpt>
<trkpt lat="-26.8201714" lon="152.9509518">
<ele>43.435</ele>
<time>2018-01-17T06:02:39.270Z</time>
</trkpt>
<trkpt lat="-26.8205859" lon="152.9511882">
<ele>42.146</ele>
<time>2018-01-17T06:02:42.275Z</time>
</trkpt>
<trkpt lat="-26.8209954" lon="152.9514488">
<ele>40.173</ele>
<time>2018-01-17T06:02:45.342Z</time>
</trkpt>
<trkpt lat="-26.8214058" lon="152.9515419">
<ele>37.773</ele>
<time>2018-01-17T06:02:48.119Z</time>
</trkpt>
<trkpt lat="-26.8218319" lon="152.9513599">
<ele>35.314</ele>
<time>2018-01-17T06:02:51.189Z</time>
</trkpt>
<trkpt lat="-26.8221918" lon="152.9510148">
<ele>33.165</ele>
<time>2018-01-17T06:02:54.366Z</time>
</trkpt>
<trkpt lat="-26.8225340" lon="152.9506938">
<ele>31.586</ele>
<time>2018-01-17T06:02:57.331Z</time>
</trkpt>
<trkpt lat="-26.8228509" lon="152.9503801">
<ele>30.572</ele>
<time>2018-01-17T06:03:00.150Z</time>
</trkpt>
<trkpt lat="-26.8231853" lon="152.9501162">
<ele>29.965</ele>
<time>2018-01-17T06:03:02.898Z</time>
</trkpt>
<trkpt lat="-26.8235339" lon="152.9498118">
<ele>29.678</ele>
<time>2018-01-17T06:03:05.858Z</time>
</trkpt>
<trkpt lat="-26.8239264" lon="152.9495343">
<ele>29.571</ele>
<time>2018-01-17T06:03:08.919Z</time>
</trkpt>
<trkpt lat="-26.8243051" lon="152.9492095">
<ele>29.354</ele>
<time>2018-01-17T06:03:12.007Z</time>
</trkpt>
<trkpt lat="-26.8247209" lon="152.9487868">
<ele>28.641</ele>
<time>2018-01-17T06:03:15.592Z</time>
</trkpt>
<trkpt lat="-26.8250447" lon="152.9484575">
<ele>27.283</ele>
<time>2018-01-17T06:03:18.346Z</time>
</trkpt>
<trkpt lat="-26.8255417" lon="152.9484395">
<ele>25.792</ele>
<time>2018-01-17T06:03:21.412Z</time>
</trkpt>
<trkpt lat="-26.8260264" lon="152.9485037">
<ele>24.850</ele>
<time>2018-01-17T06:03:24.466Z</time>
</trkpt>
<trkpt lat="-26.8264825" lon="152.9485493">
<ele>24.642</ele>
<time>2018-01-17T06:03:27.412Z</time>
</trkpt>
<trkpt lat="-26.8269486" lon="152.9485380">
<ele>25.019</ele>
<time>2018-01-17T06:03:30.411Z</time>
</trkpt>
<trkpt lat="-26.8274231" lon="152.9485724">
<ele>25.695</ele>
<time>2018-01-17T06:03:33.469Z</time>
</trkpt>
<trkpt lat="-26.8278643" lon="152.9486103">
<ele>26.400</ele>
<time>2018-01-17T06:03:36.366Z</time>
</trkpt>
<trkpt lat="-26.8283092" lon="152.9486497">
<ele>27.329</ele>
<time>2018-01-17T06:03:39.371Z</time>
</trkpt>
<trkpt lat="-26.8286930" lon="152.9484884">
<ele>28.813</ele>
<time>2018-01-17T06:03:42.174Z</time>
</trkpt>
<trkpt lat="-26.8289891" lon="152.9480753">
<ele>30.715</ele>
<time>2018-01-17T06:03:45.335Z</time>
</trkpt>
<trkpt lat="-26.8292925" lon="152.9476827">
<ele>32.724</ele>
<time>2018-01-17T06:03:48.377Z</time>
</trkpt>
<trkpt lat="-26.8294951" lon="152.9471662">
<ele>34.798</ele>
<time>2018-01-17T06:03:51.697Z</time>
</trkpt>
<trkpt lat="-26.8294602" lon="152.9466423">
<ele>37.174</ele>
<time>2018-01-17T06:03:54.816Z</time>
</trkpt>
<trkpt lat="-26.8295628" lon="152.9461590">
<ele>39.682</ele>
<time>2018-01-17T06:03:57.769Z</time>
</trkpt>
<trkpt lat="-26.8298569" lon="152.9457657">
<ele>41.539</ele>
<time>2018-01-17T06:04:00.814Z</time>
</trkpt>
<trkpt lat="-26.8301837" lon="152.9454070">
<ele>42.360</ele>
<time>2018-01-17T06:04:03.917Z</time>
</trkpt>
<trkpt lat="-26.8304955" lon="152.9450966">
<ele>42.503</ele>
<time>2018-01-17T06:04:06.798Z</time>
</trkpt>
<trkpt lat="-26.8309405" lon="152.9449263">
<ele>42.228</ele>
<time>2018-01-17T06:04:09.965Z</time>
</trkpt>
<trkpt lat="-26.8314320" lon="152.9448535">
<ele>41.591</ele>
<time>2018-01-17T06:04:13.185Z</time>
</trkpt>
<trkpt lat="-26.8318787" lon="152.9447207">
<ele>40.665</ele>
<time>2018-01-17T06:04:16.103Z</time>
</trkpt>
<trkpt lat="-26.8322790" lon="152.9443656">
<ele>39.650</ele>
<time>2018-01-17T06:04:19.244Z</time>
</trkpt>
<trkpt lat="-26.8326170" lon="152.9440142">
<ele>38.859</ele>
<time>2018-01-17T06:04:22.134Z</time>
</trkpt>
<trkpt lat="-26.8329691" lon="152.9436619">
<ele>38.389</ele>
<time>2018-01-17T06:04:25.201Z</time>
</trkpt>
<trkpt lat="-26.8332299" lon="152.9432225">
<ele>38.011</ele>
<time>2018-01-17T06:04:28.244Z</time>
</trkpt>
<trkpt lat="-26.8333767" lon="152.9426813">
<ele>37.664</ele>
<time>2018-01-17T06:04:31.445Z</time>
</trkpt>
<trkpt lat="-26.8335342" lon="152.9421938">
<ele>37.685</ele>
<time>2018-01-17T06:04:34.419Z</time>
</trkpt>
<trkpt lat="-26.8337488" lon="152.9417535">
<ele>38.299</ele>
<time>2018-01-17T06:04:37.352Z</time>
</trkpt>
<trkpt lat="-26.8339894" lon="152.9413288">
<ele>39.329</ele>
<time>2018-01-17T06:04:40.354Z</time>
</trkpt>
<trkpt lat="-26.8341788" lon="152.9408990">
<ele>40.784</ele>
<time>2018-01-17T06:04:43.421Z</time>
</trkpt>
<trkpt lat="-26.8344197" lon="152.9405792">
<ele>42.975</ele>
<time>2018-01-17T06:04:46.266Z</time>
</trkpt>
<trkpt lat="-26.8346913" lon="152.9402472">
<ele>45.652</ele>
<time>2018-01-17T06:04:49.096Z</time>
</trkpt>
<trkpt lat="-26.8350043" lon="152.9398178">
<ele>47.899</ele>
<time>2018-01-17T06:04:52.230Z</time>
</trkpt>
<trkpt lat="-26.8353484" lon="152.9394121">
<ele>48.875</ele>
<time>2018-01-17T06:04:55.214Z</time>
</trkpt>
<trkpt lat="-26.8358363" lon="152.9392379">
<ele>48.592</ele>
<time>2018-01-17T06:04:58.140Z</time>
</trkpt>
<trkpt lat="-26.8363877" lon="152.9391301">
<ele>47.631</ele>
<time>2018-01-17T06:05:01.252Z</time>
</trkpt>
<trkpt lat="-26.8369314" lon="152.9390267">
<ele>46.392</ele>
<time>2018-01-17T06:05:04.340Z</time>
</trkpt>
<trkpt lat="-26.8374253" lon="152.9389153">
<ele>45.187</ele>
<time>2018-01-17T06:05:07.298Z</time>
</trkpt>
<trkpt lat="-26.8379051" lon="152.9388050">
<ele>44.187</ele>
<time>2018-01-17T06:05:10.371Z</time>
</trkpt>
<trkpt lat="-26.8383560" lon="152.9387443">
<ele>43.248</ele>
<time>2018-01-17T06:05:13.336Z</time>
</trkpt>
<trkpt lat="-26.8388105" lon="152.9387768">
<ele>42.454</ele>
<time>2018-01-17T06:05:16.345Z</time>
</trkpt>
<trkpt lat="-26.8392581" lon="152.9387861">
<ele>42.052</ele>
<time>2018-01-17T06:05:19.287Z</time>
</trkpt>
<trkpt lat="-26.8397022" lon="152.9387105">
<ele>41.944</ele>
<time>2018-01-17T06:05:22.204Z</time>
</trkpt>
<trkpt lat="-26.8401637" lon="152.9386256">
<ele>41.657</ele>
<time>2018-01-17T06:05:25.240Z</time>
</trkpt>
<trkpt lat="-26.8406240" lon="152.9385052">
<ele>40.606</ele>
<time>2018-01-17T06:05:28.340Z</time>
</trkpt>
<trkpt lat="-26.8410803" lon="152.9384338">
<ele>38.458</ele>
<time>2018-01-17T06:05:31.392Z</time>
</trkpt>
<trkpt lat="-26.8415212" lon="152.9383972">
<ele>35.353</ele>
<time>2018-01-17T06:05:34.307Z</time>
</trkpt>
<trkpt lat="-26.8419682" lon="152.9384873">
<ele>31.834</ele>
<time>2018-01-17T06:05:37.289Z</time>
</trkpt>
<trkpt lat="-26.8423914" lon="152.9385877">
<ele>28.536</ele>
<time>2018-01-17T06:05:40.150Z</time>
</trkpt>
<trkpt lat="-26.8428120" lon="152.9386857">
<ele>25.887</ele>
<time>2018-01-17T06:05:42.999Z</time>
</trkpt>
<trkpt lat="-26.8432532" lon="152.9387597">
<ele>24.009</ele>
<time>2018-01-17T06:05:45.930Z</time>
</trkpt>
<trkpt lat="-26.8437054" lon="152.9388702">
<ele>22.835</ele>
<time>2018-01-17T06:05:48.956Z</time>
</trkpt>
<trkpt lat="-26.8441590" lon="152.9389114">
<ele>22.306</ele>
<time>2018-01-17T06:05:51.956Z</time>
</trkpt>
<trkpt lat="-26.8446175" lon="152.9388852">
<ele>22.169</ele>
<time>2018-01-17T06:05:55.025Z</time>
</trkpt>
<trkpt lat="-26.8450456" lon="152.9388159">
<ele>21.856</ele>
<time>2018-01-17T06:05:57.926Z</time>
</trkpt>
<trkpt lat="-26.8454767" lon="152.9387218">
<ele>21.126</ele>
<time>2018-01-17T06:06:00.842Z</time>
</trkpt>
<trkpt lat="-26.8459284" lon="152.9386706">
<ele>20.358</ele>
<time>2018-01-17T06:06:03.820Z</time>
</trkpt>
<trkpt lat="-26.8464123" lon="152.9385722">
<ele>20.045</ele>
<time>2018-01-17T06:06:07.044Z</time>
</trkpt>
<trkpt lat="-26.8468669" lon="152.9385104">
<ele>20.446</ele>
<time>2018-01-17T06:06:10.080Z</time>
</trkpt>
<trkpt lat="-26.8472778" lon="152.9384682">
<ele>21.546</ele>
<time>2018-01-17T06:06:12.800Z</time>
</trkpt>
<trkpt lat="-26.8477611" lon="152.9385237">
<ele>23.097</ele>
<time>2018-01-17T06:06:15.955Z</time>
</trkpt>
<trkpt lat="-26.8482260" lon="152.9385792">
<ele>24.629</ele>
<time>2018-01-17T06:06:18.983Z</time>
</trkpt>
<trkpt lat="-26.8486718" lon="152.9386731">
<ele>25.585</ele>
<time>2018-01-17T06:06:21.941Z</time>
</trkpt>
<trkpt lat="-26.8491137" lon="152.9387628">
<ele>25.704</ele>
<time>2018-01-17T06:06:24.887Z</time>
</trkpt>
<trkpt lat="-26.8495718" lon="152.9388057">
<ele>25.267</ele>
<time>2018-01-17T06:06:27.908Z</time>
</trkpt>
<trkpt lat="-26.8500220" lon="152.9389022">
<ele>24.866</ele>
<time>2018-01-17T06:06:30.944Z</time>
</trkpt>
<trkpt lat="-26.8504537" lon="152.9389916">
<ele>24.968</ele>
<time>2018-01-17T06:06:33.884Z</time>
</trkpt>
<trkpt lat="-26.8509019" lon="152.9390963">
<ele>25.718</ele>
<time>2018-01-17T06:06:36.940Z</time>
</trkpt>
<trkpt lat="-26.8513495" lon="152.9391231">
<ele>27.119</ele>
<time>2018-01-17T06:06:39.896Z</time>
</trkpt>
<trkpt lat="-26.8518004" lon="152.9391429">
<ele>28.728</ele>
<time>2018-01-17T06:06:42.823Z</time>
</trkpt>
<trkpt lat="-26.8522624" lon="152.9391194">
<ele>29.701</ele>
<time>2018-01-17T06:06:45.775Z</time>
</trkpt>
<trkpt lat="-26.8527655" lon="152.9391614">
<ele>29.577</ele>
<time>2018-01-17T06:06:49.005Z</time>
</trkpt>
<trkpt lat="-26.8531683" lon="152.9393511">
<ele>28.407</ele>
<time>2018-01-17T06:06:51.857Z</time>
</trkpt>
<trkpt lat="-26.8535749" lon="152.9395416">
<ele>26.437</ele>
<time>2018-01-17T06:06:54.772Z</time>
</trkpt>
<trkpt lat="-26.8540196" lon="152.9396433">
<ele>24.375</ele>
<time>2018-01-17T06:06:57.792Z</time>
</trkpt>
<trkpt lat="-26.8544785" lon="152.9397181">
<ele>23.106</ele>
<time>2018-01-17T06:07:00.895Z</time>
</trkpt>
<trkpt lat="-26.8549121" lon="152.9398080">
<ele>22.855</ele>
<time>2018-01-17T06:07:03.953Z</time>
</trkpt>
<trkpt lat="-26.8553141" lon="152.9397850">
<ele>23.329</ele>
<time>2018-01-17T06:07:06.917Z</time>
</trkpt>
<trkpt lat="-26.8556728" lon="152.9395744">
<ele>24.151</ele>
<time>2018-01-17T06:07:09.973Z</time>
</trkpt>
<trkpt lat="-26.8559972" lon="152.9393846">
<ele>24.875</ele>
<time>2018-01-17T06:07:12.812Z</time>
</trkpt>
<trkpt lat="-26.8562037" lon="152.9392624">
<ele>24.805</ele>
<time>2018-01-17T06:07:14.956Z</time>
</trkpt>
<trkpt lat="-26.8564325" lon="152.9391187">
<ele>23.525</ele>
<time>2018-01-17T06:07:18.943Z</time>
</trkpt>
<trkpt lat="-26.8565209" lon="152.9390550">
<ele>21.513</ele>
<time>2018-01-17T06:07:21.002Z</time>
</trkpt>
<trkpt lat="-26.8565209" lon="152.9390550">
<ele>19.730</ele>
<time>2018-01-17T06:07:22.001Z</time>
</trkpt>
<trkpt lat="-26.8565209" lon="152.9390550">
<ele>18.864</ele>
<time>2018-01-17T06:07:24.153Z</time>
</trkpt>
<trkpt lat="-26.8564873" lon="152.9388223">
<ele>18.946</ele>
<time>2018-01-17T06:07:29.106Z</time>
</trkpt>
<trkpt lat="-26.8561332" lon="152.9384386">
<ele>19.245</ele>
<time>2018-01-17T06:07:33.330Z</time>
</trkpt>
<trkpt lat="-26.8557931" lon="152.9379821">
<ele>19.208</ele>
<time>2018-01-17T06:07:37.049Z</time>
</trkpt>
<trkpt lat="-26.8554938" lon="152.9375634">
<ele>19.293</ele>
<time>2018-01-17T06:07:40.223Z</time>
</trkpt>
<trkpt lat="-26.8552276" lon="152.9371802">
<ele>19.989</ele>
<time>2018-01-17T06:07:43.074Z</time>
</trkpt>
<trkpt lat="-26.8550556" lon="152.9367296">
<ele>20.840</ele>
<time>2018-01-17T06:07:45.943Z</time>
</trkpt>
<trkpt lat="-26.8549560" lon="152.9362052">
<ele>21.338</ele>
<time>2018-01-17T06:07:49.068Z</time>
</trkpt>
<trkpt lat="-26.8548858" lon="152.9357105">
<ele>21.708</ele>
<time>2018-01-17T06:07:51.947Z</time>
</trkpt>
<trkpt lat="-26.8547809" lon="152.9351794">
<ele>22.202</ele>
<time>2018-01-17T06:07:54.672Z</time>
</trkpt>
<trkpt lat="-26.8546141" lon="152.9345325">
<ele>22.689</ele>
<time>2018-01-17T06:07:57.700Z</time>
</trkpt>
<trkpt lat="-26.8544978" lon="152.9338344">
<ele>23.041</ele>
<time>2018-01-17T06:08:00.847Z</time>
</trkpt>
<trkpt lat="-26.8543299" lon="152.9331992">
<ele>23.389</ele>
<time>2018-01-17T06:08:03.806Z</time>
</trkpt>
<trkpt lat="-26.8541905" lon="152.9325621">
<ele>23.804</ele>
<time>2018-01-17T06:08:06.737Z</time>
</trkpt>
<trkpt lat="-26.8540892" lon="152.9319040">
<ele>24.262</ele>
<time>2018-01-17T06:08:09.706Z</time>
</trkpt>
<trkpt lat="-26.8540370" lon="152.9312540">
<ele>24.759</ele>
<time>2018-01-17T06:08:12.599Z</time>
</trkpt>
<trkpt lat="-26.8540124" lon="152.9305901">
<ele>25.207</ele>
<time>2018-01-17T06:08:15.550Z</time>
</trkpt>
<trkpt lat="-26.8540770" lon="152.9299464">
<ele>25.281</ele>
<time>2018-01-17T06:08:18.419Z</time>
</trkpt>
<trkpt lat="-26.8541107" lon="152.9293073">
<ele>24.676</ele>
<time>2018-01-17T06:08:21.259Z</time>
</trkpt>
<trkpt lat="-26.8541170" lon="152.9286448">
<ele>23.316</ele>
<time>2018-01-17T06:08:24.238Z</time>
</trkpt>
<trkpt lat="-26.8540830" lon="152.9280019">
<ele>21.389</ele>
<time>2018-01-17T06:08:27.173Z</time>
</trkpt>
<trkpt lat="-26.8540805" lon="152.9273329">
<ele>19.496</ele>
<time>2018-01-17T06:08:30.210Z</time>
</trkpt>
<trkpt lat="-26.8540176" lon="152.9266473">
<ele>18.375</ele>
<time>2018-01-17T06:08:33.297Z</time>
</trkpt>
<trkpt lat="-26.8539029" lon="152.9259972">
<ele>18.377</ele>
<time>2018-01-17T06:08:36.265Z</time>
</trkpt>
<trkpt lat="-26.8537782" lon="152.9253836">
<ele>19.533</ele>
<time>2018-01-17T06:08:39.104Z</time>
</trkpt>
<trkpt lat="-26.8536458" lon="152.9247444">
<ele>21.646</ele>
<time>2018-01-17T06:08:42.065Z</time>
</trkpt>
<trkpt lat="-26.8534805" lon="152.9241209">
<ele>24.265</ele>
<time>2018-01-17T06:08:44.997Z</time>
</trkpt>
<trkpt lat="-26.8533145" lon="152.9234985">
<ele>26.888</ele>
<time>2018-01-17T06:08:47.948Z</time>
</trkpt>
<trkpt lat="-26.8530887" lon="152.9229268">
<ele>29.354</ele>
<time>2018-01-17T06:08:50.812Z</time>
</trkpt>
<trkpt lat="-26.8527879" lon="152.9223834">
<ele>31.878</ele>
<time>2018-01-17T06:08:53.712Z</time>
</trkpt>
<trkpt lat="-26.8524147" lon="152.9218451">
<ele>34.357</ele>
<time>2018-01-17T06:08:56.753Z</time>
</trkpt>
<trkpt lat="-26.8520382" lon="152.9213258">
<ele>36.204</ele>
<time>2018-01-17T06:08:59.738Z</time>
</trkpt>
<trkpt lat="-26.8516751" lon="152.9207959">
<ele>37.091</ele>
<time>2018-01-17T06:09:02.740Z</time>
</trkpt>
<trkpt lat="-26.8511512" lon="152.9204813">
<ele>37.255</ele>
<time>2018-01-17T06:09:05.726Z</time>
</trkpt>
<trkpt lat="-26.8505413" lon="152.9203418">
<ele>36.996</ele>
<time>2018-01-17T06:09:08.828Z</time>
</trkpt>
<trkpt lat="-26.8499225" lon="152.9202616">
<ele>36.451</ele>
<time>2018-01-17T06:09:11.923Z</time>
</trkpt>
<trkpt lat="-26.8493199" lon="152.9201722">
<ele>35.779</ele>
<time>2018-01-17T06:09:14.952Z</time>
</trkpt>
<trkpt lat="-26.8487337" lon="152.9200643">
<ele>35.128</ele>
<time>2018-01-17T06:09:17.926Z</time>
</trkpt>
<trkpt lat="-26.8481814" lon="152.9198562">
<ele>34.619</ele>
<time>2018-01-17T06:09:20.861Z</time>
</trkpt>
<trkpt lat="-26.8476585" lon="152.9196016">
<ele>34.464</ele>
<time>2018-01-17T06:09:23.739Z</time>
</trkpt>
<trkpt lat="-26.8471472" lon="152.9191986">
<ele>34.679</ele>
<time>2018-01-17T06:09:26.896Z</time>
</trkpt>
<trkpt lat="-26.8466659" lon="152.9188430">
<ele>34.716</ele>
<time>2018-01-17T06:09:29.819Z</time>
</trkpt>
<trkpt lat="-26.8461777" lon="152.9184971">
<ele>34.052</ele>
<time>2018-01-17T06:09:32.734Z</time>
</trkpt>
<trkpt lat="-26.8457388" lon="152.9180385">
<ele>32.563</ele>
<time>2018-01-17T06:09:35.741Z</time>
</trkpt>
<trkpt lat="-26.8454205" lon="152.9175096">
<ele>29.968</ele>
<time>2018-01-17T06:09:38.592Z</time>
</trkpt>
<trkpt lat="-26.8452880" lon="152.9168720">
<ele>26.453</ele>
<time>2018-01-17T06:09:41.521Z</time>
</trkpt>
<trkpt lat="-26.8450806" lon="152.9162415">
<ele>23.360</ele>
<time>2018-01-17T06:09:44.532Z</time>
</trkpt>
<trkpt lat="-26.8448788" lon="152.9156205">
<ele>21.846</ele>
<time>2018-01-17T06:09:47.500Z</time>
</trkpt>
<trkpt lat="-26.8445782" lon="152.9150436">
<ele>22.013</ele>
<time>2018-01-17T06:09:50.509Z</time>
</trkpt>
<trkpt lat="-26.8441286" lon="152.9146347">
<ele>23.670</ele>
<time>2018-01-17T06:09:53.420Z</time>
</trkpt>
<trkpt lat="-26.8435954" lon="152.9143001">
<ele>26.583</ele>
<time>2018-01-17T06:09:56.471Z</time>
</trkpt>
<trkpt lat="-26.8431489" lon="152.9138991">
<ele>29.923</ele>
<time>2018-01-17T06:09:59.333Z</time>
</trkpt>
<trkpt lat="-26.8428540" lon="152.9133007">
<ele>32.886</ele>
<time>2018-01-17T06:10:02.393Z</time>
</trkpt>
<trkpt lat="-26.8427132" lon="152.9126407">
<ele>35.135</ele>
<time>2018-01-17T06:10:05.421Z</time>
</trkpt>
<trkpt lat="-26.8426591" lon="152.9119794">
<ele>36.436</ele>
<time>2018-01-17T06:10:08.393Z</time>
</trkpt>
<trkpt lat="-26.8426180" lon="152.9113098">
<ele>36.878</ele>
<time>2018-01-17T06:10:11.447Z</time>
</trkpt>
<trkpt lat="-26.8423904" lon="152.9107239">
<ele>37.375</ele>
<time>2018-01-17T06:10:14.464Z</time>
</trkpt>
<trkpt lat="-26.8420613" lon="152.9102557">
<ele>39.019</ele>
<time>2018-01-17T06:10:17.454Z</time>
</trkpt>
<trkpt lat="-26.8417365" lon="152.9098723">
<ele>41.919</ele>
<time>2018-01-17T06:10:20.300Z</time>
</trkpt>
<trkpt lat="-26.8414610" lon="152.9094570">
<ele>45.215</ele>
<time>2018-01-17T06:10:23.231Z</time>
</trkpt>
<trkpt lat="-26.8412981" lon="152.9089560">
<ele>48.277</ele>
<time>2018-01-17T06:10:26.301Z</time>
</trkpt>
<trkpt lat="-26.8411777" lon="152.9084686">
<ele>50.778</ele>
<time>2018-01-17T06:10:29.215Z</time>
</trkpt>
<trkpt lat="-26.8411166" lon="152.9079732">
<ele>52.629</ele>
<time>2018-01-17T06:10:32.108Z</time>
</trkpt>
<trkpt lat="-26.8411963" lon="152.9074693">
<ele>54.310</ele>
<time>2018-01-17T06:10:35.098Z</time>
</trkpt>
<trkpt lat="-26.8414541" lon="152.9070406">
<ele>56.430</ele>
<time>2018-01-17T06:10:38.147Z</time>
</trkpt>
<trkpt lat="-26.8418139" lon="152.9067218">
<ele>58.908</ele>
<time>2018-01-17T06:10:41.213Z</time>
</trkpt>
<trkpt lat="-26.8420207" lon="152.9063040">
<ele>61.361</ele>
<time>2018-01-17T06:10:44.106Z</time>
</trkpt>
<trkpt lat="-26.8421422" lon="152.9058350">
<ele>63.534</ele>
<time>2018-01-17T06:10:47.055Z</time>
</trkpt>
<trkpt lat="-26.8423597" lon="152.9053781">
<ele>65.088</ele>
<time>2018-01-17T06:10:50.149Z</time>
</trkpt>
<trkpt lat="-26.8424568" lon="152.9048734">
<ele>65.967</ele>
<time>2018-01-17T06:10:53.288Z</time>
</trkpt>
<trkpt lat="-26.8427595" lon="152.9045854">
<ele>66.925</ele>
<time>2018-01-17T06:10:56.149Z</time>
</trkpt>
<trkpt lat="-26.8430524" lon="152.9042782">
<ele>68.581</ele>
<time>2018-01-17T06:10:59.163Z</time>
</trkpt>
<trkpt lat="-26.8430303" lon="152.9037886">
<ele>70.639</ele>
<time>2018-01-17T06:11:02.293Z</time>
</trkpt>
<trkpt lat="-26.8431435" lon="152.9032959">
<ele>72.501</ele>
<time>2018-01-17T06:11:05.328Z</time>
</trkpt>
<trkpt lat="-26.8433706" lon="152.9028756">
<ele>74.392</ele>
<time>2018-01-17T06:11:08.302Z</time>
</trkpt>
<trkpt lat="-26.8435659" lon="152.9025243">
<ele>77.194</ele>
<time>2018-01-17T06:11:11.059Z</time>
</trkpt>
<trkpt lat="-26.8436291" lon="152.9021535">
<ele>81.164</ele>
<time>2018-01-17T06:11:13.838Z</time>
</trkpt>
<trkpt lat="-26.8434481" lon="152.9017867">
<ele>85.457</ele>
<time>2018-01-17T06:11:17.097Z</time>
</trkpt>
<trkpt lat="-26.8434549" lon="152.9014112">
<ele>89.080</ele>
<time>2018-01-17T06:11:20.211Z</time>
</trkpt>
<trkpt lat="-26.8435999" lon="152.9010920">
<ele>91.701</ele>
<time>2018-01-17T06:11:23.256Z</time>
</trkpt>
<trkpt lat="-26.8435030" lon="152.9007364">
<ele>93.559</ele>
<time>2018-01-17T06:11:26.310Z</time>
</trkpt>
<trkpt lat="-26.8432931" lon="152.9004446">
<ele>94.982</ele>
<time>2018-01-17T06:11:29.527Z</time>
</trkpt>
<trkpt lat="-26.8431204" lon="152.9002291">
<ele>96.147</ele>
<time>2018-01-17T06:11:32.058Z</time>
</trkpt>
<trkpt lat="-26.8427532" lon="152.9003375">
<ele>97.018</ele>
<time>2018-01-17T06:11:35.347Z</time>
</trkpt>
<trkpt lat="-26.8423611" lon="152.9003874">
<ele>97.553</ele>
<time>2018-01-17T06:11:38.465Z</time>
</trkpt>
<trkpt lat="-26.8419906" lon="152.9002617">
<ele>97.947</ele>
<time>2018-01-17T06:11:41.654Z</time>
</trkpt>
<trkpt lat="-26.8417556" lon="152.8999993">
<ele>98.555</ele>
<time>2018-01-17T06:11:44.629Z</time>
</trkpt>
<trkpt lat="-26.8417881" lon="152.8995811">
<ele>99.402</ele>
<time>2018-01-17T06:11:48.005Z</time>
</trkpt>
<trkpt lat="-26.8417807" lon="152.8992170">
<ele>100.358</ele>
<time>2018-01-17T06:11:50.862Z</time>
</trkpt>
<trkpt lat="-26.8418731" lon="152.8988323">
<ele>101.867</ele>
<time>2018-01-17T06:11:54.001Z</time>
</trkpt>
<trkpt lat="-26.8419484" lon="152.8984993">
<ele>104.467</ele>
<time>2018-01-17T06:11:56.777Z</time>
</trkpt>
<trkpt lat="-26.8417048" lon="152.8982420">
<ele>107.465</ele>
<time>2018-01-17T06:11:59.873Z</time>
</trkpt>
<trkpt lat="-26.8414659" lon="152.8980120">
<ele>109.526</ele>
<time>2018-01-17T06:12:02.801Z</time>
</trkpt>
<trkpt lat="-26.8413534" lon="152.8976671">
<ele>110.244</ele>
<time>2018-01-17T06:12:05.791Z</time>
</trkpt>
<trkpt lat="-26.8414880" lon="152.8972513">
<ele>110.186</ele>
<time>2018-01-17T06:12:09.199Z</time>
</trkpt>
<trkpt lat="-26.8416230" lon="152.8968621">
<ele>110.314</ele>
<time>2018-01-17T06:12:12.178Z</time>
</trkpt>
<trkpt lat="-26.8419160" lon="152.8965579">
<ele>111.507</ele>
<time>2018-01-17T06:12:15.231Z</time>
</trkpt>
<trkpt lat="-26.8422953" lon="152.8963984">
<ele>113.617</ele>
<time>2018-01-17T06:12:18.454Z</time>
</trkpt>
<trkpt lat="-26.8425559" lon="152.8961977">
<ele>115.829</ele>
<time>2018-01-17T06:12:21.241Z</time>
</trkpt>
<trkpt lat="-26.8427679" lon="152.8959095">
<ele>117.811</ele>
<time>2018-01-17T06:12:24.367Z</time>
</trkpt>
<trkpt lat="-26.8427229" lon="152.8955366">
<ele>119.923</ele>
<time>2018-01-17T06:12:27.419Z</time>
</trkpt>
<trkpt lat="-26.8424480" lon="152.8951461">
<ele>122.559</ele>
<time>2018-01-17T06:12:31.358Z</time>
</trkpt>
<trkpt lat="-26.8424661" lon="152.8947497">
<ele>125.376</ele>
<time>2018-01-17T06:12:34.606Z</time>
</trkpt>
<trkpt lat="-26.8427776" lon="152.8945582">
<ele>127.479</ele>
<time>2018-01-17T06:12:37.908Z</time>
</trkpt>
<trkpt lat="-26.8430632" lon="152.8943616">
<ele>128.415</ele>
<time>2018-01-17T06:12:41.172Z</time>
</trkpt>
<trkpt lat="-26.8432001" lon="152.8940172">
<ele>128.470</ele>
<time>2018-01-17T06:12:44.541Z</time>
</trkpt>
<trkpt lat="-26.8433786" lon="152.8937684">
<ele>128.343</ele>
<time>2018-01-17T06:12:47.255Z</time>
</trkpt>
<trkpt lat="-26.8437119" lon="152.8937674">
<ele>128.826</ele>
<time>2018-01-17T06:12:50.426Z</time>
</trkpt>
<trkpt lat="-26.8440279" lon="152.8937483">
<ele>130.314</ele>
<time>2018-01-17T06:12:53.386Z</time>
</trkpt>
<trkpt lat="-26.8442703" lon="152.8934206">
<ele>132.491</ele>
<time>2018-01-17T06:12:56.527Z</time>
</trkpt>
<trkpt lat="-26.8444040" lon="152.8929784">
<ele>134.771</ele>
<time>2018-01-17T06:12:59.731Z</time>
</trkpt>
<trkpt lat="-26.8444657" lon="152.8925167">
<ele>136.809</ele>
<time>2018-01-17T06:13:02.886Z</time>
</trkpt>
<trkpt lat="-26.8444971" lon="152.8921041">
<ele>138.650</ele>
<time>2018-01-17T06:13:05.655Z</time>
</trkpt>
<trkpt lat="-26.8445882" lon="152.8916726">
<ele>140.527</ele>
<time>2018-01-17T06:13:08.652Z</time>
</trkpt>
<trkpt lat="-26.8446797" lon="152.8912471">
<ele>142.517</ele>
<time>2018-01-17T06:13:11.663Z</time>
</trkpt>
<trkpt lat="-26.8447463" lon="152.8908527">
<ele>144.535</ele>
<time>2018-01-17T06:13:14.399Z</time>
</trkpt>
<trkpt lat="-26.8446421" lon="152.8904414">
<ele>146.414</ele>
<time>2018-01-17T06:13:17.223Z</time>
</trkpt>
<trkpt lat="-26.8445807" lon="152.8899910">
<ele>148.160</ele>
<time>2018-01-17T06:13:20.084Z</time>
</trkpt>
<trkpt lat="-26.8446885" lon="152.8895398">
<ele>149.922</ele>
<time>2018-01-17T06:13:22.879Z</time>
</trkpt>
<trkpt lat="-26.8448971" lon="152.8890975">
<ele>151.527</ele>
<time>2018-01-17T06:13:25.805Z</time>
</trkpt>
<trkpt lat="-26.8450115" lon="152.8886146">
<ele>152.633</ele>
<time>2018-01-17T06:13:28.710Z</time>
</trkpt>
<trkpt lat="-26.8450363" lon="152.8881052">
<ele>153.218</ele>
<time>2018-01-17T06:13:31.685Z</time>
</trkpt>
<trkpt lat="-26.8451166" lon="152.8876135">
<ele>153.554</ele>
<time>2018-01-17T06:13:34.624Z</time>
</trkpt>
<trkpt lat="-26.8452309" lon="152.8871569">
<ele>153.993</ele>
<time>2018-01-17T06:13:37.398Z</time>
</trkpt>
<trkpt lat="-26.8454387" lon="152.8866871">
<ele>154.591</ele>
<time>2018-01-17T06:13:40.369Z</time>
</trkpt>
<trkpt lat="-26.8456374" lon="152.8861845">
<ele>154.956</ele>
<time>2018-01-17T06:13:43.526Z</time>
</trkpt>
<trkpt lat="-26.8457362" lon="152.8856918">
<ele>154.859</ele>
<time>2018-01-17T06:13:46.605Z</time>
</trkpt>
<trkpt lat="-26.8457494" lon="152.8852183">
<ele>154.691</ele>
<time>2018-01-17T06:13:49.616Z</time>
</trkpt>
<trkpt lat="-26.8457307" lon="152.8847501">
<ele>154.879</ele>
<time>2018-01-17T06:13:52.682Z</time>
</trkpt>
<trkpt lat="-26.8455003" lon="152.8843452">
<ele>155.482</ele>
<time>2018-01-17T06:13:56.009Z</time>
</trkpt>
<trkpt lat="-26.8453047" lon="152.8839977">
<ele>156.444</ele>
<time>2018-01-17T06:13:59.163Z</time>
</trkpt>
<trkpt lat="-26.8451206" lon="152.8836571">
<ele>157.721</ele>
<time>2018-01-17T06:14:02.540Z</time>
</trkpt>
<trkpt lat="-26.8450033" lon="152.8834035">
<ele>159.004</ele>
<time>2018-01-17T06:14:04.808Z</time>
</trkpt>
<trkpt lat="-26.8452441" lon="152.8831477">
<ele>159.842</ele>
<time>2018-01-17T06:14:07.368Z</time>
</trkpt>
<trkpt lat="-26.8455759" lon="152.8828485">
<ele>160.012</ele>
<time>2018-01-17T06:14:10.259Z</time>
</trkpt>
<trkpt lat="-26.8459232" lon="152.8825213">
<ele>159.528</ele>
<time>2018-01-17T06:14:13.158Z</time>
</trkpt>
<trkpt lat="-26.8462037" lon="152.8821067">
<ele>158.518</ele>
<time>2018-01-17T06:14:15.932Z</time>
</trkpt>
<trkpt lat="-26.8463484" lon="152.8815038">
<ele>157.319</ele>
<time>2018-01-17T06:14:19.002Z</time>
</trkpt>
<trkpt lat="-26.8463983" lon="152.8810826">
<ele>156.359</ele>
<time>2018-01-17T06:14:21.075Z</time>
</trkpt>
<trkpt lat="-26.8464355" lon="152.8804950">
<ele>155.972</ele>
<time>2018-01-17T06:14:23.992Z</time>
</trkpt>
<trkpt lat="-26.8464989" lon="152.8799060">
<ele>156.129</ele>
<time>2018-01-17T06:14:26.921Z</time>
</trkpt>
<trkpt lat="-26.8465978" lon="152.8792878">
<ele>156.305</ele>
<time>2018-01-17T06:14:30.007Z</time>
</trkpt>
<trkpt lat="-26.8466399" lon="152.8787051">
<ele>155.929</ele>
<time>2018-01-17T06:14:32.875Z</time>
</trkpt>
<trkpt lat="-26.8467045" lon="152.8781080">
<ele>155.097</ele>
<time>2018-01-17T06:14:35.835Z</time>
</trkpt>
<trkpt lat="-26.8467315" lon="152.8775120">
<ele>154.476</ele>
<time>2018-01-17T06:14:38.828Z</time>
</trkpt>
<trkpt lat="-26.8466719" lon="152.8769551">
<ele>154.411</ele>
<time>2018-01-17T06:14:41.651Z</time>
</trkpt>
<trkpt lat="-26.8465962" lon="152.8763523">
<ele>154.781</ele>
<time>2018-01-17T06:14:44.665Z</time>
</trkpt>
<trkpt lat="-26.8464911" lon="152.8757451">
<ele>155.669</ele>
<time>2018-01-17T06:14:47.714Z</time>
</trkpt>
<trkpt lat="-26.8463556" lon="152.8751356">
<ele>156.956</ele>
<time>2018-01-17T06:14:50.818Z</time>
</trkpt>
<trkpt lat="-26.8461003" lon="152.8745740">
<ele>157.805</ele>
<time>2018-01-17T06:14:53.916Z</time>
</trkpt>
<trkpt lat="-26.8458156" lon="152.8740522">
<ele>157.656</ele>
<time>2018-01-17T06:14:56.920Z</time>
</trkpt>
<trkpt lat="-26.8455507" lon="152.8735145">
<ele>156.930</ele>
<time>2018-01-17T06:14:59.976Z</time>
</trkpt>
<trkpt lat="-26.8452820" lon="152.8730062">
<ele>156.295</ele>
<time>2018-01-17T06:15:02.851Z</time>
</trkpt>
<trkpt lat="-26.8450047" lon="152.8724547">
<ele>155.907</ele>
<time>2018-01-17T06:15:05.842Z</time>
</trkpt>
<trkpt lat="-26.8446903" lon="152.8719415">
<ele>155.478</ele>
<time>2018-01-17T06:15:08.800Z</time>
</trkpt>
<trkpt lat="-26.8444051" lon="152.8714156">
<ele>154.785</ele>
<time>2018-01-17T06:15:11.768Z</time>
</trkpt>
<trkpt lat="-26.8442744" lon="152.8708232">
<ele>153.643</ele>
<time>2018-01-17T06:15:14.736Z</time>
</trkpt>
<trkpt lat="-26.8443382" lon="152.8701960">
<ele>151.863</ele>
<time>2018-01-17T06:15:17.813Z</time>
</trkpt>
<trkpt lat="-26.8444447" lon="152.8696115">
<ele>149.738</ele>
<time>2018-01-17T06:15:20.758Z</time>
</trkpt>
<trkpt lat="-26.8445010" lon="152.8690392">
<ele>147.854</ele>
<time>2018-01-17T06:15:23.639Z</time>
</trkpt>
<trkpt lat="-26.8445784" lon="152.8684274">
<ele>146.399</ele>
<time>2018-01-17T06:15:26.729Z</time>
</trkpt>
<trkpt lat="-26.8446814" lon="152.8678054">
<ele>145.108</ele>
<time>2018-01-17T06:15:29.842Z</time>
</trkpt>
<trkpt lat="-26.8447824" lon="152.8672201">
<ele>143.635</ele>
<time>2018-01-17T06:15:32.744Z</time>
</trkpt>
<trkpt lat="-26.8449763" lon="152.8666629">
<ele>141.820</ele>
<time>2018-01-17T06:15:35.658Z</time>
</trkpt>
<trkpt lat="-26.8452085" lon="152.8661020">
<ele>139.907</ele>
<time>2018-01-17T06:15:38.674Z</time>
</trkpt>
<trkpt lat="-26.8454711" lon="152.8655638">
<ele>138.355</ele>
<time>2018-01-17T06:15:41.678Z</time>
</trkpt>
<trkpt lat="-26.8456767" lon="152.8649992">
<ele>137.428</ele>
<time>2018-01-17T06:15:44.647Z</time>
</trkpt>
<trkpt lat="-26.8459476" lon="152.8644727">
<ele>137.069</ele>
<time>2018-01-17T06:15:47.578Z</time>
</trkpt>
<trkpt lat="-26.8463804" lon="152.8640988">
<ele>137.117</ele>
<time>2018-01-17T06:15:50.503Z</time>
</trkpt>
<trkpt lat="-26.8468665" lon="152.8637868">
<ele>137.368</ele>
<time>2018-01-17T06:15:53.572Z</time>
</trkpt>
<trkpt lat="-26.8472853" lon="152.8634549">
<ele>137.347</ele>
<time>2018-01-17T06:15:56.530Z</time>
</trkpt>
<trkpt lat="-26.8475901" lon="152.8629875">
<ele>136.783</ele>
<time>2018-01-17T06:15:59.860Z</time>
</trkpt>
<trkpt lat="-26.8477361" lon="152.8626004">
<ele>136.191</ele>
<time>2018-01-17T06:16:02.603Z</time>
</trkpt>
<trkpt lat="-26.8480909" lon="152.8625192">
<ele>136.506</ele>
<time>2018-01-17T06:16:05.114Z</time>
</trkpt>
<trkpt lat="-26.8485608" lon="152.8625662">
<ele>137.895</ele>
<time>2018-01-17T06:16:08.279Z</time>
</trkpt>
<trkpt lat="-26.8489900" lon="152.8626436">
<ele>139.435</ele>
<time>2018-01-17T06:16:11.348Z</time>
</trkpt>
<trkpt lat="-26.8493930" lon="152.8625301">
<ele>139.982</ele>
<time>2018-01-17T06:16:14.253Z</time>
</trkpt>
<trkpt lat="-26.8496955" lon="152.8620453">
<ele>139.059</ele>
<time>2018-01-17T06:16:17.864Z</time>
</trkpt>
<trkpt lat="-26.8498515" lon="152.8616594">
<ele>137.252</ele>
<time>2018-01-17T06:16:20.424Z</time>
</trkpt>
<trkpt lat="-26.8497637" lon="152.8610926">
<ele>135.862</ele>
<time>2018-01-17T06:16:23.574Z</time>
</trkpt>
<trkpt lat="-26.8496070" lon="152.8605043">
<ele>135.740</ele>
<time>2018-01-17T06:16:26.734Z</time>
</trkpt>
<trkpt lat="-26.8494859" lon="152.8599262">
<ele>136.731</ele>
<time>2018-01-17T06:16:29.841Z</time>
</trkpt>
<trkpt lat="-26.8493644" lon="152.8593946">
<ele>138.023</ele>
<time>2018-01-17T06:16:32.860Z</time>
</trkpt>
<trkpt lat="-26.8492744" lon="152.8588930">
<ele>138.926</ele>
<time>2018-01-17T06:16:35.658Z</time>
</trkpt>
<trkpt lat="-26.8492940" lon="152.8583570">
<ele>139.164</ele>
<time>2018-01-17T06:16:38.540Z</time>
</trkpt>
<trkpt lat="-26.8493922" lon="152.8577734">
<ele>138.323</ele>
<time>2018-01-17T06:16:41.912Z</time>
</trkpt>
<trkpt lat="-26.8494524" lon="152.8572828">
<ele>135.858</ele>
<time>2018-01-17T06:16:44.953Z</time>
</trkpt>
<trkpt lat="-26.8492329" lon="152.8568887">
<ele>131.962</ele>
<time>2018-01-17T06:16:47.729Z</time>
</trkpt>
<trkpt lat="-26.8488688" lon="152.8565199">
<ele>128.136</ele>
<time>2018-01-17T06:16:50.788Z</time>
</trkpt>
<trkpt lat="-26.8484793" lon="152.8561300">
<ele>126.033</ele>
<time>2018-01-17T06:16:53.851Z</time>
</trkpt>
<trkpt lat="-26.8480861" lon="152.8557557">
<ele>126.280</ele>
<time>2018-01-17T06:16:56.857Z</time>
</trkpt>
<trkpt lat="-26.8477620" lon="152.8553667">
<ele>128.076</ele>
<time>2018-01-17T06:16:59.679Z</time>
</trkpt>
<trkpt lat="-26.8475057" lon="152.8548877">
<ele>129.815</ele>
<time>2018-01-17T06:17:02.493Z</time>
</trkpt>
<trkpt lat="-26.8474549" lon="152.8542032">
<ele>130.169</ele>
<time>2018-01-17T06:17:05.765Z</time>
</trkpt>
<trkpt lat="-26.8475009" lon="152.8535837">
<ele>129.017</ele>
<time>2018-01-17T06:17:08.717Z</time>
</trkpt>
<trkpt lat="-26.8476151" lon="152.8529701">
<ele>127.395</ele>
<time>2018-01-17T06:17:11.744Z</time>
</trkpt>
<trkpt lat="-26.8478183" lon="152.8524068">
<ele>126.494</ele>
<time>2018-01-17T06:17:14.729Z</time>
</trkpt>
<trkpt lat="-26.8480412" lon="152.8518437">
<ele>126.700</ele>
<time>2018-01-17T06:17:17.681Z</time>
</trkpt>
<trkpt lat="-26.8482987" lon="152.8512720">
<ele>127.711</ele>
<time>2018-01-17T06:17:20.520Z</time>
</trkpt>
<trkpt lat="-26.8486113" lon="152.8506449">
<ele>128.800</ele>
<time>2018-01-17T06:17:23.627Z</time>
</trkpt>
<trkpt lat="-26.8489225" lon="152.8500847">
<ele>129.498</ele>
<time>2018-01-17T06:17:26.781Z</time>
</trkpt>
<trkpt lat="-26.8491171" lon="152.8496055">
<ele>129.990</ele>
<time>2018-01-17T06:17:29.728Z</time>
</trkpt>
<trkpt lat="-26.8492694" lon="152.8491519">
<ele>130.603</ele>
<time>2018-01-17T06:17:32.712Z</time>
</trkpt>
<trkpt lat="-26.8494196" lon="152.8487210">
<ele>131.267</ele>
<time>2018-01-17T06:17:35.648Z</time>
</trkpt>
<trkpt lat="-26.8495367" lon="152.8482868">
<ele>131.706</ele>
<time>2018-01-17T06:17:38.482Z</time>
</trkpt>
<trkpt lat="-26.8495978" lon="152.8478166">
<ele>131.760</ele>
<time>2018-01-17T06:17:41.366Z</time>
</trkpt>
<trkpt lat="-26.8497016" lon="152.8473255">
<ele>131.497</ele>
<time>2018-01-17T06:17:44.398Z</time>
</trkpt>
<trkpt lat="-26.8498140" lon="152.8468437">
<ele>131.214</ele>
<time>2018-01-17T06:17:47.382Z</time>
</trkpt>
<trkpt lat="-26.8498824" lon="152.8463766">
<ele>131.186</ele>
<time>2018-01-17T06:17:50.179Z</time>
</trkpt>
<trkpt lat="-26.8499581" lon="152.8458963">
<ele>131.418</ele>
<time>2018-01-17T06:17:53.052Z</time>
</trkpt>
<trkpt lat="-26.8500851" lon="152.8454139">
<ele>131.822</ele>
<time>2018-01-17T06:17:56.109Z</time>
</trkpt>
<trkpt lat="-26.8501962" lon="152.8449855">
<ele>132.348</ele>
<time>2018-01-17T06:17:58.889Z</time>
</trkpt>
<trkpt lat="-26.8503761" lon="152.8445384">
<ele>132.849</ele>
<time>2018-01-17T06:18:01.751Z</time>
</trkpt>
<trkpt lat="-26.8507292" lon="152.8440737">
<ele>133.149</ele>
<time>2018-01-17T06:18:04.934Z</time>
</trkpt>
<trkpt lat="-26.8510923" lon="152.8436086">
<ele>133.290</ele>
<time>2018-01-17T06:18:07.947Z</time>
</trkpt>
<trkpt lat="-26.8514260" lon="152.8430996">
<ele>133.654</ele>
<time>2018-01-17T06:18:10.989Z</time>
</trkpt>
<trkpt lat="-26.8517709" lon="152.8426437">
<ele>134.651</ele>
<time>2018-01-17T06:18:13.979Z</time>
</trkpt>
<trkpt lat="-26.8520326" lon="152.8422781">
<ele>136.313</ele>
<time>2018-01-17T06:18:16.551Z</time>
</trkpt>
<trkpt lat="-26.8522772" lon="152.8419062">
<ele>138.477</ele>
<time>2018-01-17T06:18:19.332Z</time>
</trkpt>
<trkpt lat="-26.8524957" lon="152.8415094">
<ele>140.675</ele>
<time>2018-01-17T06:18:22.090Z</time>
</trkpt>
<trkpt lat="-26.8529679" lon="152.8410926">
<ele>142.131</ele>
<time>2018-01-17T06:18:25.474Z</time>
</trkpt>
<trkpt lat="-26.8535014" lon="152.8407759">
<ele>142.131</ele>
<time>2018-01-17T06:18:28.573Z</time>
</trkpt>
<trkpt lat="-26.8539871" lon="152.8404399">
<ele>140.312</ele>
<time>2018-01-17T06:18:31.558Z</time>
</trkpt>
<trkpt lat="-26.8544366" lon="152.8401524">
<ele>137.145</ele>
<time>2018-01-17T06:18:34.390Z</time>
</trkpt>
<trkpt lat="-26.8548891" lon="152.8398627">
<ele>133.695</ele>
<time>2018-01-17T06:18:37.374Z</time>
</trkpt>
<trkpt lat="-26.8552317" lon="152.8395031">
<ele>130.611</ele>
<time>2018-01-17T06:18:40.139Z</time>
</trkpt>
<trkpt lat="-26.8553440" lon="152.8389105">
<ele>128.242</ele>
<time>2018-01-17T06:18:43.425Z</time>
</trkpt>
<trkpt lat="-26.8553852" lon="152.8384215">
<ele>126.877</ele>
<time>2018-01-17T06:18:46.408Z</time>
</trkpt>
<trkpt lat="-26.8554466" lon="152.8380180">
<ele>126.434</ele>
<time>2018-01-17T06:18:49.467Z</time>
</trkpt>
<trkpt lat="-26.8555382" lon="152.8377845">
<ele>126.484</ele>
<time>2018-01-17T06:18:52.035Z</time>
</trkpt>
<trkpt lat="-26.8555686" lon="152.8376441">
<ele>126.657</ele>
<time>2018-01-17T06:18:53.998Z</time>
</trkpt>
<trkpt lat="-26.8555686" lon="152.8376441">
<ele>126.739</ele>
<time>2018-01-17T06:18:56.998Z</time>
</trkpt>
<trkpt lat="-26.8555686" lon="152.8376441">
<ele>126.680</ele>
<time>2018-01-17T06:19:14.778Z</time>
</trkpt>
<trkpt lat="-26.8554590" lon="152.8375044">
<ele>126.573</ele>
<time>2018-01-17T06:19:21.425Z</time>
</trkpt>
<trkpt lat="-26.8555478" lon="152.8372056">
<ele>126.099</ele>
<time>2018-01-17T06:19:25.162Z</time>
</trkpt>
<trkpt lat="-26.8555812" lon="152.8369113">
<ele>124.724</ele>
<time>2018-01-17T06:19:27.727Z</time>
</trkpt>
<trkpt lat="-26.8556193" lon="152.8364454">
<ele>122.266</ele>
<time>2018-01-17T06:19:31.094Z</time>
</trkpt>
<trkpt lat="-26.8556377" lon="152.8358944">
<ele>118.564</ele>
<time>2018-01-17T06:19:34.595Z</time>
</trkpt>
<trkpt lat="-26.8557067" lon="152.8352756">
<ele>113.648</ele>
<time>2018-01-17T06:19:38.019Z</time>
</trkpt>
<trkpt lat="-26.8558682" lon="152.8345809">
<ele>108.655</ele>
<time>2018-01-17T06:19:41.303Z</time>
</trkpt>
<trkpt lat="-26.8559953" lon="152.8338454">
<ele>105.057</ele>
<time>2018-01-17T06:19:44.312Z</time>
</trkpt>
<trkpt lat="-26.8562182" lon="152.8330487">
<ele>103.332</ele>
<time>2018-01-17T06:19:47.395Z</time>
</trkpt>
<trkpt lat="-26.8564639" lon="152.8322792">
<ele>103.071</ele>
<time>2018-01-17T06:19:50.333Z</time>
</trkpt>
<trkpt lat="-26.8567970" lon="152.8315031">
<ele>103.759</ele>
<time>2018-01-17T06:19:53.431Z</time>
</trkpt>
<trkpt lat="-26.8570996" lon="152.8307296">
<ele>105.037</ele>
<time>2018-01-17T06:19:56.523Z</time>
</trkpt>
<trkpt lat="-26.8573840" lon="152.8300071">
<ele>106.713</ele>
<time>2018-01-17T06:19:59.532Z</time>
</trkpt>
<trkpt lat="-26.8576578" lon="152.8292968">
<ele>108.637</ele>
<time>2018-01-17T06:20:02.713Z</time>
</trkpt>
<trkpt lat="-26.8578883" lon="152.8286633">
<ele>110.791</ele>
<time>2018-01-17T06:20:05.801Z</time>
</trkpt>
<trkpt lat="-26.8582139" lon="152.8281780">
<ele>113.093</ele>
<time>2018-01-17T06:20:08.507Z</time>
</trkpt>
<trkpt lat="-26.8587518" lon="152.8278584">
<ele>115.204</ele>
<time>2018-01-17T06:20:11.292Z</time>
</trkpt>
<trkpt lat="-26.8593822" lon="152.8275491">
<ele>116.776</ele>
<time>2018-01-17T06:20:14.347Z</time>
</trkpt>
<trkpt lat="-26.8600110" lon="152.8272707">
<ele>117.618</ele>
<time>2018-01-17T06:20:17.396Z</time>
</trkpt>
<trkpt lat="-26.8606073" lon="152.8269645">
<ele>117.801</ele>
<time>2018-01-17T06:20:20.643Z</time>
</trkpt>
<trkpt lat="-26.8609980" lon="152.8265604">
<ele>117.681</ele>
<time>2018-01-17T06:20:23.422Z</time>
</trkpt>
<trkpt lat="-26.8612730" lon="152.8260172">
<ele>117.568</ele>
<time>2018-01-17T06:20:26.169Z</time>
</trkpt>
<trkpt lat="-26.8614178" lon="152.8253370">
<ele>117.797</ele>
<time>2018-01-17T06:20:29.028Z</time>
</trkpt>
<trkpt lat="-26.8615343" lon="152.8245812">
<ele>118.694</ele>
<time>2018-01-17T06:20:32.154Z</time>
</trkpt>
<trkpt lat="-26.8616646" lon="152.8239048">
<ele>120.140</ele>
<time>2018-01-17T06:20:35.244Z</time>
</trkpt>
<trkpt lat="-26.8617913" lon="152.8233102">
<ele>121.600</ele>
<time>2018-01-17T06:20:38.204Z</time>
</trkpt>
<trkpt lat="-26.8617702" lon="152.8227014">
<ele>122.784</ele>
<time>2018-01-17T06:20:41.139Z</time>
</trkpt>
<trkpt lat="-26.8615274" lon="152.8220806">
<ele>123.740</ele>
<time>2018-01-17T06:20:44.273Z</time>
</trkpt>
<trkpt lat="-26.8611937" lon="152.8215460">
<ele>124.491</ele>
<time>2018-01-17T06:20:47.149Z</time>
</trkpt>
<trkpt lat="-26.8607333" lon="152.8210409">
<ele>124.959</ele>
<time>2018-01-17T06:20:50.136Z</time>
</trkpt>
<trkpt lat="-26.8602217" lon="152.8205582">
<ele>125.133</ele>
<time>2018-01-17T06:20:53.283Z</time>
</trkpt>
<trkpt lat="-26.8597648" lon="152.8201383">
<ele>124.977</ele>
<time>2018-01-17T06:20:56.279Z</time>
</trkpt>
<trkpt lat="-26.8593561" lon="152.8197111">
<ele>124.554</ele>
<time>2018-01-17T06:20:59.285Z</time>
</trkpt>
<trkpt lat="-26.8589678" lon="152.8193183">
<ele>124.185</ele>
<time>2018-01-17T06:21:02.184Z</time>
</trkpt>
<trkpt lat="-26.8585940" lon="152.8188775">
<ele>124.131</ele>
<time>2018-01-17T06:21:05.057Z</time>
</trkpt>
<trkpt lat="-26.8582967" lon="152.8182941">
<ele>124.413</ele>
<time>2018-01-17T06:21:08.115Z</time>
</trkpt>
<trkpt lat="-26.8580412" lon="152.8176996">
<ele>124.929</ele>
<time>2018-01-17T06:21:11.323Z</time>
</trkpt>
<trkpt lat="-26.8577915" lon="152.8171967">
<ele>125.447</ele>
<time>2018-01-17T06:21:14.426Z</time>
</trkpt>
<trkpt lat="-26.8575661" lon="152.8167521">
<ele>125.959</ele>
<time>2018-01-17T06:21:17.510Z</time>
</trkpt>
<trkpt lat="-26.8573704" lon="152.8163558">
<ele>126.637</ele>
<time>2018-01-17T06:21:20.646Z</time>
</trkpt>
<trkpt lat="-26.8572006" lon="152.8159834">
<ele>127.597</ele>
<time>2018-01-17T06:21:25.090Z</time>
</trkpt>
<trkpt lat="-26.8571183" lon="152.8157351">
<ele>128.798</ele>
<time>2018-01-17T06:21:27.817Z</time>
</trkpt>
<trkpt lat="-26.8571712" lon="152.8156366">
<ele>129.940</ele>
<time>2018-01-17T06:21:28.584Z</time>
</trkpt>
<trkpt lat="-26.8575070" lon="152.8155838">
<ele>130.684</ele>
<time>2018-01-17T06:21:30.868Z</time>
</trkpt>
<trkpt lat="-26.8580549" lon="152.8156045">
<ele>130.913</ele>
<time>2018-01-17T06:21:33.810Z</time>
</trkpt>
<trkpt lat="-26.8587147" lon="152.8155719">
<ele>130.602</ele>
<time>2018-01-17T06:21:37.025Z</time>
</trkpt>
<trkpt lat="-26.8593705" lon="152.8155199">
<ele>129.812</ele>
<time>2018-01-17T06:21:40.141Z</time>
</trkpt>
<trkpt lat="-26.8600101" lon="152.8155063">
<ele>128.599</ele>
<time>2018-01-17T06:21:43.129Z</time>
</trkpt>
<trkpt lat="-26.8606693" lon="152.8155122">
<ele>127.093</ele>
<time>2018-01-17T06:21:46.111Z</time>
</trkpt>
<trkpt lat="-26.8613537" lon="152.8153915">
<ele>125.627</ele>
<time>2018-01-17T06:21:49.107Z</time>
</trkpt>
<trkpt lat="-26.8620697" lon="152.8152443">
<ele>124.394</ele>
<time>2018-01-17T06:21:52.150Z</time>
</trkpt>
<trkpt lat="-26.8627753" lon="152.8150049">
<ele>123.280</ele>
<time>2018-01-17T06:21:55.177Z</time>
</trkpt>
<trkpt lat="-26.8634589" lon="152.8146713">
<ele>121.995</ele>
<time>2018-01-17T06:21:58.204Z</time>
</trkpt>
<trkpt lat="-26.8640865" lon="152.8142560">
<ele>120.324</ele>
<time>2018-01-17T06:22:01.172Z</time>
</trkpt>
<trkpt lat="-26.8646724" lon="152.8137706">
<ele>118.506</ele>
<time>2018-01-17T06:22:04.137Z</time>
</trkpt>
<trkpt lat="-26.8652310" lon="152.8132201">
<ele>117.125</ele>
<time>2018-01-17T06:22:07.165Z</time>
</trkpt>
<trkpt lat="-26.8658011" lon="152.8126908">
<ele>116.389</ele>
<time>2018-01-17T06:22:10.163Z</time>
</trkpt>
<trkpt lat="-26.8663846" lon="152.8121153">
<ele>116.085</ele>
<time>2018-01-17T06:22:13.279Z</time>
</trkpt>
<trkpt lat="-26.8669625" lon="152.8115817">
<ele>116.003</ele>
<time>2018-01-17T06:22:16.291Z</time>
</trkpt>
<trkpt lat="-26.8675377" lon="152.8110923">
<ele>115.975</ele>
<time>2018-01-17T06:22:19.209Z</time>
</trkpt>
<trkpt lat="-26.8681165" lon="152.8105825">
<ele>115.715</ele>
<time>2018-01-17T06:22:22.198Z</time>
</trkpt>
<trkpt lat="-26.8686851" lon="152.8100737">
<ele>114.952</ele>
<time>2018-01-17T06:22:25.166Z</time>
</trkpt>
<trkpt lat="-26.8692101" lon="152.8095062">
<ele>113.868</ele>
<time>2018-01-17T06:22:28.125Z</time>
</trkpt>
<trkpt lat="-26.8696916" lon="152.8088580">
<ele>113.021</ele>
<time>2018-01-17T06:22:31.150Z</time>
</trkpt>
<trkpt lat="-26.8701030" lon="152.8081843">
<ele>112.851</ele>
<time>2018-01-17T06:22:34.045Z</time>
</trkpt>
<trkpt lat="-26.8704753" lon="152.8074143">
<ele>113.588</ele>
<time>2018-01-17T06:22:37.196Z</time>
</trkpt>
<trkpt lat="-26.8706832" lon="152.8066336">
<ele>115.255</ele>
<time>2018-01-17T06:22:40.247Z</time>
</trkpt>
<trkpt lat="-26.8708545" lon="152.8058713">
<ele>117.592</ele>
<time>2018-01-17T06:22:43.280Z</time>
</trkpt>
<trkpt lat="-26.8710390" lon="152.8051394">
<ele>120.508</ele>
<time>2018-01-17T06:22:46.270Z</time>
</trkpt>
<trkpt lat="-26.8711902" lon="152.8043993">
<ele>123.928</ele>
<time>2018-01-17T06:22:49.249Z</time>
</trkpt>
<trkpt lat="-26.8713624" lon="152.8036392">
<ele>127.262</ele>
<time>2018-01-17T06:22:52.297Z</time>
</trkpt>
<trkpt lat="-26.8715279" lon="152.8028972">
<ele>129.699</ele>
<time>2018-01-17T06:22:55.273Z</time>
</trkpt>
<trkpt lat="-26.8717544" lon="152.8021688">
<ele>131.014</ele>
<time>2018-01-17T06:22:58.247Z</time>
</trkpt>
<trkpt lat="-26.8720054" lon="152.8014392">
<ele>131.642</ele>
<time>2018-01-17T06:23:01.207Z</time>
</trkpt>
<trkpt lat="-26.8723411" lon="152.8007229">
<ele>132.072</ele>
<time>2018-01-17T06:23:04.243Z</time>
</trkpt>
<trkpt lat="-26.8726854" lon="152.8000048">
<ele>132.394</ele>
<time>2018-01-17T06:23:07.281Z</time>
</trkpt>
<trkpt lat="-26.8730474" lon="152.7993008">
<ele>132.532</ele>
<time>2018-01-17T06:23:10.292Z</time>
</trkpt>
<trkpt lat="-26.8733741" lon="152.7985766">
<ele>132.476</ele>
<time>2018-01-17T06:23:13.358Z</time>
</trkpt>
<trkpt lat="-26.8736542" lon="152.7978874">
<ele>132.278</ele>
<time>2018-01-17T06:23:16.269Z</time>
</trkpt>
<trkpt lat="-26.8739806" lon="152.7972177">
<ele>131.850</ele>
<time>2018-01-17T06:23:19.162Z</time>
</trkpt>
<trkpt lat="-26.8743282" lon="152.7965074">
<ele>130.967</ele>
<time>2018-01-17T06:23:22.149Z</time>
</trkpt>
<trkpt lat="-26.8746480" lon="152.7957829">
<ele>129.472</ele>
<time>2018-01-17T06:23:25.091Z</time>
</trkpt>
<trkpt lat="-26.8750046" lon="152.7950922">
<ele>127.284</ele>
<time>2018-01-17T06:23:27.996Z</time>
</trkpt>
<trkpt lat="-26.8753301" lon="152.7943606">
<ele>124.389</ele>
<time>2018-01-17T06:23:30.962Z</time>
</trkpt>
<trkpt lat="-26.8756517" lon="152.7936082">
<ele>121.020</ele>
<time>2018-01-17T06:23:33.999Z</time>
</trkpt>
<trkpt lat="-26.8759793" lon="152.7928821">
<ele>117.737</ele>
<time>2018-01-17T06:23:36.973Z</time>
</trkpt>
<trkpt lat="-26.8763106" lon="152.7921281">
<ele>115.226</ele>
<time>2018-01-17T06:23:40.030Z</time>
</trkpt>
<trkpt lat="-26.8766465" lon="152.7914000">
<ele>113.798</ele>
<time>2018-01-17T06:23:43.000Z</time>
</trkpt>
<trkpt lat="-26.8770003" lon="152.7906452">
<ele>113.116</ele>
<time>2018-01-17T06:23:46.085Z</time>
</trkpt>
<trkpt lat="-26.8773922" lon="152.7899427">
<ele>112.619</ele>
<time>2018-01-17T06:23:49.141Z</time>
</trkpt>
<trkpt lat="-26.8778493" lon="152.7893441">
<ele>112.135</ele>
<time>2018-01-17T06:23:52.124Z</time>
</trkpt>
<trkpt lat="-26.8783572" lon="152.7887890">
<ele>111.913</ele>
<time>2018-01-17T06:23:55.126Z</time>
</trkpt>
<trkpt lat="-26.8789146" lon="152.7883087">
<ele>112.164</ele>
<time>2018-01-17T06:23:58.073Z</time>
</trkpt>
<trkpt lat="-26.8795012" lon="152.7878780">
<ele>112.907</ele>
<time>2018-01-17T06:24:01.017Z</time>
</trkpt>
<trkpt lat="-26.8801660" lon="152.7875321">
<ele>113.996</ele>
<time>2018-01-17T06:24:04.110Z</time>
</trkpt>
<trkpt lat="-26.8808269" lon="152.7872656">
<ele>115.303</ele>
<time>2018-01-17T06:24:07.101Z</time>
</trkpt>
<trkpt lat="-26.8814821" lon="152.7870542">
<ele>116.751</ele>
<time>2018-01-17T06:24:10.004Z</time>
</trkpt>
<trkpt lat="-26.8821806" lon="152.7869197">
<ele>118.084</ele>
<time>2018-01-17T06:24:12.976Z</time>
</trkpt>
<trkpt lat="-26.8828597" lon="152.7868870">
<ele>118.942</ele>
<time>2018-01-17T06:24:15.792Z</time>
</trkpt>
<trkpt lat="-26.8835858" lon="152.7869499">
<ele>119.051</ele>
<time>2018-01-17T06:24:18.793Z</time>
</trkpt>
<trkpt lat="-26.8843380" lon="152.7869682">
<ele>118.315</ele>
<time>2018-01-17T06:24:21.878Z</time>
</trkpt>
<trkpt lat="-26.8850809" lon="152.7870417">
<ele>116.977</ele>
<time>2018-01-17T06:24:24.918Z</time>
</trkpt>
<trkpt lat="-26.8858261" lon="152.7870565">
<ele>115.301</ele>
<time>2018-01-17T06:24:27.902Z</time>
</trkpt>
<trkpt lat="-26.8865826" lon="152.7870256">
<ele>113.539</ele>
<time>2018-01-17T06:24:30.907Z</time>
</trkpt>
<trkpt lat="-26.8873133" lon="152.7868427">
<ele>111.960</ele>
<time>2018-01-17T06:24:33.946Z</time>
</trkpt>
<trkpt lat="-26.8880091" lon="152.7866142">
<ele>110.516</ele>
<time>2018-01-17T06:24:36.913Z</time>
</trkpt>
<trkpt lat="-26.8887163" lon="152.7862755">
<ele>109.036</ele>
<time>2018-01-17T06:24:40.007Z</time>
</trkpt>
<trkpt lat="-26.8894025" lon="152.7858650">
<ele>107.411</ele>
<time>2018-01-17T06:24:43.132Z</time>
</trkpt>
<trkpt lat="-26.8900041" lon="152.7853876">
<ele>105.702</ele>
<time>2018-01-17T06:24:46.135Z</time>
</trkpt>
<trkpt lat="-26.8906080" lon="152.7849386">
<ele>104.383</ele>
<time>2018-01-17T06:24:49.133Z</time>
</trkpt>
<trkpt lat="-26.8912048" lon="152.7845012">
<ele>104.069</ele>
<time>2018-01-17T06:24:52.106Z</time>
</trkpt>
<trkpt lat="-26.8918137" lon="152.7840947">
<ele>104.813</ele>
<time>2018-01-17T06:24:55.038Z</time>
</trkpt>
<trkpt lat="-26.8924296" lon="152.7836430">
<ele>105.933</ele>
<time>2018-01-17T06:24:58.036Z</time>
</trkpt>
<trkpt lat="-26.8930505" lon="152.7831750">
<ele>106.788</ele>
<time>2018-01-17T06:25:01.138Z</time>
</trkpt>
<trkpt lat="-26.8936332" lon="152.7827684">
<ele>107.470</ele>
<time>2018-01-17T06:25:04.097Z</time>
</trkpt>
<trkpt lat="-26.8942076" lon="152.7823554">
<ele>108.379</ele>
<time>2018-01-17T06:25:07.137Z</time>
</trkpt>
<trkpt lat="-26.8947559" lon="152.7819638">
<ele>109.836</ele>
<time>2018-01-17T06:25:10.101Z</time>
</trkpt>
<trkpt lat="-26.8953010" lon="152.7815580">
<ele>111.928</ele>
<time>2018-01-17T06:25:13.052Z</time>
</trkpt>
<trkpt lat="-26.8958635" lon="152.7811622">
<ele>114.301</ele>
<time>2018-01-17T06:25:15.913Z</time>
</trkpt>
<trkpt lat="-26.8964733" lon="152.7807382">
<ele>116.232</ele>
<time>2018-01-17T06:25:18.675Z</time>
</trkpt>
<trkpt lat="-26.8972120" lon="152.7802295">
<ele>117.245</ele>
<time>2018-01-17T06:25:21.628Z</time>
</trkpt>
<trkpt lat="-26.8980554" lon="152.7797159">
<ele>117.217</ele>
<time>2018-01-17T06:25:24.752Z</time>
</trkpt>
<trkpt lat="-26.8988443" lon="152.7792414">
<ele>116.021</ele>
<time>2018-01-17T06:25:27.905Z</time>
</trkpt>
<trkpt lat="-26.8994950" lon="152.7788678">
<ele>113.760</ele>
<time>2018-01-17T06:25:30.788Z</time>
</trkpt>
<trkpt lat="-26.9001471" lon="152.7784663">
<ele>111.092</ele>
<time>2018-01-17T06:25:33.763Z</time>
</trkpt>
<trkpt lat="-26.9008453" lon="152.7780994">
<ele>108.691</ele>
<time>2018-01-17T06:25:36.777Z</time>
</trkpt>
<trkpt lat="-26.9015719" lon="152.7777914">
<ele>106.971</ele>
<time>2018-01-17T06:25:39.777Z</time>
</trkpt>
<trkpt lat="-26.9023303" lon="152.7775749">
<ele>106.198</ele>
<time>2018-01-17T06:25:42.794Z</time>
</trkpt>
<trkpt lat="-26.9030843" lon="152.7774415">
<ele>106.434</ele>
<time>2018-01-17T06:25:45.744Z</time>
</trkpt>
<trkpt lat="-26.9038339" lon="152.7773968">
<ele>107.267</ele>
<time>2018-01-17T06:25:48.674Z</time>
</trkpt>
<trkpt lat="-26.9045843" lon="152.7774063">
<ele>107.730</ele>
<time>2018-01-17T06:25:51.613Z</time>
</trkpt>
<trkpt lat="-26.9053681" lon="152.7773831">
<ele>107.120</ele>
<time>2018-01-17T06:25:54.671Z</time>
</trkpt>
<trkpt lat="-26.9061299" lon="152.7772414">
<ele>105.903</ele>
<time>2018-01-17T06:25:57.677Z</time>
</trkpt>
<trkpt lat="-26.9068929" lon="152.7770176">
<ele>104.982</ele>
<time>2018-01-17T06:26:00.744Z</time>
</trkpt>
<trkpt lat="-26.9076089" lon="152.7767472">
<ele>104.516</ele>
<time>2018-01-17T06:26:03.682Z</time>
</trkpt>
<trkpt lat="-26.9083188" lon="152.7763916">
<ele>103.816</ele>
<time>2018-01-17T06:26:06.709Z</time>
</trkpt>
<trkpt lat="-26.9090221" lon="152.7760135">
<ele>102.448</ele>
<time>2018-01-17T06:26:09.755Z</time>
</trkpt>
<trkpt lat="-26.9096747" lon="152.7755395">
<ele>100.986</ele>
<time>2018-01-17T06:26:12.780Z</time>
</trkpt>
<trkpt lat="-26.9103068" lon="152.7750066">
<ele>100.401</ele>
<time>2018-01-17T06:26:15.845Z</time>
</trkpt>
<trkpt lat="-26.9108611" lon="152.7744383">
<ele>101.059</ele>
<time>2018-01-17T06:26:18.765Z</time>
</trkpt>
<trkpt lat="-26.9114568" lon="152.7738903">
<ele>102.464</ele>
<time>2018-01-17T06:26:21.763Z</time>
</trkpt>
<trkpt lat="-26.9120958" lon="152.7733798">
<ele>103.881</ele>
<time>2018-01-17T06:26:24.810Z</time>
</trkpt>
<trkpt lat="-26.9127420" lon="152.7729131">
<ele>105.034</ele>
<time>2018-01-17T06:26:27.789Z</time>
</trkpt>
<trkpt lat="-26.9134066" lon="152.7724762">
<ele>105.863</ele>
<time>2018-01-17T06:26:30.775Z</time>
</trkpt>
<trkpt lat="-26.9140753" lon="152.7720639">
<ele>106.429</ele>
<time>2018-01-17T06:26:33.744Z</time>
</trkpt>
<trkpt lat="-26.9147631" lon="152.7716803">
<ele>106.981</ele>
<time>2018-01-17T06:26:36.738Z</time>
</trkpt>
<trkpt lat="-26.9154401" lon="152.7712546">
<ele>107.560</ele>
<time>2018-01-17T06:26:39.766Z</time>
</trkpt>
<trkpt lat="-26.9161407" lon="152.7708847">
<ele>107.867</ele>
<time>2018-01-17T06:26:42.798Z</time>
</trkpt>
<trkpt lat="-26.9168005" lon="152.7704583">
<ele>107.598</ele>
<time>2018-01-17T06:26:45.779Z</time>
</trkpt>
<trkpt lat="-26.9174819" lon="152.7700476">
<ele>106.878</ele>
<time>2018-01-17T06:26:48.791Z</time>
</trkpt>
<trkpt lat="-26.9181791" lon="152.7696568">
<ele>106.179</ele>
<time>2018-01-17T06:26:51.814Z</time>
</trkpt>
<trkpt lat="-26.9188444" lon="152.7692398">
<ele>105.786</ele>
<time>2018-01-17T06:26:54.779Z</time>
</trkpt>
<trkpt lat="-26.9194699" lon="152.7687814">
<ele>105.654</ele>
<time>2018-01-17T06:26:57.684Z</time>
</trkpt>
<trkpt lat="-26.9200881" lon="152.7682242">
<ele>105.677</ele>
<time>2018-01-17T06:27:00.746Z</time>
</trkpt>
<trkpt lat="-26.9206710" lon="152.7676619">
<ele>105.803</ele>
<time>2018-01-17T06:27:03.716Z</time>
</trkpt>
<trkpt lat="-26.9212299" lon="152.7670619">
<ele>106.117</ele>
<time>2018-01-17T06:27:06.716Z</time>
</trkpt>
<trkpt lat="-26.9217607" lon="152.7664614">
<ele>106.577</ele>
<time>2018-01-17T06:27:09.654Z</time>
</trkpt>
<trkpt lat="-26.9223106" lon="152.7658699">
<ele>106.964</ele>
<time>2018-01-17T06:27:12.638Z</time>
</trkpt>
<trkpt lat="-26.9228727" lon="152.7652760">
<ele>107.273</ele>
<time>2018-01-17T06:27:15.662Z</time>
</trkpt>
<trkpt lat="-26.9232356" lon="152.7648716">
<ele>107.811</ele>
<time>2018-01-17T06:27:17.662Z</time>
</trkpt>
<trkpt lat="-26.9237668" lon="152.7642380">
<ele>108.672</ele>
<time>2018-01-17T06:27:20.679Z</time>
</trkpt>
<trkpt lat="-26.9243126" lon="152.7636359">
<ele>109.697</ele>
<time>2018-01-17T06:27:23.633Z</time>
</trkpt>
<trkpt lat="-26.9248784" lon="152.7630106">
<ele>110.655</ele>
<time>2018-01-17T06:27:26.694Z</time>
</trkpt>
<trkpt lat="-26.9254376" lon="152.7624032">
<ele>111.256</ele>
<time>2018-01-17T06:27:29.707Z</time>
</trkpt>
<trkpt lat="-26.9259847" lon="152.7618139">
<ele>111.198</ele>
<time>2018-01-17T06:27:32.651Z</time>
</trkpt>
<trkpt lat="-26.9265030" lon="152.7612071">
<ele>110.429</ele>
<time>2018-01-17T06:27:35.580Z</time>
</trkpt>
<trkpt lat="-26.9270503" lon="152.7606153">
<ele>109.359</ele>
<time>2018-01-17T06:27:38.700Z</time>
</trkpt>
<trkpt lat="-26.9275262" lon="152.7600943">
<ele>108.417</ele>
<time>2018-01-17T06:27:41.716Z</time>
</trkpt>
<trkpt lat="-26.9279520" lon="152.7596301">
<ele>107.444</ele>
<time>2018-01-17T06:27:44.561Z</time>
</trkpt>
<trkpt lat="-26.9283831" lon="152.7591240">
<ele>106.376</ele>
<time>2018-01-17T06:27:47.527Z</time>
</trkpt>
<trkpt lat="-26.9288403" lon="152.7586195">
<ele>105.680</ele>
<time>2018-01-17T06:27:50.596Z</time>
</trkpt>
<trkpt lat="-26.9292706" lon="152.7581620">
<ele>105.719</ele>
<time>2018-01-17T06:27:53.508Z</time>
</trkpt>
<trkpt lat="-26.9296870" lon="152.7576766">
<ele>106.279</ele>
<time>2018-01-17T06:27:56.619Z</time>
</trkpt>
<trkpt lat="-26.9300594" lon="152.7572617">
<ele>106.878</ele>
<time>2018-01-17T06:27:59.700Z</time>
</trkpt>
<trkpt lat="-26.9303860" lon="152.7569673">
<ele>107.235</ele>
<time>2018-01-17T06:28:02.782Z</time>
</trkpt>
<trkpt lat="-26.9306939" lon="152.7568451">
<ele>107.362</ele>
<time>2018-01-17T06:28:05.499Z</time>
</trkpt>
<trkpt lat="-26.9310372" lon="152.7570754">
<ele>107.429</ele>
<time>2018-01-17T06:28:08.182Z</time>
</trkpt>
<trkpt lat="-26.9314066" lon="152.7575303">
<ele>107.629</ele>
<time>2018-01-17T06:28:11.103Z</time>
</trkpt>
<trkpt lat="-26.9318829" lon="152.7580672">
<ele>107.973</ele>
<time>2018-01-17T06:28:14.344Z</time>
</trkpt>
<trkpt lat="-26.9322886" lon="152.7585554">
<ele>108.424</ele>
<time>2018-01-17T06:28:17.236Z</time>
</trkpt>
<trkpt lat="-26.9327018" lon="152.7590330">
<ele>109.103</ele>
<time>2018-01-17T06:28:20.181Z</time>
</trkpt>
<trkpt lat="-26.9331559" lon="152.7595064">
<ele>109.948</ele>
<time>2018-01-17T06:28:23.262Z</time>
</trkpt>
<trkpt lat="-26.9336199" lon="152.7599566">
<ele>110.627</ele>
<time>2018-01-17T06:28:26.302Z</time>
</trkpt>
<trkpt lat="-26.9340752" lon="152.7604258">
<ele>111.066</ele>
<time>2018-01-17T06:28:29.357Z</time>
</trkpt>
<trkpt lat="-26.9343789" lon="152.7607272">
<ele>111.651</ele>
<time>2018-01-17T06:28:31.361Z</time>
</trkpt>
<trkpt lat="-26.9348397" lon="152.7611434">
<ele>112.583</ele>
<time>2018-01-17T06:28:34.290Z</time>
</trkpt>
<trkpt lat="-26.9353280" lon="152.7615132">
<ele>113.521</ele>
<time>2018-01-17T06:28:37.218Z</time>
</trkpt>
<trkpt lat="-26.9358389" lon="152.7618505">
<ele>113.836</ele>
<time>2018-01-17T06:28:40.171Z</time>
</trkpt>
<trkpt lat="-26.9363552" lon="152.7621904">
<ele>112.951</ele>
<time>2018-01-17T06:28:43.145Z</time>
</trkpt>
<trkpt lat="-26.9369026" lon="152.7624933">
<ele>110.701</ele>
<time>2018-01-17T06:28:46.153Z</time>
</trkpt>
<trkpt lat="-26.9374410" lon="152.7628258">
<ele>107.639</ele>
<time>2018-01-17T06:28:49.158Z</time>
</trkpt>
<trkpt lat="-26.9379830" lon="152.7631685">
<ele>104.720</ele>
<time>2018-01-17T06:28:52.203Z</time>
</trkpt>
<trkpt lat="-26.9385161" lon="152.7634946">
<ele>102.741</ele>
<time>2018-01-17T06:28:55.200Z</time>
</trkpt>
<trkpt lat="-26.9390147" lon="152.7638746">
<ele>102.114</ele>
<time>2018-01-17T06:28:58.198Z</time>
</trkpt>
<trkpt lat="-26.9394234" lon="152.7643617">
<ele>102.812</ele>
<time>2018-01-17T06:29:01.164Z</time>
</trkpt>
<trkpt lat="-26.9397624" lon="152.7649090">
<ele>104.517</ele>
<time>2018-01-17T06:29:04.102Z</time>
</trkpt>
<trkpt lat="-26.9401038" lon="152.7654905">
<ele>106.853</ele>
<time>2018-01-17T06:29:07.156Z</time>
</trkpt>
<trkpt lat="-26.9404293" lon="152.7660755">
<ele>109.401</ele>
<time>2018-01-17T06:29:10.183Z</time>
</trkpt>
<trkpt lat="-26.9407254" lon="152.7666627">
<ele>111.630</ele>
<time>2018-01-17T06:29:13.147Z</time>
</trkpt>
<trkpt lat="-26.9410602" lon="152.7672443">
<ele>113.086</ele>
<time>2018-01-17T06:29:16.173Z</time>
</trkpt>
<trkpt lat="-26.9414395" lon="152.7677692">
<ele>113.581</ele>
<time>2018-01-17T06:29:19.105Z</time>
</trkpt>
<trkpt lat="-26.9418092" lon="152.7683260">
<ele>113.358</ele>
<time>2018-01-17T06:29:22.129Z</time>
</trkpt>
<trkpt lat="-26.9421963" lon="152.7688575">
<ele>112.826</ele>
<time>2018-01-17T06:29:25.148Z</time>
</trkpt>
<trkpt lat="-26.9426216" lon="152.7693657">
<ele>112.028</ele>
<time>2018-01-17T06:29:28.227Z</time>
</trkpt>
<trkpt lat="-26.9430341" lon="152.7698375">
<ele>110.906</ele>
<time>2018-01-17T06:29:31.147Z</time>
</trkpt>
<trkpt lat="-26.9435059" lon="152.7702739">
<ele>109.816</ele>
<time>2018-01-17T06:29:34.175Z</time>
</trkpt>
<trkpt lat="-26.9440136" lon="152.7706454">
<ele>109.156</ele>
<time>2018-01-17T06:29:37.180Z</time>
</trkpt>
<trkpt lat="-26.9444943" lon="152.7710365">
<ele>109.165</ele>
<time>2018-01-17T06:29:40.122Z</time>
</trkpt>
<trkpt lat="-26.9449768" lon="152.7714173">
<ele>109.907</ele>
<time>2018-01-17T06:29:43.045Z</time>
</trkpt>
<trkpt lat="-26.9455042" lon="152.7717897">
<ele>110.941</ele>
<time>2018-01-17T06:29:46.127Z</time>
</trkpt>
<trkpt lat="-26.9460318" lon="152.7721435">
<ele>111.537</ele>
<time>2018-01-17T06:29:49.161Z</time>
</trkpt>
<trkpt lat="-26.9465285" lon="152.7725406">
<ele>111.383</ele>
<time>2018-01-17T06:29:52.171Z</time>
</trkpt>
<trkpt lat="-26.9470272" lon="152.7729372">
<ele>110.794</ele>
<time>2018-01-17T06:29:55.208Z</time>
</trkpt>
<trkpt lat="-26.9475120" lon="152.7733532">
<ele>110.439</ele>
<time>2018-01-17T06:29:58.394Z</time>
</trkpt>
<trkpt lat="-26.9478950" lon="152.7737324">
<ele>110.674</ele>
<time>2018-01-17T06:30:01.405Z</time>
</trkpt>
<trkpt lat="-26.9481968" lon="152.7740873">
<ele>111.439</ele>
<time>2018-01-17T06:30:04.285Z</time>
</trkpt>
<trkpt lat="-26.9485043" lon="152.7744217">
<ele>112.432</ele>
<time>2018-01-17T06:30:07.201Z</time>
</trkpt>
<trkpt lat="-26.9487970" lon="152.7747873">
<ele>113.012</ele>
<time>2018-01-17T06:30:10.160Z</time>
</trkpt>
<trkpt lat="-26.9490894" lon="152.7751878">
<ele>112.636</ele>
<time>2018-01-17T06:30:13.263Z</time>
</trkpt>
<trkpt lat="-26.9493978" lon="152.7755154">
<ele>111.462</ele>
<time>2018-01-17T06:30:16.118Z</time>
</trkpt>
<trkpt lat="-26.9496863" lon="152.7759019">
<ele>110.159</ele>
<time>2018-01-17T06:30:19.122Z</time>
</trkpt>
<trkpt lat="-26.9499808" lon="152.7763059">
<ele>109.473</ele>
<time>2018-01-17T06:30:22.229Z</time>
</trkpt>
<trkpt lat="-26.9503568" lon="152.7765918">
<ele>109.870</ele>
<time>2018-01-17T06:30:25.267Z</time>
</trkpt>
<trkpt lat="-26.9508045" lon="152.7767078">
<ele>111.269</ele>
<time>2018-01-17T06:30:28.334Z</time>
</trkpt>
<trkpt lat="-26.9512456" lon="152.7768198">
<ele>113.245</ele>
<time>2018-01-17T06:30:31.348Z</time>
</trkpt>
<trkpt lat="-26.9516775" lon="152.7769440">
<ele>115.330</ele>
<time>2018-01-17T06:30:34.304Z</time>
</trkpt>
<trkpt lat="-26.9521238" lon="152.7770511">
<ele>117.118</ele>
<time>2018-01-17T06:30:37.339Z</time>
</trkpt>
<trkpt lat="-26.9525372" lon="152.7771981">
<ele>118.502</ele>
<time>2018-01-17T06:30:40.283Z</time>
</trkpt>
<trkpt lat="-26.9529433" lon="152.7773558">
<ele>119.730</ele>
<time>2018-01-17T06:30:43.250Z</time>
</trkpt>
<trkpt lat="-26.9533621" lon="152.7774810">
<ele>120.915</ele>
<time>2018-01-17T06:30:46.363Z</time>
</trkpt>
<trkpt lat="-26.9537235" lon="152.7776162">
<ele>121.947</ele>
<time>2018-01-17T06:30:49.319Z</time>
</trkpt>
<trkpt lat="-26.9540552" lon="152.7777412">
<ele>122.757</ele>
<time>2018-01-17T06:30:52.167Z</time>
</trkpt>
<trkpt lat="-26.9544194" lon="152.7778581">
<ele>123.302</ele>
<time>2018-01-17T06:30:55.120Z</time>
</trkpt>
<trkpt lat="-26.9548210" lon="152.7779865">
<ele>123.503</ele>
<time>2018-01-17T06:30:58.113Z</time>
</trkpt>
<trkpt lat="-26.9552385" lon="152.7781150">
<ele>123.345</ele>
<time>2018-01-17T06:31:01.091Z</time>
</trkpt>
<trkpt lat="-26.9556547" lon="152.7782495">
<ele>122.987</ele>
<time>2018-01-17T06:31:04.031Z</time>
</trkpt>
<trkpt lat="-26.9561033" lon="152.7783651">
<ele>122.744</ele>
<time>2018-01-17T06:31:07.117Z</time>
</trkpt>
<trkpt lat="-26.9565398" lon="152.7784744">
<ele>123.017</ele>
<time>2018-01-17T06:31:10.104Z</time>
</trkpt>
<trkpt lat="-26.9569724" lon="152.7785665">
<ele>123.807</ele>
<time>2018-01-17T06:31:13.069Z</time>
</trkpt>
<trkpt lat="-26.9574030" lon="152.7786785">
<ele>124.519</ele>
<time>2018-01-17T06:31:16.057Z</time>
</trkpt>
<trkpt lat="-26.9578365" lon="152.7788017">
<ele>124.637</ele>
<time>2018-01-17T06:31:19.083Z</time>
</trkpt>
<trkpt lat="-26.9582464" lon="152.7789549">
<ele>124.144</ele>
<time>2018-01-17T06:31:22.013Z</time>
</trkpt>
<trkpt lat="-26.9586867" lon="152.7790678">
<ele>123.146</ele>
<time>2018-01-17T06:31:25.074Z</time>
</trkpt>
<trkpt lat="-26.9591237" lon="152.7791825">
<ele>121.849</ele>
<time>2018-01-17T06:31:28.116Z</time>
</trkpt>
<trkpt lat="-26.9595486" lon="152.7792827">
<ele>120.604</ele>
<time>2018-01-17T06:31:31.061Z</time>
</trkpt>
<trkpt lat="-26.9599784" lon="152.7794093">
<ele>119.696</ele>
<time>2018-01-17T06:31:34.066Z</time>
</trkpt>
<trkpt lat="-26.9604114" lon="152.7795274">
<ele>119.180</ele>
<time>2018-01-17T06:31:37.065Z</time>
</trkpt>
<trkpt lat="-26.9608372" lon="152.7796623">
<ele>118.941</ele>
<time>2018-01-17T06:31:40.042Z</time>
</trkpt>
<trkpt lat="-26.9612334" lon="152.7798712">
<ele>118.692</ele>
<time>2018-01-17T06:31:43.004Z</time>
</trkpt>
<trkpt lat="-26.9616239" lon="152.7801097">
<ele>118.143</ele>
<time>2018-01-17T06:31:46.020Z</time>
</trkpt>
<trkpt lat="-26.9619992" lon="152.7803697">
<ele>117.396</ele>
<time>2018-01-17T06:31:49.002Z</time>
</trkpt>
<trkpt lat="-26.9624029" lon="152.7805881">
<ele>116.796</ele>
<time>2018-01-17T06:31:52.015Z</time>
</trkpt>
<trkpt lat="-26.9628091" lon="152.7808021">
<ele>116.474</ele>
<time>2018-01-17T06:31:55.018Z</time>
</trkpt>
<trkpt lat="-26.9632109" lon="152.7810364">
<ele>116.383</ele>
<time>2018-01-17T06:31:58.041Z</time>
</trkpt>
<trkpt lat="-26.9636161" lon="152.7812666">
<ele>116.449</ele>
<time>2018-01-17T06:32:01.071Z</time>
</trkpt>
<trkpt lat="-26.9639999" lon="152.7815161">
<ele>116.414</ele>
<time>2018-01-17T06:32:04.052Z</time>
</trkpt>
<trkpt lat="-26.9643854" lon="152.7817367">
<ele>115.834</ele>
<time>2018-01-17T06:32:07.000Z</time>
</trkpt>
<trkpt lat="-26.9647621" lon="152.7819413">
<ele>114.456</ele>
<time>2018-01-17T06:32:09.876Z</time>
</trkpt>
<trkpt lat="-26.9651581" lon="152.7821509">
<ele>112.693</ele>
<time>2018-01-17T06:32:12.886Z</time>
</trkpt>
<trkpt lat="-26.9655486" lon="152.7823726">
<ele>111.334</ele>
<time>2018-01-17T06:32:15.894Z</time>
</trkpt>
<trkpt lat="-26.9659103" lon="152.7826306">
<ele>110.959</ele>
<time>2018-01-17T06:32:18.847Z</time>
</trkpt>
<trkpt lat="-26.9662692" lon="152.7828873">
<ele>111.796</ele>
<time>2018-01-17T06:32:21.783Z</time>
</trkpt>
<trkpt lat="-26.9665992" lon="152.7832090">
<ele>113.687</ele>
<time>2018-01-17T06:32:24.793Z</time>
</trkpt>
<trkpt lat="-26.9669432" lon="152.7835302">
<ele>116.194</ele>
<time>2018-01-17T06:32:27.872Z</time>
</trkpt>
<trkpt lat="-26.9672993" lon="152.7837983">
<ele>118.990</ele>
<time>2018-01-17T06:32:30.823Z</time>
</trkpt>
<trkpt lat="-26.9676385" lon="152.7841130">
<ele>121.909</ele>
<time>2018-01-17T06:32:33.837Z</time>
</trkpt>
<trkpt lat="-26.9679844" lon="152.7844145">
<ele>124.572</ele>
<time>2018-01-17T06:32:36.819Z</time>
</trkpt>
<trkpt lat="-26.9683331" lon="152.7847194">
<ele>126.515</ele>
<time>2018-01-17T06:32:39.811Z</time>
</trkpt>
<trkpt lat="-26.9686758" lon="152.7850512">
<ele>127.896</ele>
<time>2018-01-17T06:32:42.858Z</time>
</trkpt>
<trkpt lat="-26.9690099" lon="152.7853808">
<ele>129.377</ele>
<time>2018-01-17T06:32:45.898Z</time>
</trkpt>
<trkpt lat="-26.9693287" lon="152.7856530">
<ele>131.206</ele>
<time>2018-01-17T06:32:48.836Z</time>
</trkpt>
<trkpt lat="-26.9695848" lon="152.7859021">
<ele>132.920</ele>
<time>2018-01-17T06:32:51.632Z</time>
</trkpt>
<trkpt lat="-26.9698213" lon="152.7861079">
<ele>133.951</ele>
<time>2018-01-17T06:32:54.349Z</time>
</trkpt>
<trkpt lat="-26.9700770" lon="152.7863172">
<ele>134.136</ele>
<time>2018-01-17T06:32:57.346Z</time>
</trkpt>
<trkpt lat="-26.9703410" lon="152.7865378">
<ele>133.762</ele>
<time>2018-01-17T06:33:00.468Z</time>
</trkpt>
<trkpt lat="-26.9705973" lon="152.7867438">
<ele>133.389</ele>
<time>2018-01-17T06:33:03.448Z</time>
</trkpt>
<trkpt lat="-26.9708568" lon="152.7869522">
<ele>133.533</ele>
<time>2018-01-17T06:33:06.471Z</time>
</trkpt>
<trkpt lat="-26.9711119" lon="152.7871480">
<ele>134.358</ele>
<time>2018-01-17T06:33:09.411Z</time>
</trkpt>
<trkpt lat="-26.9712813" lon="152.7872885">
<ele>135.642</ele>
<time>2018-01-17T06:33:11.419Z</time>
</trkpt>
<trkpt lat="-26.9715364" lon="152.7874903">
<ele>136.918</ele>
<time>2018-01-17T06:33:14.386Z</time>
</trkpt>
<trkpt lat="-26.9718018" lon="152.7876852">
<ele>137.833</ele>
<time>2018-01-17T06:33:17.387Z</time>
</trkpt>
<trkpt lat="-26.9720731" lon="152.7878710">
<ele>138.312</ele>
<time>2018-01-17T06:33:20.384Z</time>
</trkpt>
<trkpt lat="-26.9723413" lon="152.7880595">
<ele>138.461</ele>
<time>2018-01-17T06:33:23.374Z</time>
</trkpt>
<trkpt lat="-26.9726103" lon="152.7882409">
<ele>138.420</ele>
<time>2018-01-17T06:33:26.330Z</time>
</trkpt>
<trkpt lat="-26.9728866" lon="152.7884393">
<ele>138.283</ele>
<time>2018-01-17T06:33:29.176Z</time>
</trkpt>
<trkpt lat="-26.9732351" lon="152.7887011">
<ele>138.124</ele>
<time>2018-01-17T06:33:32.159Z</time>
</trkpt>
<trkpt lat="-26.9736913" lon="152.7890198">
<ele>138.013</ele>
<time>2018-01-17T06:33:35.280Z</time>
</trkpt>
<trkpt lat="-26.9741900" lon="152.7893632">
<ele>137.974</ele>
<time>2018-01-17T06:33:38.310Z</time>
</trkpt>
<trkpt lat="-26.9747090" lon="152.7897377">
<ele>137.952</ele>
<time>2018-01-17T06:33:41.384Z</time>
</trkpt>
<trkpt lat="-26.9752092" lon="152.7900732">
<ele>137.688</ele>
<time>2018-01-17T06:33:44.287Z</time>
</trkpt>
<trkpt lat="-26.9757033" lon="152.7904551">
<ele>136.967</ele>
<time>2018-01-17T06:33:47.296Z</time>
</trkpt>
<trkpt lat="-26.9762114" lon="152.7908109">
<ele>136.028</ele>
<time>2018-01-17T06:33:50.311Z</time>
</trkpt>
<trkpt lat="-26.9767285" lon="152.7911628">
<ele>135.243</ele>
<time>2018-01-17T06:33:53.351Z</time>
</trkpt>
<trkpt lat="-26.9772284" lon="152.7915027">
<ele>134.734</ele>
<time>2018-01-17T06:33:56.287Z</time>
</trkpt>
<trkpt lat="-26.9777333" lon="152.7918549">
<ele>134.546</ele>
<time>2018-01-17T06:33:59.267Z</time>
</trkpt>
<trkpt lat="-26.9782248" lon="152.7922389">
<ele>134.862</ele>
<time>2018-01-17T06:34:02.258Z</time>
</trkpt>
<trkpt lat="-26.9787331" lon="152.7925763">
<ele>135.834</ele>
<time>2018-01-17T06:34:05.209Z</time>
</trkpt>
<trkpt lat="-26.9792508" lon="152.7929473">
<ele>137.079</ele>
<time>2018-01-17T06:34:08.285Z</time>
</trkpt>
<trkpt lat="-26.9797781" lon="152.7932725">
<ele>137.901</ele>
<time>2018-01-17T06:34:11.294Z</time>
</trkpt>
<trkpt lat="-26.9803006" lon="152.7936203">
<ele>137.782</ele>
<time>2018-01-17T06:34:14.322Z</time>
</trkpt>
<trkpt lat="-26.9808207" lon="152.7939710">
<ele>136.529</ele>
<time>2018-01-17T06:34:17.355Z</time>
</trkpt>
<trkpt lat="-26.9813270" lon="152.7942857">
<ele>134.580</ele>
<time>2018-01-17T06:34:20.260Z</time>
</trkpt>
<trkpt lat="-26.9818641" lon="152.7945837">
<ele>132.754</ele>
<time>2018-01-17T06:34:23.267Z</time>
</trkpt>
<trkpt lat="-26.9824119" lon="152.7948440">
<ele>131.555</ele>
<time>2018-01-17T06:34:26.262Z</time>
</trkpt>
<trkpt lat="-26.9829705" lon="152.7950819">
<ele>131.317</ele>
<time>2018-01-17T06:34:29.282Z</time>
</trkpt>
<trkpt lat="-26.9835260" lon="152.7952963">
<ele>132.265</ele>
<time>2018-01-17T06:34:32.330Z</time>
</trkpt>
<trkpt lat="-26.9839960" lon="152.7954954">
<ele>134.092</ele>
<time>2018-01-17T06:34:35.180Z</time>
</trkpt>
<trkpt lat="-26.9843678" lon="152.7956798">
<ele>136.284</ele>
<time>2018-01-17T06:34:37.768Z</time>
</trkpt>
<trkpt lat="-26.9847643" lon="152.7958752">
<ele>138.332</ele>
<time>2018-01-17T06:34:40.737Z</time>
</trkpt>
<trkpt lat="-26.9851392" lon="152.7961330">
<ele>139.710</ele>
<time>2018-01-17T06:34:43.749Z</time>
</trkpt>
<trkpt lat="-26.9855375" lon="152.7963855">
<ele>140.297</ele>
<time>2018-01-17T06:34:46.843Z</time>
</trkpt>
<trkpt lat="-26.9859009" lon="152.7966714">
<ele>140.458</ele>
<time>2018-01-17T06:34:49.833Z</time>
</trkpt>
<trkpt lat="-26.9862325" lon="152.7969907">
<ele>140.505</ele>
<time>2018-01-17T06:34:52.780Z</time>
</trkpt>
<trkpt lat="-26.9865445" lon="152.7973323">
<ele>140.504</ele>
<time>2018-01-17T06:34:55.706Z</time>
</trkpt>
<trkpt lat="-26.9868779" lon="152.7976893">
<ele>140.413</ele>
<time>2018-01-17T06:34:58.771Z</time>
</trkpt>
<trkpt lat="-26.9871962" lon="152.7980409">
<ele>140.310</ele>
<time>2018-01-17T06:35:01.734Z</time>
</trkpt>
<trkpt lat="-26.9875133" lon="152.7983891">
<ele>140.302</ele>
<time>2018-01-17T06:35:04.678Z</time>
</trkpt>
<trkpt lat="-26.9878554" lon="152.7987271">
<ele>140.385</ele>
<time>2018-01-17T06:35:07.694Z</time>
</trkpt>
<trkpt lat="-26.9881663" lon="152.7991120">
<ele>140.433</ele>
<time>2018-01-17T06:35:10.757Z</time>
</trkpt>
<trkpt lat="-26.9884604" lon="152.7994588">
<ele>140.259</ele>
<time>2018-01-17T06:35:13.601Z</time>
</trkpt>
<trkpt lat="-26.9887646" lon="152.7998396">
<ele>139.854</ele>
<time>2018-01-17T06:35:16.644Z</time>
</trkpt>
<trkpt lat="-26.9890660" lon="152.8002168">
<ele>139.456</ele>
<time>2018-01-17T06:35:19.645Z</time>
</trkpt>
<trkpt lat="-26.9893099" lon="152.8006431">
<ele>139.251</ele>
<time>2018-01-17T06:35:22.626Z</time>
</trkpt>
<trkpt lat="-26.9895616" lon="152.8010515">
<ele>139.101</ele>
<time>2018-01-17T06:35:25.542Z</time>
</trkpt>
<trkpt lat="-26.9898297" lon="152.8014770">
<ele>138.813</ele>
<time>2018-01-17T06:35:28.600Z</time>
</trkpt>
<trkpt lat="-26.9901126" lon="152.8018549">
<ele>138.196</ele>
<time>2018-01-17T06:35:31.509Z</time>
</trkpt>
<trkpt lat="-26.9904115" lon="152.8021887">
<ele>136.927</ele>
<time>2018-01-17T06:35:34.350Z</time>
</trkpt>
<trkpt lat="-26.9907356" lon="152.8025191">
<ele>134.898</ele>
<time>2018-01-17T06:35:37.345Z</time>
</trkpt>
<trkpt lat="-26.9910435" lon="152.8028749">
<ele>132.738</ele>
<time>2018-01-17T06:35:40.361Z</time>
</trkpt>
<trkpt lat="-26.9913507" lon="152.8032577">
<ele>131.310</ele>
<time>2018-01-17T06:35:43.463Z</time>
</trkpt>
<trkpt lat="-26.9916839" lon="152.8036049">
<ele>130.930</ele>
<time>2018-01-17T06:35:46.505Z</time>
</trkpt>
<trkpt lat="-26.9919722" lon="152.8039990">
<ele>131.336</ele>
<time>2018-01-17T06:35:49.523Z</time>
</trkpt>
<trkpt lat="-26.9922055" lon="152.8044544">
<ele>132.177</ele>
<time>2018-01-17T06:35:52.582Z</time>
</trkpt>
<trkpt lat="-26.9924161" lon="152.8049380">
<ele>133.184</ele>
<time>2018-01-17T06:35:55.528Z</time>
</trkpt>
<trkpt lat="-26.9926464" lon="152.8054819">
<ele>134.347</ele>
<time>2018-01-17T06:35:58.601Z</time>
</trkpt>
<trkpt lat="-26.9927654" lon="152.8060259">
<ele>135.819</ele>
<time>2018-01-17T06:36:01.461Z</time>
</trkpt>
<trkpt lat="-26.9928773" lon="152.8065872">
<ele>137.439</ele>
<time>2018-01-17T06:36:04.467Z</time>
</trkpt>
<trkpt lat="-26.9929311" lon="152.8071734">
<ele>138.676</ele>
<time>2018-01-17T06:36:07.542Z</time>
</trkpt>
<trkpt lat="-26.9929859" lon="152.8077162">
<ele>139.196</ele>
<time>2018-01-17T06:36:10.453Z</time>
</trkpt>
<trkpt lat="-26.9929133" lon="152.8082479">
<ele>138.950</ele>
<time>2018-01-17T06:36:13.437Z</time>
</trkpt>
<trkpt lat="-26.9928736" lon="152.8087315">
<ele>137.797</ele>
<time>2018-01-17T06:36:16.217Z</time>
</trkpt>
<trkpt lat="-26.9927998" lon="152.8092680">
<ele>135.712</ele>
<time>2018-01-17T06:36:19.254Z</time>
</trkpt>
<trkpt lat="-26.9926716" lon="152.8099053">
<ele>133.440</ele>
<time>2018-01-17T06:36:22.579Z</time>
</trkpt>
<trkpt lat="-26.9925523" lon="152.8105176">
<ele>132.125</ele>
<time>2018-01-17T06:36:25.571Z</time>
</trkpt>
<trkpt lat="-26.9925370" lon="152.8111254">
<ele>132.306</ele>
<time>2018-01-17T06:36:28.430Z</time>
</trkpt>
<trkpt lat="-26.9926183" lon="152.8117468">
<ele>133.458</ele>
<time>2018-01-17T06:36:31.402Z</time>
</trkpt>
<trkpt lat="-26.9925518" lon="152.8123864">
<ele>134.419</ele>
<time>2018-01-17T06:36:34.423Z</time>
</trkpt>
<trkpt lat="-26.9923242" lon="152.8129861">
<ele>134.576</ele>
<time>2018-01-17T06:36:37.456Z</time>
</trkpt>
<trkpt lat="-26.9919864" lon="152.8134781">
<ele>134.410</ele>
<time>2018-01-17T06:36:40.387Z</time>
</trkpt>
<trkpt lat="-26.9916552" lon="152.8139103">
<ele>134.627</ele>
<time>2018-01-17T06:36:43.190Z</time>
</trkpt>
<trkpt lat="-26.9915239" lon="152.8144696">
<ele>135.306</ele>
<time>2018-01-17T06:36:46.140Z</time>
</trkpt>
<trkpt lat="-26.9915898" lon="152.8150855">
<ele>135.992</ele>
<time>2018-01-17T06:36:49.304Z</time>
</trkpt>
<trkpt lat="-26.9918010" lon="152.8156353">
<ele>136.223</ele>
<time>2018-01-17T06:36:52.330Z</time>
</trkpt>
<trkpt lat="-26.9921846" lon="152.8161096">
<ele>135.631</ele>
<time>2018-01-17T06:36:55.486Z</time>
</trkpt>
<trkpt lat="-26.9926812" lon="152.8164150">
<ele>134.057</ele>
<time>2018-01-17T06:36:58.529Z</time>
</trkpt>
<trkpt lat="-26.9932434" lon="152.8166293">
<ele>131.653</ele>
<time>2018-01-17T06:37:01.575Z</time>
</trkpt>
<trkpt lat="-26.9938372" lon="152.8168544">
<ele>128.629</ele>
<time>2018-01-17T06:37:04.621Z</time>
</trkpt>
<trkpt lat="-26.9944416" lon="152.8171480">
<ele>125.036</ele>
<time>2018-01-17T06:37:07.698Z</time>
</trkpt>
<trkpt lat="-26.9950041" lon="152.8176232">
<ele>120.526</ele>
<time>2018-01-17T06:37:10.867Z</time>
</trkpt>
<trkpt lat="-26.9954471" lon="152.8182267">
<ele>114.807</ele>
<time>2018-01-17T06:37:13.887Z</time>
</trkpt>
<trkpt lat="-26.9957692" lon="152.8189806">
<ele>108.362</ele>
<time>2018-01-17T06:37:16.956Z</time>
</trkpt>
<trkpt lat="-26.9960295" lon="152.8197704">
<ele>102.085</ele>
<time>2018-01-17T06:37:19.986Z</time>
</trkpt>
<trkpt lat="-26.9963643" lon="152.8204492">
<ele>96.883</ele>
<time>2018-01-17T06:37:22.854Z</time>
</trkpt>
<trkpt lat="-26.9968242" lon="152.8210217">
<ele>93.384</ele>
<time>2018-01-17T06:37:25.827Z</time>
</trkpt>
<trkpt lat="-26.9972340" lon="152.8215843">
<ele>91.349</ele>
<time>2018-01-17T06:37:28.755Z</time>
</trkpt>
<trkpt lat="-26.9976598" lon="152.8221350">
<ele>89.862</ele>
<time>2018-01-17T06:37:31.750Z</time>
</trkpt>
<trkpt lat="-26.9980849" lon="152.8227091">
<ele>87.742</ele>
<time>2018-01-17T06:37:34.775Z</time>
</trkpt>
<trkpt lat="-26.9985143" lon="152.8232994">
<ele>84.186</ele>
<time>2018-01-17T06:37:37.797Z</time>
</trkpt>
<trkpt lat="-26.9989718" lon="152.8239099">
<ele>79.414</ele>
<time>2018-01-17T06:37:40.895Z</time>
</trkpt>
<trkpt lat="-26.9993026" lon="152.8245668">
<ele>74.428</ele>
<time>2018-01-17T06:37:43.861Z</time>
</trkpt>
<trkpt lat="-26.9994387" lon="152.8252337">
<ele>70.547</ele>
<time>2018-01-17T06:37:46.698Z</time>
</trkpt>
<trkpt lat="-26.9995856" lon="152.8258960">
<ele>68.776</ele>
<time>2018-01-17T06:37:49.647Z</time>
</trkpt>
<trkpt lat="-26.9995805" lon="152.8265929">
<ele>69.221</ele>
<time>2018-01-17T06:37:52.679Z</time>
</trkpt>
<trkpt lat="-26.9995098" lon="152.8272789">
<ele>71.147</ele>
<time>2018-01-17T06:37:55.683Z</time>
</trkpt>
<trkpt lat="-26.9995012" lon="152.8279629">
<ele>73.288</ele>
<time>2018-01-17T06:37:58.659Z</time>
</trkpt>
<trkpt lat="-26.9995897" lon="152.8286500">
<ele>74.641</ele>
<time>2018-01-17T06:38:01.661Z</time>
</trkpt>
<trkpt lat="-26.9998806" lon="152.8293113">
<ele>74.901</ele>
<time>2018-01-17T06:38:04.818Z</time>
</trkpt>
<trkpt lat="-27.0003206" lon="152.8298404">
<ele>73.916</ele>
<time>2018-01-17T06:38:07.884Z</time>
</trkpt>
<trkpt lat="-27.0008907" lon="152.8301959">
<ele>71.505</ele>
<time>2018-01-17T06:38:10.936Z</time>
</trkpt>
<trkpt lat="-27.0015053" lon="152.8304512">
<ele>67.712</ele>
<time>2018-01-17T06:38:13.970Z</time>
</trkpt>
<trkpt lat="-27.0020888" lon="152.8307216">
<ele>63.074</ele>
<time>2018-01-17T06:38:16.924Z</time>
</trkpt>
<trkpt lat="-27.0026491" lon="152.8309870">
<ele>58.565</ele>
<time>2018-01-17T06:38:19.839Z</time>
</trkpt>
<trkpt lat="-27.0032378" lon="152.8312608">
<ele>55.102</ele>
<time>2018-01-17T06:38:22.928Z</time>
</trkpt>
<trkpt lat="-27.0038197" lon="152.8315227">
<ele>53.093</ele>
<time>2018-01-17T06:38:25.959Z</time>
</trkpt>
<trkpt lat="-27.0043703" lon="152.8318172">
<ele>52.360</ele>
<time>2018-01-17T06:38:28.910Z</time>
</trkpt>
<trkpt lat="-27.0049410" lon="152.8321083">
<ele>52.148</ele>
<time>2018-01-17T06:38:31.931Z</time>
</trkpt>
<trkpt lat="-27.0054890" lon="152.8323946">
<ele>51.501</ele>
<time>2018-01-17T06:38:34.834Z</time>
</trkpt>
<trkpt lat="-27.0059678" lon="152.8328659">
<ele>49.838</ele>
<time>2018-01-17T06:38:37.902Z</time>
</trkpt>
<trkpt lat="-27.0062415" lon="152.8335098">
<ele>47.544</ele>
<time>2018-01-17T06:38:40.966Z</time>
</trkpt>
<trkpt lat="-27.0064162" lon="152.8341728">
<ele>45.691</ele>
<time>2018-01-17T06:38:43.932Z</time>
</trkpt>
<trkpt lat="-27.0064849" lon="152.8348744">
<ele>44.866</ele>
<time>2018-01-17T06:38:46.935Z</time>
</trkpt>
<trkpt lat="-27.0065074" lon="152.8356017">
<ele>44.995</ele>
<time>2018-01-17T06:38:49.999Z</time>
</trkpt>
<trkpt lat="-27.0066056" lon="152.8362981">
<ele>46.039</ele>
<time>2018-01-17T06:38:52.982Z</time>
</trkpt>
<trkpt lat="-27.0068817" lon="152.8368770">
<ele>47.793</ele>
<time>2018-01-17T06:38:55.843Z</time>
</trkpt>
<trkpt lat="-27.0072674" lon="152.8373601">
<ele>49.774</ele>
<time>2018-01-17T06:38:58.794Z</time>
</trkpt>
<trkpt lat="-27.0076720" lon="152.8377665">
<ele>51.805</ele>
<time>2018-01-17T06:39:01.699Z</time>
</trkpt>
<trkpt lat="-27.0080783" lon="152.8381803">
<ele>54.038</ele>
<time>2018-01-17T06:39:04.721Z</time>
</trkpt>
<trkpt lat="-27.0084716" lon="152.8386403">
<ele>56.355</ele>
<time>2018-01-17T06:39:07.812Z</time>
</trkpt>
<trkpt lat="-27.0089007" lon="152.8390972">
<ele>58.191</ele>
<time>2018-01-17T06:39:10.913Z</time>
</trkpt>
<trkpt lat="-27.0093084" lon="152.8395707">
<ele>59.131</ele>
<time>2018-01-17T06:39:13.914Z</time>
</trkpt>
<trkpt lat="-27.0097369" lon="152.8400054">
<ele>59.326</ele>
<time>2018-01-17T06:39:16.877Z</time>
</trkpt>
<trkpt lat="-27.0101365" lon="152.8403441">
<ele>59.484</ele>
<time>2018-01-17T06:39:19.549Z</time>
</trkpt>
<trkpt lat="-27.0105577" lon="152.8407160">
<ele>60.272</ele>
<time>2018-01-17T06:39:22.544Z</time>
</trkpt>
<trkpt lat="-27.0110110" lon="152.8410806">
<ele>61.618</ele>
<time>2018-01-17T06:39:25.631Z</time>
</trkpt>
<trkpt lat="-27.0115396" lon="152.8413579">
<ele>62.897</ele>
<time>2018-01-17T06:39:28.760Z</time>
</trkpt>
<trkpt lat="-27.0121203" lon="152.8415068">
<ele>63.698</ele>
<time>2018-01-17T06:39:31.849Z</time>
</trkpt>
<trkpt lat="-27.0126937" lon="152.8416464">
<ele>64.013</ele>
<time>2018-01-17T06:39:34.849Z</time>
</trkpt>
<trkpt lat="-27.0132710" lon="152.8417993">
<ele>64.304</ele>
<time>2018-01-17T06:39:37.857Z</time>
</trkpt>
<trkpt lat="-27.0138671" lon="152.8419081">
<ele>65.040</ele>
<time>2018-01-17T06:39:40.861Z</time>
</trkpt>
<trkpt lat="-27.0144606" lon="152.8420050">
<ele>66.046</ele>
<time>2018-01-17T06:39:43.824Z</time>
</trkpt>
<trkpt lat="-27.0150555" lon="152.8421496">
<ele>66.863</ele>
<time>2018-01-17T06:39:46.828Z</time>
</trkpt>
<trkpt lat="-27.0156797" lon="152.8423328">
<ele>67.333</ele>
<time>2018-01-17T06:39:49.922Z</time>
</trkpt>
<trkpt lat="-27.0163238" lon="152.8426357">
<ele>67.487</ele>
<time>2018-01-17T06:39:53.025Z</time>
</trkpt>
<trkpt lat="-27.0170481" lon="152.8430722">
<ele>67.347</ele>
<time>2018-01-17T06:39:56.292Z</time>
</trkpt>
<trkpt lat="-27.0177111" lon="152.8435415">
<ele>67.007</ele>
<time>2018-01-17T06:39:59.262Z</time>
</trkpt>
<trkpt lat="-27.0183244" lon="152.8441026">
<ele>66.696</ele>
<time>2018-01-17T06:40:02.256Z</time>
</trkpt>
<trkpt lat="-27.0188731" lon="152.8447344">
<ele>66.557</ele>
<time>2018-01-17T06:40:05.205Z</time>
</trkpt>
<trkpt lat="-27.0193841" lon="152.8454226">
<ele>66.113</ele>
<time>2018-01-17T06:40:08.198Z</time>
</trkpt>
<trkpt lat="-27.0198316" lon="152.8461119">
<ele>64.755</ele>
<time>2018-01-17T06:40:11.116Z</time>
</trkpt>
<trkpt lat="-27.0202856" lon="152.8467606">
<ele>62.850</ele>
<time>2018-01-17T06:40:14.027Z</time>
</trkpt>
<trkpt lat="-27.0208192" lon="152.8473595">
<ele>61.030</ele>
<time>2018-01-17T06:40:17.030Z</time>
</trkpt>
<trkpt lat="-27.0215023" lon="152.8478067">
<ele>58.984</ele>
<time>2018-01-17T06:40:20.082Z</time>
</trkpt>
<trkpt lat="-27.0222609" lon="152.8482041">
<ele>56.475</ele>
<time>2018-01-17T06:40:23.152Z</time>
</trkpt>
<trkpt lat="-27.0230646" lon="152.8486367">
<ele>54.113</ele>
<time>2018-01-17T06:40:26.319Z</time>
</trkpt>
<trkpt lat="-27.0237659" lon="152.8490470">
<ele>52.451</ele>
<time>2018-01-17T06:40:29.203Z</time>
</trkpt>
<trkpt lat="-27.0243729" lon="152.8495922">
<ele>51.496</ele>
<time>2018-01-17T06:40:32.161Z</time>
</trkpt>
<trkpt lat="-27.0248532" lon="152.8502907">
<ele>51.010</ele>
<time>2018-01-17T06:40:35.183Z</time>
</trkpt>
<trkpt lat="-27.0253056" lon="152.8510347">
<ele>50.760</ele>
<time>2018-01-17T06:40:38.243Z</time>
</trkpt>
<trkpt lat="-27.0257833" lon="152.8517436">
<ele>50.642</ele>
<time>2018-01-17T06:40:41.244Z</time>
</trkpt>
<trkpt lat="-27.0263423" lon="152.8523586">
<ele>50.618</ele>
<time>2018-01-17T06:40:44.224Z</time>
</trkpt>
<trkpt lat="-27.0270237" lon="152.8527971">
<ele>50.452</ele>
<time>2018-01-17T06:40:47.266Z</time>
</trkpt>
<trkpt lat="-27.0277264" lon="152.8531118">
<ele>49.847</ele>
<time>2018-01-17T06:40:50.255Z</time>
</trkpt>
<trkpt lat="-27.0284399" lon="152.8533366">
<ele>48.905</ele>
<time>2018-01-17T06:40:53.235Z</time>
</trkpt>
<trkpt lat="-27.0291629" lon="152.8534914">
<ele>48.096</ele>
<time>2018-01-17T06:40:56.252Z</time>
</trkpt>
<trkpt lat="-27.0299120" lon="152.8535505">
<ele>47.754</ele>
<time>2018-01-17T06:40:59.368Z</time>
</trkpt>
<trkpt lat="-27.0306310" lon="152.8536382">
<ele>47.862</ele>
<time>2018-01-17T06:41:02.392Z</time>
</trkpt>
<trkpt lat="-27.0313009" lon="152.8538278">
<ele>48.208</ele>
<time>2018-01-17T06:41:05.295Z</time>
</trkpt>
<trkpt lat="-27.0319596" lon="152.8541068">
<ele>48.566</ele>
<time>2018-01-17T06:41:08.259Z</time>
</trkpt>
<trkpt lat="-27.0325751" lon="152.8545147">
<ele>48.789</ele>
<time>2018-01-17T06:41:11.270Z</time>
</trkpt>
<trkpt lat="-27.0331996" lon="152.8549049">
<ele>48.915</ele>
<time>2018-01-17T06:41:14.294Z</time>
</trkpt>
<trkpt lat="-27.0338234" lon="152.8552674">
<ele>49.273</ele>
<time>2018-01-17T06:41:17.295Z</time>
</trkpt>
<trkpt lat="-27.0344331" lon="152.8556347">
<ele>50.047</ele>
<time>2018-01-17T06:41:20.270Z</time>
</trkpt>
<trkpt lat="-27.0350600" lon="152.8559723">
<ele>50.897</ele>
<time>2018-01-17T06:41:23.284Z</time>
</trkpt>
<trkpt lat="-27.0356429" lon="152.8563550">
<ele>51.397</ele>
<time>2018-01-17T06:41:26.350Z</time>
</trkpt>
<trkpt lat="-27.0360582" lon="152.8567289">
<ele>51.819</ele>
<time>2018-01-17T06:41:29.049Z</time>
</trkpt>
<trkpt lat="-27.0363825" lon="152.8570601">
<ele>52.874</ele>
<time>2018-01-17T06:41:31.590Z</time>
</trkpt>
<trkpt lat="-27.0366923" lon="152.8573880">
<ele>54.832</ele>
<time>2018-01-17T06:41:34.334Z</time>
</trkpt>
<trkpt lat="-27.0370477" lon="152.8577225">
<ele>57.186</ele>
<time>2018-01-17T06:41:37.387Z</time>
</trkpt>
<trkpt lat="-27.0373993" lon="152.8580575">
<ele>59.174</ele>
<time>2018-01-17T06:41:40.380Z</time>
</trkpt>
<trkpt lat="-27.0377811" lon="152.8583580">
<ele>60.416</ele>
<time>2018-01-17T06:41:43.386Z</time>
</trkpt>
<trkpt lat="-27.0381332" lon="152.8586800">
<ele>61.111</ele>
<time>2018-01-17T06:41:46.310Z</time>
</trkpt>
<trkpt lat="-27.0385234" lon="152.8589753">
<ele>61.793</ele>
<time>2018-01-17T06:41:49.332Z</time>
</trkpt>
<trkpt lat="-27.0389104" lon="152.8592735">
<ele>62.936</ele>
<time>2018-01-17T06:41:52.337Z</time>
</trkpt>
<trkpt lat="-27.0392869" lon="152.8595683">
<ele>64.400</ele>
<time>2018-01-17T06:41:55.280Z</time>
</trkpt>
<trkpt lat="-27.0396552" lon="152.8598925">
<ele>65.651</ele>
<time>2018-01-17T06:41:58.308Z</time>
</trkpt>
<trkpt lat="-27.0399077" lon="152.8602144">
<ele>66.635</ele>
<time>2018-01-17T06:42:00.914Z</time>
</trkpt>
<trkpt lat="-27.0399667" lon="152.8604456">
<ele>67.520</ele>
<time>2018-01-17T06:42:02.904Z</time>
</trkpt>
<trkpt lat="-27.0400895" lon="152.8604995">
<ele>68.128</ele>
<time>2018-01-17T06:42:04.258Z</time>
</trkpt>
<trkpt lat="-27.0403281" lon="152.8604331">
<ele>68.371</ele>
<time>2018-01-17T06:42:08.306Z</time>
</trkpt>
<trkpt lat="-27.0405733" lon="152.8604909">
<ele>68.494</ele>
<time>2018-01-17T06:42:12.343Z</time>
</trkpt>
<trkpt lat="-27.0407212" lon="152.8608349">
<ele>68.832</ele>
<time>2018-01-17T06:42:16.508Z</time>
</trkpt>
<trkpt lat="-27.0409860" lon="152.8610804">
<ele>69.439</ele>
<time>2018-01-17T06:42:19.591Z</time>
</trkpt>
<trkpt lat="-27.0413634" lon="152.8611918">
<ele>69.975</ele>
<time>2018-01-17T06:42:22.679Z</time>
</trkpt>
<trkpt lat="-27.0418114" lon="152.8612349">
<ele>70.237</ele>
<time>2018-01-17T06:42:25.912Z</time>
</trkpt>
<trkpt lat="-27.0422613" lon="152.8612713">
<ele>70.636</ele>
<time>2018-01-17T06:42:29.026Z</time>
</trkpt>
<trkpt lat="-27.0426744" lon="152.8613286">
<ele>71.795</ele>
<time>2018-01-17T06:42:31.919Z</time>
</trkpt>
<trkpt lat="-27.0430323" lon="152.8616246">
<ele>73.504</ele>
<time>2018-01-17T06:42:34.971Z</time>
</trkpt>
<trkpt lat="-27.0433378" lon="152.8620558">
<ele>74.564</ele>
<time>2018-01-17T06:42:38.183Z</time>
</trkpt>
<trkpt lat="-27.0435706" lon="152.8623024">
<ele>74.120</ele>
<time>2018-01-17T06:42:40.236Z</time>
</trkpt>
<trkpt lat="-27.0438505" lon="152.8627164">
<ele>72.573</ele>
<time>2018-01-17T06:42:43.220Z</time>
</trkpt>
<trkpt lat="-27.0441144" lon="152.8631608">
<ele>70.913</ele>
<time>2018-01-17T06:42:46.290Z</time>
</trkpt>
<trkpt lat="-27.0443842" lon="152.8635977">
<ele>69.551</ele>
<time>2018-01-17T06:42:49.343Z</time>
</trkpt>
<trkpt lat="-27.0446573" lon="152.8640223">
<ele>68.448</ele>
<time>2018-01-17T06:42:52.358Z</time>
</trkpt>
<trkpt lat="-27.0449049" lon="152.8644555">
<ele>67.703</ele>
<time>2018-01-17T06:42:55.311Z</time>
</trkpt>
<trkpt lat="-27.0451507" lon="152.8649053">
<ele>67.355</ele>
<time>2018-01-17T06:42:58.326Z</time>
</trkpt>
<trkpt lat="-27.0453189" lon="152.8652036">
<ele>67.180</ele>
<time>2018-01-17T06:43:00.355Z</time>
</trkpt>
<trkpt lat="-27.0455316" lon="152.8654418">
<ele>66.880</ele>
<time>2018-01-17T06:43:02.315Z</time>
</trkpt>
<trkpt lat="-27.0457745" lon="152.8656280">
<ele>66.349</ele>
<time>2018-01-17T06:43:04.240Z</time>
</trkpt>
<trkpt lat="-27.0460128" lon="152.8658557">
<ele>65.654</ele>
<time>2018-01-17T06:43:06.276Z</time>
</trkpt>
<trkpt lat="-27.0462432" lon="152.8660795">
<ele>64.815</ele>
<time>2018-01-17T06:43:08.248Z</time>
</trkpt>
<trkpt lat="-27.0464620" lon="152.8663058">
<ele>63.980</ele>
<time>2018-01-17T06:43:10.167Z</time>
</trkpt>
<trkpt lat="-27.0466776" lon="152.8665568">
<ele>63.387</ele>
<time>2018-01-17T06:43:12.159Z</time>
</trkpt>
<trkpt lat="-27.0469031" lon="152.8667976">
<ele>63.000</ele>
<time>2018-01-17T06:43:14.142Z</time>
</trkpt>
<trkpt lat="-27.0471320" lon="152.8670368">
<ele>62.562</ele>
<time>2018-01-17T06:43:16.135Z</time>
</trkpt>
<trkpt lat="-27.0473517" lon="152.8672790">
<ele>61.857</ele>
<time>2018-01-17T06:43:18.106Z</time>
</trkpt>
<trkpt lat="-27.0475642" lon="152.8675181">
<ele>60.709</ele>
<time>2018-01-17T06:43:20.045Z</time>
</trkpt>
<trkpt lat="-27.0477798" lon="152.8677314">
<ele>58.986</ele>
<time>2018-01-17T06:43:21.911Z</time>
</trkpt>
<trkpt lat="-27.0479913" lon="152.8679848">
<ele>56.654</ele>
<time>2018-01-17T06:43:23.920Z</time>
</trkpt>
<trkpt lat="-27.0482043" lon="152.8682534">
<ele>53.939</ele>
<time>2018-01-17T06:43:25.971Z</time>
</trkpt>
<trkpt lat="-27.0483443" lon="152.8685785">
<ele>51.384</ele>
<time>2018-01-17T06:43:27.996Z</time>
</trkpt>
<trkpt lat="-27.0485093" lon="152.8688779">
<ele>49.414</ele>
<time>2018-01-17T06:43:29.971Z</time>
</trkpt>
<trkpt lat="-27.0486750" lon="152.8691812">
<ele>48.124</ele>
<time>2018-01-17T06:43:32.001Z</time>
</trkpt>
<trkpt lat="-27.0488543" lon="152.8694382">
<ele>47.506</ele>
<time>2018-01-17T06:43:33.863Z</time>
</trkpt>
<trkpt lat="-27.0491091" lon="152.8697019">
<ele>47.523</ele>
<time>2018-01-17T06:43:35.946Z</time>
</trkpt>
<trkpt lat="-27.0494504" lon="152.8699366">
<ele>47.986</ele>
<time>2018-01-17T06:43:38.126Z</time>
</trkpt>
<trkpt lat="-27.0498112" lon="152.8701258">
<ele>48.750</ele>
<time>2018-01-17T06:43:40.199Z</time>
</trkpt>
<trkpt lat="-27.0501426" lon="152.8703351">
<ele>49.958</ele>
<time>2018-01-17T06:43:42.175Z</time>
</trkpt>
<trkpt lat="-27.0504876" lon="152.8705278">
<ele>51.695</ele>
<time>2018-01-17T06:43:44.185Z</time>
</trkpt>
<trkpt lat="-27.0508740" lon="152.8706094">
<ele>53.574</ele>
<time>2018-01-17T06:43:46.237Z</time>
</trkpt>
<trkpt lat="-27.0512721" lon="152.8706261">
<ele>55.024</ele>
<time>2018-01-17T06:43:48.303Z</time>
</trkpt>
<trkpt lat="-27.0518494" lon="152.8706342">
<ele>55.619</ele>
<time>2018-01-17T06:43:51.286Z</time>
</trkpt>
<trkpt lat="-27.0524365" lon="152.8706973">
<ele>54.886</ele>
<time>2018-01-17T06:43:54.328Z</time>
</trkpt>
<trkpt lat="-27.0530313" lon="152.8707889">
<ele>52.370</ele>
<time>2018-01-17T06:43:57.442Z</time>
</trkpt>
<trkpt lat="-27.0535886" lon="152.8708598">
<ele>48.327</ele>
<time>2018-01-17T06:44:00.492Z</time>
</trkpt>
<trkpt lat="-27.0540472" lon="152.8709734">
<ele>43.947</ele>
<time>2018-01-17T06:44:03.555Z</time>
</trkpt>
<trkpt lat="-27.0542301" lon="152.8710299">
<ele>40.635</ele>
<time>2018-01-17T06:44:04.998Z</time>
</trkpt>
<trkpt lat="-27.0542301" lon="152.8710299">
<ele>39.072</ele>
<time>2018-01-17T06:44:09.998Z</time>
</trkpt>
<trkpt lat="-27.0542301" lon="152.8710299">
<ele>38.783</ele>
<time>2018-01-17T06:44:15.944Z</time>
</trkpt>
<trkpt lat="-27.0544079" lon="152.8710315">
<ele>38.897</ele>
<time>2018-01-17T06:44:20.064Z</time>
</trkpt>
<trkpt lat="-27.0547659" lon="152.8710459">
<ele>38.426</ele>
<time>2018-01-17T06:44:23.703Z</time>
</trkpt>
<trkpt lat="-27.0551883" lon="152.8711305">
<ele>36.931</ele>
<time>2018-01-17T06:44:26.910Z</time>
</trkpt>
<trkpt lat="-27.0557023" lon="152.8711841">
<ele>35.281</ele>
<time>2018-01-17T06:44:30.224Z</time>
</trkpt>
<trkpt lat="-27.0562990" lon="152.8712656">
<ele>34.418</ele>
<time>2018-01-17T06:44:33.844Z</time>
</trkpt>
<trkpt lat="-27.0568958" lon="152.8713391">
<ele>34.071</ele>
<time>2018-01-17T06:44:37.064Z</time>
</trkpt>
<trkpt lat="-27.0574908" lon="152.8714171">
<ele>33.491</ele>
<time>2018-01-17T06:44:40.059Z</time>
</trkpt>
<trkpt lat="-27.0580853" lon="152.8715004">
<ele>32.428</ele>
<time>2018-01-17T06:44:43.046Z</time>
</trkpt>
<trkpt lat="-27.0586902" lon="152.8715693">
<ele>31.230</ele>
<time>2018-01-17T06:44:46.040Z</time>
</trkpt>
<trkpt lat="-27.0592806" lon="152.8716473">
<ele>30.182</ele>
<time>2018-01-17T06:44:48.951Z</time>
</trkpt>
<trkpt lat="-27.0598685" lon="152.8717720">
<ele>29.398</ele>
<time>2018-01-17T06:44:51.919Z</time>
</trkpt>
<trkpt lat="-27.0604550" lon="152.8717809">
<ele>28.767</ele>
<time>2018-01-17T06:44:54.847Z</time>
</trkpt>
<trkpt lat="-27.0610396" lon="152.8716483">
<ele>27.723</ele>
<time>2018-01-17T06:44:57.838Z</time>
</trkpt>
<trkpt lat="-27.0616035" lon="152.8714471">
<ele>25.835</ele>
<time>2018-01-17T06:45:00.838Z</time>
</trkpt>
<trkpt lat="-27.0620881" lon="152.8710613">
<ele>23.434</ele>
<time>2018-01-17T06:45:03.826Z</time>
</trkpt>
<trkpt lat="-27.0624884" lon="152.8704789">
<ele>21.274</ele>
<time>2018-01-17T06:45:07.070Z</time>
</trkpt>
<trkpt lat="-27.0629587" lon="152.8700119">
<ele>19.693</ele>
<time>2018-01-17T06:45:10.202Z</time>
</trkpt>
<trkpt lat="-27.0635490" lon="152.8698933">
<ele>18.431</ele>
<time>2018-01-17T06:45:13.190Z</time>
</trkpt>
<trkpt lat="-27.0641367" lon="152.8698045">
<ele>17.281</ele>
<time>2018-01-17T06:45:16.099Z</time>
</trkpt>
<trkpt lat="-27.0647498" lon="152.8696894">
<ele>16.424</ele>
<time>2018-01-17T06:45:19.151Z</time>
</trkpt>
<trkpt lat="-27.0653500" lon="152.8696059">
<ele>16.398</ele>
<time>2018-01-17T06:45:22.115Z</time>
</trkpt>
<trkpt lat="-27.0659545" lon="152.8695185">
<ele>17.639</ele>
<time>2018-01-17T06:45:25.116Z</time>
</trkpt>
<trkpt lat="-27.0665466" lon="152.8695326">
<ele>19.815</ele>
<time>2018-01-17T06:45:28.035Z</time>
</trkpt>
<trkpt lat="-27.0671161" lon="152.8697930">
<ele>22.283</ele>
<time>2018-01-17T06:45:31.024Z</time>
</trkpt>
<trkpt lat="-27.0677016" lon="152.8700486">
<ele>24.880</ele>
<time>2018-01-17T06:45:34.058Z</time>
</trkpt>
<trkpt lat="-27.0682744" lon="152.8703165">
<ele>27.497</ele>
<time>2018-01-17T06:45:37.037Z</time>
</trkpt>
<trkpt lat="-27.0688426" lon="152.8706145">
<ele>29.579</ele>
<time>2018-01-17T06:45:40.049Z</time>
</trkpt>
<trkpt lat="-27.0694184" lon="152.8708286">
<ele>30.483</ele>
<time>2018-01-17T06:45:42.994Z</time>
</trkpt>
<trkpt lat="-27.0700233" lon="152.8709716">
<ele>30.054</ele>
<time>2018-01-17T06:45:46.007Z</time>
</trkpt>
<trkpt lat="-27.0706281" lon="152.8710475">
<ele>28.750</ele>
<time>2018-01-17T06:45:48.973Z</time>
</trkpt>
<trkpt lat="-27.0712195" lon="152.8710543">
<ele>27.397</ele>
<time>2018-01-17T06:45:51.858Z</time>
</trkpt>
<trkpt lat="-27.0718222" lon="152.8710472">
<ele>26.759</ele>
<time>2018-01-17T06:45:54.789Z</time>
</trkpt>
<trkpt lat="-27.0724301" lon="152.8710659">
<ele>27.549</ele>
<time>2018-01-17T06:45:57.751Z</time>
</trkpt>
<trkpt lat="-27.0730409" lon="152.8711536">
<ele>29.935</ele>
<time>2018-01-17T06:46:00.737Z</time>
</trkpt>
<trkpt lat="-27.0736268" lon="152.8713440">
<ele>32.932</ele>
<time>2018-01-17T06:46:03.651Z</time>
</trkpt>
<trkpt lat="-27.0741716" lon="152.8717114">
<ele>35.202</ele>
<time>2018-01-17T06:46:06.673Z</time>
</trkpt>
<trkpt lat="-27.0746989" lon="152.8721110">
<ele>36.055</ele>
<time>2018-01-17T06:46:09.748Z</time>
</trkpt>
<trkpt lat="-27.0752478" lon="152.8723804">
<ele>35.440</ele>
<time>2018-01-17T06:46:12.692Z</time>
</trkpt>
<trkpt lat="-27.0758494" lon="152.8724657">
<ele>33.895</ele>
<time>2018-01-17T06:46:15.663Z</time>
</trkpt>
<trkpt lat="-27.0764612" lon="152.8724417">
<ele>32.297</ele>
<time>2018-01-17T06:46:18.651Z</time>
</trkpt>
<trkpt lat="-27.0770184" lon="152.8722585">
<ele>31.231</ele>
<time>2018-01-17T06:46:21.512Z</time>
</trkpt>
<trkpt lat="-27.0775886" lon="152.8720889">
<ele>30.431</ele>
<time>2018-01-17T06:46:24.443Z</time>
</trkpt>
<trkpt lat="-27.0781425" lon="152.8718879">
<ele>29.531</ele>
<time>2018-01-17T06:46:27.340Z</time>
</trkpt>
<trkpt lat="-27.0787266" lon="152.8716828">
<ele>28.955</ele>
<time>2018-01-17T06:46:30.363Z</time>
</trkpt>
<trkpt lat="-27.0793047" lon="152.8714776">
<ele>29.323</ele>
<time>2018-01-17T06:46:33.330Z</time>
</trkpt>
<trkpt lat="-27.0798866" lon="152.8712637">
<ele>30.602</ele>
<time>2018-01-17T06:46:36.324Z</time>
</trkpt>
<trkpt lat="-27.0804730" lon="152.8710565">
<ele>32.378</ele>
<time>2018-01-17T06:46:39.330Z</time>
</trkpt>
<trkpt lat="-27.0810685" lon="152.8709274">
<ele>34.195</ele>
<time>2018-01-17T06:46:42.276Z</time>
</trkpt>
<trkpt lat="-27.0816735" lon="152.8707366">
<ele>35.780</ele>
<time>2018-01-17T06:46:45.309Z</time>
</trkpt>
<trkpt lat="-27.0822529" lon="152.8705145">
<ele>37.310</ele>
<time>2018-01-17T06:46:48.265Z</time>
</trkpt>
<trkpt lat="-27.0828373" lon="152.8702982">
<ele>39.107</ele>
<time>2018-01-17T06:46:51.230Z</time>
</trkpt>
<trkpt lat="-27.0834165" lon="152.8700699">
<ele>41.060</ele>
<time>2018-01-17T06:46:54.186Z</time>
</trkpt>
<trkpt lat="-27.0839590" lon="152.8697675">
<ele>42.917</ele>
<time>2018-01-17T06:46:57.095Z</time>
</trkpt>
<trkpt lat="-27.0843599" lon="152.8692141">
<ele>44.619</ele>
<time>2018-01-17T06:47:00.154Z</time>
</trkpt>
<trkpt lat="-27.0847459" lon="152.8686762">
<ele>46.180</ele>
<time>2018-01-17T06:47:03.150Z</time>
</trkpt>
<trkpt lat="-27.0851293" lon="152.8681378">
<ele>47.723</ele>
<time>2018-01-17T06:47:06.163Z</time>
</trkpt>
<trkpt lat="-27.0854990" lon="152.8676138">
<ele>49.536</ele>
<time>2018-01-17T06:47:09.116Z</time>
</trkpt>
<trkpt lat="-27.0859131" lon="152.8671480">
<ele>51.426</ele>
<time>2018-01-17T06:47:12.051Z</time>
</trkpt>
<trkpt lat="-27.0862657" lon="152.8666582">
<ele>52.520</ele>
<time>2018-01-17T06:47:14.966Z</time>
</trkpt>
<trkpt lat="-27.0866082" lon="152.8661639">
<ele>52.055</ele>
<time>2018-01-17T06:47:18.218Z</time>
</trkpt>
<trkpt lat="-27.0868843" lon="152.8658054">
<ele>49.978</ele>
<time>2018-01-17T06:47:20.851Z</time>
</trkpt>
<trkpt lat="-27.0873829" lon="152.8657250">
<ele>46.837</ele>
<time>2018-01-17T06:47:23.855Z</time>
</trkpt>
<trkpt lat="-27.0878833" lon="152.8656895">
<ele>43.174</ele>
<time>2018-01-17T06:47:26.753Z</time>
</trkpt>
<trkpt lat="-27.0883751" lon="152.8655288">
<ele>39.098</ele>
<time>2018-01-17T06:47:29.666Z</time>
</trkpt>
<trkpt lat="-27.0887813" lon="152.8650927">
<ele>35.176</ele>
<time>2018-01-17T06:47:32.708Z</time>
</trkpt>
<trkpt lat="-27.0891850" lon="152.8646302">
<ele>32.545</ele>
<time>2018-01-17T06:47:35.706Z</time>
</trkpt>
<trkpt lat="-27.0895974" lon="152.8642088">
<ele>31.960</ele>
<time>2018-01-17T06:47:38.575Z</time>
</trkpt>
<trkpt lat="-27.0900230" lon="152.8637812">
<ele>33.432</ele>
<time>2018-01-17T06:47:41.503Z</time>
</trkpt>
<trkpt lat="-27.0904263" lon="152.8633464">
<ele>35.969</ele>
<time>2018-01-17T06:47:44.455Z</time>
</trkpt>
<trkpt lat="-27.0907115" lon="152.8628719">
<ele>38.045</ele>
<time>2018-01-17T06:47:47.407Z</time>
</trkpt>
<trkpt lat="-27.0911245" lon="152.8626388">
<ele>39.037</ele>
<time>2018-01-17T06:47:50.267Z</time>
</trkpt>
<trkpt lat="-27.0916758" lon="152.8626386">
<ele>39.268</ele>
<time>2018-01-17T06:47:53.560Z</time>
</trkpt>
<trkpt lat="-27.0921973" lon="152.8625964">
<ele>38.807</ele>
<time>2018-01-17T06:47:56.628Z</time>
</trkpt>
<trkpt lat="-27.0926759" lon="152.8624525">
<ele>37.302</ele>
<time>2018-01-17T06:47:59.582Z</time>
</trkpt>
<trkpt lat="-27.0930688" lon="152.8621011">
<ele>34.659</ele>
<time>2018-01-17T06:48:02.465Z</time>
</trkpt>
<trkpt lat="-27.0933990" lon="152.8615869">
<ele>31.032</ele>
<time>2018-01-17T06:48:05.505Z</time>
</trkpt>
<trkpt lat="-27.0937814" lon="152.8611227">
<ele>27.041</ele>
<time>2018-01-17T06:48:08.468Z</time>
</trkpt>
<trkpt lat="-27.0941268" lon="152.8606643">
<ele>23.997</ele>
<time>2018-01-17T06:48:11.290Z</time>
</trkpt>
<trkpt lat="-27.0945967" lon="152.8603209">
<ele>22.391</ele>
<time>2018-01-17T06:48:14.212Z</time>
</trkpt>
<trkpt lat="-27.0951121" lon="152.8599992">
<ele>21.600</ele>
<time>2018-01-17T06:48:17.256Z</time>
</trkpt>
<trkpt lat="-27.0955897" lon="152.8597711">
<ele>21.636</ele>
<time>2018-01-17T06:48:20.063Z</time>
</trkpt>
<trkpt lat="-27.0960165" lon="152.8598295">
<ele>23.083</ele>
<time>2018-01-17T06:48:22.556Z</time>
</trkpt>
<trkpt lat="-27.0964507" lon="152.8602720">
<ele>25.378</ele>
<time>2018-01-17T06:48:25.832Z</time>
</trkpt>
<trkpt lat="-27.0970244" lon="152.8607075">
<ele>26.921</ele>
<time>2018-01-17T06:48:29.197Z</time>
</trkpt>
<trkpt lat="-27.0975259" lon="152.8611919">
<ele>27.047</ele>
<time>2018-01-17T06:48:32.283Z</time>
</trkpt>
<trkpt lat="-27.0979817" lon="152.8616212">
<ele>26.848</ele>
<time>2018-01-17T06:48:35.178Z</time>
</trkpt>
<trkpt lat="-27.0983882" lon="152.8619918">
<ele>27.447</ele>
<time>2018-01-17T06:48:37.982Z</time>
</trkpt>
<trkpt lat="-27.0988421" lon="152.8620522">
<ele>28.718</ele>
<time>2018-01-17T06:48:40.667Z</time>
</trkpt>
<trkpt lat="-27.0994147" lon="152.8618715">
<ele>29.954</ele>
<time>2018-01-17T06:48:44.128Z</time>
</trkpt>
<trkpt lat="-27.0999402" lon="152.8617392">
<ele>30.787</ele>
<time>2018-01-17T06:48:47.105Z</time>
</trkpt>
<trkpt lat="-27.1004950" lon="152.8616310">
<ele>31.422</ele>
<time>2018-01-17T06:48:50.126Z</time>
</trkpt>
<trkpt lat="-27.1010939" lon="152.8615445">
<ele>32.766</ele>
<time>2018-01-17T06:48:53.229Z</time>
</trkpt>
<trkpt lat="-27.1016963" lon="152.8615221">
<ele>35.686</ele>
<time>2018-01-17T06:48:56.311Z</time>
</trkpt>
<trkpt lat="-27.1022158" lon="152.8615291">
<ele>39.911</ele>
<time>2018-01-17T06:48:59.157Z</time>
</trkpt>
<trkpt lat="-27.1027039" lon="152.8615814">
<ele>44.124</ele>
<time>2018-01-17T06:49:02.106Z</time>
</trkpt>
<trkpt lat="-27.1030379" lon="152.8619847">
<ele>47.261</ele>
<time>2018-01-17T06:49:05.242Z</time>
</trkpt>
<trkpt lat="-27.1033569" lon="152.8623254">
<ele>49.229</ele>
<time>2018-01-17T06:49:08.180Z</time>
</trkpt>
<trkpt lat="-27.1036883" lon="152.8625557">
<ele>50.599</ele>
<time>2018-01-17T06:49:10.954Z</time>
</trkpt>
<trkpt lat="-27.1040241" lon="152.8627642">
<ele>51.811</ele>
<time>2018-01-17T06:49:13.880Z</time>
</trkpt>
<trkpt lat="-27.1043781" lon="152.8629653">
<ele>52.781</ele>
<time>2018-01-17T06:49:16.973Z</time>
</trkpt>
<trkpt lat="-27.1046672" lon="152.8631638">
<ele>53.284</ele>
<time>2018-01-17T06:49:19.732Z</time>
</trkpt>
<trkpt lat="-27.1049038" lon="152.8633583">
<ele>53.364</ele>
<time>2018-01-17T06:49:22.426Z</time>
</trkpt>
<trkpt lat="-27.1051087" lon="152.8635059">
<ele>53.197</ele>
<time>2018-01-17T06:49:25.022Z</time>
</trkpt>
<trkpt lat="-27.1053740" lon="152.8635926">
<ele>52.939</ele>
<time>2018-01-17T06:49:28.191Z</time>
</trkpt>
<trkpt lat="-27.1056797" lon="152.8635615">
<ele>52.909</ele>
<time>2018-01-17T06:49:31.461Z</time>
</trkpt>
<trkpt lat="-27.1059654" lon="152.8635471">
<ele>53.266</ele>
<time>2018-01-17T06:49:34.348Z</time>
</trkpt>
<trkpt lat="-27.1062595" lon="152.8634799">
<ele>53.527</ele>
<time>2018-01-17T06:49:37.490Z</time>
</trkpt>
<trkpt lat="-27.1064755" lon="152.8634569">
<ele>53.284</ele>
<time>2018-01-17T06:49:39.998Z</time>
</trkpt>
<trkpt lat="-27.1064755" lon="152.8634569">
<ele>52.932</ele>
<time>2018-01-17T06:49:45.002Z</time>
</trkpt>
<trkpt lat="-27.1064755" lon="152.8634569">
<ele>52.899</ele>
<time>2018-01-17T06:50:08.593Z</time>
</trkpt>
<trkpt lat="-27.1066903" lon="152.8634396">
<ele>53.062</ele>
<time>2018-01-17T06:50:12.955Z</time>
</trkpt>
<trkpt lat="-27.1070785" lon="152.8634033">
<ele>53.451</ele>
<time>2018-01-17T06:50:16.239Z</time>
</trkpt>
<trkpt lat="-27.1076378" lon="152.8633926">
<ele>54.175</ele>
<time>2018-01-17T06:50:19.822Z</time>
</trkpt>
<trkpt lat="-27.1083009" lon="152.8633479">
<ele>54.362</ele>
<time>2018-01-17T06:50:23.602Z</time>
</trkpt>
<trkpt lat="-27.1089605" lon="152.8633186">
<ele>52.902</ele>
<time>2018-01-17T06:50:26.936Z</time>
</trkpt>
<trkpt lat="-27.1095945" lon="152.8632585">
<ele>49.986</ele>
<time>2018-01-17T06:50:29.823Z</time>
</trkpt>
<trkpt lat="-27.1102271" lon="152.8632095">
<ele>46.625</ele>
<time>2018-01-17T06:50:32.585Z</time>
</trkpt>
<trkpt lat="-27.1108489" lon="152.8631306">
<ele>43.494</ele>
<time>2018-01-17T06:50:35.468Z</time>
</trkpt>
<trkpt lat="-27.1113414" lon="152.8629514">
<ele>40.783</ele>
<time>2018-01-17T06:50:38.044Z</time>
</trkpt>
<trkpt lat="-27.1117103" lon="152.8625122">
<ele>38.450</ele>
<time>2018-01-17T06:50:40.722Z</time>
</trkpt>
<trkpt lat="-27.1121268" lon="152.8620173">
<ele>36.134</ele>
<time>2018-01-17T06:50:43.670Z</time>
</trkpt>
<trkpt lat="-27.1125324" lon="152.8615614">
<ele>33.563</ele>
<time>2018-01-17T06:50:46.475Z</time>
</trkpt>
<trkpt lat="-27.1129278" lon="152.8611808">
<ele>31.221</ele>
<time>2018-01-17T06:50:49.209Z</time>
</trkpt>
<trkpt lat="-27.1133422" lon="152.8609405">
<ele>29.731</ele>
<time>2018-01-17T06:50:52.194Z</time>
</trkpt>
<trkpt lat="-27.1135536" lon="152.8608529">
<ele>28.950</ele>
<time>2018-01-17T06:50:53.998Z</time>
</trkpt>
<trkpt lat="-27.1135536" lon="152.8608529">
<ele>28.491</ele>
<time>2018-01-17T06:50:59.998Z</time>
</trkpt>
<trkpt lat="-27.1135536" lon="152.8608529">
<ele>28.274</ele>
<time>2018-01-17T06:52:15.807Z</time>
</trkpt>
<trkpt lat="-27.1137017" lon="152.8606748">
<ele>28.287</ele>
<time>2018-01-17T06:52:21.349Z</time>
</trkpt>
<trkpt lat="-27.1140390" lon="152.8604328">
<ele>28.205</ele>
<time>2018-01-17T06:52:24.950Z</time>
</trkpt>
<trkpt lat="-27.1144735" lon="152.8601337">
<ele>27.736</ele>
<time>2018-01-17T06:52:28.349Z</time>
</trkpt>
<trkpt lat="-27.1148680" lon="152.8598794">
<ele>26.958</ele>
<time>2018-01-17T06:52:31.360Z</time>
</trkpt>
<trkpt lat="-27.1150610" lon="152.8594599">
<ele>26.094</ele>
<time>2018-01-17T06:52:34.276Z</time>
</trkpt>
<trkpt lat="-27.1153853" lon="152.8590824">
<ele>25.175</ele>
<time>2018-01-17T06:52:37.614Z</time>
</trkpt>
<trkpt lat="-27.1157420" lon="152.8588287">
<ele>24.289</ele>
<time>2018-01-17T06:52:40.704Z</time>
</trkpt>
<trkpt lat="-27.1161255" lon="152.8587645">
<ele>23.699</ele>
<time>2018-01-17T06:52:43.441Z</time>
</trkpt>
<trkpt lat="-27.1166093" lon="152.8587786">
<ele>23.554</ele>
<time>2018-01-17T06:52:46.498Z</time>
</trkpt>
<trkpt lat="-27.1171425" lon="152.8585497">
<ele>23.697</ele>
<time>2018-01-17T06:52:49.780Z</time>
</trkpt>
<trkpt lat="-27.1176440" lon="152.8582521">
<ele>24.170</ele>
<time>2018-01-17T06:52:52.999Z</time>
</trkpt>
<trkpt lat="-27.1181654" lon="152.8581154">
<ele>25.474</ele>
<time>2018-01-17T06:52:55.921Z</time>
</trkpt>
<trkpt lat="-27.1187736" lon="152.8581530">
<ele>28.043</ele>
<time>2018-01-17T06:52:59.065Z</time>
</trkpt>
<trkpt lat="-27.1193926" lon="152.8581588">
<ele>31.794</ele>
<time>2018-01-17T06:53:02.202Z</time>
</trkpt>
<trkpt lat="-27.1200280" lon="152.8581924">
<ele>36.165</ele>
<time>2018-01-17T06:53:05.447Z</time>
</trkpt>
<trkpt lat="-27.1206286" lon="152.8581180">
<ele>40.222</ele>
<time>2018-01-17T06:53:08.650Z</time>
</trkpt>
<trkpt lat="-27.1211788" lon="152.8579850">
<ele>43.038</ele>
<time>2018-01-17T06:53:11.741Z</time>
</trkpt>
<trkpt lat="-27.1215325" lon="152.8578844">
<ele>44.259</ele>
<time>2018-01-17T06:53:13.762Z</time>
</trkpt>
<trkpt lat="-27.1216501" lon="152.8580299">
<ele>44.108</ele>
<time>2018-01-17T06:53:14.730Z</time>
</trkpt>
<trkpt lat="-27.1217549" lon="152.8583414">
<ele>42.622</ele>
<time>2018-01-17T06:53:16.372Z</time>
</trkpt>
<trkpt lat="-27.1218069" lon="152.8586719">
<ele>39.671</ele>
<time>2018-01-17T06:53:18.026Z</time>
</trkpt>
<trkpt lat="-27.1218685" lon="152.8589166">
<ele>35.767</ele>
<time>2018-01-17T06:53:19.279Z</time>
</trkpt>
<trkpt lat="-27.1219075" lon="152.8591391">
<ele>31.867</ele>
<time>2018-01-17T06:53:20.567Z</time>
</trkpt>
<trkpt lat="-27.1218293" lon="152.8594364">
<ele>28.425</ele>
<time>2018-01-17T06:53:22.749Z</time>
</trkpt>
<trkpt lat="-27.1217482" lon="152.8598088">
<ele>25.364</ele>
<time>2018-01-17T06:53:27.124Z</time>
</trkpt>
<trkpt lat="-27.1217798" lon="152.8601918">
<ele>22.934</ele>
<time>2018-01-17T06:53:30.843Z</time>
</trkpt>
<trkpt lat="-27.1219986" lon="152.8603750">
<ele>21.716</ele>
<time>2018-01-17T06:53:33.387Z</time>
</trkpt>
<trkpt lat="-27.1223439" lon="152.8603411">
<ele>21.873</ele>
<time>2018-01-17T06:53:36.817Z</time>
</trkpt>
<trkpt lat="-27.1227982" lon="152.8602401">
<ele>23.150</ele>
<time>2018-01-17T06:53:41.544Z</time>
</trkpt>
<trkpt lat="-27.1232881" lon="152.8601427">
<ele>25.245</ele>
<time>2018-01-17T06:53:45.380Z</time>
</trkpt>
<trkpt lat="-27.1236916" lon="152.8600420">
<ele>27.968</ele>
<time>2018-01-17T06:53:48.261Z</time>
</trkpt>
<trkpt lat="-27.1238569" lon="152.8601126">
<ele>31.142</ele>
<time>2018-01-17T06:53:49.494Z</time>
</trkpt>
<trkpt lat="-27.1238999" lon="152.8604529">
<ele>34.263</ele>
<time>2018-01-17T06:53:52.273Z</time>
</trkpt>
<trkpt lat="-27.1239350" lon="152.8609340">
<ele>36.552</ele>
<time>2018-01-17T06:53:56.720Z</time>
</trkpt>
<trkpt lat="-27.1239880" lon="152.8615586">
<ele>37.609</ele>
<time>2018-01-17T06:54:00.779Z</time>
</trkpt>
<trkpt lat="-27.1241024" lon="152.8622670">
<ele>37.699</ele>
<time>2018-01-17T06:54:04.415Z</time>
</trkpt>
<trkpt lat="-27.1242184" lon="152.8629560">
<ele>37.306</ele>
<time>2018-01-17T06:54:07.605Z</time>
</trkpt>
<trkpt lat="-27.1243207" lon="152.8636127">
<ele>36.619</ele>
<time>2018-01-17T06:54:10.635Z</time>
</trkpt>
<trkpt lat="-27.1243645" lon="152.8642596">
<ele>35.516</ele>
<time>2018-01-17T06:54:13.644Z</time>
</trkpt>
<trkpt lat="-27.1244574" lon="152.8649296">
<ele>34.166</ele>
<time>2018-01-17T06:54:16.807Z</time>
</trkpt>
<trkpt lat="-27.1245271" lon="152.8655792">
<ele>33.170</ele>
<time>2018-01-17T06:54:19.838Z</time>
</trkpt>
<trkpt lat="-27.1246041" lon="152.8662413">
<ele>32.890</ele>
<time>2018-01-17T06:54:22.921Z</time>
</trkpt>
<trkpt lat="-27.1246902" lon="152.8668840">
<ele>33.175</ele>
<time>2018-01-17T06:54:25.937Z</time>
</trkpt>
<trkpt lat="-27.1247605" lon="152.8675454">
<ele>34.011</ele>
<time>2018-01-17T06:54:29.023Z</time>
</trkpt>
<trkpt lat="-27.1248421" lon="152.8682489">
<ele>35.718</ele>
<time>2018-01-17T06:54:32.223Z</time>
</trkpt>
<trkpt lat="-27.1248935" lon="152.8689434">
<ele>38.207</ele>
<time>2018-01-17T06:54:35.298Z</time>
</trkpt>
<trkpt lat="-27.1250107" lon="152.8696259">
<ele>40.540</ele>
<time>2018-01-17T06:54:38.363Z</time>
</trkpt>
<trkpt lat="-27.1251237" lon="152.8703212">
<ele>41.708</ele>
<time>2018-01-17T06:54:41.506Z</time>
</trkpt>
<trkpt lat="-27.1252032" lon="152.8710083">
<ele>41.424</ele>
<time>2018-01-17T06:54:44.611Z</time>
</trkpt>
<trkpt lat="-27.1252803" lon="152.8716838">
<ele>40.222</ele>
<time>2018-01-17T06:54:47.675Z</time>
</trkpt>
<trkpt lat="-27.1253754" lon="152.8723531">
<ele>38.713</ele>
<time>2018-01-17T06:54:50.736Z</time>
</trkpt>
<trkpt lat="-27.1254446" lon="152.8730109">
<ele>37.150</ele>
<time>2018-01-17T06:54:53.737Z</time>
</trkpt>
<trkpt lat="-27.1255444" lon="152.8736413">
<ele>35.702</ele>
<time>2018-01-17T06:54:56.637Z</time>
</trkpt>
<trkpt lat="-27.1256351" lon="152.8743095">
<ele>34.652</ele>
<time>2018-01-17T06:54:59.683Z</time>
</trkpt>
<trkpt lat="-27.1257101" lon="152.8749859">
<ele>34.343</ele>
<time>2018-01-17T06:55:02.746Z</time>
</trkpt>
<trkpt lat="-27.1258356" lon="152.8756529">
<ele>34.788</ele>
<time>2018-01-17T06:55:05.809Z</time>
</trkpt>
<trkpt lat="-27.1259857" lon="152.8763266">
<ele>35.443</ele>
<time>2018-01-17T06:55:08.914Z</time>
</trkpt>
<trkpt lat="-27.1260551" lon="152.8770281">
<ele>35.586</ele>
<time>2018-01-17T06:55:12.056Z</time>
</trkpt>
<trkpt lat="-27.1261235" lon="152.8776852">
<ele>34.705</ele>
<time>2018-01-17T06:55:15.019Z</time>
</trkpt>
<trkpt lat="-27.1261389" lon="152.8783591">
<ele>32.856</ele>
<time>2018-01-17T06:55:18.072Z</time>
</trkpt>
<trkpt lat="-27.1260410" lon="152.8789994">
<ele>30.899</ele>
<time>2018-01-17T06:55:21.030Z</time>
</trkpt>
<trkpt lat="-27.1260166" lon="152.8797035">
<ele>30.060</ele>
<time>2018-01-17T06:55:24.213Z</time>
</trkpt>
<trkpt lat="-27.1260077" lon="152.8804436">
<ele>30.968</ele>
<time>2018-01-17T06:55:27.499Z</time>
</trkpt>
<trkpt lat="-27.1260313" lon="152.8811613">
<ele>32.833</ele>
<time>2018-01-17T06:55:30.680Z</time>
</trkpt>
<trkpt lat="-27.1260745" lon="152.8818205">
<ele>34.177</ele>
<time>2018-01-17T06:55:33.910Z</time>
</trkpt>
<trkpt lat="-27.1261386" lon="152.8822909">
<ele>34.066</ele>
<time>2018-01-17T06:55:37.063Z</time>
</trkpt>
<trkpt lat="-27.1261574" lon="152.8824667">
<ele>32.521</ele>
<time>2018-01-17T06:55:38.652Z</time>
</trkpt>
<trkpt lat="-27.1263650" lon="152.8823857">
<ele>30.420</ele>
<time>2018-01-17T06:55:41.531Z</time>
</trkpt>
<trkpt lat="-27.1266907" lon="152.8822621">
<ele>28.606</ele>
<time>2018-01-17T06:55:45.399Z</time>
</trkpt>
<trkpt lat="-27.1270357" lon="152.8821690">
<ele>27.146</ele>
<time>2018-01-17T06:55:48.808Z</time>
</trkpt>
<trkpt lat="-27.1272984" lon="152.8821562">
<ele>25.861</ele>
<time>2018-01-17T06:55:51.640Z</time>
</trkpt>
<trkpt lat="-27.1274860" lon="152.8821360">
<ele>24.670</ele>
<time>2018-01-17T06:55:54.076Z</time>
</trkpt>
<trkpt lat="-27.1276467" lon="152.8821516">
<ele>23.283</ele>
<time>2018-01-17T06:55:56.631Z</time>
</trkpt>
<trkpt lat="-27.1277626" lon="152.8821796">
<ele>21.487</ele>
<time>2018-01-17T06:55:58.996Z</time>
</trkpt>
<trkpt lat="-27.1277626" lon="152.8821796">
<ele>19.739</ele>
<time>2018-01-17T06:56:03.996Z</time>
</trkpt>
<trkpt lat="-27.1277626" lon="152.8821796">
<ele>18.841</ele>
<time>2018-01-17T06:56:25.780Z</time>
</trkpt>
<trkpt lat="-27.1279240" lon="152.8820130">
<ele>19.157</ele>
<time>2018-01-17T06:56:33.611Z</time>
</trkpt>
<trkpt lat="-27.1282396" lon="152.8819527">
<ele>19.993</ele>
<time>2018-01-17T06:56:37.014Z</time>
</trkpt>
<trkpt lat="-27.1287128" lon="152.8819031">
<ele>20.155</ele>
<time>2018-01-17T06:56:40.771Z</time>
</trkpt>
<trkpt lat="-27.1292883" lon="152.8817845">
<ele>19.133</ele>
<time>2018-01-17T06:56:44.750Z</time>
</trkpt>
<trkpt lat="-27.1298541" lon="152.8814498">
<ele>17.506</ele>
<time>2018-01-17T06:56:48.456Z</time>
</trkpt>
<trkpt lat="-27.1303434" lon="152.8809443">
<ele>16.428</ele>
<time>2018-01-17T06:56:51.860Z</time>
</trkpt>
<trkpt lat="-27.1307529" lon="152.8804005">
<ele>17.112</ele>
<time>2018-01-17T06:56:54.992Z</time>
</trkpt>
<trkpt lat="-27.1311014" lon="152.8798271">
<ele>20.173</ele>
<time>2018-01-17T06:56:58.019Z</time>
</trkpt>
<trkpt lat="-27.1313714" lon="152.8792326">
<ele>25.176</ele>
<time>2018-01-17T06:57:00.928Z</time>
</trkpt>
<trkpt lat="-27.1316424" lon="152.8786118">
<ele>30.860</ele>
<time>2018-01-17T06:57:03.958Z</time>
</trkpt>
<trkpt lat="-27.1319294" lon="152.8780297">
<ele>36.009</ele>
<time>2018-01-17T06:57:06.892Z</time>
</trkpt>
<trkpt lat="-27.1323251" lon="152.8774980">
<ele>39.860</ele>
<time>2018-01-17T06:57:09.962Z</time>
</trkpt>
<trkpt lat="-27.1327183" lon="152.8769880">
<ele>42.101</ele>
<time>2018-01-17T06:57:12.956Z</time>
</trkpt>
<trkpt lat="-27.1331568" lon="152.8765284">
<ele>42.760</ele>
<time>2018-01-17T06:57:15.918Z</time>
</trkpt>
<trkpt lat="-27.1336579" lon="152.8761704">
<ele>42.091</ele>
<time>2018-01-17T06:57:18.833Z</time>
</trkpt>
<trkpt lat="-27.1342161" lon="152.8758754">
<ele>40.759</ele>
<time>2018-01-17T06:57:21.872Z</time>
</trkpt>
<trkpt lat="-27.1347542" lon="152.8755906">
<ele>39.625</ele>
<time>2018-01-17T06:57:24.807Z</time>
</trkpt>
<trkpt lat="-27.1352588" lon="152.8752616">
<ele>39.324</ele>
<time>2018-01-17T06:57:27.720Z</time>
</trkpt>
<trkpt lat="-27.1357805" lon="152.8748878">
<ele>40.346</ele>
<time>2018-01-17T06:57:30.950Z</time>
</trkpt>
<trkpt lat="-27.1363370" lon="152.8746694">
<ele>42.736</ele>
<time>2018-01-17T06:57:34.288Z</time>
</trkpt>
<trkpt lat="-27.1368807" lon="152.8747003">
<ele>45.922</ele>
<time>2018-01-17T06:57:37.590Z</time>
</trkpt>
<trkpt lat="-27.1373516" lon="152.8748080">
<ele>49.330</ele>
<time>2018-01-17T06:57:40.425Z</time>
</trkpt>
<trkpt lat="-27.1378380" lon="152.8747791">
<ele>52.736</ele>
<time>2018-01-17T06:57:43.138Z</time>
</trkpt>
<trkpt lat="-27.1383523" lon="152.8745359">
<ele>56.059</ele>
<time>2018-01-17T06:57:46.142Z</time>
</trkpt>
<trkpt lat="-27.1387995" lon="152.8741251">
<ele>59.215</ele>
<time>2018-01-17T06:57:49.189Z</time>
</trkpt>
<trkpt lat="-27.1391896" lon="152.8736912">
<ele>61.931</ele>
<time>2018-01-17T06:57:52.052Z</time>
</trkpt>
<trkpt lat="-27.1395788" lon="152.8732150">
<ele>63.920</ele>
<time>2018-01-17T06:57:55.037Z</time>
</trkpt>
<trkpt lat="-27.1399425" lon="152.8726881">
<ele>65.149</ele>
<time>2018-01-17T06:57:58.070Z</time>
</trkpt>
<trkpt lat="-27.1402781" lon="152.8721920">
<ele>65.789</ele>
<time>2018-01-17T06:58:00.843Z</time>
</trkpt>
<trkpt lat="-27.1405313" lon="152.8716174">
<ele>65.787</ele>
<time>2018-01-17T06:58:03.713Z</time>
</trkpt>
<trkpt lat="-27.1406718" lon="152.8709453">
<ele>65.145</ele>
<time>2018-01-17T06:58:06.849Z</time>
</trkpt>
<trkpt lat="-27.1409150" lon="152.8703143">
<ele>64.218</ele>
<time>2018-01-17T06:58:09.954Z</time>
</trkpt>
<trkpt lat="-27.1414259" lon="152.8699497">
<ele>62.959</ele>
<time>2018-01-17T06:58:12.977Z</time>
</trkpt>
<trkpt lat="-27.1419609" lon="152.8697074">
<ele>60.638</ele>
<time>2018-01-17T06:58:15.810Z</time>
</trkpt>
<trkpt lat="-27.1425965" lon="152.8697906">
<ele>57.339</ele>
<time>2018-01-17T06:58:18.977Z</time>
</trkpt>
<trkpt lat="-27.1431854" lon="152.8699435">
<ele>54.444</ele>
<time>2018-01-17T06:58:22.072Z</time>
</trkpt>
<trkpt lat="-27.1437536" lon="152.8700991">
<ele>53.054</ele>
<time>2018-01-17T06:58:25.118Z</time>
</trkpt>
<trkpt lat="-27.1443216" lon="152.8702017">
<ele>52.956</ele>
<time>2018-01-17T06:58:28.074Z</time>
</trkpt>
<trkpt lat="-27.1448731" lon="152.8704314">
<ele>53.091</ele>
<time>2018-01-17T06:58:31.054Z</time>
</trkpt>
<trkpt lat="-27.1453667" lon="152.8708094">
<ele>52.537</ele>
<time>2018-01-17T06:58:34.059Z</time>
</trkpt>
<trkpt lat="-27.1458710" lon="152.8711487">
<ele>51.416</ele>
<time>2018-01-17T06:58:36.988Z</time>
</trkpt>
<trkpt lat="-27.1463793" lon="152.8714828">
<ele>50.497</ele>
<time>2018-01-17T06:58:39.894Z</time>
</trkpt>
<trkpt lat="-27.1467789" lon="152.8720078">
<ele>50.131</ele>
<time>2018-01-17T06:58:42.923Z</time>
</trkpt>
<trkpt lat="-27.1471563" lon="152.8725412">
<ele>50.388</ele>
<time>2018-01-17T06:58:45.902Z</time>
</trkpt>
<trkpt lat="-27.1475309" lon="152.8730905">
<ele>51.518</ele>
<time>2018-01-17T06:58:48.915Z</time>
</trkpt>
<trkpt lat="-27.1479078" lon="152.8736598">
<ele>53.372</ele>
<time>2018-01-17T06:58:52.023Z</time>
</trkpt>
<trkpt lat="-27.1482970" lon="152.8741878">
<ele>55.242</ele>
<time>2018-01-17T06:58:55.057Z</time>
</trkpt>
<trkpt lat="-27.1486743" lon="152.8746667">
<ele>56.723</ele>
<time>2018-01-17T06:58:57.895Z</time>
</trkpt>
<trkpt lat="-27.1490556" lon="152.8751860">
<ele>58.069</ele>
<time>2018-01-17T06:59:00.891Z</time>
</trkpt>
<trkpt lat="-27.1494394" lon="152.8756988">
<ele>59.956</ele>
<time>2018-01-17T06:59:03.878Z</time>
</trkpt>
<trkpt lat="-27.1499097" lon="152.8760921">
<ele>63.006</ele>
<time>2018-01-17T06:59:06.789Z</time>
</trkpt>
<trkpt lat="-27.1503699" lon="152.8765197">
<ele>67.090</ele>
<time>2018-01-17T06:59:09.720Z</time>
</trkpt>
<trkpt lat="-27.1508383" lon="152.8769609">
<ele>71.678</ele>
<time>2018-01-17T06:59:12.732Z</time>
</trkpt>
<trkpt lat="-27.1512913" lon="152.8773932">
<ele>76.526</ele>
<time>2018-01-17T06:59:15.784Z</time>
</trkpt>
<trkpt lat="-27.1517573" lon="152.8777899">
<ele>81.284</ele>
<time>2018-01-17T06:59:18.960Z</time>
</trkpt>
<trkpt lat="-27.1522831" lon="152.8779639">
<ele>85.269</ele>
<time>2018-01-17T06:59:21.974Z</time>
</trkpt>
<trkpt lat="-27.1528254" lon="152.8781014">
<ele>87.882</ele>
<time>2018-01-17T06:59:25.012Z</time>
</trkpt>
<trkpt lat="-27.1533001" lon="152.8784132">
<ele>88.905</ele>
<time>2018-01-17T06:59:28.017Z</time>
</trkpt>
<trkpt lat="-27.1537371" lon="152.8787816">
<ele>88.476</ele>
<time>2018-01-17T06:59:31.044Z</time>
</trkpt>
<trkpt lat="-27.1541596" lon="152.8791278">
<ele>86.961</ele>
<time>2018-01-17T06:59:34.144Z</time>
</trkpt>
<trkpt lat="-27.1545385" lon="152.8794995">
<ele>84.827</ele>
<time>2018-01-17T06:59:37.572Z</time>
</trkpt>
<trkpt lat="-27.1549524" lon="152.8796787">
<ele>82.324</ele>
<time>2018-01-17T06:59:41.167Z</time>
</trkpt>
<trkpt lat="-27.1552898" lon="152.8797439">
<ele>79.513</ele>
<time>2018-01-17T06:59:46.152Z</time>
</trkpt>
<trkpt lat="-27.1556326" lon="152.8797592">
<ele>76.494</ele>
<time>2018-01-17T06:59:55.725Z</time>
</trkpt>
<trkpt lat="-27.1557942" lon="152.8797587">
<ele>73.300</ele>
<time>2018-01-17T06:59:59.013Z</time>
</trkpt>
<trkpt lat="-27.1558789" lon="152.8797948">
<ele>70.309</ele>
<time>2018-01-17T07:00:00.610Z</time>
</trkpt>
<trkpt lat="-27.1559607" lon="152.8798429">
<ele>68.211</ele>
<time>2018-01-17T07:00:02.170Z</time>
</trkpt>
<trkpt lat="-27.1560660" lon="152.8798516">
<ele>67.194</ele>
<time>2018-01-17T07:00:03.930Z</time>
</trkpt>
<trkpt lat="-27.1562246" lon="152.8799012">
<ele>66.967</ele>
<time>2018-01-17T07:00:06.870Z</time>
</trkpt>
<trkpt lat="-27.1564010" lon="152.8799580">
<ele>67.314</ele>
<time>2018-01-17T07:00:10.526Z</time>
</trkpt>
<trkpt lat="-27.1565716" lon="152.8799987">
<ele>67.954</ele>
<time>2018-01-17T07:00:14.093Z</time>
</trkpt>
<trkpt lat="-27.1567180" lon="152.8800312">
<ele>68.469</ele>
<time>2018-01-17T07:00:17.258Z</time>
</trkpt>
<trkpt lat="-27.1568504" lon="152.8800862">
<ele>68.644</ele>
<time>2018-01-17T07:00:20.695Z</time>
</trkpt>
<trkpt lat="-27.1569839" lon="152.8801560">
<ele>68.632</ele>
<time>2018-01-17T07:00:24.881Z</time>
</trkpt>
<trkpt lat="-27.1571130" lon="152.8801968">
<ele>68.606</ele>
<time>2018-01-17T07:00:28.533Z</time>
</trkpt>
<trkpt lat="-27.1572253" lon="152.8802357">
<ele>68.602</ele>
<time>2018-01-17T07:00:31.641Z</time>
</trkpt>
<trkpt lat="-27.1573345" lon="152.8802726">
<ele>68.302</ele>
<time>2018-01-17T07:00:34.405Z</time>
</trkpt>
<trkpt lat="-27.1574384" lon="152.8803278">
<ele>67.263</ele>
<time>2018-01-17T07:00:36.906Z</time>
</trkpt>
<trkpt lat="-27.1575519" lon="152.8803767">
<ele>65.466</ele>
<time>2018-01-17T07:00:39.290Z</time>
</trkpt>
<trkpt lat="-27.1576291" lon="152.8804883">
<ele>63.400</ele>
<time>2018-01-17T07:00:41.389Z</time>
</trkpt>
<trkpt lat="-27.1577297" lon="152.8805972">
<ele>61.573</ele>
<time>2018-01-17T07:00:43.434Z</time>
</trkpt>
<trkpt lat="-27.1578789" lon="152.8806821">
<ele>59.998</ele>
<time>2018-01-17T07:00:45.696Z</time>
</trkpt>
<trkpt lat="-27.1580437" lon="152.8808117">
<ele>58.505</ele>
<time>2018-01-17T07:00:48.283Z</time>
</trkpt>
<trkpt lat="-27.1582103" lon="152.8810304">
<ele>57.363</ele>
<time>2018-01-17T07:00:51.983Z</time>
</trkpt>
<trkpt lat="-27.1583775" lon="152.8812123">
<ele>56.936</ele>
<time>2018-01-17T07:00:56.019Z</time>
</trkpt>
<trkpt lat="-27.1585222" lon="152.8813844">
<ele>57.224</ele>
<time>2018-01-17T07:00:58.938Z</time>
</trkpt>
<trkpt lat="-27.1586095" lon="152.8814948">
<ele>57.915</ele>
<time>2018-01-17T07:01:00.483Z</time>
</trkpt>
<trkpt lat="-27.1586659" lon="152.8816946">
<ele>58.701</ele>
<time>2018-01-17T07:01:02.409Z</time>
</trkpt>
<trkpt lat="-27.1587309" lon="152.8820040">
<ele>59.538</ele>
<time>2018-01-17T07:01:05.265Z</time>
</trkpt>
<trkpt lat="-27.1588316" lon="152.8823053">
<ele>60.451</ele>
<time>2018-01-17T07:01:08.317Z</time>
</trkpt>
<trkpt lat="-27.1588702" lon="152.8826328">
<ele>61.322</ele>
<time>2018-01-17T07:01:11.413Z</time>
</trkpt>
<trkpt lat="-27.1587146" lon="152.8828791">
<ele>61.992</ele>
<time>2018-01-17T07:01:13.889Z</time>
</trkpt>
<trkpt lat="-27.1584260" lon="152.8831005">
<ele>62.432</ele>
<time>2018-01-17T07:01:16.838Z</time>
</trkpt>
<trkpt lat="-27.1581091" lon="152.8832884">
<ele>62.790</ele>
<time>2018-01-17T07:01:19.744Z</time>
</trkpt>
<trkpt lat="-27.1577847" lon="152.8834662">
<ele>63.269</ele>
<time>2018-01-17T07:01:22.758Z</time>
</trkpt>
<trkpt lat="-27.1574795" lon="152.8836649">
<ele>63.864</ele>
<time>2018-01-17T07:01:25.974Z</time>
</trkpt>
<trkpt lat="-27.1571982" lon="152.8838645">
<ele>64.338</ele>
<time>2018-01-17T07:01:29.222Z</time>
</trkpt>
<trkpt lat="-27.1569791" lon="152.8840889">
<ele>64.427</ele>
<time>2018-01-17T07:01:32.022Z</time>
</trkpt>
<trkpt lat="-27.1568057" lon="152.8843637">
<ele>63.976</ele>
<time>2018-01-17T07:01:34.767Z</time>
</trkpt>
<trkpt lat="-27.1565994" lon="152.8846817">
<ele>63.016</ele>
<time>2018-01-17T07:01:37.988Z</time>
</trkpt>
<trkpt lat="-27.1564265" lon="152.8849940">
<ele>61.851</ele>
<time>2018-01-17T07:01:41.216Z</time>
</trkpt>
<trkpt lat="-27.1563407" lon="152.8853419">
<ele>60.581</ele>
<time>2018-01-17T07:01:45.303Z</time>
</trkpt>
<trkpt lat="-27.1562376" lon="152.8856188">
<ele>59.138</ele>
<time>2018-01-17T07:01:48.755Z</time>
</trkpt>
<trkpt lat="-27.1561665" lon="152.8857864">
<ele>57.870</ele>
<time>2018-01-17T07:01:50.286Z</time>
</trkpt>
<trkpt lat="-27.1560597" lon="152.8860224">
<ele>57.318</ele>
<time>2018-01-17T07:01:52.074Z</time>
</trkpt>
<trkpt lat="-27.1558870" lon="152.8864333">
<ele>57.467</ele>
<time>2018-01-17T07:01:54.763Z</time>
</trkpt>
<trkpt lat="-27.1557234" lon="152.8869379">
<ele>57.992</ele>
<time>2018-01-17T07:01:57.832Z</time>
</trkpt>
<trkpt lat="-27.1554876" lon="152.8874049">
<ele>58.622</ele>
<time>2018-01-17T07:02:01.061Z</time>
</trkpt>
<trkpt lat="-27.1552844" lon="152.8878675">
<ele>59.121</ele>
<time>2018-01-17T07:02:04.274Z</time>
</trkpt>
<trkpt lat="-27.1551306" lon="152.8882360">
<ele>59.134</ele>
<time>2018-01-17T07:02:06.768Z</time>
</trkpt>
<trkpt lat="-27.1549800" lon="152.8887081">
<ele>58.615</ele>
<time>2018-01-17T07:02:09.757Z</time>
</trkpt>
<trkpt lat="-27.1548217" lon="152.8891651">
<ele>58.508</ele>
<time>2018-01-17T07:02:12.633Z</time>
</trkpt>
<trkpt lat="-27.1546280" lon="152.8896419">
<ele>60.009</ele>
<time>2018-01-17T07:02:15.902Z</time>
</trkpt>
<trkpt lat="-27.1544577" lon="152.8901308">
<ele>62.692</ele>
<time>2018-01-17T07:02:19.838Z</time>
</trkpt>
<trkpt lat="-27.1543011" lon="152.8904592">
<ele>65.061</ele>
<time>2018-01-17T07:02:23.579Z</time>
</trkpt>
<trkpt lat="-27.1541667" lon="152.8907777">
<ele>66.381</ele>
<time>2018-01-17T07:02:28.169Z</time>
</trkpt>
<trkpt lat="-27.1540683" lon="152.8908265">
<ele>66.743</ele>
<time>2018-01-17T07:02:29.514Z</time>
</trkpt>
<trkpt lat="-27.1539443" lon="152.8906950">
<ele>66.311</ele>
<time>2018-01-17T07:02:31.175Z</time>
</trkpt>
<trkpt lat="-27.1537191" lon="152.8905106">
<ele>65.358</ele>
<time>2018-01-17T07:02:33.534Z</time>
</trkpt>
<trkpt lat="-27.1533588" lon="152.8903823">
<ele>64.345</ele>
<time>2018-01-17T07:02:36.226Z</time>
</trkpt>
<trkpt lat="-27.1529374" lon="152.8901787">
<ele>63.364</ele>
<time>2018-01-17T07:02:39.133Z</time>
</trkpt>
<trkpt lat="-27.1524556" lon="152.8900239">
<ele>61.807</ele>
<time>2018-01-17T07:02:42.151Z</time>
</trkpt>
<trkpt lat="-27.1519541" lon="152.8900231">
<ele>59.276</ele>
<time>2018-01-17T07:02:45.142Z</time>
</trkpt>
<trkpt lat="-27.1514742" lon="152.8901493">
<ele>56.544</ele>
<time>2018-01-17T07:02:48.184Z</time>
</trkpt>
<trkpt lat="-27.1510142" lon="152.8902618">
<ele>54.896</ele>
<time>2018-01-17T07:02:51.378Z</time>
</trkpt>
<trkpt lat="-27.1506067" lon="152.8903275">
<ele>54.925</ele>
<time>2018-01-17T07:02:54.460Z</time>
</trkpt>
<trkpt lat="-27.1502307" lon="152.8903012">
<ele>56.191</ele>
<time>2018-01-17T07:02:57.507Z</time>
</trkpt>
<trkpt lat="-27.1499014" lon="152.8902394">
<ele>57.672</ele>
<time>2018-01-17T07:03:00.388Z</time>
</trkpt>
<trkpt lat="-27.1495669" lon="152.8902318">
<ele>58.562</ele>
<time>2018-01-17T07:03:03.393Z</time>
</trkpt>
<trkpt lat="-27.1492369" lon="152.8902989">
<ele>58.841</ele>
<time>2018-01-17T07:03:06.356Z</time>
</trkpt>
<trkpt lat="-27.1489787" lon="152.8905384">
<ele>58.975</ele>
<time>2018-01-17T07:03:09.165Z</time>
</trkpt>
<trkpt lat="-27.1487496" lon="152.8908506">
<ele>59.453</ele>
<time>2018-01-17T07:03:12.132Z</time>
</trkpt>
<trkpt lat="-27.1485572" lon="152.8912212">
<ele>60.662</ele>
<time>2018-01-17T07:03:15.342Z</time>
</trkpt>
<trkpt lat="-27.1483740" lon="152.8915592">
<ele>62.938</ele>
<time>2018-01-17T07:03:18.314Z</time>
</trkpt>
<trkpt lat="-27.1481645" lon="152.8918905">
<ele>66.541</ele>
<time>2018-01-17T07:03:21.339Z</time>
</trkpt>
<trkpt lat="-27.1478590" lon="152.8921454">
<ele>71.141</ele>
<time>2018-01-17T07:03:24.523Z</time>
</trkpt>
<trkpt lat="-27.1475463" lon="152.8922655">
<ele>75.716</ele>
<time>2018-01-17T07:03:27.273Z</time>
</trkpt>
<trkpt lat="-27.1473172" lon="152.8925521">
<ele>79.155</ele>
<time>2018-01-17T07:03:30.028Z</time>
</trkpt>
<trkpt lat="-27.1472727" lon="152.8929874">
<ele>80.946</ele>
<time>2018-01-17T07:03:32.901Z</time>
</trkpt>
<trkpt lat="-27.1473290" lon="152.8934712">
<ele>81.441</ele>
<time>2018-01-17T07:03:35.807Z</time>
</trkpt>
<trkpt lat="-27.1473916" lon="152.8940026">
<ele>81.395</ele>
<time>2018-01-17T07:03:38.856Z</time>
</trkpt>
<trkpt lat="-27.1474470" lon="152.8945128">
<ele>81.109</ele>
<time>2018-01-17T07:03:41.784Z</time>
</trkpt>
<trkpt lat="-27.1475066" lon="152.8950144">
<ele>80.476</ele>
<time>2018-01-17T07:03:44.573Z</time>
</trkpt>
<trkpt lat="-27.1476376" lon="152.8955649">
<ele>79.516</ele>
<time>2018-01-17T07:03:47.508Z</time>
</trkpt>
<trkpt lat="-27.1477404" lon="152.8961618">
<ele>78.130</ele>
<time>2018-01-17T07:03:50.472Z</time>
</trkpt>
<trkpt lat="-27.1478060" lon="152.8967989">
<ele>75.668</ele>
<time>2018-01-17T07:03:53.598Z</time>
</trkpt>
<trkpt lat="-27.1478802" lon="152.8973649">
<ele>71.732</ele>
<time>2018-01-17T07:03:56.662Z</time>
</trkpt>
<trkpt lat="-27.1479269" lon="152.8976778">
<ele>67.037</ele>
<time>2018-01-17T07:03:58.521Z</time>
</trkpt>
<trkpt lat="-27.1480340" lon="152.8981241">
<ele>63.060</ele>
<time>2018-01-17T07:04:01.276Z</time>
</trkpt>
<trkpt lat="-27.1480947" lon="152.8986576">
<ele>60.796</ele>
<time>2018-01-17T07:04:04.263Z</time>
</trkpt>
<trkpt lat="-27.1481257" lon="152.8992476">
<ele>59.881</ele>
<time>2018-01-17T07:04:07.176Z</time>
</trkpt>
<trkpt lat="-27.1482017" lon="152.8999220">
<ele>58.923</ele>
<time>2018-01-17T07:04:10.239Z</time>
</trkpt>
<trkpt lat="-27.1483137" lon="152.9005943">
<ele>56.884</ele>
<time>2018-01-17T07:04:13.215Z</time>
</trkpt>
<trkpt lat="-27.1484064" lon="152.9012550">
<ele>54.276</ele>
<time>2018-01-17T07:04:16.127Z</time>
</trkpt>
<trkpt lat="-27.1484969" lon="152.9019337">
<ele>52.384</ele>
<time>2018-01-17T07:04:19.110Z</time>
</trkpt>
<trkpt lat="-27.1485752" lon="152.9026214">
<ele>51.334</ele>
<time>2018-01-17T07:04:22.114Z</time>
</trkpt>
<trkpt lat="-27.1486806" lon="152.9032949">
<ele>50.113</ele>
<time>2018-01-17T07:04:25.084Z</time>
</trkpt>
<trkpt lat="-27.1487853" lon="152.9039688">
<ele>48.269</ele>
<time>2018-01-17T07:04:28.046Z</time>
</trkpt>
<trkpt lat="-27.1488625" lon="152.9046694">
<ele>46.178</ele>
<time>2018-01-17T07:04:31.093Z</time>
</trkpt>
<trkpt lat="-27.1489509" lon="152.9053314">
<ele>44.005</ele>
<time>2018-01-17T07:04:34.018Z</time>
</trkpt>
<trkpt lat="-27.1490266" lon="152.9059722">
<ele>41.772</ele>
<time>2018-01-17T07:04:36.886Z</time>
</trkpt>
<trkpt lat="-27.1491186" lon="152.9066272">
<ele>39.971</ele>
<time>2018-01-17T07:04:39.817Z</time>
</trkpt>
<trkpt lat="-27.1492005" lon="152.9073143">
<ele>39.311</ele>
<time>2018-01-17T07:04:42.838Z</time>
</trkpt>
<trkpt lat="-27.1493269" lon="152.9079954">
<ele>39.903</ele>
<time>2018-01-17T07:04:45.855Z</time>
</trkpt>
<trkpt lat="-27.1494054" lon="152.9086619">
<ele>40.974</ele>
<time>2018-01-17T07:04:48.797Z</time>
</trkpt>
<trkpt lat="-27.1495045" lon="152.9093097">
<ele>41.660</ele>
<time>2018-01-17T07:04:51.714Z</time>
</trkpt>
<trkpt lat="-27.1495873" lon="152.9099737">
<ele>41.783</ele>
<time>2018-01-17T07:04:54.873Z</time>
</trkpt>
<trkpt lat="-27.1496654" lon="152.9105033">
<ele>41.759</ele>
<time>2018-01-17T07:04:58.027Z</time>
</trkpt>
<trkpt lat="-27.1497244" lon="152.9108246">
<ele>42.314</ele>
<time>2018-01-17T07:05:02.098Z</time>
</trkpt>
<trkpt lat="-27.1496321" lon="152.9107847">
<ele>43.807</ele>
<time>2018-01-17T07:05:03.996Z</time>
</trkpt>
<trkpt lat="-27.1496321" lon="152.9107847">
<ele>45.606</ele>
<time>2018-01-17T07:05:03.997Z</time>
</trkpt>
<trkpt lat="-27.1496321" lon="152.9107847">
<ele>46.780</ele>
<time>2018-01-17T07:05:15.093Z</time>
</trkpt>
<trkpt lat="-27.1496906" lon="152.9109539">
<ele>47.151</ele>
<time>2018-01-17T07:05:24.304Z</time>
</trkpt>
<trkpt lat="-27.1497798" lon="152.9113178">
<ele>47.201</ele>
<time>2018-01-17T07:05:27.949Z</time>
</trkpt>
<trkpt lat="-27.1498233" lon="152.9117972">
<ele>47.330</ele>
<time>2018-01-17T07:05:31.247Z</time>
</trkpt>
<trkpt lat="-27.1499235" lon="152.9123796">
<ele>47.519</ele>
<time>2018-01-17T07:05:35.088Z</time>
</trkpt>
<trkpt lat="-27.1500025" lon="152.9129526">
<ele>47.751</ele>
<time>2018-01-17T07:05:38.384Z</time>
</trkpt>
<trkpt lat="-27.1500069" lon="152.9135608">
<ele>48.457</ele>
<time>2018-01-17T07:05:41.447Z</time>
</trkpt>
<trkpt lat="-27.1500008" lon="152.9141763">
<ele>49.950</ele>
<time>2018-01-17T07:05:44.408Z</time>
</trkpt>
<trkpt lat="-27.1499731" lon="152.9148005">
<ele>51.740</ele>
<time>2018-01-17T07:05:47.409Z</time>
</trkpt>
<trkpt lat="-27.1500011" lon="152.9154295">
<ele>53.007</ele>
<time>2018-01-17T07:05:50.427Z</time>
</trkpt>
<trkpt lat="-27.1499855" lon="152.9160357">
<ele>53.499</ele>
<time>2018-01-17T07:05:53.319Z</time>
</trkpt>
<trkpt lat="-27.1499805" lon="152.9166742">
<ele>53.342</ele>
<time>2018-01-17T07:05:56.384Z</time>
</trkpt>
<trkpt lat="-27.1499473" lon="152.9172983">
<ele>52.360</ele>
<time>2018-01-17T07:05:59.511Z</time>
</trkpt>
<trkpt lat="-27.1499479" lon="152.9178526">
<ele>50.329</ele>
<time>2018-01-17T07:06:02.541Z</time>
</trkpt>
<trkpt lat="-27.1499403" lon="152.9183431">
<ele>47.640</ele>
<time>2018-01-17T07:06:05.495Z</time>
</trkpt>
<trkpt lat="-27.1499357" lon="152.9187914">
<ele>44.986</ele>
<time>2018-01-17T07:06:08.262Z</time>
</trkpt>
<trkpt lat="-27.1498094" lon="152.9192372">
<ele>42.704</ele>
<time>2018-01-17T07:06:11.026Z</time>
</trkpt>
<trkpt lat="-27.1495967" lon="152.9197413">
<ele>40.820</ele>
<time>2018-01-17T07:06:14.323Z</time>
</trkpt>
<trkpt lat="-27.1494546" lon="152.9201901">
<ele>39.424</ele>
<time>2018-01-17T07:06:17.229Z</time>
</trkpt>
<trkpt lat="-27.1493543" lon="152.9206830">
<ele>38.652</ele>
<time>2018-01-17T07:06:20.270Z</time>
</trkpt>
<trkpt lat="-27.1493350" lon="152.9212108">
<ele>38.641</ele>
<time>2018-01-17T07:06:23.394Z</time>
</trkpt>
<trkpt lat="-27.1494313" lon="152.9217004">
<ele>39.485</ele>
<time>2018-01-17T07:06:26.369Z</time>
</trkpt>
<trkpt lat="-27.1495577" lon="152.9221802">
<ele>40.903</ele>
<time>2018-01-17T07:06:29.341Z</time>
</trkpt>
<trkpt lat="-27.1496412" lon="152.9226477">
<ele>42.321</ele>
<time>2018-01-17T07:06:32.155Z</time>
</trkpt>
<trkpt lat="-27.1498761" lon="152.9230853">
<ele>43.535</ele>
<time>2018-01-17T07:06:35.139Z</time>
</trkpt>
<trkpt lat="-27.1501433" lon="152.9235010">
<ele>44.530</ele>
<time>2018-01-17T07:06:38.106Z</time>
</trkpt>
<trkpt lat="-27.1504290" lon="152.9239324">
<ele>45.074</ele>
<time>2018-01-17T07:06:41.119Z</time>
</trkpt>
<trkpt lat="-27.1506718" lon="152.9244436">
<ele>44.782</ele>
<time>2018-01-17T07:06:44.349Z</time>
</trkpt>
<trkpt lat="-27.1507826" lon="152.9249549">
<ele>43.096</ele>
<time>2018-01-17T07:06:47.439Z</time>
</trkpt>
<trkpt lat="-27.1508031" lon="152.9254083">
<ele>39.857</ele>
<time>2018-01-17T07:06:50.187Z</time>
</trkpt>
<trkpt lat="-27.1509164" lon="152.9258935">
<ele>36.026</ele>
<time>2018-01-17T07:06:53.190Z</time>
</trkpt>
<trkpt lat="-27.1509774" lon="152.9263993">
<ele>33.054</ele>
<time>2018-01-17T07:06:56.168Z</time>
</trkpt>
<trkpt lat="-27.1510462" lon="152.9269313">
<ele>31.735</ele>
<time>2018-01-17T07:06:59.388Z</time>
</trkpt>
<trkpt lat="-27.1511120" lon="152.9274236">
<ele>31.760</ele>
<time>2018-01-17T07:07:03.102Z</time>
</trkpt>
<trkpt lat="-27.1511923" lon="152.9277610">
<ele>31.993</ele>
<time>2018-01-17T07:07:07.264Z</time>
</trkpt>
<trkpt lat="-27.1513123" lon="152.9279154">
<ele>31.448</ele>
<time>2018-01-17T07:07:10.750Z</time>
</trkpt>
<trkpt lat="-27.1514104" lon="152.9279971">
<ele>30.087</ele>
<time>2018-01-17T07:07:13.109Z</time>
</trkpt>
<trkpt lat="-27.1515507" lon="152.9279303">
<ele>28.433</ele>
<time>2018-01-17T07:07:14.916Z</time>
</trkpt>
<trkpt lat="-27.1518155" lon="152.9275857">
<ele>26.839</ele>
<time>2018-01-17T07:07:18.340Z</time>
</trkpt>
<trkpt lat="-27.1521188" lon="152.9272134">
<ele>25.354</ele>
<time>2018-01-17T07:07:21.464Z</time>
</trkpt>
<trkpt lat="-27.1524285" lon="152.9268283">
<ele>24.025</ele>
<time>2018-01-17T07:07:24.438Z</time>
</trkpt>
<trkpt lat="-27.1527402" lon="152.9264233">
<ele>22.937</ele>
<time>2018-01-17T07:07:27.184Z</time>
</trkpt>
<trkpt lat="-27.1531350" lon="152.9259378">
<ele>22.146</ele>
<time>2018-01-17T07:07:30.234Z</time>
</trkpt>
<trkpt lat="-27.1535531" lon="152.9253999">
<ele>21.767</ele>
<time>2018-01-17T07:07:33.373Z</time>
</trkpt>
<trkpt lat="-27.1539792" lon="152.9249117">
<ele>21.818</ele>
<time>2018-01-17T07:07:36.396Z</time>
</trkpt>
<trkpt lat="-27.1545242" lon="152.9246045">
<ele>22.136</ele>
<time>2018-01-17T07:07:39.451Z</time>
</trkpt>
<trkpt lat="-27.1551144" lon="152.9244531">
<ele>22.657</ele>
<time>2018-01-17T07:07:42.466Z</time>
</trkpt>
<trkpt lat="-27.1557187" lon="152.9242957">
<ele>23.513</ele>
<time>2018-01-17T07:07:45.532Z</time>
</trkpt>
<trkpt lat="-27.1562949" lon="152.9241045">
<ele>25.055</ele>
<time>2018-01-17T07:07:48.508Z</time>
</trkpt>
<trkpt lat="-27.1568709" lon="152.9239157">
<ele>27.432</ele>
<time>2018-01-17T07:07:51.511Z</time>
</trkpt>
<trkpt lat="-27.1574461" lon="152.9237509">
<ele>30.157</ele>
<time>2018-01-17T07:07:54.468Z</time>
</trkpt>
<trkpt lat="-27.1580411" lon="152.9235460">
<ele>32.683</ele>
<time>2018-01-17T07:07:57.544Z</time>
</trkpt>
<trkpt lat="-27.1585821" lon="152.9233475">
<ele>34.972</ele>
<time>2018-01-17T07:08:00.376Z</time>
</trkpt>
<trkpt lat="-27.1591233" lon="152.9231519">
<ele>37.215</ele>
<time>2018-01-17T07:08:03.205Z</time>
</trkpt>
<trkpt lat="-27.1597039" lon="152.9229379">
<ele>39.498</ele>
<time>2018-01-17T07:08:06.219Z</time>
</trkpt>
<trkpt lat="-27.1602608" lon="152.9226437">
<ele>41.795</ele>
<time>2018-01-17T07:08:09.228Z</time>
</trkpt>
<trkpt lat="-27.1607958" lon="152.9222508">
<ele>43.739</ele>
<time>2018-01-17T07:08:12.362Z</time>
</trkpt>
<trkpt lat="-27.1613140" lon="152.9219205">
<ele>44.777</ele>
<time>2018-01-17T07:08:15.296Z</time>
</trkpt>
<trkpt lat="-27.1618559" lon="152.9215594">
<ele>44.770</ele>
<time>2018-01-17T07:08:18.396Z</time>
</trkpt>
<trkpt lat="-27.1623597" lon="152.9212105">
<ele>44.113</ele>
<time>2018-01-17T07:08:21.311Z</time>
</trkpt>
<trkpt lat="-27.1628791" lon="152.9208340">
<ele>43.157</ele>
<time>2018-01-17T07:08:24.365Z</time>
</trkpt>
<trkpt lat="-27.1633795" lon="152.9205119">
<ele>41.950</ele>
<time>2018-01-17T07:08:27.221Z</time>
</trkpt>
<trkpt lat="-27.1639104" lon="152.9201968">
<ele>40.614</ele>
<time>2018-01-17T07:08:30.187Z</time>
</trkpt>
<trkpt lat="-27.1644594" lon="152.9198988">
<ele>39.569</ele>
<time>2018-01-17T07:08:33.193Z</time>
</trkpt>
<trkpt lat="-27.1650033" lon="152.9196401">
<ele>39.172</ele>
<time>2018-01-17T07:08:36.109Z</time>
</trkpt>
<trkpt lat="-27.1655748" lon="152.9193903">
<ele>39.369</ele>
<time>2018-01-17T07:08:39.153Z</time>
</trkpt>
<trkpt lat="-27.1661104" lon="152.9191665">
<ele>39.767</ele>
<time>2018-01-17T07:08:41.998Z</time>
</trkpt>
<trkpt lat="-27.1666816" lon="152.9189103">
<ele>40.194</ele>
<time>2018-01-17T07:08:45.053Z</time>
</trkpt>
<trkpt lat="-27.1672273" lon="152.9186824">
<ele>41.090</ele>
<time>2018-01-17T07:08:47.939Z</time>
</trkpt>
<trkpt lat="-27.1677957" lon="152.9184321">
<ele>42.883</ele>
<time>2018-01-17T07:08:50.958Z</time>
</trkpt>
<trkpt lat="-27.1683677" lon="152.9181934">
<ele>45.128</ele>
<time>2018-01-17T07:08:53.976Z</time>
</trkpt>
<trkpt lat="-27.1689220" lon="152.9179547">
<ele>47.030</ele>
<time>2018-01-17T07:08:56.930Z</time>
</trkpt>
<trkpt lat="-27.1694747" lon="152.9176956">
<ele>48.451</ele>
<time>2018-01-17T07:08:59.919Z</time>
</trkpt>
<trkpt lat="-27.1700639" lon="152.9175015">
<ele>49.757</ele>
<time>2018-01-17T07:09:02.967Z</time>
</trkpt>
<trkpt lat="-27.1706815" lon="152.9175181">
<ele>51.221</ele>
<time>2018-01-17T07:09:06.001Z</time>
</trkpt>
<trkpt lat="-27.1712781" lon="152.9176985">
<ele>52.756</ele>
<time>2018-01-17T07:09:09.029Z</time>
</trkpt>
<trkpt lat="-27.1718059" lon="152.9180179">
<ele>53.951</ele>
<time>2018-01-17T07:09:11.981Z</time>
</trkpt>
<trkpt lat="-27.1722654" lon="152.9184578">
<ele>54.474</ele>
<time>2018-01-17T07:09:14.959Z</time>
</trkpt>
<trkpt lat="-27.1726821" lon="152.9189574">
<ele>54.242</ele>
<time>2018-01-17T07:09:17.961Z</time>
</trkpt>
<trkpt lat="-27.1730762" lon="152.9194812">
<ele>53.456</ele>
<time>2018-01-17T07:09:20.962Z</time>
</trkpt>
<trkpt lat="-27.1734717" lon="152.9199917">
<ele>52.540</ele>
<time>2018-01-17T07:09:23.925Z</time>
</trkpt>
<trkpt lat="-27.1739152" lon="152.9204661">
<ele>51.620</ele>
<time>2018-01-17T07:09:26.947Z</time>
</trkpt>
<trkpt lat="-27.1743389" lon="152.9209354">
<ele>50.122</ele>
<time>2018-01-17T07:09:29.887Z</time>
</trkpt>
<trkpt lat="-27.1747774" lon="152.9214027">
<ele>47.464</ele>
<time>2018-01-17T07:09:32.878Z</time>
</trkpt>
<trkpt lat="-27.1752031" lon="152.9218877">
<ele>43.830</ele>
<time>2018-01-17T07:09:35.900Z</time>
</trkpt>
<trkpt lat="-27.1756068" lon="152.9223482">
<ele>39.949</ele>
<time>2018-01-17T07:09:38.804Z</time>
</trkpt>
<trkpt lat="-27.1760002" lon="152.9228116">
<ele>36.518</ele>
<time>2018-01-17T07:09:41.777Z</time>
</trkpt>
<trkpt lat="-27.1763733" lon="152.9232364">
<ele>34.126</ele>
<time>2018-01-17T07:09:44.709Z</time>
</trkpt>
<trkpt lat="-27.1767344" lon="152.9236468">
<ele>33.054</ele>
<time>2018-01-17T07:09:47.724Z</time>
</trkpt>
<trkpt lat="-27.1770699" lon="152.9240418">
<ele>33.243</ele>
<time>2018-01-17T07:09:50.742Z</time>
</trkpt>
<trkpt lat="-27.1773709" lon="152.9244111">
<ele>34.571</ele>
<time>2018-01-17T07:09:53.672Z</time>
</trkpt>
<trkpt lat="-27.1776628" lon="152.9247181">
<ele>36.451</ele>
<time>2018-01-17T07:09:56.491Z</time>
</trkpt>
<trkpt lat="-27.1779155" lon="152.9250539">
<ele>37.869</ele>
<time>2018-01-17T07:09:59.514Z</time>
</trkpt>
<trkpt lat="-27.1781110" lon="152.9253422">
<ele>38.317</ele>
<time>2018-01-17T07:10:02.473Z</time>
</trkpt>
<trkpt lat="-27.1782736" lon="152.9255015">
<ele>37.988</ele>
<time>2018-01-17T07:10:05.341Z</time>
</trkpt>
<trkpt lat="-27.1782466" lon="152.9256072">
<ele>37.317</ele>
<time>2018-01-17T07:10:07.199Z</time>
</trkpt>
<trkpt lat="-27.1782137" lon="152.9257471">
<ele>36.533</ele>
<time>2018-01-17T07:10:11.096Z</time>
</trkpt>
<trkpt lat="-27.1779480" lon="152.9260380">
<ele>35.684</ele>
<time>2018-01-17T07:10:16.102Z</time>
</trkpt>
<trkpt lat="-27.1776436" lon="152.9264007">
<ele>34.827</ele>
<time>2018-01-17T07:10:19.421Z</time>
</trkpt>
<trkpt lat="-27.1773525" lon="152.9267679">
<ele>33.905</ele>
<time>2018-01-17T07:10:22.436Z</time>
</trkpt>
<trkpt lat="-27.1770983" lon="152.9271195">
<ele>32.968</ele>
<time>2018-01-17T07:10:25.183Z</time>
</trkpt>
<trkpt lat="-27.1768263" lon="152.9275325">
<ele>32.236</ele>
<time>2018-01-17T07:10:28.270Z</time>
</trkpt>
<trkpt lat="-27.1765633" lon="152.9279534">
<ele>31.655</ele>
<time>2018-01-17T07:10:31.344Z</time>
</trkpt>
<trkpt lat="-27.1764118" lon="152.9284099">
<ele>30.987</ele>
<time>2018-01-17T07:10:34.256Z</time>
</trkpt>
<trkpt lat="-27.1762794" lon="152.9288779">
<ele>30.186</ele>
<time>2018-01-17T07:10:37.178Z</time>
</trkpt>
<trkpt lat="-27.1761492" lon="152.9293552">
<ele>29.288</ele>
<time>2018-01-17T07:10:40.170Z</time>
</trkpt>
<trkpt lat="-27.1759958" lon="152.9297910">
<ele>28.276</ele>
<time>2018-01-17T07:10:43.019Z</time>
</trkpt>
<trkpt lat="-27.1758183" lon="152.9302398">
<ele>27.331</ele>
<time>2018-01-17T07:10:46.036Z</time>
</trkpt>
<trkpt lat="-27.1756601" lon="152.9306956">
<ele>26.740</ele>
<time>2018-01-17T07:10:49.091Z</time>
</trkpt>
<trkpt lat="-27.1754932" lon="152.9310928">
<ele>26.485</ele>
<time>2018-01-17T07:10:51.885Z</time>
</trkpt>
<trkpt lat="-27.1753071" lon="152.9315295">
<ele>26.380</ele>
<time>2018-01-17T07:10:54.980Z</time>
</trkpt>
<trkpt lat="-27.1751438" lon="152.9319387">
<ele>26.379</ele>
<time>2018-01-17T07:10:57.916Z</time>
</trkpt>
<trkpt lat="-27.1750076" lon="152.9323115">
<ele>26.535</ele>
<time>2018-01-17T07:11:00.719Z</time>
</trkpt>
<trkpt lat="-27.1749245" lon="152.9325256">
<ele>26.802</ele>
<time>2018-01-17T07:11:02.505Z</time>
</trkpt>
<trkpt lat="-27.1748386" lon="152.9327413">
<ele>27.060</ele>
<time>2018-01-17T07:11:04.538Z</time>
</trkpt>
<trkpt lat="-27.1747568" lon="152.9328838">
<ele>27.345</ele>
<time>2018-01-17T07:11:06.460Z</time>
</trkpt>
<trkpt lat="-27.1746701" lon="152.9330079">
<ele>27.703</ele>
<time>2018-01-17T07:11:08.633Z</time>
</trkpt>
<trkpt lat="-27.1748084" lon="152.9331243">
<ele>27.878</ele>
<time>2018-01-17T07:11:11.991Z</time>
</trkpt>
<trkpt lat="-27.1751498" lon="152.9331593">
<ele>27.411</ele>
<time>2018-01-17T07:11:16.842Z</time>
</trkpt>
<trkpt lat="-27.1755040" lon="152.9333264">
<ele>26.355</ele>
<time>2018-01-17T07:11:20.395Z</time>
</trkpt>
<trkpt lat="-27.1757818" lon="152.9334734">
<ele>25.480</ele>
<time>2018-01-17T07:11:23.109Z</time>
</trkpt>
<trkpt lat="-27.1760093" lon="152.9337831">
<ele>25.499</ele>
<time>2018-01-17T07:11:26.259Z</time>
</trkpt>
<trkpt lat="-27.1762028" lon="152.9340968">
<ele>26.472</ele>
<time>2018-01-17T07:11:29.179Z</time>
</trkpt>
<trkpt lat="-27.1763806" lon="152.9343632">
<ele>27.858</ele>
<time>2018-01-17T07:11:31.867Z</time>
</trkpt>
<trkpt lat="-27.1764866" lon="152.9345765">
<ele>28.914</ele>
<time>2018-01-17T07:11:34.167Z</time>
</trkpt>
<trkpt lat="-27.1767563" lon="152.9347470">
<ele>29.357</ele>
<time>2018-01-17T07:11:37.497Z</time>
</trkpt>
<trkpt lat="-27.1771112" lon="152.9349618">
<ele>29.405</ele>
<time>2018-01-17T07:11:41.076Z</time>
</trkpt>
<trkpt lat="-27.1774817" lon="152.9351861">
<ele>29.422</ele>
<time>2018-01-17T07:11:44.258Z</time>
</trkpt>
<trkpt lat="-27.1778237" lon="152.9353906">
<ele>29.585</ele>
<time>2018-01-17T07:11:47.154Z</time>
</trkpt>
<trkpt lat="-27.1781791" lon="152.9355336">
<ele>29.760</ele>
<time>2018-01-17T07:11:50.068Z</time>
</trkpt>
<trkpt lat="-27.1785952" lon="152.9356356">
<ele>29.726</ele>
<time>2018-01-17T07:11:53.271Z</time>
</trkpt>
<trkpt lat="-27.1790255" lon="152.9356533">
<ele>29.163</ele>
<time>2018-01-17T07:11:56.396Z</time>
</trkpt>
<trkpt lat="-27.1793519" lon="152.9354485">
<ele>27.720</ele>
<time>2018-01-17T07:11:59.223Z</time>
</trkpt>
<trkpt lat="-27.1795830" lon="152.9350885">
<ele>25.455</ele>
<time>2018-01-17T07:12:02.447Z</time>
</trkpt>
<trkpt lat="-27.1796882" lon="152.9346749">
<ele>22.752</ele>
<time>2018-01-17T07:12:05.606Z</time>
</trkpt>
<trkpt lat="-27.1796878" lon="152.9341990">
<ele>19.961</ele>
<time>2018-01-17T07:12:08.871Z</time>
</trkpt>
<trkpt lat="-27.1797419" lon="152.9337210">
<ele>17.641</ele>
<time>2018-01-17T07:12:11.966Z</time>
</trkpt>
<trkpt lat="-27.1798234" lon="152.9332086">
<ele>16.382</ele>
<time>2018-01-17T07:12:15.165Z</time>
</trkpt>
<trkpt lat="-27.1798801" lon="152.9327326">
<ele>16.501</ele>
<time>2018-01-17T07:12:18.246Z</time>
</trkpt>
<trkpt lat="-27.1799532" lon="152.9324228">
<ele>18.034</ele>
<time>2018-01-17T07:12:20.577Z</time>
</trkpt>
<trkpt lat="-27.1801226" lon="152.9321256">
<ele>20.316</ele>
<time>2018-01-17T07:12:23.407Z</time>
</trkpt>
<trkpt lat="-27.1804239" lon="152.9318218">
<ele>22.174</ele>
<time>2018-01-17T07:12:26.719Z</time>
</trkpt>
<trkpt lat="-27.1807398" lon="152.9315174">
<ele>23.137</ele>
<time>2018-01-17T07:12:29.858Z</time>
</trkpt>
<trkpt lat="-27.1811612" lon="152.9314419">
<ele>23.560</ele>
<time>2018-01-17T07:12:32.892Z</time>
</trkpt>
<trkpt lat="-27.1816523" lon="152.9314731">
<ele>23.804</ele>
<time>2018-01-17T07:12:36.137Z</time>
</trkpt>
<trkpt lat="-27.1821184" lon="152.9314556">
<ele>23.862</ele>
<time>2018-01-17T07:12:39.147Z</time>
</trkpt>
<trkpt lat="-27.1825833" lon="152.9313178">
<ele>23.694</ele>
<time>2018-01-17T07:12:42.297Z</time>
</trkpt>
<trkpt lat="-27.1829840" lon="152.9311020">
<ele>23.584</ele>
<time>2018-01-17T07:12:45.243Z</time>
</trkpt>
<trkpt lat="-27.1833970" lon="152.9309367">
<ele>24.044</ele>
<time>2018-01-17T07:12:48.212Z</time>
</trkpt>
<trkpt lat="-27.1838151" lon="152.9309636">
<ele>25.345</ele>
<time>2018-01-17T07:12:51.162Z</time>
</trkpt>
<trkpt lat="-27.1841104" lon="152.9312898">
<ele>27.316</ele>
<time>2018-01-17T07:12:54.200Z</time>
</trkpt>
<trkpt lat="-27.1843376" lon="152.9316891">
<ele>29.740</ele>
<time>2018-01-17T07:12:57.342Z</time>
</trkpt>
<trkpt lat="-27.1844477" lon="152.9321008">
<ele>32.556</ele>
<time>2018-01-17T07:13:00.271Z</time>
</trkpt>
<trkpt lat="-27.1844975" lon="152.9324469">
<ele>35.385</ele>
<time>2018-01-17T07:13:03.079Z</time>
</trkpt>
<trkpt lat="-27.1844714" lon="152.9326130">
<ele>37.599</ele>
<time>2018-01-17T07:13:04.789Z</time>
</trkpt>
<trkpt lat="-27.1845703" lon="152.9329125">
<ele>38.879</ele>
<time>2018-01-17T07:13:08.344Z</time>
</trkpt>
<trkpt lat="-27.1846017" lon="152.9333876">
<ele>39.097</ele>
<time>2018-01-17T07:13:11.981Z</time>
</trkpt>
<trkpt lat="-27.1846978" lon="152.9338220">
<ele>38.204</ele>
<time>2018-01-17T07:13:15.022Z</time>
</trkpt>
<trkpt lat="-27.1849803" lon="152.9340973">
<ele>36.502</ele>
<time>2018-01-17T07:13:18.079Z</time>
</trkpt>
<trkpt lat="-27.1852789" lon="152.9341541">
<ele>34.372</ele>
<time>2018-01-17T07:13:21.267Z</time>
</trkpt>
<trkpt lat="-27.1854755" lon="152.9342029">
<ele>31.906</ele>
<time>2018-01-17T07:13:24.333Z</time>
</trkpt>
<trkpt lat="-27.1855881" lon="152.9342882">
<ele>29.269</ele>
<time>2018-01-17T07:13:26.913Z</time>
</trkpt>
<trkpt lat="-27.1857200" lon="152.9342665">
<ele>27.004</ele>
<time>2018-01-17T07:13:29.526Z</time>
</trkpt>
<trkpt lat="-27.1857757" lon="152.9340442">
<ele>25.426</ele>
<time>2018-01-17T07:13:33.567Z</time>
</trkpt>
<trkpt lat="-27.1856192" lon="152.9339692">
<ele>24.414</ele>
<time>2018-01-17T07:13:36.849Z</time>
</trkpt>
<trkpt lat="-27.1855081" lon="152.9341763">
<ele>23.909</ele>
<time>2018-01-17T07:13:40.328Z</time>
</trkpt>
<trkpt lat="-27.1855113" lon="152.9344281">
<ele>23.910</ele>
<time>2018-01-17T07:13:43.292Z</time>
</trkpt>
<trkpt lat="-27.1854856" lon="152.9346941">
<ele>24.313</ele>
<time>2018-01-17T07:13:45.917Z</time>
</trkpt>
<trkpt lat="-27.1853909" lon="152.9350638">
<ele>24.899</ele>
<time>2018-01-17T07:13:49.261Z</time>
</trkpt>
<trkpt lat="-27.1852427" lon="152.9353693">
<ele>25.337</ele>
<time>2018-01-17T07:13:53.738Z</time>
</trkpt>
<trkpt lat="-27.1853711" lon="152.9353542">
<ele>25.489</ele>
<time>2018-01-17T07:13:55.864Z</time>
</trkpt>
<trkpt lat="-27.1854757" lon="152.9349554">
<ele>25.440</ele>
<time>2018-01-17T07:14:00.245Z</time>
</trkpt>
<trkpt lat="-27.1855868" lon="152.9345655">
<ele>25.298</ele>
<time>2018-01-17T07:14:03.594Z</time>
</trkpt>
<trkpt lat="-27.1857260" lon="152.9342917">
<ele>25.022</ele>
<time>2018-01-17T07:14:06.810Z</time>
</trkpt>
<trkpt lat="-27.1859108" lon="152.9342167">
<ele>24.558</ele>
<time>2018-01-17T07:14:09.701Z</time>
</trkpt>
<trkpt lat="-27.1860991" lon="152.9343061">
<ele>24.098</ele>
<time>2018-01-17T07:14:12.211Z</time>
</trkpt>
<trkpt lat="-27.1861873" lon="152.9346426">
<ele>23.876</ele>
<time>2018-01-17T07:14:15.097Z</time>
</trkpt>
<trkpt lat="-27.1862265" lon="152.9351006">
<ele>24.014</ele>
<time>2018-01-17T07:14:18.062Z</time>
</trkpt>
<trkpt lat="-27.1863136" lon="152.9356253">
<ele>24.595</ele>
<time>2018-01-17T07:14:20.999Z</time>
</trkpt>
<trkpt lat="-27.1864191" lon="152.9362229">
<ele>25.375</ele>
<time>2018-01-17T07:14:24.132Z</time>
</trkpt>
<trkpt lat="-27.1864900" lon="152.9367977">
<ele>25.923</ele>
<time>2018-01-17T07:14:27.175Z</time>
</trkpt>
<trkpt lat="-27.1865693" lon="152.9373272">
<ele>26.311</ele>
<time>2018-01-17T07:14:30.108Z</time>
</trkpt>
<trkpt lat="-27.1866344" lon="152.9378901">
<ele>27.246</ele>
<time>2018-01-17T07:14:33.245Z</time>
</trkpt>
<trkpt lat="-27.1867683" lon="152.9384086">
<ele>29.068</ele>
<time>2018-01-17T07:14:36.231Z</time>
</trkpt>
<trkpt lat="-27.1869808" lon="152.9389070">
<ele>31.413</ele>
<time>2018-01-17T07:14:39.306Z</time>
</trkpt>
<trkpt lat="-27.1873144" lon="152.9392924">
<ele>33.843</ele>
<time>2018-01-17T07:14:42.360Z</time>
</trkpt>
<trkpt lat="-27.1875977" lon="152.9396833">
<ele>36.113</ele>
<time>2018-01-17T07:14:45.242Z</time>
</trkpt>
<trkpt lat="-27.1879221" lon="152.9400826">
<ele>38.037</ele>
<time>2018-01-17T07:14:48.310Z</time>
</trkpt>
<trkpt lat="-27.1882093" lon="152.9404908">
<ele>39.555</ele>
<time>2018-01-17T07:14:51.316Z</time>
</trkpt>
<trkpt lat="-27.1885387" lon="152.9408185">
<ele>41.034</ele>
<time>2018-01-17T07:14:54.201Z</time>
</trkpt>
<trkpt lat="-27.1890196" lon="152.9409742">
<ele>43.238</ele>
<time>2018-01-17T07:14:57.486Z</time>
</trkpt>
<trkpt lat="-27.1894142" lon="152.9411999">
<ele>46.359</ele>
<time>2018-01-17T07:15:00.458Z</time>
</trkpt>
<trkpt lat="-27.1897953" lon="152.9414080">
<ele>49.711</ele>
<time>2018-01-17T07:15:03.338Z</time>
</trkpt>
<trkpt lat="-27.1902096" lon="152.9416558">
<ele>52.333</ele>
<time>2018-01-17T07:15:06.542Z</time>
</trkpt>
<trkpt lat="-27.1904813" lon="152.9420174">
<ele>53.848</ele>
<time>2018-01-17T07:15:09.410Z</time>
</trkpt>
<trkpt lat="-27.1907109" lon="152.9424362">
<ele>54.663</ele>
<time>2018-01-17T07:15:12.368Z</time>
</trkpt>
<trkpt lat="-27.1908887" lon="152.9428933">
<ele>55.415</ele>
<time>2018-01-17T07:15:15.352Z</time>
</trkpt>
<trkpt lat="-27.1911700" lon="152.9432994">
<ele>56.615</ele>
<time>2018-01-17T07:15:18.396Z</time>
</trkpt>
<trkpt lat="-27.1915634" lon="152.9435768">
<ele>58.300</ele>
<time>2018-01-17T07:15:21.455Z</time>
</trkpt>
<trkpt lat="-27.1919555" lon="152.9438649">
<ele>59.809</ele>
<time>2018-01-17T07:15:24.562Z</time>
</trkpt>
<trkpt lat="-27.1923180" lon="152.9441608">
<ele>60.606</ele>
<time>2018-01-17T07:15:27.586Z</time>
</trkpt>
<trkpt lat="-27.1926635" lon="152.9444331">
<ele>60.785</ele>
<time>2018-01-17T07:15:30.464Z</time>
</trkpt>
<trkpt lat="-27.1930288" lon="152.9447151">
<ele>60.697</ele>
<time>2018-01-17T07:15:33.460Z</time>
</trkpt>
<trkpt lat="-27.1933777" lon="152.9450022">
<ele>60.664</ele>
<time>2018-01-17T07:15:36.362Z</time>
</trkpt>
<trkpt lat="-27.1937525" lon="152.9452847">
<ele>60.965</ele>
<time>2018-01-17T07:15:39.451Z</time>
</trkpt>
<trkpt lat="-27.1939729" lon="152.9457057">
<ele>61.749</ele>
<time>2018-01-17T07:15:42.416Z</time>
</trkpt>
<trkpt lat="-27.1940170" lon="152.9462363">
<ele>62.846</ele>
<time>2018-01-17T07:15:45.561Z</time>
</trkpt>
<trkpt lat="-27.1941015" lon="152.9467354">
<ele>63.801</ele>
<time>2018-01-17T07:15:48.579Z</time>
</trkpt>
<trkpt lat="-27.1941529" lon="152.9472082">
<ele>64.201</ele>
<time>2018-01-17T07:15:51.446Z</time>
</trkpt>
<trkpt lat="-27.1941899" lon="152.9476885">
<ele>64.059</ele>
<time>2018-01-17T07:15:54.341Z</time>
</trkpt>
<trkpt lat="-27.1942970" lon="152.9481657">
<ele>63.941</ele>
<time>2018-01-17T07:15:57.274Z</time>
</trkpt>
<trkpt lat="-27.1944955" lon="152.9486294">
<ele>64.334</ele>
<time>2018-01-17T07:16:00.337Z</time>
</trkpt>
<trkpt lat="-27.1946558" lon="152.9490684">
<ele>65.072</ele>
<time>2018-01-17T07:16:03.179Z</time>
</trkpt>
<trkpt lat="-27.1948279" lon="152.9495154">
<ele>65.727</ele>
<time>2018-01-17T07:16:06.112Z</time>
</trkpt>
<trkpt lat="-27.1950540" lon="152.9499382">
<ele>66.083</ele>
<time>2018-01-17T07:16:09.051Z</time>
</trkpt>
<trkpt lat="-27.1953700" lon="152.9503324">
<ele>66.107</ele>
<time>2018-01-17T07:16:12.178Z</time>
</trkpt>
<trkpt lat="-27.1956740" lon="152.9507058">
<ele>65.818</ele>
<time>2018-01-17T07:16:15.183Z</time>
</trkpt>
<trkpt lat="-27.1959244" lon="152.9511109">
<ele>65.155</ele>
<time>2018-01-17T07:16:18.135Z</time>
</trkpt>
<trkpt lat="-27.1961096" lon="152.9515447">
<ele>64.165</ele>
<time>2018-01-17T07:16:21.015Z</time>
</trkpt>
<trkpt lat="-27.1964013" lon="152.9519288">
<ele>63.122</ele>
<time>2018-01-17T07:16:24.017Z</time>
</trkpt>
<trkpt lat="-27.1967251" lon="152.9523151">
<ele>62.327</ele>
<time>2018-01-17T07:16:27.171Z</time>
</trkpt>
<trkpt lat="-27.1969407" lon="152.9527248">
<ele>61.898</ele>
<time>2018-01-17T07:16:30.033Z</time>
</trkpt>
<trkpt lat="-27.1970183" lon="152.9532317">
<ele>61.724</ele>
<time>2018-01-17T07:16:33.129Z</time>
</trkpt>
<trkpt lat="-27.1969798" lon="152.9537375">
<ele>61.457</ele>
<time>2018-01-17T07:16:36.161Z</time>
</trkpt>
<trkpt lat="-27.1968309" lon="152.9541939">
<ele>60.683</ele>
<time>2018-01-17T07:16:39.062Z</time>
</trkpt>
<trkpt lat="-27.1967086" lon="152.9546931">
<ele>59.388</ele>
<time>2018-01-17T07:16:42.127Z</time>
</trkpt>
<trkpt lat="-27.1966205" lon="152.9552035">
<ele>58.139</ele>
<time>2018-01-17T07:16:45.147Z</time>
</trkpt>
<trkpt lat="-27.1966727" lon="152.9557406">
<ele>57.220</ele>
<time>2018-01-17T07:16:48.288Z</time>
</trkpt>
<trkpt lat="-27.1967411" lon="152.9562450">
<ele>56.181</ele>
<time>2018-01-17T07:16:51.291Z</time>
</trkpt>
<trkpt lat="-27.1969327" lon="152.9566911">
<ele>54.565</ele>
<time>2018-01-17T07:16:54.215Z</time>
</trkpt>
<trkpt lat="-27.1971135" lon="152.9571549">
<ele>52.236</ele>
<time>2018-01-17T07:16:57.427Z</time>
</trkpt>
<trkpt lat="-27.1972084" lon="152.9575479">
<ele>49.474</ele>
<time>2018-01-17T07:17:00.437Z</time>
</trkpt>
<trkpt lat="-27.1975463" lon="152.9575774">
<ele>47.060</ele>
<time>2018-01-17T07:17:03.045Z</time>
</trkpt>
<trkpt lat="-27.1980575" lon="152.9574880">
<ele>45.569</ele>
<time>2018-01-17T07:17:06.364Z</time>
</trkpt>
<trkpt lat="-27.1986284" lon="152.9575085">
<ele>44.877</ele>
<time>2018-01-17T07:17:09.773Z</time>
</trkpt>
<trkpt lat="-27.1991406" lon="152.9575051">
<ele>44.559</ele>
<time>2018-01-17T07:17:13.010Z</time>
</trkpt>
<trkpt lat="-27.1995874" lon="152.9575050">
<ele>44.120</ele>
<time>2018-01-17T07:17:15.982Z</time>
</trkpt>
<trkpt lat="-27.2000393" lon="152.9575433">
<ele>43.148</ele>
<time>2018-01-17T07:17:19.009Z</time>
</trkpt>
<trkpt lat="-27.2004515" lon="152.9577051">
<ele>41.604</ele>
<time>2018-01-17T07:17:22.126Z</time>
</trkpt>
<trkpt lat="-27.2007932" lon="152.9578828">
<ele>39.992</ele>
<time>2018-01-17T07:17:25.062Z</time>
</trkpt>
<trkpt lat="-27.2011014" lon="152.9580578">
<ele>38.928</ele>
<time>2018-01-17T07:17:27.819Z</time>
</trkpt>
<trkpt lat="-27.2014135" lon="152.9582408">
<ele>38.578</ele>
<time>2018-01-17T07:17:30.621Z</time>
</trkpt>
<trkpt lat="-27.2016996" lon="152.9585095">
<ele>38.901</ele>
<time>2018-01-17T07:17:33.571Z</time>
</trkpt>
<trkpt lat="-27.2019459" lon="152.9588314">
<ele>39.978</ele>
<time>2018-01-17T07:17:36.545Z</time>
</trkpt>
<trkpt lat="-27.2021816" lon="152.9591759">
<ele>41.515</ele>
<time>2018-01-17T07:17:39.591Z</time>
</trkpt>
<trkpt lat="-27.2024296" lon="152.9594774">
<ele>42.983</ele>
<time>2018-01-17T07:17:42.473Z</time>
</trkpt>
<trkpt lat="-27.2026640" lon="152.9598186">
<ele>44.292</ele>
<time>2018-01-17T07:17:45.483Z</time>
</trkpt>
<trkpt lat="-27.2029282" lon="152.9601545">
<ele>45.454</ele>
<time>2018-01-17T07:17:48.596Z</time>
</trkpt>
<trkpt lat="-27.2032173" lon="152.9604501">
<ele>46.234</ele>
<time>2018-01-17T07:17:51.652Z</time>
</trkpt>
<trkpt lat="-27.2034852" lon="152.9607315">
<ele>46.558</ele>
<time>2018-01-17T07:17:54.543Z</time>
</trkpt>
<trkpt lat="-27.2037503" lon="152.9610419">
<ele>46.507</ele>
<time>2018-01-17T07:17:57.577Z</time>
</trkpt>
<trkpt lat="-27.2039761" lon="152.9613878">
<ele>46.003</ele>
<time>2018-01-17T07:18:00.609Z</time>
</trkpt>
<trkpt lat="-27.2041962" lon="152.9617219">
<ele>45.136</ele>
<time>2018-01-17T07:18:03.545Z</time>
</trkpt>
<trkpt lat="-27.2043804" lon="152.9620939">
<ele>44.369</ele>
<time>2018-01-17T07:18:06.526Z</time>
</trkpt>
<trkpt lat="-27.2046074" lon="152.9624576">
<ele>44.202</ele>
<time>2018-01-17T07:18:09.592Z</time>
</trkpt>
<trkpt lat="-27.2047818" lon="152.9626569">
<ele>44.729</ele>
<time>2018-01-17T07:18:11.496Z</time>
</trkpt>
<trkpt lat="-27.2051005" lon="152.9629418">
<ele>45.562</ele>
<time>2018-01-17T07:18:14.333Z</time>
</trkpt>
<trkpt lat="-27.2055207" lon="152.9632614">
<ele>46.210</ele>
<time>2018-01-17T07:18:17.541Z</time>
</trkpt>
<trkpt lat="-27.2059070" lon="152.9635482">
<ele>46.309</ele>
<time>2018-01-17T07:18:20.398Z</time>
</trkpt>
<trkpt lat="-27.2063092" lon="152.9638376">
<ele>45.830</ele>
<time>2018-01-17T07:18:23.190Z</time>
</trkpt>
<trkpt lat="-27.2068011" lon="152.9642054">
<ele>45.371</ele>
<time>2018-01-17T07:18:26.327Z</time>
</trkpt>
<trkpt lat="-27.2073241" lon="152.9645810">
<ele>45.398</ele>
<time>2018-01-17T07:18:29.411Z</time>
</trkpt>
<trkpt lat="-27.2078568" lon="152.9649323">
<ele>45.603</ele>
<time>2018-01-17T07:18:32.448Z</time>
</trkpt>
<trkpt lat="-27.2084353" lon="152.9651368">
<ele>45.461</ele>
<time>2018-01-17T07:18:35.456Z</time>
</trkpt>
<trkpt lat="-27.2090586" lon="152.9652742">
<ele>44.725</ele>
<time>2018-01-17T07:18:38.628Z</time>
</trkpt>
<trkpt lat="-27.2096658" lon="152.9653832">
<ele>43.550</ele>
<time>2018-01-17T07:18:41.703Z</time>
</trkpt>
<trkpt lat="-27.2102819" lon="152.9653719">
<ele>42.414</ele>
<time>2018-01-17T07:18:44.736Z</time>
</trkpt>
<trkpt lat="-27.2109112" lon="152.9652861">
<ele>41.704</ele>
<time>2018-01-17T07:18:47.838Z</time>
</trkpt>
<trkpt lat="-27.2115290" lon="152.9652293">
<ele>41.357</ele>
<time>2018-01-17T07:18:50.911Z</time>
</trkpt>
<trkpt lat="-27.2121511" lon="152.9652666">
<ele>40.932</ele>
<time>2018-01-17T07:18:53.993Z</time>
</trkpt>
<trkpt lat="-27.2127698" lon="152.9653856">
<ele>40.201</ele>
<time>2018-01-17T07:18:57.080Z</time>
</trkpt>
<trkpt lat="-27.2133528" lon="152.9655596">
<ele>39.299</ele>
<time>2018-01-17T07:19:00.052Z</time>
</trkpt>
<trkpt lat="-27.2139103" lon="152.9657631">
<ele>38.392</ele>
<time>2018-01-17T07:19:02.963Z</time>
</trkpt>
<trkpt lat="-27.2144351" lon="152.9660503">
<ele>37.661</ele>
<time>2018-01-17T07:19:05.881Z</time>
</trkpt>
<trkpt lat="-27.2149238" lon="152.9663684">
<ele>37.277</ele>
<time>2018-01-17T07:19:08.705Z</time>
</trkpt>
<trkpt lat="-27.2154126" lon="152.9667738">
<ele>37.449</ele>
<time>2018-01-17T07:19:11.734Z</time>
</trkpt>
<trkpt lat="-27.2158220" lon="152.9672700">
<ele>38.675</ele>
<time>2018-01-17T07:19:14.735Z</time>
</trkpt>
<trkpt lat="-27.2162561" lon="152.9677388">
<ele>41.036</ele>
<time>2018-01-17T07:19:17.746Z</time>
</trkpt>
<trkpt lat="-27.2167160" lon="152.9681532">
<ele>43.693</ele>
<time>2018-01-17T07:19:20.696Z</time>
</trkpt>
<trkpt lat="-27.2172566" lon="152.9684158">
<ele>45.777</ele>
<time>2018-01-17T07:19:23.629Z</time>
</trkpt>
<trkpt lat="-27.2178450" lon="152.9686526">
<ele>47.016</ele>
<time>2018-01-17T07:19:26.749Z</time>
</trkpt>
<trkpt lat="-27.2184087" lon="152.9689056">
<ele>47.428</ele>
<time>2018-01-17T07:19:29.814Z</time>
</trkpt>
<trkpt lat="-27.2189413" lon="152.9691560">
<ele>47.023</ele>
<time>2018-01-17T07:19:32.738Z</time>
</trkpt>
<trkpt lat="-27.2195002" lon="152.9694045">
<ele>45.834</ele>
<time>2018-01-17T07:19:35.782Z</time>
</trkpt>
<trkpt lat="-27.2200504" lon="152.9696419">
<ele>43.964</ele>
<time>2018-01-17T07:19:38.821Z</time>
</trkpt>
<trkpt lat="-27.2205840" lon="152.9698600">
<ele>41.576</ele>
<time>2018-01-17T07:19:41.813Z</time>
</trkpt>
<trkpt lat="-27.2211265" lon="152.9700061">
<ele>39.024</ele>
<time>2018-01-17T07:19:44.739Z</time>
</trkpt>
<trkpt lat="-27.2216977" lon="152.9700739">
<ele>36.818</ele>
<time>2018-01-17T07:19:47.756Z</time>
</trkpt>
<trkpt lat="-27.2222818" lon="152.9700419">
<ele>35.328</ele>
<time>2018-01-17T07:19:50.905Z</time>
</trkpt>
<trkpt lat="-27.2228419" lon="152.9700609">
<ele>34.593</ele>
<time>2018-01-17T07:19:53.990Z</time>
</trkpt>
<trkpt lat="-27.2233502" lon="152.9702542">
<ele>34.296</ele>
<time>2018-01-17T07:19:57.020Z</time>
</trkpt>
<trkpt lat="-27.2237971" lon="152.9705385">
<ele>34.122</ele>
<time>2018-01-17T07:19:59.979Z</time>
</trkpt>
<trkpt lat="-27.2242072" lon="152.9708966">
<ele>34.080</ele>
<time>2018-01-17T07:20:02.949Z</time>
</trkpt>
<trkpt lat="-27.2245266" lon="152.9713869">
<ele>34.342</ele>
<time>2018-01-17T07:20:06.007Z</time>
</trkpt>
<trkpt lat="-27.2247483" lon="152.9719336">
<ele>35.114</ele>
<time>2018-01-17T07:20:09.065Z</time>
</trkpt>
<trkpt lat="-27.2249792" lon="152.9724461">
<ele>36.409</ele>
<time>2018-01-17T07:20:12.032Z</time>
</trkpt>
<trkpt lat="-27.2252279" lon="152.9729589">
<ele>37.940</ele>
<time>2018-01-17T07:20:15.017Z</time>
</trkpt>
<trkpt lat="-27.2255928" lon="152.9733888">
<ele>39.273</ele>
<time>2018-01-17T07:20:17.973Z</time>
</trkpt>
<trkpt lat="-27.2260353" lon="152.9737658">
<ele>40.078</ele>
<time>2018-01-17T07:20:21.053Z</time>
</trkpt>
<trkpt lat="-27.2264914" lon="152.9740513">
<ele>40.531</ele>
<time>2018-01-17T07:20:24.003Z</time>
</trkpt>
<trkpt lat="-27.2269896" lon="152.9741589">
<ele>41.215</ele>
<time>2018-01-17T07:20:26.859Z</time>
</trkpt>
<trkpt lat="-27.2275580" lon="152.9741250">
<ele>42.205</ele>
<time>2018-01-17T07:20:29.977Z</time>
</trkpt>
<trkpt lat="-27.2281221" lon="152.9741273">
<ele>43.002</ele>
<time>2018-01-17T07:20:33.061Z</time>
</trkpt>
<trkpt lat="-27.2286569" lon="152.9742767">
<ele>43.080</ele>
<time>2018-01-17T07:20:36.128Z</time>
</trkpt>
<trkpt lat="-27.2291254" lon="152.9745349">
<ele>42.357</ele>
<time>2018-01-17T07:20:39.101Z</time>
</trkpt>
<trkpt lat="-27.2295661" lon="152.9747997">
<ele>41.384</ele>
<time>2018-01-17T07:20:42.059Z</time>
</trkpt>
<trkpt lat="-27.2300029" lon="152.9750570">
<ele>40.932</ele>
<time>2018-01-17T07:20:45.094Z</time>
</trkpt>
<trkpt lat="-27.2304257" lon="152.9752870">
<ele>41.279</ele>
<time>2018-01-17T07:20:48.081Z</time>
</trkpt>
<trkpt lat="-27.2308289" lon="152.9755070">
<ele>42.200</ele>
<time>2018-01-17T07:20:51.046Z</time>
</trkpt>
<trkpt lat="-27.2312165" lon="152.9757399">
<ele>43.198</ele>
<time>2018-01-17T07:20:54.025Z</time>
</trkpt>
<trkpt lat="-27.2316034" lon="152.9759215">
<ele>43.806</ele>
<time>2018-01-17T07:20:56.852Z</time>
</trkpt>
<trkpt lat="-27.2320056" lon="152.9761640">
<ele>43.900</ele>
<time>2018-01-17T07:20:59.751Z</time>
</trkpt>
<trkpt lat="-27.2324772" lon="152.9763527">
<ele>43.725</ele>
<time>2018-01-17T07:21:02.682Z</time>
</trkpt>
<trkpt lat="-27.2330036" lon="152.9764888">
<ele>43.516</ele>
<time>2018-01-17T07:21:05.757Z</time>
</trkpt>
<trkpt lat="-27.2335186" lon="152.9765864">
<ele>43.316</ele>
<time>2018-01-17T07:21:08.858Z</time>
</trkpt>
<trkpt lat="-27.2339942" lon="152.9766200">
<ele>43.122</ele>
<time>2018-01-17T07:21:11.916Z</time>
</trkpt>
<trkpt lat="-27.2344217" lon="152.9765322">
<ele>43.223</ele>
<time>2018-01-17T07:21:14.859Z</time>
</trkpt>
<trkpt lat="-27.2348433" lon="152.9763322">
<ele>44.070</ele>
<time>2018-01-17T07:21:17.940Z</time>
</trkpt>
<trkpt lat="-27.2352744" lon="152.9761296">
<ele>45.612</ele>
<time>2018-01-17T07:21:20.952Z</time>
</trkpt>
<trkpt lat="-27.2357466" lon="152.9759841">
<ele>47.259</ele>
<time>2018-01-17T07:21:23.968Z</time>
</trkpt>
<trkpt lat="-27.2362197" lon="152.9758706">
<ele>48.603</ele>
<time>2018-01-17T07:21:26.870Z</time>
</trkpt>
<trkpt lat="-27.2367175" lon="152.9757364">
<ele>49.710</ele>
<time>2018-01-17T07:21:29.879Z</time>
</trkpt>
<trkpt lat="-27.2372328" lon="152.9756405">
<ele>50.734</ele>
<time>2018-01-17T07:21:32.837Z</time>
</trkpt>
<trkpt lat="-27.2377914" lon="152.9755419">
<ele>51.677</ele>
<time>2018-01-17T07:21:35.969Z</time>
</trkpt>
<trkpt lat="-27.2383199" lon="152.9754719">
<ele>52.413</ele>
<time>2018-01-17T07:21:38.972Z</time>
</trkpt>
<trkpt lat="-27.2388234" lon="152.9754480">
<ele>52.695</ele>
<time>2018-01-17T07:21:41.855Z</time>
</trkpt>
<trkpt lat="-27.2393429" lon="152.9753515">
<ele>52.233</ele>
<time>2018-01-17T07:21:44.847Z</time>
</trkpt>
<trkpt lat="-27.2398468" lon="152.9751421">
<ele>50.977</ele>
<time>2018-01-17T07:21:47.891Z</time>
</trkpt>
<trkpt lat="-27.2403395" lon="152.9749313">
<ele>49.232</ele>
<time>2018-01-17T07:21:50.885Z</time>
</trkpt>
<trkpt lat="-27.2408309" lon="152.9747091">
<ele>47.478</ele>
<time>2018-01-17T07:21:53.949Z</time>
</trkpt>
<trkpt lat="-27.2412402" lon="152.9743856">
<ele>46.169</ele>
<time>2018-01-17T07:21:56.924Z</time>
</trkpt>
<trkpt lat="-27.2415288" lon="152.9739177">
<ele>45.659</ele>
<time>2018-01-17T07:21:59.974Z</time>
</trkpt>
<trkpt lat="-27.2418364" lon="152.9734575">
<ele>45.872</ele>
<time>2018-01-17T07:22:03.083Z</time>
</trkpt>
<trkpt lat="-27.2421581" lon="152.9730472">
<ele>46.279</ele>
<time>2018-01-17T07:22:05.966Z</time>
</trkpt>
<trkpt lat="-27.2425873" lon="152.9726978">
<ele>46.191</ele>
<time>2018-01-17T07:22:08.891Z</time>
</trkpt>
<trkpt lat="-27.2430944" lon="152.9723990">
<ele>45.083</ele>
<time>2018-01-17T07:22:11.871Z</time>
</trkpt>
<trkpt lat="-27.2436501" lon="152.9721690">
<ele>42.996</ele>
<time>2018-01-17T07:22:14.908Z</time>
</trkpt>
<trkpt lat="-27.2442204" lon="152.9720351">
<ele>40.700</ele>
<time>2018-01-17T07:22:17.921Z</time>
</trkpt>
<trkpt lat="-27.2447874" lon="152.9719690">
<ele>39.033</ele>
<time>2018-01-17T07:22:20.901Z</time>
</trkpt>
<trkpt lat="-27.2453399" lon="152.9719919">
<ele>38.075</ele>
<time>2018-01-17T07:22:23.849Z</time>
</trkpt>
<trkpt lat="-27.2458836" lon="152.9720242">
<ele>37.354</ele>
<time>2018-01-17T07:22:26.835Z</time>
</trkpt>
<trkpt lat="-27.2464106" lon="152.9720422">
<ele>36.727</ele>
<time>2018-01-17T07:22:29.898Z</time>
</trkpt>
<trkpt lat="-27.2468650" lon="152.9720650">
<ele>36.569</ele>
<time>2018-01-17T07:22:33.168Z</time>
</trkpt>
<trkpt lat="-27.2472101" lon="152.9720399">
<ele>37.227</ele>
<time>2018-01-17T07:22:37.304Z</time>
</trkpt>
<trkpt lat="-27.2474031" lon="152.9720918">
<ele>38.692</ele>
<time>2018-01-17T07:22:40.954Z</time>
</trkpt>
<trkpt lat="-27.2474937" lon="152.9720725">
<ele>40.781</ele>
<time>2018-01-17T07:22:42.588Z</time>
</trkpt>
<trkpt lat="-27.2475939" lon="152.9718220">
<ele>43.275</ele>
<time>2018-01-17T07:22:45.133Z</time>
</trkpt>
<trkpt lat="-27.2476923" lon="152.9713826">
<ele>45.816</ele>
<time>2018-01-17T07:22:48.256Z</time>
</trkpt>
<trkpt lat="-27.2478929" lon="152.9709220">
<ele>47.848</ele>
<time>2018-01-17T07:22:51.223Z</time>
</trkpt>
<trkpt lat="-27.2481574" lon="152.9704310">
<ele>48.885</ele>
<time>2018-01-17T07:22:54.401Z</time>
</trkpt>
<trkpt lat="-27.2483710" lon="152.9699548">
<ele>48.675</ele>
<time>2018-01-17T07:22:57.385Z</time>
</trkpt>
<trkpt lat="-27.2485628" lon="152.9694860">
<ele>47.224</ele>
<time>2018-01-17T07:23:00.338Z</time>
</trkpt>
<trkpt lat="-27.2487476" lon="152.9690358">
<ele>45.194</ele>
<time>2018-01-17T07:23:03.117Z</time>
</trkpt>
<trkpt lat="-27.2489630" lon="152.9685081">
<ele>43.336</ele>
<time>2018-01-17T07:23:06.202Z</time>
</trkpt>
<trkpt lat="-27.2492124" lon="152.9679843">
<ele>41.557</ele>
<time>2018-01-17T07:23:09.245Z</time>
</trkpt>
<trkpt lat="-27.2494542" lon="152.9674393">
<ele>39.492</ele>
<time>2018-01-17T07:23:12.272Z</time>
</trkpt>
<trkpt lat="-27.2497084" lon="152.9669005">
<ele>37.025</ele>
<time>2018-01-17T07:23:15.222Z</time>
</trkpt>
<trkpt lat="-27.2499440" lon="152.9663548">
<ele>34.075</ele>
<time>2018-01-17T07:23:18.106Z</time>
</trkpt>
<trkpt lat="-27.2502031" lon="152.9657719">
<ele>30.858</ele>
<time>2018-01-17T07:23:21.151Z</time>
</trkpt>
<trkpt lat="-27.2504566" lon="152.9652081">
<ele>27.886</ele>
<time>2018-01-17T07:23:24.092Z</time>
</trkpt>
<trkpt lat="-27.2506835" lon="152.9646360">
<ele>25.414</ele>
<time>2018-01-17T07:23:27.077Z</time>
</trkpt>
<trkpt lat="-27.2509024" lon="152.9640883">
<ele>23.284</ele>
<time>2018-01-17T07:23:30.007Z</time>
</trkpt>
<trkpt lat="-27.2511248" lon="152.9635391">
<ele>21.502</ele>
<time>2018-01-17T07:23:32.938Z</time>
</trkpt>
<trkpt lat="-27.2513824" lon="152.9629570">
<ele>20.376</ele>
<time>2018-01-17T07:23:36.116Z</time>
</trkpt>
<trkpt lat="-27.2515722" lon="152.9624649">
<ele>20.147</ele>
<time>2018-01-17T07:23:38.951Z</time>
</trkpt>
<trkpt lat="-27.2517976" lon="152.9621051">
<ele>20.792</ele>
<time>2018-01-17T07:23:41.471Z</time>
</trkpt>
<trkpt lat="-27.2520192" lon="152.9616662">
<ele>21.865</ele>
<time>2018-01-17T07:23:44.447Z</time>
</trkpt>
<trkpt lat="-27.2523264" lon="152.9612762">
<ele>22.700</ele>
<time>2018-01-17T07:23:47.479Z</time>
</trkpt>
<trkpt lat="-27.2527183" lon="152.9610097">
<ele>23.110</ele>
<time>2018-01-17T07:23:50.435Z</time>
</trkpt>
<trkpt lat="-27.2531944" lon="152.9608391">
<ele>23.551</ele>
<time>2018-01-17T07:23:53.651Z</time>
</trkpt>
<trkpt lat="-27.2536628" lon="152.9607899">
<ele>24.275</ele>
<time>2018-01-17T07:23:56.716Z</time>
</trkpt>
<trkpt lat="-27.2541083" lon="152.9608897">
<ele>24.777</ele>
<time>2018-01-17T07:23:59.704Z</time>
</trkpt>
<trkpt lat="-27.2545228" lon="152.9610643">
<ele>24.639</ele>
<time>2018-01-17T07:24:02.619Z</time>
</trkpt>
<trkpt lat="-27.2549300" lon="152.9613017">
<ele>24.202</ele>
<time>2018-01-17T07:24:05.626Z</time>
</trkpt>
<trkpt lat="-27.2553299" lon="152.9615324">
<ele>24.151</ele>
<time>2018-01-17T07:24:08.562Z</time>
</trkpt>
<trkpt lat="-27.2557389" lon="152.9617617">
<ele>24.990</ele>
<time>2018-01-17T07:24:11.538Z</time>
</trkpt>
<trkpt lat="-27.2561620" lon="152.9619975">
<ele>26.507</ele>
<time>2018-01-17T07:24:14.592Z</time>
</trkpt>
<trkpt lat="-27.2565771" lon="152.9622117">
<ele>27.929</ele>
<time>2018-01-17T07:24:17.530Z</time>
</trkpt>
<trkpt lat="-27.2570119" lon="152.9624465">
<ele>28.827</ele>
<time>2018-01-17T07:24:20.621Z</time>
</trkpt>
<trkpt lat="-27.2574311" lon="152.9626952">
<ele>29.394</ele>
<time>2018-01-17T07:24:23.615Z</time>
</trkpt>
<trkpt lat="-27.2578705" lon="152.9629553">
<ele>30.020</ele>
<time>2018-01-17T07:24:26.658Z</time>
</trkpt>
<trkpt lat="-27.2583347" lon="152.9631923">
<ele>30.737</ele>
<time>2018-01-17T07:24:29.754Z</time>
</trkpt>
<trkpt lat="-27.2587574" lon="152.9634078">
<ele>31.090</ele>
<time>2018-01-17T07:24:32.668Z</time>
</trkpt>
<trkpt lat="-27.2591740" lon="152.9636192">
<ele>30.682</ele>
<time>2018-01-17T07:24:35.644Z</time>
</trkpt>
<trkpt lat="-27.2595708" lon="152.9638519">
<ele>29.664</ele>
<time>2018-01-17T07:24:38.586Z</time>
</trkpt>
<trkpt lat="-27.2599830" lon="152.9640727">
<ele>28.563</ele>
<time>2018-01-17T07:24:41.579Z</time>
</trkpt>
<trkpt lat="-27.2603912" lon="152.9642823">
<ele>27.727</ele>
<time>2018-01-17T07:24:44.547Z</time>
</trkpt>
<trkpt lat="-27.2607658" lon="152.9645374">
<ele>27.210</ele>
<time>2018-01-17T07:24:47.466Z</time>
</trkpt>
<trkpt lat="-27.2611723" lon="152.9647469">
<ele>27.004</ele>
<time>2018-01-17T07:24:50.431Z</time>
</trkpt>
<trkpt lat="-27.2615738" lon="152.9649714">
<ele>27.030</ele>
<time>2018-01-17T07:24:53.373Z</time>
</trkpt>
<trkpt lat="-27.2619661" lon="152.9652079">
<ele>27.060</ele>
<time>2018-01-17T07:24:56.266Z</time>
</trkpt>
<trkpt lat="-27.2624088" lon="152.9654163">
<ele>26.882</ele>
<time>2018-01-17T07:24:59.354Z</time>
</trkpt>
<trkpt lat="-27.2628467" lon="152.9656396">
<ele>26.481</ele>
<time>2018-01-17T07:25:02.435Z</time>
</trkpt>
<trkpt lat="-27.2632749" lon="152.9658294">
<ele>25.910</ele>
<time>2018-01-17T07:25:05.419Z</time>
</trkpt>
<trkpt lat="-27.2636629" lon="152.9660543">
<ele>25.208</ele>
<time>2018-01-17T07:25:08.394Z</time>
</trkpt>
<trkpt lat="-27.2639623" lon="152.9662631">
<ele>24.570</ele>
<time>2018-01-17T07:25:11.141Z</time>
</trkpt>
<trkpt lat="-27.2642372" lon="152.9663485">
<ele>24.437</ele>
<time>2018-01-17T07:25:13.932Z</time>
</trkpt>
<trkpt lat="-27.2643598" lon="152.9663466">
<ele>25.196</ele>
<time>2018-01-17T07:25:15.662Z</time>
</trkpt>
<trkpt lat="-27.2644149" lon="152.9662319">
<ele>26.543</ele>
<time>2018-01-17T07:25:18.001Z</time>
</trkpt>
<trkpt lat="-27.2644149" lon="152.9662319">
<ele>27.644</ele>
<time>2018-01-17T07:25:21.001Z</time>
</trkpt>
<trkpt lat="-27.2644149" lon="152.9662319">
<ele>28.064</ele>
<time>2018-01-17T07:25:29.989Z</time>
</trkpt>
<trkpt lat="-27.2646516" lon="152.9662429">
<ele>27.986</ele>
<time>2018-01-17T07:25:34.491Z</time>
</trkpt>
<trkpt lat="-27.2648954" lon="152.9662636">
<ele>28.576</ele>
<time>2018-01-17T07:25:37.650Z</time>
</trkpt>
<trkpt lat="-27.2650328" lon="152.9660304">
<ele>30.835</ele>
<time>2018-01-17T07:25:40.842Z</time>
</trkpt>
<trkpt lat="-27.2649100" lon="152.9657799">
<ele>33.898</ele>
<time>2018-01-17T07:25:43.734Z</time>
</trkpt>
<trkpt lat="-27.2645656" lon="152.9655886">
<ele>36.280</ele>
<time>2018-01-17T07:25:47.266Z</time>
</trkpt>
<trkpt lat="-27.2643835" lon="152.9651932">
<ele>37.646</ele>
<time>2018-01-17T07:25:50.285Z</time>
</trkpt>
<trkpt lat="-27.2642173" lon="152.9647643">
<ele>38.312</ele>
<time>2018-01-17T07:25:53.280Z</time>
</trkpt>
<trkpt lat="-27.2640480" lon="152.9643574">
<ele>38.662</ele>
<time>2018-01-17T07:25:56.116Z</time>
</trkpt>
<trkpt lat="-27.2638930" lon="152.9639176">
<ele>38.937</ele>
<time>2018-01-17T07:25:59.060Z</time>
</trkpt>
<trkpt lat="-27.2637231" lon="152.9634810">
<ele>39.192</ele>
<time>2018-01-17T07:26:01.977Z</time>
</trkpt>
<trkpt lat="-27.2635559" lon="152.9630349">
<ele>39.260</ele>
<time>2018-01-17T07:26:04.870Z</time>
</trkpt>
<trkpt lat="-27.2634227" lon="152.9625482">
<ele>38.754</ele>
<time>2018-01-17T07:26:07.829Z</time>
</trkpt>
<trkpt lat="-27.2633452" lon="152.9620105">
<ele>37.303</ele>
<time>2018-01-17T07:26:10.925Z</time>
</trkpt>
<trkpt lat="-27.2632367" lon="152.9615066">
<ele>35.087</ele>
<time>2018-01-17T07:26:13.851Z</time>
</trkpt>
<trkpt lat="-27.2632339" lon="152.9609703">
<ele>32.736</ele>
<time>2018-01-17T07:26:16.901Z</time>
</trkpt>
<trkpt lat="-27.2632093" lon="152.9604587">
<ele>30.397</ele>
<time>2018-01-17T07:26:19.868Z</time>
</trkpt>
<trkpt lat="-27.2631819" lon="152.9599557">
<ele>27.720</ele>
<time>2018-01-17T07:26:22.860Z</time>
</trkpt>
<trkpt lat="-27.2632059" lon="152.9594638">
<ele>24.758</ele>
<time>2018-01-17T07:26:25.908Z</time>
</trkpt>
<trkpt lat="-27.2631878" lon="152.9590181">
<ele>22.229</ele>
<time>2018-01-17T07:26:28.869Z</time>
</trkpt>
<trkpt lat="-27.2631119" lon="152.9586088">
<ele>20.784</ele>
<time>2018-01-17T07:26:31.877Z</time>
</trkpt>
<trkpt lat="-27.2630153" lon="152.9582694">
<ele>20.251</ele>
<time>2018-01-17T07:26:34.550Z</time>
</trkpt>
<trkpt lat="-27.2628553" lon="152.9579142">
<ele>19.939</ele>
<time>2018-01-17T07:26:37.632Z</time>
</trkpt>
<trkpt lat="-27.2628159" lon="152.9575859">
<ele>19.522</ele>
<time>2018-01-17T07:26:40.311Z</time>
</trkpt>
<trkpt lat="-27.2630006" lon="152.9573762">
<ele>19.054</ele>
<time>2018-01-17T07:26:42.637Z</time>
</trkpt>
<trkpt lat="-27.2634003" lon="152.9570845">
<ele>18.399</ele>
<time>2018-01-17T07:26:46.146Z</time>
</trkpt>
<trkpt lat="-27.2638391" lon="152.9568914">
<ele>17.166</ele>
<time>2018-01-17T07:26:49.217Z</time>
</trkpt>
<trkpt lat="-27.2642408" lon="152.9567004">
<ele>15.362</ele>
<time>2018-01-17T07:26:52.065Z</time>
</trkpt>
<trkpt lat="-27.2646799" lon="152.9565128">
<ele>13.257</ele>
<time>2018-01-17T07:26:55.200Z</time>
</trkpt>
<trkpt lat="-27.2650769" lon="152.9563764">
<ele>11.031</ele>
<time>2018-01-17T07:26:57.997Z</time>
</trkpt>
<trkpt lat="-27.2654777" lon="152.9561917">
<ele>9.184</ele>
<time>2018-01-17T07:27:00.921Z</time>
</trkpt>
<trkpt lat="-27.2659564" lon="152.9561515">
<ele>8.237</ele>
<time>2018-01-17T07:27:04.119Z</time>
</trkpt>
<trkpt lat="-27.2664127" lon="152.9563529">
<ele>7.989</ele>
<time>2018-01-17T07:27:07.388Z</time>
</trkpt>
<trkpt lat="-27.2667964" lon="152.9565924">
<ele>7.539</ele>
<time>2018-01-17T07:27:10.548Z</time>
</trkpt>
<trkpt lat="-27.2671356" lon="152.9565673">
<ele>6.103</ele>
<time>2018-01-17T07:27:13.370Z</time>
</trkpt>
<trkpt lat="-27.2674260" lon="152.9563967">
<ele>4.020</ele>
<time>2018-01-17T07:27:16.340Z</time>
</trkpt>
<trkpt lat="-27.2675939" lon="152.9560547">
<ele>2.252</ele>
<time>2018-01-17T07:27:19.332Z</time>
</trkpt>
<trkpt lat="-27.2676123" lon="152.9555699">
<ele>1.236</ele>
<time>2018-01-17T07:27:22.607Z</time>
</trkpt>
<trkpt lat="-27.2676097" lon="152.9550655">
<ele>1.016</ele>
<time>2018-01-17T07:27:25.706Z</time>
</trkpt>
<trkpt lat="-27.2676009" lon="152.9545613">
<ele>1.648</ele>
<time>2018-01-17T07:27:28.758Z</time>
</trkpt>
<trkpt lat="-27.2676538" lon="152.9540943">
<ele>3.116</ele>
<time>2018-01-17T07:27:31.694Z</time>
</trkpt>
<trkpt lat="-27.2678062" lon="152.9536881">
<ele>5.219</ele>
<time>2018-01-17T07:27:34.428Z</time>
</trkpt>
<trkpt lat="-27.2682921" lon="152.9535173">
<ele>7.795</ele>
<time>2018-01-17T07:27:37.754Z</time>
</trkpt>
<trkpt lat="-27.2687728" lon="152.9533416">
<ele>10.760</ele>
<time>2018-01-17T07:27:40.914Z</time>
</trkpt>
<trkpt lat="-27.2692041" lon="152.9531778">
<ele>13.619</ele>
<time>2018-01-17T07:27:43.814Z</time>
</trkpt>
<trkpt lat="-27.2696449" lon="152.9530075">
<ele>15.571</ele>
<time>2018-01-17T07:27:46.856Z</time>
</trkpt>
<trkpt lat="-27.2700633" lon="152.9528544">
<ele>16.346</ele>
<time>2018-01-17T07:27:49.729Z</time>
</trkpt>
<trkpt lat="-27.2704943" lon="152.9526315">
<ele>16.367</ele>
<time>2018-01-17T07:27:52.782Z</time>
</trkpt>
<trkpt lat="-27.2709293" lon="152.9524610">
<ele>16.153</ele>
<time>2018-01-17T07:27:55.766Z</time>
</trkpt>
<trkpt lat="-27.2713603" lon="152.9522887">
<ele>15.846</ele>
<time>2018-01-17T07:27:58.826Z</time>
</trkpt>
<trkpt lat="-27.2717839" lon="152.9521412">
<ele>15.402</ele>
<time>2018-01-17T07:28:01.892Z</time>
</trkpt>
<trkpt lat="-27.2721764" lon="152.9519909">
<ele>14.972</ele>
<time>2018-01-17T07:28:04.822Z</time>
</trkpt>
<trkpt lat="-27.2725699" lon="152.9518389">
<ele>14.724</ele>
<time>2018-01-17T07:28:07.844Z</time>
</trkpt>
<trkpt lat="-27.2729376" lon="152.9516945">
<ele>14.509</ele>
<time>2018-01-17T07:28:10.831Z</time>
</trkpt>
<trkpt lat="-27.2732804" lon="152.9516277">
<ele>13.930</ele>
<time>2018-01-17T07:28:13.695Z</time>
</trkpt>
<trkpt lat="-27.2736001" lon="152.9515562">
<ele>12.633</ele>
<time>2018-01-17T07:28:16.351Z</time>
</trkpt>
<trkpt lat="-27.2739404" lon="152.9512801">
<ele>10.950</ele>
<time>2018-01-17T07:28:19.454Z</time>
</trkpt>
<trkpt lat="-27.2743168" lon="152.9510200">
<ele>9.548</ele>
<time>2018-01-17T07:28:22.489Z</time>
</trkpt>
<trkpt lat="-27.2747360" lon="152.9508435">
<ele>8.585</ele>
<time>2018-01-17T07:28:25.531Z</time>
</trkpt>
<trkpt lat="-27.2751559" lon="152.9506770">
<ele>7.882</ele>
<time>2018-01-17T07:28:28.558Z</time>
</trkpt>
<trkpt lat="-27.2755841" lon="152.9505373">
<ele>7.414</ele>
<time>2018-01-17T07:28:31.574Z</time>
</trkpt>
<trkpt lat="-27.2760050" lon="152.9503976">
<ele>7.298</ele>
<time>2018-01-17T07:28:34.521Z</time>
</trkpt>
<trkpt lat="-27.2764312" lon="152.9502377">
<ele>7.656</ele>
<time>2018-01-17T07:28:37.533Z</time>
</trkpt>
<trkpt lat="-27.2768539" lon="152.9500454">
<ele>8.296</ele>
<time>2018-01-17T07:28:40.588Z</time>
</trkpt>
<trkpt lat="-27.2772562" lon="152.9498368">
<ele>8.837</ele>
<time>2018-01-17T07:28:43.518Z</time>
</trkpt>
<trkpt lat="-27.2776948" lon="152.9496337">
<ele>8.819</ele>
<time>2018-01-17T07:28:46.571Z</time>
</trkpt>
<trkpt lat="-27.2781342" lon="152.9493861">
<ele>8.067</ele>
<time>2018-01-17T07:28:49.615Z</time>
</trkpt>
<trkpt lat="-27.2786206" lon="152.9492059">
<ele>7.010</ele>
<time>2018-01-17T07:28:52.632Z</time>
</trkpt>
<trkpt lat="-27.2791975" lon="152.9491423">
<ele>6.198</ele>
<time>2018-01-17T07:28:55.910Z</time>
</trkpt>
<trkpt lat="-27.2797144" lon="152.9492199">
<ele>5.804</ele>
<time>2018-01-17T07:28:58.868Z</time>
</trkpt>
<trkpt lat="-27.2802153" lon="152.9494065">
<ele>5.855</ele>
<time>2018-01-17T07:29:01.954Z</time>
</trkpt>
<trkpt lat="-27.2806795" lon="152.9495884">
<ele>6.276</ele>
<time>2018-01-17T07:29:04.926Z</time>
</trkpt>
<trkpt lat="-27.2811214" lon="152.9498206">
<ele>6.836</ele>
<time>2018-01-17T07:29:07.887Z</time>
</trkpt>
<trkpt lat="-27.2816051" lon="152.9500396">
<ele>7.268</ele>
<time>2018-01-17T07:29:10.983Z</time>
</trkpt>
<trkpt lat="-27.2820805" lon="152.9502389">
<ele>7.477</ele>
<time>2018-01-17T07:29:13.948Z</time>
</trkpt>
<trkpt lat="-27.2825599" lon="152.9504201">
<ele>7.656</ele>
<time>2018-01-17T07:29:16.881Z</time>
</trkpt>
<trkpt lat="-27.2830468" lon="152.9506056">
<ele>8.200</ele>
<time>2018-01-17T07:29:19.818Z</time>
</trkpt>
<trkpt lat="-27.2835718" lon="152.9507876">
<ele>9.246</ele>
<time>2018-01-17T07:29:22.885Z</time>
</trkpt>
<trkpt lat="-27.2840926" lon="152.9509782">
<ele>10.397</ele>
<time>2018-01-17T07:29:26.001Z</time>
</trkpt>
<trkpt lat="-27.2845466" lon="152.9511394">
<ele>11.189</ele>
<time>2018-01-17T07:29:28.942Z</time>
</trkpt>
<trkpt lat="-27.2849387" lon="152.9512943">
<ele>11.502</ele>
<time>2018-01-17T07:29:31.673Z</time>
</trkpt>
<trkpt lat="-27.2853617" lon="152.9514566">
<ele>11.445</ele>
<time>2018-01-17T07:29:34.646Z</time>
</trkpt>
<trkpt lat="-27.2857981" lon="152.9516027">
<ele>11.206</ele>
<time>2018-01-17T07:29:37.643Z</time>
</trkpt>
<trkpt lat="-27.2862479" lon="152.9517486">
<ele>11.034</ele>
<time>2018-01-17T07:29:40.699Z</time>
</trkpt>
<trkpt lat="-27.2866631" lon="152.9519386">
<ele>11.149</ele>
<time>2018-01-17T07:29:43.624Z</time>
</trkpt>
<trkpt lat="-27.2870897" lon="152.9521280">
<ele>11.575</ele>
<time>2018-01-17T07:29:46.618Z</time>
</trkpt>
<trkpt lat="-27.2875320" lon="152.9523036">
<ele>12.120</ele>
<time>2018-01-17T07:29:49.679Z</time>
</trkpt>
<trkpt lat="-27.2879608" lon="152.9524487">
<ele>12.561</ele>
<time>2018-01-17T07:29:52.694Z</time>
</trkpt>
<trkpt lat="-27.2883081" lon="152.9526090">
<ele>12.806</ele>
<time>2018-01-17T07:29:55.589Z</time>
</trkpt>
<trkpt lat="-27.2885779" lon="152.9527204">
<ele>12.959</ele>
<time>2018-01-17T07:29:58.619Z</time>
</trkpt>
<trkpt lat="-27.2886800" lon="152.9527440">
<ele>13.158</ele>
<time>2018-01-17T07:29:59.998Z</time>
</trkpt>
<trkpt lat="-27.2886800" lon="152.9527440">
<ele>13.325</ele>
<time>2018-01-17T07:30:04.998Z</time>
</trkpt>
<trkpt lat="-27.2886800" lon="152.9527440">
<ele>13.362</ele>
<time>2018-01-17T07:30:11.844Z</time>
</trkpt>
<trkpt lat="-27.2887867" lon="152.9527453">
<ele>13.307</ele>
<time>2018-01-17T07:30:15.819Z</time>
</trkpt>
<trkpt lat="-27.2890740" lon="152.9528382">
<ele>12.896</ele>
<time>2018-01-17T07:30:19.633Z</time>
</trkpt>
<trkpt lat="-27.2893927" lon="152.9529680">
<ele>11.933</ele>
<time>2018-01-17T07:30:22.760Z</time>
</trkpt>
<trkpt lat="-27.2897329" lon="152.9531316">
<ele>10.913</ele>
<time>2018-01-17T07:30:25.718Z</time>
</trkpt>
<trkpt lat="-27.2901196" lon="152.9533017">
<ele>10.373</ele>
<time>2018-01-17T07:30:28.735Z</time>
</trkpt>
<trkpt lat="-27.2905524" lon="152.9534352">
<ele>10.266</ele>
<time>2018-01-17T07:30:31.814Z</time>
</trkpt>
<trkpt lat="-27.2909727" lon="152.9536025">
<ele>10.352</ele>
<time>2018-01-17T07:30:34.797Z</time>
</trkpt>
<trkpt lat="-27.2913888" lon="152.9537634">
<ele>10.731</ele>
<time>2018-01-17T07:30:37.722Z</time>
</trkpt>
<trkpt lat="-27.2918119" lon="152.9539116">
<ele>11.672</ele>
<time>2018-01-17T07:30:40.643Z</time>
</trkpt>
<trkpt lat="-27.2922371" lon="152.9540663">
<ele>12.967</ele>
<time>2018-01-17T07:30:43.550Z</time>
</trkpt>
<trkpt lat="-27.2926771" lon="152.9542727">
<ele>14.047</ele>
<time>2018-01-17T07:30:46.642Z</time>
</trkpt>
<trkpt lat="-27.2930338" lon="152.9545320">
<ele>14.608</ele>
<time>2018-01-17T07:30:49.510Z</time>
</trkpt>
<trkpt lat="-27.2932827" lon="152.9548425">
<ele>14.765</ele>
<time>2018-01-17T07:30:52.367Z</time>
</trkpt>
<trkpt lat="-27.2934574" lon="152.9550884">
<ele>14.886</ele>
<time>2018-01-17T07:30:55.201Z</time>
</trkpt>
<trkpt lat="-27.2935306" lon="152.9552158">
<ele>15.160</ele>
<time>2018-01-17T07:30:56.998Z</time>
</trkpt>
<trkpt lat="-27.2935306" lon="152.9552158">
<ele>15.451</ele>
<time>2018-01-17T07:31:02.998Z</time>
</trkpt>
<trkpt lat="-27.2935306" lon="152.9552158">
<ele>15.583</ele>
<time>2018-01-17T07:31:08.190Z</time>
</trkpt>
<trkpt lat="-27.2936320" lon="152.9554812">
<ele>15.561</ele>
<time>2018-01-17T07:31:13.346Z</time>
</trkpt>
<trkpt lat="-27.2939011" lon="152.9557799">
<ele>15.487</ele>
<time>2018-01-17T07:31:16.689Z</time>
</trkpt>
<trkpt lat="-27.2942146" lon="152.9561688">
<ele>15.342</ele>
<time>2018-01-17T07:31:19.945Z</time>
</trkpt>
<trkpt lat="-27.2945125" lon="152.9565458">
<ele>14.888</ele>
<time>2018-01-17T07:31:22.903Z</time>
</trkpt>
<trkpt lat="-27.2948408" lon="152.9569022">
<ele>13.878</ele>
<time>2018-01-17T07:31:25.904Z</time>
</trkpt>
<trkpt lat="-27.2951696" lon="152.9572284">
<ele>12.567</ele>
<time>2018-01-17T07:31:28.797Z</time>
</trkpt>
<trkpt lat="-27.2955018" lon="152.9575880">
<ele>11.668</ele>
<time>2018-01-17T07:31:31.817Z</time>
</trkpt>
<trkpt lat="-27.2958523" lon="152.9579203">
<ele>11.638</ele>
<time>2018-01-17T07:31:34.764Z</time>
</trkpt>
<trkpt lat="-27.2962574" lon="152.9581903">
<ele>12.494</ele>
<time>2018-01-17T07:31:37.811Z</time>
</trkpt>
<trkpt lat="-27.2966537" lon="152.9583598">
<ele>14.044</ele>
<time>2018-01-17T07:31:40.608Z</time>
</trkpt>
<trkpt lat="-27.2970502" lon="152.9585444">
<ele>15.923</ele>
<time>2018-01-17T07:31:43.353Z</time>
</trkpt>
<trkpt lat="-27.2975308" lon="152.9587793">
<ele>17.712</ele>
<time>2018-01-17T07:31:46.444Z</time>
</trkpt>
<trkpt lat="-27.2980568" lon="152.9590676">
<ele>19.273</ele>
<time>2018-01-17T07:31:49.669Z</time>
</trkpt>
<trkpt lat="-27.2985157" lon="152.9594094">
<ele>20.752</ele>
<time>2018-01-17T07:31:52.628Z</time>
</trkpt>
<trkpt lat="-27.2989598" lon="152.9598236">
<ele>22.103</ele>
<time>2018-01-17T07:31:55.743Z</time>
</trkpt>
<trkpt lat="-27.2993538" lon="152.9602034">
<ele>23.217</ele>
<time>2018-01-17T07:31:58.676Z</time>
</trkpt>
<trkpt lat="-27.2996756" lon="152.9605440">
<ele>24.463</ele>
<time>2018-01-17T07:32:01.524Z</time>
</trkpt>
<trkpt lat="-27.2999174" lon="152.9607663">
<ele>25.934</ele>
<time>2018-01-17T07:32:04.201Z</time>
</trkpt>
<trkpt lat="-27.3000742" lon="152.9607650">
<ele>27.009</ele>
<time>2018-01-17T07:32:05.998Z</time>
</trkpt>
<trkpt lat="-27.3000742" lon="152.9607650">
<ele>27.346</ele>
<time>2018-01-17T07:32:09.998Z</time>
</trkpt>
<trkpt lat="-27.3000742" lon="152.9607650">
<ele>27.254</ele>
<time>2018-01-17T07:32:12.163Z</time>
</trkpt>
<trkpt lat="-27.3002260" lon="152.9608180">
<ele>27.127</ele>
<time>2018-01-17T07:32:15.865Z</time>
</trkpt>
<trkpt lat="-27.3005526" lon="152.9609903">
<ele>27.766</ele>
<time>2018-01-17T07:32:19.412Z</time>
</trkpt>
<trkpt lat="-27.3008401" lon="152.9611010">
<ele>29.532</ele>
<time>2018-01-17T07:32:21.598Z</time>
</trkpt>
<trkpt lat="-27.3013745" lon="152.9612923">
<ele>31.393</ele>
<time>2018-01-17T07:32:25.252Z</time>
</trkpt>
<trkpt lat="-27.3019485" lon="152.9614274">
<ele>32.321</ele>
<time>2018-01-17T07:32:28.726Z</time>
</trkpt>
<trkpt lat="-27.3024489" lon="152.9615599">
<ele>32.427</ele>
<time>2018-01-17T07:32:31.663Z</time>
</trkpt>
<trkpt lat="-27.3029187" lon="152.9617271">
<ele>32.062</ele>
<time>2018-01-17T07:32:34.552Z</time>
</trkpt>
<trkpt lat="-27.3033422" lon="152.9619751">
<ele>31.277</ele>
<time>2018-01-17T07:32:37.335Z</time>
</trkpt>
<trkpt lat="-27.3037222" lon="152.9623514">
<ele>29.983</ele>
<time>2018-01-17T07:32:40.278Z</time>
</trkpt>
<trkpt lat="-27.3040512" lon="152.9627124">
<ele>28.283</ele>
<time>2018-01-17T07:32:43.012Z</time>
</trkpt>
<trkpt lat="-27.3044033" lon="152.9630685">
<ele>26.330</ele>
<time>2018-01-17T07:32:45.897Z</time>
</trkpt>
<trkpt lat="-27.3048150" lon="152.9633114">
<ele>24.227</ele>
<time>2018-01-17T07:32:48.932Z</time>
</trkpt>
<trkpt lat="-27.3051577" lon="152.9634905">
<ele>22.391</ele>
<time>2018-01-17T07:32:51.987Z</time>
</trkpt>
<trkpt lat="-27.3053618" lon="152.9636343">
<ele>21.422</ele>
<time>2018-01-17T07:32:54.541Z</time>
</trkpt>
<trkpt lat="-27.3055240" lon="152.9637863">
<ele>21.414</ele>
<time>2018-01-17T07:32:56.921Z</time>
</trkpt>
<trkpt lat="-27.3058680" lon="152.9637777">
<ele>21.906</ele>
<time>2018-01-17T07:33:00.068Z</time>
</trkpt>
<trkpt lat="-27.3063032" lon="152.9637986">
<ele>22.482</ele>
<time>2018-01-17T07:33:03.094Z</time>
</trkpt>
<trkpt lat="-27.3068056" lon="152.9638324">
<ele>22.951</ele>
<time>2018-01-17T07:33:06.106Z</time>
</trkpt>
<trkpt lat="-27.3073094" lon="152.9638412">
<ele>23.297</ele>
<time>2018-01-17T07:33:08.974Z</time>
</trkpt>
<trkpt lat="-27.3078387" lon="152.9638423">
<ele>23.662</ele>
<time>2018-01-17T07:33:11.924Z</time>
</trkpt>
<trkpt lat="-27.3083655" lon="152.9637478">
<ele>24.255</ele>
<time>2018-01-17T07:33:14.853Z</time>
</trkpt>
<trkpt lat="-27.3088709" lon="152.9636123">
<ele>25.101</ele>
<time>2018-01-17T07:33:17.775Z</time>
</trkpt>
<trkpt lat="-27.3092273" lon="152.9635263">
<ele>26.090</ele>
<time>2018-01-17T07:33:19.998Z</time>
</trkpt>
<trkpt lat="-27.3092273" lon="152.9635263">
<ele>27.004</ele>
<time>2018-01-17T07:33:26.998Z</time>
</trkpt>
<trkpt lat="-27.3092273" lon="152.9635263">
<ele>27.490</ele>
<time>2018-01-17T07:33:45.185Z</time>
</trkpt>
<trkpt lat="-27.3093858" lon="152.9634900">
<ele>27.438</ele>
<time>2018-01-17T07:33:47.669Z</time>
</trkpt>
<trkpt lat="-27.3098346" lon="152.9634177">
<ele>28.799</ele>
<time>2018-01-17T07:33:51.054Z</time>
</trkpt>
<trkpt lat="-27.3104015" lon="152.9633071">
<ele>32.845</ele>
<time>2018-01-17T07:33:54.367Z</time>
</trkpt>
<trkpt lat="-27.3109461" lon="152.9632252">
<ele>36.989</ele>
<time>2018-01-17T07:33:57.363Z</time>
</trkpt>
<trkpt lat="-27.3114787" lon="152.9632088">
<ele>38.401</ele>
<time>2018-01-17T07:34:00.312Z</time>
</trkpt>
<trkpt lat="-27.3120251" lon="152.9632190">
<ele>37.151</ele>
<time>2018-01-17T07:34:03.368Z</time>
</trkpt>
<trkpt lat="-27.3125786" lon="152.9632622">
<ele>34.354</ele>
<time>2018-01-17T07:34:06.460Z</time>
</trkpt>
<trkpt lat="-27.3131183" lon="152.9633099">
<ele>31.147</ele>
<time>2018-01-17T07:34:09.471Z</time>
</trkpt>
<trkpt lat="-27.3136483" lon="152.9634113">
<ele>28.176</ele>
<time>2018-01-17T07:34:12.562Z</time>
</trkpt>
<trkpt lat="-27.3140829" lon="152.9634869">
<ele>25.697</ele>
<time>2018-01-17T07:34:15.513Z</time>
</trkpt>
<trkpt lat="-27.3143820" lon="152.9634790">
<ele>23.959</ele>
<time>2018-01-17T07:34:18.358Z</time>
</trkpt>
<trkpt lat="-27.3145035" lon="152.9635220">
<ele>23.269</ele>
<time>2018-01-17T07:34:19.998Z</time>
</trkpt>
<trkpt lat="-27.3145035" lon="152.9635220">
<ele>23.513</ele>
<time>2018-01-17T07:34:23.998Z</time>
</trkpt>
<trkpt lat="-27.3145035" lon="152.9635220">
<ele>23.916</ele>
<time>2018-01-17T07:35:20.332Z</time>
</trkpt>
<trkpt lat="-27.3147334" lon="152.9635598">
<ele>23.924</ele>
<time>2018-01-17T07:35:25.153Z</time>
</trkpt>
<trkpt lat="-27.3151466" lon="152.9636969">
<ele>25.183</ele>
<time>2018-01-17T07:35:28.707Z</time>
</trkpt>
<trkpt lat="-27.3156668" lon="152.9638174">
<ele>28.922</ele>
<time>2018-01-17T07:35:32.209Z</time>
</trkpt>
<trkpt lat="-27.3162403" lon="152.9639049">
<ele>33.034</ele>
<time>2018-01-17T07:35:35.811Z</time>
</trkpt>
<trkpt lat="-27.3167332" lon="152.9638753">
<ele>35.433</ele>
<time>2018-01-17T07:35:38.652Z</time>
</trkpt>
<trkpt lat="-27.3173032" lon="152.9638552">
<ele>36.428</ele>
<time>2018-01-17T07:35:41.769Z</time>
</trkpt>
<trkpt lat="-27.3178783" lon="152.9638478">
<ele>36.468</ele>
<time>2018-01-17T07:35:44.860Z</time>
</trkpt>
<trkpt lat="-27.3184459" lon="152.9638443">
<ele>35.847</ele>
<time>2018-01-17T07:35:47.907Z</time>
</trkpt>
<trkpt lat="-27.3190050" lon="152.9638257">
<ele>34.785</ele>
<time>2018-01-17T07:35:50.924Z</time>
</trkpt>
<trkpt lat="-27.3195729" lon="152.9638533">
<ele>33.319</ele>
<time>2018-01-17T07:35:53.999Z</time>
</trkpt>
<trkpt lat="-27.3201321" lon="152.9638421">
<ele>31.437</ele>
<time>2018-01-17T07:35:57.034Z</time>
</trkpt>
<trkpt lat="-27.3206711" lon="152.9638130">
<ele>29.121</ele>
<time>2018-01-17T07:36:00.018Z</time>
</trkpt>
<trkpt lat="-27.3211354" lon="152.9637465">
<ele>26.331</ele>
<time>2018-01-17T07:36:02.654Z</time>
</trkpt>
<trkpt lat="-27.3216481" lon="152.9637137">
<ele>22.909</ele>
<time>2018-01-17T07:36:05.559Z</time>
</trkpt>
<trkpt lat="-27.3221996" lon="152.9636578">
<ele>18.598</ele>
<time>2018-01-17T07:36:08.682Z</time>
</trkpt>
<trkpt lat="-27.3227553" lon="152.9636344">
<ele>14.208</ele>
<time>2018-01-17T07:36:11.808Z</time>
</trkpt>
<trkpt lat="-27.3232990" lon="152.9636169">
<ele>11.303</ele>
<time>2018-01-17T07:36:14.919Z</time>
</trkpt>
<trkpt lat="-27.3238030" lon="152.9636211">
<ele>10.628</ele>
<time>2018-01-17T07:36:18.191Z</time>
</trkpt>
<trkpt lat="-27.3242129" lon="152.9637127">
<ele>11.856</ele>
<time>2018-01-17T07:36:22.318Z</time>
</trkpt>
<trkpt lat="-27.3244398" lon="152.9638065">
<ele>14.139</ele>
<time>2018-01-17T07:36:25.738Z</time>
</trkpt>
<trkpt lat="-27.3245742" lon="152.9638608">
<ele>16.470</ele>
<time>2018-01-17T07:36:27.572Z</time>
</trkpt>
<trkpt lat="-27.3247822" lon="152.9637380">
<ele>18.384</ele>
<time>2018-01-17T07:36:29.918Z</time>
</trkpt>
<trkpt lat="-27.3249975" lon="152.9633942">
<ele>20.077</ele>
<time>2018-01-17T07:36:32.504Z</time>
</trkpt>
<trkpt lat="-27.3253240" lon="152.9630223">
<ele>22.067</ele>
<time>2018-01-17T07:36:35.222Z</time>
</trkpt>
<trkpt lat="-27.3258435" lon="152.9627538">
<ele>24.582</ele>
<time>2018-01-17T07:36:38.251Z</time>
</trkpt>
<trkpt lat="-27.3264565" lon="152.9625940">
<ele>27.450</ele>
<time>2018-01-17T07:36:41.390Z</time>
</trkpt>
<trkpt lat="-27.3270684" lon="152.9625048">
<ele>30.076</ele>
<time>2018-01-17T07:36:44.422Z</time>
</trkpt>
<trkpt lat="-27.3276671" lon="152.9624172">
<ele>31.724</ele>
<time>2018-01-17T07:36:47.417Z</time>
</trkpt>
<trkpt lat="-27.3282403" lon="152.9622395">
<ele>31.955</ele>
<time>2018-01-17T07:36:50.428Z</time>
</trkpt>
<trkpt lat="-27.3288096" lon="152.9621167">
<ele>30.773</ele>
<time>2018-01-17T07:36:53.405Z</time>
</trkpt>
<trkpt lat="-27.3293877" lon="152.9619891">
<ele>28.740</ele>
<time>2018-01-17T07:36:56.407Z</time>
</trkpt>
<trkpt lat="-27.3299688" lon="152.9618640">
<ele>26.912</ele>
<time>2018-01-17T07:36:59.374Z</time>
</trkpt>
<trkpt lat="-27.3305613" lon="152.9618203">
<ele>25.776</ele>
<time>2018-01-17T07:37:02.326Z</time>
</trkpt>
<trkpt lat="-27.3311524" lon="152.9617096">
<ele>25.034</ele>
<time>2018-01-17T07:37:05.308Z</time>
</trkpt>
<trkpt lat="-27.3317319" lon="152.9615980">
<ele>24.309</ele>
<time>2018-01-17T07:37:08.258Z</time>
</trkpt>
<trkpt lat="-27.3322997" lon="152.9614969">
<ele>23.291</ele>
<time>2018-01-17T07:37:11.172Z</time>
</trkpt>
<trkpt lat="-27.3328750" lon="152.9614141">
<ele>22.006</ele>
<time>2018-01-17T07:37:14.129Z</time>
</trkpt>
<trkpt lat="-27.3334545" lon="152.9613986">
<ele>21.000</ele>
<time>2018-01-17T07:37:17.093Z</time>
</trkpt>
<trkpt lat="-27.3340161" lon="152.9613683">
<ele>20.729</ele>
<time>2018-01-17T07:37:19.966Z</time>
</trkpt>
<trkpt lat="-27.3345957" lon="152.9612490">
<ele>21.379</ele>
<time>2018-01-17T07:37:23.035Z</time>
</trkpt>
<trkpt lat="-27.3351491" lon="152.9611615">
<ele>22.793</ele>
<time>2018-01-17T07:37:26.043Z</time>
</trkpt>
<trkpt lat="-27.3356784" lon="152.9610511">
<ele>24.404</ele>
<time>2018-01-17T07:37:28.992Z</time>
</trkpt>
<trkpt lat="-27.3361938" lon="152.9608910">
<ele>25.716</ele>
<time>2018-01-17T07:37:31.961Z</time>
</trkpt>
<trkpt lat="-27.3366972" lon="152.9607934">
<ele>26.485</ele>
<time>2018-01-17T07:37:34.841Z</time>
</trkpt>
<trkpt lat="-27.3372226" lon="152.9607183">
<ele>26.558</ele>
<time>2018-01-17T07:37:37.858Z</time>
</trkpt>
<trkpt lat="-27.3377372" lon="152.9606721">
<ele>26.034</ele>
<time>2018-01-17T07:37:40.798Z</time>
</trkpt>
<trkpt lat="-27.3382693" lon="152.9606276">
<ele>25.252</ele>
<time>2018-01-17T07:37:43.806Z</time>
</trkpt>
<trkpt lat="-27.3388295" lon="152.9606067">
<ele>24.594</ele>
<time>2018-01-17T07:37:46.936Z</time>
</trkpt>
<trkpt lat="-27.3393598" lon="152.9607719">
<ele>24.060</ele>
<time>2018-01-17T07:37:49.995Z</time>
</trkpt>
<trkpt lat="-27.3398937" lon="152.9609467">
<ele>23.068</ele>
<time>2018-01-17T07:37:53.060Z</time>
</trkpt>
<trkpt lat="-27.3404362" lon="152.9610604">
<ele>21.097</ele>
<time>2018-01-17T07:37:56.088Z</time>
</trkpt>
<trkpt lat="-27.3409702" lon="152.9611046">
<ele>18.419</ele>
<time>2018-01-17T07:37:59.034Z</time>
</trkpt>
<trkpt lat="-27.3414978" lon="152.9611573">
<ele>15.690</ele>
<time>2018-01-17T07:38:01.968Z</time>
</trkpt>
<trkpt lat="-27.3420118" lon="152.9612020">
<ele>13.455</ele>
<time>2018-01-17T07:38:04.843Z</time>
</trkpt>
<trkpt lat="-27.3425410" lon="152.9612468">
<ele>11.962</ele>
<time>2018-01-17T07:38:07.808Z</time>
</trkpt>
<trkpt lat="-27.3430659" lon="152.9612810">
<ele>11.088</ele>
<time>2018-01-17T07:38:10.755Z</time>
</trkpt>
<trkpt lat="-27.3435915" lon="152.9613828">
<ele>10.613</ele>
<time>2018-01-17T07:38:13.777Z</time>
</trkpt>
<trkpt lat="-27.3440579" lon="152.9616106">
<ele>10.418</ele>
<time>2018-01-17T07:38:16.833Z</time>
</trkpt>
<trkpt lat="-27.3444274" lon="152.9618791">
<ele>10.506</ele>
<time>2018-01-17T07:38:19.754Z</time>
</trkpt>
<trkpt lat="-27.3447605" lon="152.9621781">
<ele>10.948</ele>
<time>2018-01-17T07:38:22.859Z</time>
</trkpt>
<trkpt lat="-27.3450204" lon="152.9624418">
<ele>11.621</ele>
<time>2018-01-17T07:38:25.820Z</time>
</trkpt>
<trkpt lat="-27.3452096" lon="152.9626564">
<ele>12.438</ele>
<time>2018-01-17T07:38:28.953Z</time>
</trkpt>
<trkpt lat="-27.3452595" lon="152.9627761">
<ele>13.703</ele>
<time>2018-01-17T07:38:30.880Z</time>
</trkpt>
<trkpt lat="-27.3453435" lon="152.9628637">
<ele>15.781</ele>
<time>2018-01-17T07:38:33.280Z</time>
</trkpt>
<trkpt lat="-27.3454235" lon="152.9629520">
<ele>18.487</ele>
<time>2018-01-17T07:38:35.840Z</time>
</trkpt>
<trkpt lat="-27.3455098" lon="152.9630647">
<ele>21.133</ele>
<time>2018-01-17T07:38:38.960Z</time>
</trkpt>
<trkpt lat="-27.3455668" lon="152.9631869">
<ele>23.057</ele>
<time>2018-01-17T07:38:41.998Z</time>
</trkpt>
<trkpt lat="-27.3455668" lon="152.9631869">
<ele>24.018</ele>
<time>2018-01-17T07:38:45.998Z</time>
</trkpt>
<trkpt lat="-27.3455668" lon="152.9631869">
<ele>24.228</ele>
<time>2018-01-17T07:40:54.379Z</time>
</trkpt>
<trkpt lat="-27.3457094" lon="152.9632713">
<ele>24.125</ele>
<time>2018-01-17T07:40:59.094Z</time>
</trkpt>
<trkpt lat="-27.3459579" lon="152.9630870">
<ele>24.953</ele>
<time>2018-01-17T07:41:02.440Z</time>
</trkpt>
<trkpt lat="-27.3462576" lon="152.9627941">
<ele>27.363</ele>
<time>2018-01-17T07:41:05.798Z</time>
</trkpt>
<trkpt lat="-27.3465634" lon="152.9625132">
<ele>29.823</ele>
<time>2018-01-17T07:41:08.851Z</time>
</trkpt>
<trkpt lat="-27.3468700" lon="152.9622297">
<ele>30.818</ele>
<time>2018-01-17T07:41:11.863Z</time>
</trkpt>
<trkpt lat="-27.3471747" lon="152.9619438">
<ele>30.655</ele>
<time>2018-01-17T07:41:14.892Z</time>
</trkpt>
<trkpt lat="-27.3474781" lon="152.9616688">
<ele>30.043</ele>
<time>2018-01-17T07:41:17.912Z</time>
</trkpt>
<trkpt lat="-27.3477350" lon="152.9613435">
<ele>29.390</ele>
<time>2018-01-17T07:41:20.916Z</time>
</trkpt>
<trkpt lat="-27.3479321" lon="152.9609544">
<ele>28.813</ele>
<time>2018-01-17T07:41:23.963Z</time>
</trkpt>
<trkpt lat="-27.3480567" lon="152.9605223">
<ele>28.296</ele>
<time>2018-01-17T07:41:27.012Z</time>
</trkpt>
<trkpt lat="-27.3480889" lon="152.9600685">
<ele>27.767</ele>
<time>2018-01-17T07:41:30.053Z</time>
</trkpt>
<trkpt lat="-27.3480330" lon="152.9596209">
<ele>27.222</ele>
<time>2018-01-17T07:41:33.120Z</time>
</trkpt>
<trkpt lat="-27.3479738" lon="152.9591978">
<ele>26.746</ele>
<time>2018-01-17T07:41:36.086Z</time>
</trkpt>
<trkpt lat="-27.3479115" lon="152.9587732">
<ele>26.370</ele>
<time>2018-01-17T07:41:39.094Z</time>
</trkpt>
<trkpt lat="-27.3478345" lon="152.9583548">
<ele>26.019</ele>
<time>2018-01-17T07:41:42.095Z</time>
</trkpt>
<trkpt lat="-27.3477674" lon="152.9579360">
<ele>25.594</ele>
<time>2018-01-17T07:41:45.088Z</time>
</trkpt>
<trkpt lat="-27.3478119" lon="152.9575131">
<ele>25.062</ele>
<time>2018-01-17T07:41:48.075Z</time>
</trkpt>
<trkpt lat="-27.3479392" lon="152.9571096">
<ele>24.496</ele>
<time>2018-01-17T07:41:51.044Z</time>
</trkpt>
<trkpt lat="-27.3481711" lon="152.9567560">
<ele>24.067</ele>
<time>2018-01-17T07:41:54.050Z</time>
</trkpt>
<trkpt lat="-27.3484616" lon="152.9564616">
<ele>23.866</ele>
<time>2018-01-17T07:41:57.026Z</time>
</trkpt>
<trkpt lat="-27.3487573" lon="152.9561673">
<ele>23.843</ele>
<time>2018-01-17T07:42:00.002Z</time>
</trkpt>
<trkpt lat="-27.3490384" lon="152.9558444">
<ele>23.898</ele>
<time>2018-01-17T07:42:03.015Z</time>
</trkpt>
<trkpt lat="-27.3493850" lon="152.9556234">
<ele>24.012</ele>
<time>2018-01-17T07:42:06.016Z</time>
</trkpt>
<trkpt lat="-27.3497527" lon="152.9554635">
<ele>24.223</ele>
<time>2018-01-17T07:42:09.046Z</time>
</trkpt>
<trkpt lat="-27.3501040" lon="152.9553238">
<ele>24.556</ele>
<time>2018-01-17T07:42:11.981Z</time>
</trkpt>
<trkpt lat="-27.3504600" lon="152.9551845">
<ele>25.001</ele>
<time>2018-01-17T07:42:14.973Z</time>
</trkpt>
<trkpt lat="-27.3508145" lon="152.9550505">
<ele>25.469</ele>
<time>2018-01-17T07:42:17.935Z</time>
</trkpt>
<trkpt lat="-27.3511759" lon="152.9549116">
<ele>25.821</ele>
<time>2018-01-17T07:42:20.936Z</time>
</trkpt>
<trkpt lat="-27.3515376" lon="152.9547607">
<ele>26.015</ele>
<time>2018-01-17T07:42:23.900Z</time>
</trkpt>
<trkpt lat="-27.3519254" lon="152.9546223">
<ele>26.081</ele>
<time>2018-01-17T07:42:26.944Z</time>
</trkpt>
<trkpt lat="-27.3523103" lon="152.9544719">
<ele>26.074</ele>
<time>2018-01-17T07:42:30.016Z</time>
</trkpt>
<trkpt lat="-27.3526782" lon="152.9543345">
<ele>26.076</ele>
<time>2018-01-17T07:42:33.196Z</time>
</trkpt>
<trkpt lat="-27.3529906" lon="152.9542548">
<ele>26.175</ele>
<time>2018-01-17T07:42:36.020Z</time>
</trkpt>
<trkpt lat="-27.3533287" lon="152.9542720">
<ele>26.368</ele>
<time>2018-01-17T07:42:38.900Z</time>
</trkpt>
<trkpt lat="-27.3537012" lon="152.9543556">
<ele>26.545</ele>
<time>2018-01-17T07:42:41.990Z</time>
</trkpt>
<trkpt lat="-27.3540347" lon="152.9545331">
<ele>26.632</ele>
<time>2018-01-17T07:42:44.992Z</time>
</trkpt>
<trkpt lat="-27.3543223" lon="152.9547855">
<ele>26.657</ele>
<time>2018-01-17T07:42:48.104Z</time>
</trkpt>
<trkpt lat="-27.3545453" lon="152.9550508">
<ele>26.743</ele>
<time>2018-01-17T07:42:51.104Z</time>
</trkpt>
<trkpt lat="-27.3546956" lon="152.9553455">
<ele>26.985</ele>
<time>2018-01-17T07:42:54.054Z</time>
</trkpt>
<trkpt lat="-27.3548260" lon="152.9556502">
<ele>27.285</ele>
<time>2018-01-17T07:42:57.122Z</time>
</trkpt>
<trkpt lat="-27.3548936" lon="152.9559557">
<ele>27.425</ele>
<time>2018-01-17T07:43:00.244Z</time>
</trkpt>
<trkpt lat="-27.3549009" lon="152.9562351">
<ele>27.319</ele>
<time>2018-01-17T07:43:03.342Z</time>
</trkpt>
<trkpt lat="-27.3549039" lon="152.9564847">
<ele>27.091</ele>
<time>2018-01-17T07:43:06.349Z</time>
</trkpt>
<trkpt lat="-27.3548989" lon="152.9567206">
<ele>26.934</ele>
<time>2018-01-17T07:43:09.487Z</time>
</trkpt>
<trkpt lat="-27.3549061" lon="152.9569182">
<ele>26.902</ele>
<time>2018-01-17T07:43:12.684Z</time>
</trkpt>
<trkpt lat="-27.3549145" lon="152.9570685">
<ele>26.858</ele>
<time>2018-01-17T07:43:15.723Z</time>
</trkpt>
<trkpt lat="-27.3549153" lon="152.9571964">
<ele>26.640</ele>
<time>2018-01-17T07:43:18.633Z</time>
</trkpt>
<trkpt lat="-27.3548909" lon="152.9573247">
<ele>26.284</ele>
<time>2018-01-17T07:43:21.856Z</time>
</trkpt>
<trkpt lat="-27.3549639" lon="152.9574027">
<ele>25.948</ele>
<time>2018-01-17T07:43:24.591Z</time>
</trkpt>
<trkpt lat="-27.3550632" lon="152.9573344">
<ele>25.701</ele>
<time>2018-01-17T07:43:27.328Z</time>
</trkpt>
<trkpt lat="-27.3551997" lon="152.9572693">
<ele>25.445</ele>
<time>2018-01-17T07:43:30.289Z</time>
</trkpt>
<trkpt lat="-27.3553739" lon="152.9572502">
<ele>25.088</ele>
<time>2018-01-17T07:43:33.274Z</time>
</trkpt>
<trkpt lat="-27.3555705" lon="152.9571973">
<ele>24.728</ele>
<time>2018-01-17T07:43:36.371Z</time>
</trkpt>
<trkpt lat="-27.3557666" lon="152.9571188">
<ele>24.483</ele>
<time>2018-01-17T07:43:39.526Z</time>
</trkpt>
<trkpt lat="-27.3559450" lon="152.9570559">
<ele>24.361</ele>
<time>2018-01-17T07:43:42.149Z</time>
</trkpt>
<trkpt lat="-27.3561486" lon="152.9569139">
<ele>24.263</ele>
<time>2018-01-17T07:43:44.921Z</time>
</trkpt>
<trkpt lat="-27.3564192" lon="152.9567152">
<ele>23.997</ele>
<time>2018-01-17T07:43:48.334Z</time>
</trkpt>
<trkpt lat="-27.3566336" lon="152.9565656">
<ele>23.476</ele>
<time>2018-01-17T07:43:51.782Z</time>
</trkpt>
<trkpt lat="-27.3567502" lon="152.9564908">
<ele>22.885</ele>
<time>2018-01-17T07:43:55.099Z</time>
</trkpt>
<trkpt lat="-27.3568463" lon="152.9564988">
<ele>22.487</ele>
<time>2018-01-17T07:43:58.525Z</time>
</trkpt>
<trkpt lat="-27.3568992" lon="152.9565876">
<ele>22.302</ele>
<time>2018-01-17T07:44:03.246Z</time>
</trkpt>
<trkpt lat="-27.3569381" lon="152.9566860">
<ele>22.191</ele>
<time>2018-01-17T07:44:07.998Z</time>
</trkpt>
<trkpt lat="-27.3569381" lon="152.9566860">
<ele>22.122</ele>
<time>2018-01-17T07:44:14.998Z</time>
</trkpt>
</trkseg>
</trk>
<extensions>
<fpdata xmlns="http://www.motionx.com/GPX-Extensions/1/1" sfv="10" origin="MotionXGPSFull 24.2 Build 5063R64">
<bin enc="base64">
RgIAAAACAAAApE9HeKuX1kEBAAAAxuAb9r+X1kEAAHh0BcXTQNgKAADMx9kAaKapu3H8
N0DWvCiTHR82QAAAAAAUAAAATXlzdGVyeSBUcmlhbCBzb3V0aAAVAAAAMTcgSmFuIDIw
MTggMTE6NTggYW0AAAAAAOzgG/a/l9ZBPbjRDMCX1kHwVYUAM4AKbyYIhkAsAAAAAgAA
AMwZTHjeHmNA7AkWa2JYO8Bopqm7cfw3QAAAAAAAABhAAAAAAAAACEAAAAAAAAqrQAAA
AAAAAAAAAAAAAAAAAAAAHHJAQpyUNLHbOkABAAAAQ3i8ZU+OWz8BAAAAAQAAAC8FIf5C
8+w/aKaHXEWrwr8BAAAAAQAAAAEAAABopqm7cfw3QAAAAAAAAAAAAAAAAAAAAAAAAAAA
AAAAAAAAAAAMAAAAAAAAAAAAAACwAAAAGOS/s7+X1kEAAAAAAAAAAAAAAAAAAAAA/yVE
vAIAAAAAAAAAAAAAAAEAAAAnAAAAMjQuMiBCdWlsZCA1MDYzUjY0LCBNWEFFIDguMSBi
LiA2MjZSNjQAAAAAABliAAABAAAAARUAAADhrV5az/5eWgS6UEd4q5fWQbpQR3irl9ZB
AAAAAAAIET8AAAAAA1t5knmrl9ZBW3mSeauX1kEAAADomrIUQAAAAAABsU9HeKuX1kFH
HS/CtpfWQQAALJvPk8ZAAAAAAAQSa0rFtpfWQRJrSsW2l9ZBAAAVpL+WxkAAAAAAAqZm
0sO2l9ZBbCcNW7eX1kEAALgcRcLHQAAAAAACyt7QXLeX1kGGPY2RuZfWQQAAMNq9K8xA
AAAAAAJMx46WuZfWQXr6jQa6l9ZBAACMQLwLzUAAAAAAAvnZEAi6l9ZByhZNtLqX1kEA
AC66NGTOQAAAAAAC0HsOurqX1kF4C44uvJfWQQAAv+yZptBAAAAAAAI098owvJfWQYqS
UYK8l9ZBAAAViCD40EAAAAAAArx0Dom8l9ZBlNkMlbyX1kEAAO3sHgTRQAAAAAAC5gcS
qbyX1kGO4wzhvJfWQQAAlcgZPNFAAAAAAAJ81Q/ovJfWQdoEEmi9l9ZBAADz9xu80UAA
AAAAAma90Gy9l9ZBLnVOmL6X1kEAALuvmefSQAAAAAACKGFSm76X1kFHH07fvpfWQQAA
2m2VK9NAAAAAAAJcrs7hvpfWQTgszu2+l9ZBAAC265Q300AAAAAAAlg5EvC+l9ZB1/qN
/r6X1kEAADWtEEbTQAAAAAACtJTO/76X1kFTsM0Rv5fWQQAA1MgPWNNAAAAAAAIpzc8W
v5fWQf5GDSC/l9ZBAACpQk1h00AAAAAAAh7cDy+/l9ZBb4KNYb+X1kEAAProypPTQAAA
AAACVYiSgr+X1kHTE82zv5fWQQAAeHQFxdNAAAAAAAAAAAA=
</bin>
</fpdata>
</extensions>
</gpx>